BCO-DMO ERDDAP
Accessing BCO-DMO data
log in    
Brought to you by BCO-DMO    
 
 
CruiseId time latitude longitude SOG COG
text UTC degrees_north degrees_east meters/sec decimal degrees
TN303 2013-10-25T11:52:59.00Z -0.932537 -80.720447 0.0 0.0
TN303 2013-10-25T11:54:00.00Z -0.932535 -80.720443 0.0 0.0
TN303 2013-10-25T11:55:00.00Z -0.932538 -80.720445 0.0 0.0
TN303 2013-10-25T11:56:00.00Z -0.932535 -80.720445 0.0 0.0
TN303 2013-10-25T11:57:00.00Z -0.932533 -80.720448 0.0 0.0
TN303 2013-10-25T11:57:59.00Z -0.932533 -80.720448 0.0 0.0
TN303 2013-10-25T11:58:59.00Z -0.932537 -80.720443 0.16 314.812
TN303 2013-10-25T12:00:00.00Z -0.932535 -80.720455 0.0 0.0
TN303 2013-10-25T12:00:59.00Z -0.932533 -80.720462 0.0 0.0
TN303 2013-10-25T12:02:00.00Z -0.932533 -80.720452 0.0 0.0
TN303 2013-10-25T12:03:00.00Z -0.932532 -80.720455 0.0 0.0
TN303 2013-10-25T12:03:59.00Z -0.932535 -80.720452 0.0 0.0
TN303 2013-10-25T12:05:00.00Z -0.932533 -80.72045 0.06 0.0
TN303 2013-10-25T12:06:00.00Z -0.932535 -80.720455 0.11 0.0
TN303 2013-10-25T12:06:59.00Z -0.932537 -80.720448 0.11 0.0
TN303 2013-10-25T12:07:59.00Z -0.932532 -80.720455 0.06 180.0
TN303 2013-10-25T12:09:00.00Z -0.932537 -80.720448 0.06 180.0
TN303 2013-10-25T12:10:00.00Z -0.932537 -80.720448 0.0 0.0
TN303 2013-10-25T12:11:00.00Z -0.932537 -80.720453 0.0 0.0
TN303 2013-10-25T12:11:59.00Z -0.932537 -80.720447 0.06 270.0
TN303 2013-10-25T12:12:59.00Z -0.93254 -80.720445 0.16 314.812
TN303 2013-10-25T12:13:59.00Z -0.932537 -80.720448 0.06 90.0
TN303 2013-10-25T12:14:59.00Z -0.932538 -80.720452 0.08 314.812
TN303 2013-10-25T12:16:00.00Z -0.932537 -80.720443 0.0 0.0
TN303 2013-10-25T12:17:00.00Z -0.932538 -80.720453 0.0 0.0
TN303 2013-10-25T12:18:00.00Z -0.932535 -80.72045 0.11 90.0
TN303 2013-10-25T12:18:59.00Z -0.93254 -80.720447 0.0 0.0
TN303 2013-10-25T12:19:59.00Z -0.932533 -80.720448 0.0 0.0
TN303 2013-10-25T12:20:59.00Z -0.93254 -80.720452 0.11 90.0
TN303 2013-10-25T12:21:59.00Z -0.932538 -80.720447 0.11 180.0
TN303 2013-10-25T12:23:00.00Z -0.93254 -80.720445 0.11 270.0
TN303 2013-10-25T12:24:00.00Z -0.932537 -80.720453 0.0 0.0
TN303 2013-10-25T12:25:00.00Z -0.93254 -80.720445 0.0 0.0
TN303 2013-10-25T12:26:00.00Z -0.932533 -80.720452 0.0 0.0
TN303 2013-10-25T12:27:00.00Z -0.932538 -80.720447 0.12 206.716
TN303 2013-10-25T12:28:00.00Z -0.932533 -80.720445 0.11 180.0
TN303 2013-10-25T12:29:00.00Z -0.932537 -80.720447 0.0 0.0
TN303 2013-10-25T12:30:00.00Z -0.932535 -80.720443 0.0 0.0
TN303 2013-10-25T12:31:00.00Z -0.93253 -80.720443 0.11 0.0
TN303 2013-10-25T12:31:59.00Z -0.932533 -80.720447 0.0 0.0
TN303 2013-10-25T12:32:59.00Z -0.932533 -80.720445 0.11 270.0
TN303 2013-10-25T12:34:00.00Z -0.93253 -80.720445 0.11 90.0
TN303 2013-10-25T12:35:00.00Z -0.932532 -80.720448 0.06 180.0
TN303 2013-10-25T12:36:00.00Z -0.932535 -80.72044 0.11 270.0
TN303 2013-10-25T12:36:59.00Z -0.932537 -80.72044 0.11 90.0
TN303 2013-10-25T12:37:59.00Z -0.932537 -80.720448 0.0 0.0
TN303 2013-10-25T12:38:59.00Z -0.932537 -80.720438 0.0 0.0
TN303 2013-10-25T12:40:00.00Z -0.932535 -80.720447 0.16 45.188
TN303 2013-10-25T12:40:59.00Z -0.932537 -80.720445 0.0 0.0
TN303 2013-10-25T12:42:00.00Z -0.932537 -80.720443 0.06 180.0
TN303 2013-10-25T12:42:59.00Z -0.932533 -80.720443 0.0 0.0
TN303 2013-10-25T12:43:59.00Z -0.932538 -80.720443 0.0 0.0
TN303 2013-10-25T12:45:00.00Z -0.932533 -80.720442 0.06 0.0
TN303 2013-10-25T12:45:59.00Z -0.93254 -80.720447 0.0 0.0
TN303 2013-10-25T12:46:59.00Z -0.932537 -80.72044 0.11 0.0
TN303 2013-10-25T12:48:00.00Z -0.932533 -80.720448 0.0 0.0
TN303 2013-10-25T12:49:00.00Z -0.932537 -80.720438 0.11 0.0
TN303 2013-10-25T12:49:59.00Z -0.932535 -80.720445 0.0 0.0
TN303 2013-10-25T12:50:59.00Z -0.932533 -80.720438 0.11 180.0
TN303 2013-10-25T12:51:59.00Z -0.932533 -80.720443 0.06 90.0
TN303 2013-10-25T12:52:59.00Z -0.932532 -80.720445 0.11 0.0
TN303 2013-10-25T12:53:59.00Z -0.932537 -80.720437 0.0 0.0
TN303 2013-10-25T12:54:59.00Z -0.932533 -80.720442 0.12 63.585
TN303 2013-10-25T12:55:59.00Z -0.93253 -80.720448 0.11 180.0
TN303 2013-10-25T12:57:00.00Z -0.932535 -80.72044 0.11 270.0
TN303 2013-10-25T12:58:00.00Z -0.932535 -80.720443 0.0 0.0
TN303 2013-10-25T12:59:00.00Z -0.932537 -80.72044 0.0 0.0
TN303 2013-10-25T13:00:00.00Z -0.932533 -80.720448 0.0 0.0
TN303 2013-10-25T13:00:59.00Z -0.932535 -80.72044 0.0 0.0
TN303 2013-10-25T13:02:00.00Z -0.932532 -80.720447 0.0 0.0
TN303 2013-10-25T13:03:00.00Z -0.932535 -80.72044 0.0 0.0
TN303 2013-10-25T13:03:59.00Z -0.932535 -80.720447 0.12 333.284
TN303 2013-10-25T13:05:00.00Z -0.932532 -80.720442 0.11 0.0
TN303 2013-10-25T13:06:00.00Z -0.93253 -80.720448 0.0 0.0
TN303 2013-10-25T13:06:59.00Z -0.932533 -80.720447 0.0 0.0
TN303 2013-10-25T13:07:59.00Z -0.93253 -80.720443 0.0 0.0
TN303 2013-10-25T13:09:00.00Z -0.932533 -80.72044 0.0 0.0
TN303 2013-10-25T13:10:00.00Z -0.932533 -80.720448 0.11 180.0
TN303 2013-10-25T13:11:00.00Z -0.932538 -80.720443 0.11 270.0
TN303 2013-10-25T13:11:59.00Z -0.932533 -80.72045 0.11 270.0
TN303 2013-10-25T13:12:59.00Z -0.932537 -80.720445 0.0 0.0
TN303 2013-10-25T13:13:59.00Z -0.932533 -80.720443 0.11 180.0
TN303 2013-10-25T13:14:59.00Z -0.93253 -80.720448 0.16 225.188
TN303 2013-10-25T13:16:00.00Z -0.932532 -80.720445 0.0 0.0
TN303 2013-10-25T13:17:00.00Z -0.932535 -80.720445 0.16 314.812
TN303 2013-10-25T13:18:00.00Z -0.932537 -80.720442 0.11 0.0
TN303 2013-10-25T13:19:00.00Z -0.932537 -80.720447 0.06 180.0
TN303 2013-10-25T13:19:59.00Z -0.932535 -80.720448 0.11 0.0
TN303 2013-10-25T13:21:00.00Z -0.932533 -80.720448 0.0 0.0
TN303 2013-10-25T13:21:59.00Z -0.932535 -80.720448 0.0 0.0
TN303 2013-10-25T13:23:00.00Z -0.932535 -80.720452 0.0 0.0
TN303 2013-10-25T13:23:59.00Z -0.932533 -80.720443 0.0 0.0
TN303 2013-10-25T13:24:59.00Z -0.932535 -80.720448 0.11 270.0
TN303 2013-10-25T13:26:00.00Z -0.93253 -80.720447 0.0 0.0
TN303 2013-10-25T13:27:00.00Z -0.932533 -80.720452 0.12 63.585
TN303 2013-10-25T13:27:59.00Z -0.932535 -80.720443 0.11 0.0
TN303 2013-10-25T13:29:00.00Z -0.932537 -80.720438 0.06 180.0
TN303 2013-10-25T13:30:00.00Z -0.932533 -80.720452 0.16 134.812
TN303 2013-10-25T13:31:00.00Z -0.932532 -80.720447 0.0 0.0
TN303 2013-10-25T13:32:00.00Z -0.932538 -80.720448 0.0 0.0
TN303 2013-10-25T13:32:59.00Z -0.932532 -80.720448 0.0 0.0
TN303 2013-10-25T13:34:00.00Z -0.932537 -80.720443 0.06 90.0
TN303 2013-10-25T13:35:00.00Z -0.932532 -80.720448 0.11 0.0
TN303 2013-10-25T13:36:00.00Z -0.932533 -80.720447 0.0 0.0
TN303 2013-10-25T13:36:59.00Z -0.932535 -80.720443 0.11 270.0
TN303 2013-10-25T13:38:00.00Z -0.932532 -80.720445 0.0 0.0
TN303 2013-10-25T13:39:00.00Z -0.932533 -80.720447 0.06 0.0
TN303 2013-10-25T13:39:59.00Z -0.932533 -80.72045 0.12 63.585
TN303 2013-10-25T13:40:59.00Z -0.932537 -80.72045 0.0 0.0
TN303 2013-10-25T13:41:59.00Z -0.932535 -80.720445 0.11 180.0
TN303 2013-10-25T13:43:00.00Z -0.932533 -80.720445 0.11 180.0
TN303 2013-10-25T13:44:00.00Z -0.932532 -80.720443 0.0 0.0
TN303 2013-10-25T13:44:59.00Z -0.93253 -80.72045 0.0 0.0
TN303 2013-10-25T13:45:59.00Z -0.932533 -80.720447 0.0 0.0
TN303 2013-10-25T13:46:59.00Z -0.932535 -80.720445 0.11 180.0
TN303 2013-10-25T13:48:00.00Z -0.932535 -80.720448 0.0 0.0
TN303 2013-10-25T13:49:00.00Z -0.93253 -80.720445 0.0 0.0
TN303 2013-10-25T13:49:59.00Z -0.932533 -80.720445 0.06 0.0
TN303 2013-10-25T13:50:59.00Z -0.932535 -80.72045 0.0 0.0
TN303 2013-10-25T13:52:00.00Z -0.932528 -80.720452 0.0 0.0
TN303 2013-10-25T13:52:59.00Z -0.932533 -80.720445 0.0 0.0
TN303 2013-10-25T13:53:59.00Z -0.932533 -80.720443 0.06 0.0
TN303 2013-10-25T13:55:00.00Z -0.932532 -80.720448 0.0 0.0
TN303 2013-10-25T13:55:59.00Z -0.932533 -80.720452 0.0 0.0
TN303 2013-10-25T13:57:00.00Z -0.932532 -80.720443 0.11 270.0
TN303 2013-10-25T13:57:59.00Z -0.93253 -80.720448 0.11 0.0
TN303 2013-10-25T13:59:00.00Z -0.932535 -80.720448 0.0 0.0
TN303 2013-10-25T13:59:59.00Z -0.932533 -80.72045 0.0 0.0
TN303 2013-10-25T14:01:00.00Z -0.932537 -80.720452 0.0 0.0
TN303 2013-10-25T14:01:59.00Z -0.932535 -80.720447 0.16 45.188
TN303 2013-10-25T14:03:00.00Z -0.932533 -80.720448 0.12 296.415
TN303 2013-10-25T14:03:59.00Z -0.932535 -80.720438 0.16 314.812
TN303 2013-10-25T14:05:00.00Z -0.932535 -80.720448 0.0 0.0
TN303 2013-10-25T14:06:00.00Z -0.932535 -80.720448 0.0 0.0
TN303 2013-10-25T14:06:59.00Z -0.932533 -80.720442 0.06 270.0
TN303 2013-10-25T14:08:00.00Z -0.932537 -80.720447 0.0 0.0
TN303 2013-10-25T14:09:00.00Z -0.932537 -80.720442 0.11 90.0
TN303 2013-10-25T14:10:00.00Z -0.932537 -80.72045 0.12 243.585
TN303 2013-10-25T14:10:59.00Z -0.932537 -80.720443 0.0 0.0
TN303 2013-10-25T14:11:59.00Z -0.932533 -80.72044 0.11 180.0
TN303 2013-10-25T14:13:00.00Z -0.93253 -80.720447 0.11 180.0
TN303 2013-10-25T14:13:59.00Z -0.932537 -80.720437 0.06 270.0
TN303 2013-10-25T14:15:00.00Z -0.932537 -80.720447 0.0 0.0
TN303 2013-10-25T14:15:59.00Z -0.932538 -80.72044 0.0 0.0
TN303 2013-10-25T14:17:00.00Z -0.93254 -80.720448 0.11 0.0
TN303 2013-10-25T14:18:00.00Z -0.932525 -80.720447 0.11 0.0
TN303 2013-10-25T14:18:59.00Z -0.932445 -80.720375 0.42 66.938
TN303 2013-10-25T14:19:59.00Z -0.932295 -80.720033 0.63 74.84
TN303 2013-10-25T14:21:00.00Z -0.932227 -80.719712 0.58 106.596
TN303 2013-10-25T14:22:00.00Z -0.932338 -80.71943 0.46 103.948
TN303 2013-10-25T14:22:59.00Z -0.93231 -80.719255 0.55 45.189
TN303 2013-10-25T14:23:59.00Z -0.931892 -80.719037 1.21 24.369
TN303 2013-10-25T14:24:59.00Z -0.931212 -80.718793 1.42 13.582
TN303 2013-10-25T14:26:00.00Z -0.93044 -80.7186 1.49 21.932
TN303 2013-10-25T14:26:59.00Z -0.92967 -80.718338 1.56 16.607
TN303 2013-10-25T14:27:59.00Z -0.928843 -80.718095 1.5 17.209
TN303 2013-10-25T14:29:00.00Z -0.927873 -80.717898 2.01 7.959
TN303 2013-10-25T14:30:00.00Z -0.926647 -80.717765 2.5 6.382
TN303 2013-10-25T14:31:00.00Z -0.925168 -80.717607 3.22 4.959
TN303 2013-10-25T14:32:00.00Z -0.923272 -80.717575 3.82 358.329
TN303 2013-10-25T14:33:00.00Z -0.92137 -80.718343 3.93 318.246
TN303 2013-10-25T14:33:59.00Z -0.91983 -80.71989 4.47 314.811
TN303 2013-10-25T14:35:00.00Z -0.917928 -80.721712 5.22 317.825
TN303 2013-10-25T14:35:59.00Z -0.91568 -80.72378 6.16 317.365
TN303 2013-10-25T14:37:00.00Z -0.913053 -80.726155 6.75 317.475
TN303 2013-10-25T14:38:00.00Z -0.910303 -80.728627 6.84 318.758
TN303 2013-10-25T14:38:59.00Z -0.907573 -80.73108 6.99 318.67
TN303 2013-10-25T14:40:00.00Z -0.904722 -80.733613 6.96 319.014
TN303 2013-10-25T14:40:59.00Z -0.901948 -80.736017 6.84 318.758
TN303 2013-10-25T14:41:59.00Z -0.899137 -80.738477 6.84 319.414
TN303 2013-10-25T14:42:59.00Z -0.896315 -80.740932 6.81 320.427
TN303 2013-10-25T14:43:59.00Z -0.893517 -80.743393 6.92 318.713
TN303 2013-10-25T14:45:00.00Z -0.89062 -80.745852 6.92 319.361
TN303 2013-10-25T14:46:00.00Z -0.887812 -80.748315 6.96 319.014
TN303 2013-10-25T14:47:00.00Z -0.885 -80.75075 6.75 314.811
TN303 2013-10-25T14:47:59.00Z -0.883337 -80.75383 6.58 278.214
TN303 2013-10-25T14:49:00.00Z -0.883455 -80.75751 6.9 270.0
TN303 2013-10-25T14:49:59.00Z -0.882705 -80.761042 6.88 287.302
TN303 2013-10-25T14:50:59.00Z -0.88175 -80.76464 6.88 279.25
TN303 2013-10-25T14:51:59.00Z -0.881153 -80.768328 6.98 274.996
TN303 2013-10-25T14:52:59.00Z -0.880803 -80.772067 6.77 276.092
TN303 2013-10-25T14:53:59.00Z -0.880358 -80.77581 6.87 275.077
TN303 2013-10-25T14:55:00.00Z -0.879953 -80.779598 6.95 276.853
TN303 2013-10-25T14:56:00.00Z -0.87957 -80.783327 6.91 277.818
TN303 2013-10-25T14:57:00.00Z -0.87916 -80.787043 6.99 275.899
TN303 2013-10-25T14:58:00.00Z -0.878838 -80.790757 6.46 270.981
TN303 2013-10-25T14:58:59.00Z -0.878743 -80.794405 6.96 272.276
TN303 2013-10-25T14:59:59.00Z -0.878625 -80.798128 6.9 270.0
TN303 2013-10-25T15:01:00.00Z -0.878537 -80.801898 6.79 270.933
TN303 2013-10-25T15:02:00.00Z -0.878445 -80.805575 6.79 270.933
TN303 2013-10-25T15:03:00.00Z -0.87829 -80.809262 6.8 272.797
TN303 2013-10-25T15:04:00.00Z -0.878268 -80.812937 6.81 265.345
TN303 2013-10-25T15:05:00.00Z -0.8786 -80.81659 6.71 264.327
TN303 2013-10-25T15:06:00.00Z -0.878917 -80.820218 6.69 266.211
TN303 2013-10-25T15:07:02.00Z -0.879207 -80.82395 6.7 265.268
TN303 2013-10-25T15:07:59.00Z -0.87953 -80.827377 6.75 261.525
TN303 2013-10-25T15:09:00.00Z -0.88011 -80.830918 7.1 264.638
TN303 2013-10-25T15:09:59.00Z -0.88046 -80.834568 6.69 261.923
TN303 2013-10-25T15:10:59.00Z -0.880915 -80.838123 6.67 262.862
TN303 2013-10-25T15:11:58.00Z -0.881363 -80.841628 6.58 264.212
TN303 2013-10-25T15:13:00.00Z -0.881822 -80.845238 6.44 263.593
TN303 2013-10-25T15:13:59.00Z -0.882277 -80.848633 6.45 259.63
TN303 2013-10-25T15:14:59.00Z -0.88278 -80.852032 6.36 261.5
TN303 2013-10-25T15:15:59.00Z -0.883203 -80.855385 6.15 264.84
TN303 2013-10-25T15:16:59.00Z -0.88363 -80.858728 6.16 263.815
TN303 2013-10-25T15:18:02.00Z -0.884025 -80.862342 6.51 262.68
TN303 2013-10-25T15:18:59.00Z -0.884478 -80.86534 6.17 262.794
TN303 2013-10-25T15:19:59.00Z -0.884858 -80.868628 6.12 262.729
TN303 2013-10-25T15:21:00.00Z -0.885268 -80.871983 6.15 264.84
TN303 2013-10-25T15:22:06.00Z -0.885722 -80.875698 6.16 263.815
TN303 2013-10-25T15:23:00.00Z -0.885995 -80.878558 6.24 267.461
TN303 2013-10-25T15:23:59.00Z -0.886258 -80.881795 6.05 259.996
TN303 2013-10-25T15:24:59.00Z -0.886965 -80.885162 4.86 260.17
TN303 2013-10-25T15:25:59.00Z -0.887758 -80.888192 5.99 248.329
TN303 2013-10-25T15:26:59.00Z -0.88914 -80.89114 6.04 244.525
TN303 2013-10-25T15:28:00.00Z -0.890807 -80.893992 6.03 239.112
TN303 2013-10-25T15:28:59.00Z -0.892535 -80.89668 5.93 234.703
TN303 2013-10-25T15:29:59.00Z -0.894307 -80.899392 6.09 238.219
TN303 2013-10-25T15:31:00.00Z -0.89611 -80.902147 6.01 236.484
TN303 2013-10-25T15:32:00.00Z -0.897847 -80.904878 6.19 237.621
TN303 2013-10-25T15:32:59.00Z -0.89957 -80.907528 5.9 237.081
TN303 2013-10-25T15:34:00.00Z -0.901323 -80.91029 6.01 238.388
TN303 2013-10-25T15:34:59.00Z -0.902583 -80.913193 6.01 254.517
TN303 2013-10-25T15:35:59.00Z -0.903037 -80.916408 6.07 267.391
TN303 2013-10-25T15:37:00.00Z -0.90332 -80.91974 5.99 263.643
TN303 2013-10-25T15:37:59.00Z -0.903632 -80.922958 6.15 264.327
TN303 2013-10-25T15:38:59.00Z -0.903872 -80.926205 6.13 267.415
TN303 2013-10-25T15:40:00.00Z -0.903992 -80.929475 5.96 268.405
TN303 2013-10-25T15:41:00.00Z -0.904135 -80.932672 6.12 268.448
TN303 2013-10-25T15:42:00.00Z -0.904263 -80.935915 6.29 267.986
TN303 2013-10-25T15:43:00.00Z -0.9044 -80.93925 6.57 270.965
TN303 2013-10-25T15:43:59.00Z -0.904557 -80.942543 6.4 270.99
TN303 2013-10-25T15:44:59.00Z -0.904687 -80.945913 6.41 267.527
TN303 2013-10-25T15:45:59.00Z -0.904835 -80.949265 6.13 267.415
TN303 2013-10-25T15:46:59.00Z -0.904983 -80.952613 6.4 270.495
TN303 2013-10-25T15:48:00.00Z -0.905117 -80.956027 6.3 266.981
TN303 2013-10-25T15:49:00.00Z -0.905252 -80.95941 6.31 264.976
TN303 2013-10-25T15:49:59.00Z -0.905415 -80.962737 6.46 270.0
TN303 2013-10-25T15:51:00.00Z -0.90559 -80.96617 6.3 266.478
TN303 2013-10-25T15:51:59.00Z -0.905732 -80.96951 6.29 268.489
TN303 2013-10-25T15:52:59.00Z -0.905877 -80.97292 6.13 267.415
TN303 2013-10-25T15:53:59.00Z -0.905998 -80.97633 6.25 265.436
TN303 2013-10-25T15:54:59.00Z -0.90613 -80.979745 6.41 266.54
TN303 2013-10-25T15:56:00.00Z -0.906298 -80.9832 6.4 270.0
TN303 2013-10-25T15:56:59.00Z -0.906438 -80.98654 6.24 267.461
TN303 2013-10-25T15:58:00.00Z -0.906585 -80.989995 6.25 266.447
TN303 2013-10-25T15:59:00.00Z -0.906698 -80.993402 6.01 268.946
TN303 2013-10-25T15:59:59.00Z -0.906812 -80.996747 6.4 269.505
TN303 2013-10-25T16:01:00.00Z -0.90696 -81.000212 6.18 267.438
TN303 2013-10-25T16:02:00.00Z -0.907118 -81.003613 6.53 265.63
TN303 2013-10-25T16:03:00.00Z -0.90731 -81.007018 6.4 268.515
TN303 2013-10-25T16:04:00.00Z -0.907467 -81.01042 6.29 268.489
TN303 2013-10-25T16:05:00.00Z -0.907608 -81.013837 6.24 267.968
TN303 2013-10-25T16:05:59.00Z -0.907728 -81.017195 6.25 266.447
TN303 2013-10-25T16:06:59.00Z -0.907907 -81.020603 6.52 267.084
TN303 2013-10-25T16:08:00.00Z -0.90813 -81.024053 6.41 267.527
TN303 2013-10-25T16:09:00.00Z -0.908353 -81.027453 6.24 267.461
TN303 2013-10-25T16:10:00.00Z -0.90861 -81.03084 6.3 266.478
TN303 2013-10-25T16:11:00.00Z -0.908843 -81.034233 6.36 265.516
TN303 2013-10-25T16:11:59.00Z -0.909075 -81.03758 6.51 270.0
TN303 2013-10-25T16:12:59.00Z -0.909293 -81.041 6.58 266.627
TN303 2013-10-25T16:14:00.00Z -0.909553 -81.044468 6.24 267.461
TN303 2013-10-25T16:15:00.00Z -0.909843 -81.047863 6.24 267.461
TN303 2013-10-25T16:15:59.00Z -0.910102 -81.051207 6.19 265.905
TN303 2013-10-25T16:17:00.00Z -0.910378 -81.054655 6.36 266.012
TN303 2013-10-25T16:17:59.00Z -0.91062 -81.05801 6.3 265.977
TN303 2013-10-25T16:19:00.00Z -0.910842 -81.061478 6.63 267.133
TN303 2013-10-25T16:19:59.00Z -0.911047 -81.064843 6.37 265.02
TN303 2013-10-25T16:20:59.00Z -0.911287 -81.06828 6.31 264.976
TN303 2013-10-25T16:21:59.00Z -0.911548 -81.07171 6.31 264.976
TN303 2013-10-25T16:22:59.00Z -0.9118 -81.075142 6.32 263.978
TN303 2013-10-25T16:23:59.00Z -0.912072 -81.07857 6.52 267.569
TN303 2013-10-25T16:24:59.00Z -0.912293 -81.082013 6.53 265.63
TN303 2013-10-25T16:26:00.00Z -0.912547 -81.085527 6.15 264.839
TN303 2013-10-25T16:26:59.00Z -0.912775 -81.088905 6.16 263.815
TN303 2013-10-25T16:28:00.00Z -0.913087 -81.092383 6.36 266.012
TN303 2013-10-25T16:29:00.00Z -0.913332 -81.095818 6.54 264.664
TN303 2013-10-25T16:29:59.00Z -0.913645 -81.099198 6.43 264.082
TN303 2013-10-25T16:30:56.00Z -0.913892 -81.10247 6.38 265.278
TN303 2013-10-25T16:31:59.00Z -0.914123 -81.106085 6.52 266.599
TN303 2013-10-25T16:32:59.00Z -0.914303 -81.109535 6.58 266.627
TN303 2013-10-25T16:33:59.00Z -0.914487 -81.112992 6.41 267.033
TN303 2013-10-25T16:35:00.00Z -0.914642 -81.116512 6.69 267.156
TN303 2013-10-25T16:36:00.00Z -0.914723 -81.119995 6.41 267.527
TN303 2013-10-25T16:36:59.00Z -0.914802 -81.123407 6.42 266.047
TN303 2013-10-25T16:38:00.00Z -0.914895 -81.126932 6.72 263.389
TN303 2013-10-25T16:39:00.00Z -0.915157 -81.130333 6.26 264.427
TN303 2013-10-25T16:40:00.00Z -0.915455 -81.133738 6.41 266.54
TN303 2013-10-25T16:40:59.00Z -0.915715 -81.137093 6.63 267.61
TN303 2013-10-25T16:41:59.00Z -0.916003 -81.140505 6.41 266.54
TN303 2013-10-25T16:43:00.00Z -0.916278 -81.143982 6.49 264.132
TN303 2013-10-25T16:43:59.00Z -0.91657 -81.147352 6.21 263.87
TN303 2013-10-25T16:45:00.00Z -0.9169 -81.150845 6.55 264.182
TN303 2013-10-25T16:46:00.00Z -0.917222 -81.154277 6.33 263.48
TN303 2013-10-25T16:47:00.00Z -0.917513 -81.157715 6.57 267.59
TN303 2013-10-25T16:48:00.00Z -0.91782 -81.161172 6.58 266.627
TN303 2013-10-25T16:49:00.00Z -0.9181 -81.16464 6.42 265.063
TN303 2013-10-25T16:49:59.00Z -0.918387 -81.16805 6.41 267.033
TN303 2013-10-25T16:51:00.00Z -0.918677 -81.171558 6.59 265.188
TN303 2013-10-25T16:52:00.00Z -0.918963 -81.175013 6.63 266.656
TN303 2013-10-25T16:53:00.00Z -0.91928 -81.178475 6.41 267.527
TN303 2013-10-25T16:54:00.00Z -0.919572 -81.181937 6.3 265.977
TN303 2013-10-25T16:55:00.00Z -0.919865 -81.185388 6.55 264.182
TN303 2013-10-25T16:55:59.00Z -0.920165 -81.188795 6.55 264.182
TN303 2013-10-25T16:56:59.00Z -0.920465 -81.192267 6.43 264.082
TN303 2013-10-25T16:58:00.00Z -0.920775 -81.19579 6.55 263.701
TN303 2013-10-25T16:58:59.00Z -0.921073 -81.199187 6.45 262.617
TN303 2013-10-25T16:59:59.00Z -0.921353 -81.20264 6.42 265.554
TN303 2013-10-25T17:00:59.00Z -0.921575 -81.206087 6.41 266.54
TN303 2013-10-25T17:01:59.00Z -0.921818 -81.209527 6.31 264.976
TN303 2013-10-25T17:03:00.00Z -0.92206 -81.213028 6.58 267.108
TN303 2013-10-25T17:04:00.00Z -0.922285 -81.216485 6.23 270.0
TN303 2013-10-25T17:05:00.00Z -0.922497 -81.21993 6.42 266.047
TN303 2013-10-25T17:05:59.00Z -0.922683 -81.22333 6.59 265.667
TN303 2013-10-25T17:06:59.00Z -0.922885 -81.2268 6.4 269.01
TN303 2013-10-25T17:08:00.00Z -0.923118 -81.230328 6.41 267.527
TN303 2013-10-25T17:09:00.00Z -0.92332 -81.233792 6.41 266.54
TN303 2013-10-25T17:09:59.00Z -0.92355 -81.237195 6.29 267.483
TN303 2013-10-25T17:10:59.00Z -0.923805 -81.240652 6.41 266.54
TN303 2013-10-25T17:11:59.00Z -0.924065 -81.24412 6.53 266.114
TN303 2013-10-25T17:12:59.00Z -0.924342 -81.247583 6.26 264.931
TN303 2013-10-25T17:14:00.00Z -0.92461 -81.251113 6.52 267.569
TN303 2013-10-25T17:15:00.00Z -0.924877 -81.254585 6.38 264.03
TN303 2013-10-25T17:16:00.00Z -0.925125 -81.258068 6.64 266.179
TN303 2013-10-25T17:16:59.00Z -0.925357 -81.261488 6.54 264.664
TN303 2013-10-25T17:18:00.00Z -0.925622 -81.26499 6.23 269.492
TN303 2013-10-25T17:19:00.00Z -0.925822 -81.267995 5.29 271.198
TN303 2013-10-25T17:20:00.00Z -0.926027 -81.27059 4.74 266.656
TN303 2013-10-25T17:21:00.00Z -0.926168 -81.273045 4.58 265.153
TN303 2013-10-25T17:22:00.00Z -0.926302 -81.275473 4.49 262.921
TN303 2013-10-25T17:23:00.00Z -0.926457 -81.278077 5.19 265.116
TN303 2013-10-25T17:23:59.00Z -0.926645 -81.281052 6.03 265.791
TN303 2013-10-25T17:25:00.00Z -0.926873 -81.28446 6.29 267.483
TN303 2013-10-25T17:25:59.00Z -0.927062 -81.287825 6.42 266.047
TN303 2013-10-25T17:27:00.00Z -0.927292 -81.291307 6.42 265.063
TN303 2013-10-25T17:27:59.00Z -0.927515 -81.294678 6.36 266.509
TN303 2013-10-25T17:29:00.00Z -0.927745 -81.298168 6.37 265.02
TN303 2013-10-25T17:29:59.00Z -0.927968 -81.30155 6.02 266.316
TN303 2013-10-25T17:30:59.00Z -0.928172 -81.304985 6.3 266.981
TN303 2013-10-25T17:31:59.00Z -0.928422 -81.308422 6.73 269.53
TN303 2013-10-25T17:32:59.00Z -0.928602 -81.311857 6.29 267.483
TN303 2013-10-25T17:33:59.00Z -0.928575 -81.315293 6.53 273.886
TN303 2013-10-25T17:35:00.00Z -0.928442 -81.318797 6.13 272.069
TN303 2013-10-25T17:35:59.00Z -0.928302 -81.322187 6.29 272.014
TN303 2013-10-25T17:37:00.00Z -0.928205 -81.325683 6.51 271.459
TN303 2013-10-25T17:38:00.00Z -0.928083 -81.329135 6.4 270.0
TN303 2013-10-25T17:38:59.00Z -0.927963 -81.332537 6.58 273.853
TN303 2013-10-25T17:39:59.00Z -0.927875 -81.335992 6.42 273.953
TN303 2013-10-25T17:41:00.00Z -0.927777 -81.339498 6.34 269.501
TN303 2013-10-25T17:41:59.00Z -0.927705 -81.34289 6.29 271.007
TN303 2013-10-25T17:43:00.00Z -0.9276 -81.346388 6.37 274.98
TN303 2013-10-25T17:43:59.00Z -0.927517 -81.349773 6.35 270.998
TN303 2013-10-25T17:45:00.00Z -0.927467 -81.353282 6.2 274.605
TN303 2013-10-25T17:46:00.00Z -0.927373 -81.356732 6.46 271.472
TN303 2013-10-25T17:47:00.00Z -0.9273 -81.360165 6.29 272.517
TN303 2013-10-25T17:48:00.00Z -0.927248 -81.363603 6.41 272.967
TN303 2013-10-25T17:49:00.00Z -0.927182 -81.36705 6.51 270.973
TN303 2013-10-25T17:49:59.00Z -0.927145 -81.370443 6.4 270.99
TN303 2013-10-25T17:51:00.00Z -0.927078 -81.373947 6.68 270.0
TN303 2013-10-25T17:51:59.00Z -0.927028 -81.37733 6.4 271.485
TN303 2013-10-25T17:52:59.00Z -0.926958 -81.380773 6.4 269.01
TN303 2013-10-25T17:53:59.00Z -0.926903 -81.384217 6.29 270.0
TN303 2013-10-25T17:55:00.00Z -0.926882 -81.387707 6.29 272.517
TN303 2013-10-25T17:56:00.00Z -0.926845 -81.391135 6.53 273.886
TN303 2013-10-25T17:56:59.00Z -0.926775 -81.394513 6.35 272.495
TN303 2013-10-25T17:58:00.00Z -0.926725 -81.398007 6.01 268.419
TN303 2013-10-25T17:59:00.00Z -0.926657 -81.401413 6.23 271.016
TN303 2013-10-25T17:59:59.00Z -0.926565 -81.404758 6.35 271.498
TN303 2013-10-25T18:00:59.00Z -0.926458 -81.408143 6.35 269.002
TN303 2013-10-25T18:01:59.00Z -0.92637 -81.411528 6.34 270.0
TN303 2013-10-25T18:03:00.00Z -0.926333 -81.414965 6.25 274.059
TN303 2013-10-25T18:03:59.00Z -0.92623 -81.418282 6.19 274.095
TN303 2013-10-25T18:05:00.00Z -0.926088 -81.421722 6.42 274.937
TN303 2013-10-25T18:06:00.00Z -0.925975 -81.425117 5.91 273.218
TN303 2013-10-25T18:06:59.00Z -0.925877 -81.428448 6.4 270.99
TN303 2013-10-25T18:08:00.00Z -0.92578 -81.431912 6.46 268.528
TN303 2013-10-25T18:09:00.00Z -0.925713 -81.435307 6.24 267.968
TN303 2013-10-25T18:10:00.00Z -0.92561 -81.438692 6.19 274.095
TN303 2013-10-25T18:11:00.00Z -0.925497 -81.442072 6.13 272.586
TN303 2013-10-25T18:12:00.00Z -0.925358 -81.44546 6.3 273.019
TN303 2013-10-25T18:12:59.00Z -0.92526 -81.448787 6.57 270.965
TN303 2013-10-25T18:13:59.00Z -0.925142 -81.452178 6.35 268.502
TN303 2013-10-25T18:14:59.00Z -0.924997 -81.455567 6.3 273.522
TN303 2013-10-25T18:15:59.00Z -0.924868 -81.45895 6.4 271.485
TN303 2013-10-25T18:17:00.00Z -0.924758 -81.462405 6.29 272.517
TN303 2013-10-25T18:17:59.00Z -0.924662 -81.46575 6.25 274.564
TN303 2013-10-25T18:19:00.00Z -0.924557 -81.4692 6.4 270.0
TN303 2013-10-25T18:20:00.00Z -0.924448 -81.472578 6.35 268.004
TN303 2013-10-25T18:20:59.00Z -0.924345 -81.475908 6.14 274.132
TN303 2013-10-25T18:21:59.00Z -0.92424 -81.479307 6.41 273.46
TN303 2013-10-25T18:22:59.00Z -0.924158 -81.482715 6.42 273.953
TN303 2013-10-25T18:24:00.00Z -0.92408 -81.486178 6.23 271.016
TN303 2013-10-25T18:24:59.00Z -0.923975 -81.489513 6.24 268.476
TN303 2013-10-25T18:26:00.00Z -0.923917 -81.492965 6.3 273.522
TN303 2013-10-25T18:27:00.00Z -0.923807 -81.496382 6.29 267.483
TN303 2013-10-25T18:27:59.00Z -0.923698 -81.499755 6.29 272.517
TN303 2013-10-25T18:29:00.00Z -0.923585 -81.503237 6.46 272.942
TN303 2013-10-25T18:29:59.00Z -0.923488 -81.506608 6.34 270.499
TN303 2013-10-25T18:31:00.00Z -0.923388 -81.510087 6.29 271.511
TN303 2013-10-25T18:32:00.00Z -0.923297 -81.51351 6.24 268.476
TN303 2013-10-25T18:33:00.00Z -0.923193 -81.516922 6.18 271.538
TN303 2013-10-25T18:34:00.00Z -0.923122 -81.519985 5.01 272.528
TN303 2013-10-25T18:35:00.00Z -0.923017 -81.52246 4.19 275.297
TN303 2013-10-25T18:35:59.00Z -0.923045 -81.524263 2.81 262.082
TN303 2013-10-25T18:37:00.00Z -0.923207 -81.525742 2.28 270.0
TN303 2013-10-25T18:38:00.00Z -0.923495 -81.526907 1.39 246.639
TN303 2013-10-25T18:38:59.00Z -0.924105 -81.52743 1.42 210.745
TN303 2013-10-25T18:40:00.00Z -0.924683 -81.527562 0.85 191.383
TN303 2013-10-25T18:41:00.00Z -0.92505 -81.527565 0.55 180.0
TN303 2013-10-25T18:42:00.00Z -0.925273 -81.527518 0.3 201.932
TN303 2013-10-25T18:42:58.00Z -0.925393 -81.527448 0.06 153.284
TN303 2013-10-25T18:44:00.00Z -0.92542 -81.527373 0.12 26.716
TN303 2013-10-25T18:44:59.00Z -0.925377 -81.527392 0.11 0.0
TN303 2013-10-25T18:46:00.00Z -0.925372 -81.527435 0.06 180.0
TN303 2013-10-25T18:47:00.00Z -0.92539 -81.527435 0.17 90.0
TN303 2013-10-25T18:48:00.00Z -0.925408 -81.527412 0.0 0.0
TN303 2013-10-25T18:48:59.00Z -0.925403 -81.527408 0.0 0.0
TN303 2013-10-25T18:50:00.00Z -0.925418 -81.5274 0.16 225.188
TN303 2013-10-25T18:51:00.00Z -0.925437 -81.5274 0.31 314.812
TN303 2013-10-25T18:51:59.00Z -0.925437 -81.527398 0.17 90.0
TN303 2013-10-25T18:53:00.00Z -0.925427 -81.52739 0.06 180.0
TN303 2013-10-25T18:53:59.00Z -0.925425 -81.527397 0.11 180.0
TN303 2013-10-25T18:55:00.00Z -0.92543 -81.5274 0.17 180.0
TN303 2013-10-25T18:56:00.00Z -0.925428 -81.527407 0.08 314.812
TN303 2013-10-25T18:56:59.00Z -0.925415 -81.527412 0.35 38.844
TN303 2013-10-25T18:58:00.00Z -0.925402 -81.527407 0.06 270.0
TN303 2013-10-25T18:59:00.00Z -0.92541 -81.527408 0.22 180.0
TN303 2013-10-25T19:00:00.00Z -0.92543 -81.527412 0.0 0.0
TN303 2013-10-25T19:00:59.00Z -0.925422 -81.527418 0.12 243.585
TN303 2013-10-25T19:02:00.00Z -0.925408 -81.527415 0.16 134.812
TN303 2013-10-25T19:02:59.00Z -0.925403 -81.527407 0.25 153.284
TN303 2013-10-25T19:03:59.00Z -0.925425 -81.52741 0.28 90.0
TN303 2013-10-25T19:04:59.00Z -0.925443 -81.527415 0.12 296.415
TN303 2013-10-25T19:06:00.00Z -0.925427 -81.527413 0.25 333.284
TN303 2013-10-25T19:07:00.00Z -0.92542 -81.5274 0.17 180.0
TN303 2013-10-25T19:07:59.00Z -0.92543 -81.527403 0.06 90.0
TN303 2013-10-25T19:08:59.00Z -0.925433 -81.5274 0.25 206.716
TN303 2013-10-25T19:10:00.00Z -0.925432 -81.527397 0.11 90.0
TN303 2013-10-25T19:10:59.00Z -0.925425 -81.52739 0.11 180.0
TN303 2013-10-25T19:12:00.00Z -0.925423 -81.527393 0.22 270.0
TN303 2013-10-25T19:13:00.00Z -0.925427 -81.527407 0.06 180.0
TN303 2013-10-25T19:14:00.00Z -0.925435 -81.527412 0.11 90.0
TN303 2013-10-25T19:15:00.00Z -0.925435 -81.527408 0.0 0.0
TN303 2013-10-25T19:15:59.00Z -0.925428 -81.5274 0.17 0.0
TN303 2013-10-25T19:17:00.00Z -0.925417 -81.527397 0.0 0.0
TN303 2013-10-25T19:17:59.00Z -0.925425 -81.527405 0.2 213.864
TN303 2013-10-25T19:19:00.00Z -0.925435 -81.527408 0.22 270.0
TN303 2013-10-25T19:19:59.00Z -0.925428 -81.527408 0.11 180.0
TN303 2013-10-25T19:21:00.00Z -0.925423 -81.527393 0.22 180.0
TN303 2013-10-25T19:21:59.00Z -0.925435 -81.527395 0.11 0.0
TN303 2013-10-25T19:22:59.00Z -0.925447 -81.527397 0.11 90.0
TN303 2013-10-25T19:23:59.00Z -0.925437 -81.527387 0.17 270.0
TN303 2013-10-25T19:25:00.00Z -0.92542 -81.52738 0.0 0.0
TN303 2013-10-25T19:26:00.00Z -0.925432 -81.527387 0.06 180.0
TN303 2013-10-25T19:27:00.00Z -0.925462 -81.527395 0.0 0.0
TN303 2013-10-25T19:27:59.00Z -0.925457 -81.527395 0.16 314.812
TN303 2013-10-25T19:28:59.00Z -0.92543 -81.527393 0.2 326.136
TN303 2013-10-25T19:30:00.00Z -0.925415 -81.527387 0.11 270.0
TN303 2013-10-25T19:30:59.00Z -0.925425 -81.527398 0.06 90.0
TN303 2013-10-25T19:32:00.00Z -0.925432 -81.527412 0.08 225.188
TN303 2013-10-25T19:33:00.00Z -0.925422 -81.527415 0.11 270.0
TN303 2013-10-25T19:34:00.00Z -0.925418 -81.527417 0.06 0.0
TN303 2013-10-25T19:35:00.00Z -0.925423 -81.527398 0.18 71.678
TN303 2013-10-25T19:36:00.00Z -0.925428 -81.527397 0.12 63.585
TN303 2013-10-25T19:37:00.00Z -0.925432 -81.527403 0.0 0.0
TN303 2013-10-25T19:37:59.00Z -0.925427 -81.527405 0.06 180.0
TN303 2013-10-25T19:38:59.00Z -0.925415 -81.527398 0.11 270.0
TN303 2013-10-25T19:39:59.00Z -0.925417 -81.527393 0.11 270.0
TN303 2013-10-25T19:40:59.00Z -0.925442 -81.527408 0.06 90.0
TN303 2013-10-25T19:41:59.00Z -0.925452 -81.527398 0.16 314.812
TN303 2013-10-25T19:43:00.00Z -0.925435 -81.527402 0.22 0.0
TN303 2013-10-25T19:44:00.00Z -0.92542 -81.527407 0.16 134.812
TN303 2013-10-25T19:44:59.00Z -0.925422 -81.527415 0.0 0.0
TN303 2013-10-25T19:45:59.00Z -0.92544 -81.527415 0.16 134.812
TN303 2013-10-25T19:47:00.00Z -0.92544 -81.527408 0.22 180.0
TN303 2013-10-25T19:48:00.00Z -0.925428 -81.527402 0.28 180.0
TN303 2013-10-25T19:49:00.00Z -0.92542 -81.527393 0.24 45.188
TN303 2013-10-25T19:49:59.00Z -0.925423 -81.527398 0.3 111.672
TN303 2013-10-25T19:51:00.00Z -0.92543 -81.527403 0.22 180.0
TN303 2013-10-25T19:52:00.00Z -0.925428 -81.527413 0.11 180.0
TN303 2013-10-25T19:52:59.00Z -0.925433 -81.527405 0.18 71.678
TN303 2013-10-25T19:53:59.00Z -0.925435 -81.527397 0.12 333.284
TN303 2013-10-25T19:55:00.00Z -0.925428 -81.5274 0.12 63.585
TN303 2013-10-25T19:56:00.00Z -0.925418 -81.527405 0.4 33.864
TN303 2013-10-25T19:57:00.00Z -0.92543 -81.527405 0.28 270.0
TN303 2013-10-25T19:58:00.00Z -0.925437 -81.527405 0.11 0.0
TN303 2013-10-25T19:59:00.00Z -0.925438 -81.527403 0.28 78.762
TN303 2013-10-25T20:00:00.00Z -0.925432 -81.527393 0.0 0.0
TN303 2013-10-25T20:01:00.00Z -0.925433 -81.527398 0.08 45.188
TN303 2013-10-25T20:01:59.00Z -0.925437 -81.527402 0.0 0.0
TN303 2013-10-25T20:02:59.00Z -0.925438 -81.527403 0.17 90.0
TN303 2013-10-25T20:03:59.00Z -0.925437 -81.527408 0.0 0.0
TN303 2013-10-25T20:05:00.00Z -0.925433 -81.527407 0.11 90.0
TN303 2013-10-25T20:06:00.00Z -0.925425 -81.527403 0.24 45.188
TN303 2013-10-25T20:07:00.00Z -0.925423 -81.527392 0.06 270.0
TN303 2013-10-25T20:08:00.00Z -0.925433 -81.527392 0.06 0.0
TN303 2013-10-25T20:09:00.00Z -0.92544 -81.527398 0.11 180.0
TN303 2013-10-25T20:10:00.00Z -0.925433 -81.527392 0.17 0.0
TN303 2013-10-25T20:10:59.00Z -0.925412 -81.527397 0.16 45.188
TN303 2013-10-25T20:11:59.00Z -0.925413 -81.527393 0.23 165.875
TN303 2013-10-25T20:12:59.00Z -0.925443 -81.527407 0.2 236.484
TN303 2013-10-25T20:14:00.00Z -0.925445 -81.52741 0.16 225.188
TN303 2013-10-25T20:15:00.00Z -0.92543 -81.52739 1.91 154.031
TN303 2013-10-25T20:16:00.00Z -0.925342 -81.527402 0.16 45.188
TN303 2013-10-25T20:17:00.00Z -0.925482 -81.527295 0.2 56.484
TN303 2013-10-25T20:18:00.00Z -0.925418 -81.527397 0.28 0.0
TN303 2013-10-25T20:19:00.00Z -0.925437 -81.527415 0.0 0.0
TN303 2013-10-25T20:20:00.00Z -0.925447 -81.527422 0.0 0.0
TN303 2013-10-25T20:20:59.00Z -0.925443 -81.527413 0.12 296.415
TN303 2013-10-25T20:21:59.00Z -0.92542 -81.5274 0.16 225.188
TN303 2013-10-25T20:23:00.00Z -0.925423 -81.5274 0.11 180.0
TN303 2013-10-25T20:23:59.00Z -0.925442 -81.52741 0.12 116.415
TN303 2013-10-25T20:25:00.00Z -0.925442 -81.527405 0.22 90.0
TN303 2013-10-25T20:26:00.00Z -0.92542 -81.527393 0.16 225.188
TN303 2013-10-25T20:26:59.00Z -0.925422 -81.527398 0.2 56.484
TN303 2013-10-25T20:28:00.00Z -0.92542 -81.527405 0.17 180.0
TN303 2013-10-25T20:29:00.00Z -0.925437 -81.527412 0.06 180.0
TN303 2013-10-25T20:30:00.00Z -0.925437 -81.527413 0.24 134.812
TN303 2013-10-25T20:30:59.00Z -0.92544 -81.527402 0.11 180.0
TN303 2013-10-25T20:31:59.00Z -0.925427 -81.527392 0.18 251.678
TN303 2013-10-25T20:32:59.00Z -0.925407 -81.527388 0.18 108.322
TN303 2013-10-25T20:34:00.00Z -0.925418 -81.527395 0.0 0.0
TN303 2013-10-25T20:34:59.00Z -0.925435 -81.527408 0.17 90.0
TN303 2013-10-25T20:36:00.00Z -0.92544 -81.527407 0.2 33.864
TN303 2013-10-25T20:36:59.00Z -0.925427 -81.527402 0.22 0.0
TN303 2013-10-25T20:38:00.00Z -0.925425 -81.527408 0.06 90.0
TN303 2013-10-25T20:39:00.00Z -0.92544 -81.527417 0.22 180.0
TN303 2013-10-25T20:40:00.00Z -0.925442 -81.527407 0.17 180.0
TN303 2013-10-25T20:40:59.00Z -0.925432 -81.527392 0.0 0.0
TN303 2013-10-25T20:42:00.00Z -0.92543 -81.527393 0.12 26.716
TN303 2013-10-25T20:42:59.00Z -0.925433 -81.527402 0.23 194.125
TN303 2013-10-25T20:43:59.00Z -0.925435 -81.5274 0.2 236.484
TN303 2013-10-25T20:45:00.00Z -0.925433 -81.527393 0.12 153.284
TN303 2013-10-25T20:46:00.00Z -0.925432 -81.527395 0.25 243.585
TN303 2013-10-25T20:47:00.00Z -0.925422 -81.527405 0.0 0.0
TN303 2013-10-25T20:48:00.00Z -0.925422 -81.527413 0.24 134.812
TN303 2013-10-25T20:49:00.00Z -0.925432 -81.527417 0.28 126.689
TN303 2013-10-25T20:49:59.00Z -0.925432 -81.527405 0.11 90.0
TN303 2013-10-25T20:51:00.00Z -0.925422 -81.527398 0.11 0.0
TN303 2013-10-25T20:52:00.00Z -0.92542 -81.527388 0.16 225.188
TN303 2013-10-25T20:52:59.00Z -0.925427 -81.527395 0.0 0.0
TN303 2013-10-25T20:54:00.00Z -0.925435 -81.527405 0.11 180.0
TN303 2013-10-25T20:55:00.00Z -0.925433 -81.527412 0.0 0.0
TN303 2013-10-25T20:55:59.00Z -0.925422 -81.527397 0.23 103.948
TN303 2013-10-25T20:57:00.00Z -0.92543 -81.5274 0.11 90.0
TN303 2013-10-25T20:57:59.00Z -0.92543 -81.527405 0.16 314.812
TN303 2013-10-25T20:58:59.00Z -0.925433 -81.527415 0.12 296.415
TN303 2013-10-25T21:00:00.00Z -0.92543 -81.527407 0.11 90.0
TN303 2013-10-25T21:01:00.00Z -0.925433 -81.5274 0.22 90.0
TN303 2013-10-25T21:02:00.00Z -0.925438 -81.527412 0.25 153.284
TN303 2013-10-25T21:03:00.00Z -0.925458 -81.527412 0.16 314.812
TN303 2013-10-25T21:04:00.00Z -0.925445 -81.527402 0.22 0.0
TN303 2013-10-25T21:05:00.00Z -0.92543 -81.527392 0.11 270.0
TN303 2013-10-25T21:06:00.00Z -0.925417 -81.527397 0.11 180.0
TN303 2013-10-25T21:07:00.00Z -0.925415 -81.527397 0.2 236.484
TN303 2013-10-25T21:08:00.00Z -0.92542 -81.527397 0.11 180.0
TN303 2013-10-25T21:09:00.00Z -0.925418 -81.527393 0.3 248.328
TN303 2013-10-25T21:10:00.00Z -0.925405 -81.527405 0.28 90.0
TN303 2013-10-25T21:10:59.00Z -0.925422 -81.527415 0.16 314.812
TN303 2013-10-25T21:11:59.00Z -0.925447 -81.527418 0.28 37.051
TN303 2013-10-25T21:13:00.00Z -0.925447 -81.5274 0.22 90.0
TN303 2013-10-25T21:13:59.00Z -0.925432 -81.527388 0.3 68.328
TN303 2013-10-25T21:15:00.00Z -0.92543 -81.527392 0.25 116.415
TN303 2013-10-25T21:16:00.00Z -0.925437 -81.527397 0.16 45.188
TN303 2013-10-25T21:16:59.00Z -0.925448 -81.527392 0.0 0.0
TN303 2013-10-25T21:18:00.00Z -0.925433 -81.527388 0.06 90.0
TN303 2013-10-25T21:19:00.00Z -0.925422 -81.527383 0.11 0.0
TN303 2013-10-25T21:19:59.00Z -0.92542 -81.527402 0.12 206.716
TN303 2013-10-25T21:20:59.00Z -0.925427 -81.52742 0.11 90.0
TN303 2013-10-25T21:21:59.00Z -0.925428 -81.527407 0.2 33.864
TN303 2013-10-25T21:22:59.00Z -0.92543 -81.527398 0.11 270.0
TN303 2013-10-25T21:23:59.00Z -0.92545 -81.527398 0.28 90.0
TN303 2013-10-25T21:24:59.00Z -0.92544 -81.527397 0.11 180.0
TN303 2013-10-25T21:26:00.00Z -0.925438 -81.527393 0.11 90.0
TN303 2013-10-25T21:26:59.00Z -0.92544 -81.527397 0.17 0.0
TN303 2013-10-25T21:28:00.00Z -0.92543 -81.5274 0.11 0.0
TN303 2013-10-25T21:29:00.00Z -0.925415 -81.527397 0.0 0.0
TN303 2013-10-25T21:30:00.00Z -0.92541 -81.527393 0.16 225.188
TN303 2013-10-25T21:31:00.00Z -0.92543 -81.527403 0.16 225.188
TN303 2013-10-25T21:31:59.00Z -0.925445 -81.527417 0.06 270.0
TN303 2013-10-25T21:32:59.00Z -0.925435 -81.527405 0.2 56.484
TN303 2013-10-25T21:33:59.00Z -0.925427 -81.52738 0.11 270.0
TN303 2013-10-25T21:35:00.00Z -0.925433 -81.527373 0.11 270.0
TN303 2013-10-25T21:35:59.00Z -0.925443 -81.527383 0.22 180.0
TN303 2013-10-25T21:36:59.00Z -0.92544 -81.527388 0.0 0.0
TN303 2013-10-25T21:38:00.00Z -0.925425 -81.527397 0.11 90.0
TN303 2013-10-25T21:38:59.00Z -0.925432 -81.527408 0.11 0.0
TN303 2013-10-25T21:40:00.00Z -0.925443 -81.527408 0.11 270.0
TN303 2013-10-25T21:41:00.00Z -0.925437 -81.5274 0.22 90.0
TN303 2013-10-25T21:42:00.00Z -0.925417 -81.527387 0.0 0.0
TN303 2013-10-25T21:43:00.00Z -0.92543 -81.52739 0.31 45.188
TN303 2013-10-25T21:43:59.00Z -0.925447 -81.527395 0.06 180.0
TN303 2013-10-25T21:44:59.00Z -0.925448 -81.527387 0.11 90.0
TN303 2013-10-25T21:46:00.00Z -0.925435 -81.527383 0.11 0.0
TN303 2013-10-25T21:47:00.00Z -0.92544 -81.527383 0.22 0.0
TN303 2013-10-25T21:47:59.00Z -0.925448 -81.527388 0.32 59.202
TN303 2013-10-25T21:49:00.00Z -0.925428 -81.527383 0.3 111.672
TN303 2013-10-25T21:49:59.00Z -0.925418 -81.527387 0.24 314.812
TN303 2013-10-25T21:51:00.00Z -0.92542 -81.527397 0.06 270.0
TN303 2013-10-25T21:51:59.00Z -0.925425 -81.527405 0.17 270.0
TN303 2013-10-25T21:52:59.00Z -0.92543 -81.527405 0.16 225.188
TN303 2013-10-25T21:53:59.00Z -0.925433 -81.527408 0.24 45.188
TN303 2013-10-25T21:54:59.00Z -0.925425 -81.527408 0.12 153.284
TN303 2013-10-25T21:55:59.00Z -0.925423 -81.527412 0.11 180.0
TN303 2013-10-25T21:56:59.00Z -0.925428 -81.52742 0.12 63.585
TN303 2013-10-25T21:57:59.00Z -0.92542 -81.527415 0.11 0.0
TN303 2013-10-25T21:59:00.00Z -0.925417 -81.527412 0.08 225.188
TN303 2013-10-25T22:00:00.00Z -0.925422 -81.527427 0.23 345.875
TN303 2013-10-25T22:01:00.00Z -0.925422 -81.527422 0.22 0.0
TN303 2013-10-25T22:02:00.00Z -0.925427 -81.52741 0.17 90.0
TN303 2013-10-25T22:02:59.00Z -0.92545 -81.527398 0.32 31.13
TN303 2013-10-25T22:03:59.00Z -0.925445 -81.52739 0.11 180.0
TN303 2013-10-25T22:05:00.00Z -0.925432 -81.527387 0.22 0.0
TN303 2013-10-25T22:06:00.00Z -0.925422 -81.52739 0.22 0.0
TN303 2013-10-25T22:06:59.00Z -0.925427 -81.527398 0.06 180.0
TN303 2013-10-25T22:07:59.00Z -0.92542 -81.527402 0.11 90.0
TN303 2013-10-25T22:09:00.00Z -0.925415 -81.527403 0.25 296.415
TN303 2013-10-25T22:10:00.00Z -0.925417 -81.52741 0.12 243.585
TN303 2013-10-25T22:10:59.00Z -0.925422 -81.527413 0.11 0.0
TN303 2013-10-25T22:11:59.00Z -0.92543 -81.527412 0.22 90.0
TN303 2013-10-25T22:13:00.00Z -0.925482 -81.527452 0.56 191.383
TN303 2013-10-25T22:14:00.00Z -0.925828 -81.527703 1.21 204.369
TN303 2013-10-25T22:14:59.00Z -0.926702 -81.528042 2.48 203.842
TN303 2013-10-25T22:15:59.00Z -0.92829 -81.528518 3.91 195.709
TN303 2013-10-25T22:17:00.00Z -0.930658 -81.52883 5.05 189.524
TN303 2013-10-25T22:18:00.00Z -0.933663 -81.529258 6.02 190.656
TN303 2013-10-25T22:18:59.00Z -0.936845 -81.52972 6.12 186.267
TN303 2013-10-25T22:19:59.00Z -0.940132 -81.530207 6.03 187.959
TN303 2013-10-25T22:21:00.00Z -0.943487 -81.530692 6.12 186.784
TN303 2013-10-25T22:22:00.00Z -0.946827 -81.531152 6.33 189.109
TN303 2013-10-25T22:22:59.00Z -0.950097 -81.531612 6.15 188.33
TN303 2013-10-25T22:24:00.00Z -0.953462 -81.532113 6.19 187.746
TN303 2013-10-25T22:25:00.00Z -0.956778 -81.532583 6.41 187.48
TN303 2013-10-25T22:26:00.00Z -0.960077 -81.533063 6.17 186.211
TN303 2013-10-25T22:26:59.00Z -0.963338 -81.533522 5.73 190.073
TN303 2013-10-25T22:27:59.00Z -0.966565 -81.534008 6.05 189.003
TN303 2013-10-25T22:29:00.00Z -0.969868 -81.534483 5.7 188.42
TN303 2013-10-25T22:29:59.00Z -0.973017 -81.534928 6.19 187.746
TN303 2013-10-25T22:30:59.00Z -0.976207 -81.535377 6.03 187.959
TN303 2013-10-25T22:32:00.00Z -0.979487 -81.53582 5.77 189.433
TN303 2013-10-25T22:33:00.00Z -0.982695 -81.53628 5.77 189.433
TN303 2013-10-25T22:34:00.00Z -0.985918 -81.536707 6.08 187.887
TN303 2013-10-25T22:34:59.00Z -0.989148 -81.53714 6.1 188.922
TN303 2013-10-25T22:35:59.00Z -0.992392 -81.537613 5.92 188.107
TN303 2013-10-25T22:36:59.00Z -0.995638 -81.538052 5.97 188.032
TN303 2013-10-25T22:38:00.00Z -0.998957 -81.538532 6.15 188.33
TN303 2013-10-25T22:39:00.00Z -1.002243 -81.538997 5.91 190.854
TN303 2013-10-25T22:40:00.00Z -1.005488 -81.539477 5.79 186.625
TN303 2013-10-25T22:41:00.00Z -1.008773 -81.539927 6.16 189.353
TN303 2013-10-25T22:42:00.00Z -1.01205 -81.540403 5.91 187.573
TN303 2013-10-25T22:43:00.00Z -1.015332 -81.540853 5.9 190.323
TN303 2013-10-25T22:44:00.00Z -1.018627 -81.541282 6.15 188.33
TN303 2013-10-25T22:45:00.00Z -1.021928 -81.541733 6.17 189.863
TN303 2013-10-25T22:46:00.00Z -1.025233 -81.54218 6.27 189.189
TN303 2013-10-25T22:46:59.00Z -1.028445 -81.542643 6.03 187.958
TN303 2013-10-25T22:47:59.00Z -1.031678 -81.543178 6.02 190.655
TN303 2013-10-25T22:49:00.00Z -1.034963 -81.543713 6.13 190.464
TN303 2013-10-25T22:49:59.00Z -1.038152 -81.54421 6.22 189.271
TN303 2013-10-25T22:51:00.00Z -1.041473 -81.544745 5.84 189.883
TN303 2013-10-25T22:51:59.00Z -1.04463 -81.545298 6.06 190.042
TN303 2013-10-25T22:53:00.00Z -1.047907 -81.545852 6.07 190.559
TN303 2013-10-25T22:54:00.00Z -1.051165 -81.546358 5.99 189.086
TN303 2013-10-25T22:55:00.00Z -1.054402 -81.546897 6.21 191.885
TN303 2013-10-25T22:56:00.00Z -1.057622 -81.547418 5.9 190.323
TN303 2013-10-25T22:56:59.00Z -1.060768 -81.54794 6.31 191.184
TN303 2013-10-25T22:58:00.00Z -1.064015 -81.548478 5.88 189.256
TN303 2013-10-25T22:59:00.00Z -1.067228 -81.548982 6.07 190.559
TN303 2013-10-25T22:59:59.00Z -1.070388 -81.549505 6.18 190.371
TN303 2013-10-25T23:01:00.00Z -1.073662 -81.550032 5.8 191.059
TN303 2013-10-25T23:02:00.00Z -1.07685 -81.550585 5.73 190.072
TN303 2013-10-25T23:03:00.00Z -1.080045 -81.551122 6.15 188.329
TN303 2013-10-25T23:03:59.00Z -1.08322 -81.551672 6.05 189.523
TN303 2013-10-25T23:05:00.00Z -1.086478 -81.552238 6.15 188.842
TN303 2013-10-25T23:05:59.00Z -1.089617 -81.552767 5.97 190.753
TN303 2013-10-25T23:07:00.00Z -1.092922 -81.553325 6.1 191.587
TN303 2013-10-25T23:07:59.00Z -1.09616 -81.553863 6.06 190.042
TN303 2013-10-25T23:08:59.00Z -1.099393 -81.55442 6.0 189.611
TN303 2013-10-25T23:09:59.00Z -1.102615 -81.554987 6.0 189.611
TN303 2013-10-25T23:10:59.00Z -1.105848 -81.555482 5.91 190.853
TN303 2013-10-25T23:12:00.00Z -1.109147 -81.556058 6.51 189.845
TN303 2013-10-25T23:12:59.00Z -1.11235 -81.556577 6.0 189.61
TN303 2013-10-25T23:14:00.00Z -1.11566 -81.557123 6.28 189.69
TN303 2013-10-25T23:15:00.00Z -1.118873 -81.55771 6.02 190.655
TN303 2013-10-25T23:16:00.00Z -1.122083 -81.558252 6.02 190.655
TN303 2013-10-25T23:17:00.00Z -1.125307 -81.558832 5.95 189.699
TN303 2013-10-25T23:18:00.00Z -1.128582 -81.55939 6.22 189.27
TN303 2013-10-25T23:18:59.00Z -1.13186 -81.559923 6.28 189.69
TN303 2013-10-25T23:19:59.00Z -1.13518 -81.560487 6.0 189.61
TN303 2013-10-25T23:21:00.00Z -1.138537 -81.561025 6.1 191.587
TN303 2013-10-25T23:21:59.00Z -1.141758 -81.561567 6.07 186.845
TN303 2013-10-25T23:23:00.00Z -1.145092 -81.5621 6.26 188.183
TN303 2013-10-25T23:23:59.00Z -1.148313 -81.562607 5.85 187.103
TN303 2013-10-25T23:25:00.00Z -1.151637 -81.563163 6.27 189.189
TN303 2013-10-25T23:25:59.00Z -1.154863 -81.563678 5.93 191.909
TN303 2013-10-25T23:26:59.00Z -1.158127 -81.5642 6.21 188.763
TN303 2013-10-25T23:28:00.00Z -1.161468 -81.56474 6.1 188.922
TN303 2013-10-25T23:29:00.00Z -1.164758 -81.565258 6.13 190.464
TN303 2013-10-25T23:30:00.00Z -1.16807 -81.565743 6.07 190.558
TN303 2013-10-25T23:31:00.00Z -1.17138 -81.566313 6.31 191.184
TN303 2013-10-25T23:32:00.00Z -1.174687 -81.56686 6.18 190.371
TN303 2013-10-25T23:33:00.00Z -1.177995 -81.567387 6.36 190.595
TN303 2013-10-25T23:34:00.00Z -1.181315 -81.56793 6.33 189.109
TN303 2013-10-25T23:35:00.00Z -1.184647 -81.56845 6.03 187.958
TN303 2013-10-25T23:35:59.00Z -1.187928 -81.568905 6.06 186.323
TN303 2013-10-25T23:36:59.00Z -1.191278 -81.56924 6.23 186.155
TN303 2013-10-25T23:38:00.00Z -1.194697 -81.569567 6.16 185.181
TN303 2013-10-25T23:38:59.00Z -1.197972 -81.569875 6.4 186.491
TN303 2013-10-25T23:40:00.00Z -1.201317 -81.570223 6.01 186.381
TN303 2013-10-25T23:41:00.00Z -1.204582 -81.57057 6.1 184.187
TN303 2013-10-25T23:41:59.00Z -1.207828 -81.570868 6.22 185.135
TN303 2013-10-25T23:43:00.00Z -1.211235 -81.571182 6.51 186.381
TN303 2013-10-25T23:43:59.00Z -1.214518 -81.57151 6.39 185.996
TN303 2013-10-25T23:44:59.00Z -1.217928 -81.571835 6.25 187.677
TN303 2013-10-25T23:46:00.00Z -1.221358 -81.57217 5.94 185.374
TN303 2013-10-25T23:47:00.00Z -1.22469 -81.572525 6.39 185.996
TN303 2013-10-25T23:47:59.00Z -1.227942 -81.57289 6.11 185.228
TN303 2013-10-25T23:49:00.00Z -1.231307 -81.573243 6.27 185.09
TN303 2013-10-25T23:50:00.00Z -1.234643 -81.573578 6.22 185.135
TN303 2013-10-25T23:51:00.00Z -1.237985 -81.573917 6.22 185.135
TN303 2013-10-25T23:52:00.00Z -1.241365 -81.574247 6.11 185.747
TN303 2013-10-25T23:52:59.00Z -1.244697 -81.574575 6.16 185.181
TN303 2013-10-25T23:53:59.00Z -1.248055 -81.574927 6.23 186.663
TN303 2013-10-25T23:54:59.00Z -1.251412 -81.575283 6.39 185.996
TN303 2013-10-25T23:55:59.00Z -1.254773 -81.57571 6.14 187.815
TN303 2013-10-25T23:56:59.00Z -1.258095 -81.57623 6.37 191.087
TN303 2013-10-25T23:58:00.00Z -1.261458 -81.576787 6.42 190.992
TN303 2013-10-25T23:58:59.00Z -1.2647 -81.57731 6.55 188.802
TN303 2013-10-25T23:59:59.00Z -1.267997 -81.577867 6.18 190.37
TN303 2013-10-26T00:00:59.00Z -1.27131 -81.578423 6.35 190.101
TN303 2013-10-26T00:02:00.00Z -1.274672 -81.578955 6.05 189.002
TN303 2013-10-26T00:03:00.00Z -1.27797 -81.57948 5.88 189.255
TN303 2013-10-26T00:04:00.00Z -1.281245 -81.580017 6.21 191.884
TN303 2013-10-26T00:05:00.00Z -1.284542 -81.58055 6.1 191.586
TN303 2013-10-26T00:06:00.00Z -1.287813 -81.581115 6.37 188.536
TN303 2013-10-26T00:06:59.00Z -1.291057 -81.581643 6.17 189.862
TN303 2013-10-26T00:08:00.00Z -1.294425 -81.582173 6.45 189.441
TN303 2013-10-26T00:09:00.00Z -1.297757 -81.582732 5.89 189.789
TN303 2013-10-26T00:10:00.00Z -1.301075 -81.583252 6.18 190.37
TN303 2013-10-26T00:10:59.00Z -1.304352 -81.583765 6.21 191.884
TN303 2013-10-26T00:11:59.00Z -1.307688 -81.58431 6.11 189.437
TN303 2013-10-26T00:13:00.00Z -1.311065 -81.584858 6.38 189.03
TN303 2013-10-26T00:14:00.00Z -1.314398 -81.585388 6.29 190.189
TN303 2013-10-26T00:15:00.00Z -1.317733 -81.585938 6.26 188.686
TN303 2013-10-26T00:15:59.00Z -1.321017 -81.586483 6.35 190.1
TN303 2013-10-26T00:16:59.00Z -1.324353 -81.587038 6.37 188.536
TN303 2013-10-26T00:17:59.00Z -1.32769 -81.587572 6.25 187.677
TN303 2013-10-26T00:19:00.00Z -1.331088 -81.588135 6.21 191.884
TN303 2013-10-26T00:20:00.00Z -1.334408 -81.58867 6.27 189.188
TN303 2013-10-26T00:20:59.00Z -1.337698 -81.58921 6.47 190.898
TN303 2013-10-26T00:21:59.00Z -1.34105 -81.589752 6.59 191.191
TN303 2013-10-26T00:23:00.00Z -1.344478 -81.590318 6.62 189.681
TN303 2013-10-26T00:23:59.00Z -1.347783 -81.59087 6.29 190.189
TN303 2013-10-26T00:24:59.00Z -1.35114 -81.591425 6.26 188.686
TN303 2013-10-26T00:25:59.00Z -1.354517 -81.591998 6.35 190.1
TN303 2013-10-26T00:26:59.00Z -1.357905 -81.592518 6.62 189.681
TN303 2013-10-26T00:27:59.00Z -1.361285 -81.5931 6.55 188.802
TN303 2013-10-26T00:28:59.00Z -1.364677 -81.593632 6.33 189.108
TN303 2013-10-26T00:30:00.00Z -1.36811 -81.5942 6.18 190.37
TN303 2013-10-26T00:31:00.00Z -1.371468 -81.594757 6.26 188.182
TN303 2013-10-26T00:31:59.00Z -1.374787 -81.595305 6.32 188.61
TN303 2013-10-26T00:32:59.00Z -1.378155 -81.59589 6.71 188.585
TN303 2013-10-26T00:34:00.00Z -1.381563 -81.59647 6.71 188.585
TN303 2013-10-26T00:35:00.00Z -1.384923 -81.597003 6.18 190.37
TN303 2013-10-26T00:35:59.00Z -1.388195 -81.59755 5.97 188.031
TN303 2013-10-26T00:37:00.00Z -1.391555 -81.598088 5.8 191.058
TN303 2013-10-26T00:38:00.00Z -1.394922 -81.598622 6.45 189.928
TN303 2013-10-26T00:39:00.00Z -1.398342 -81.59921 6.22 189.269
TN303 2013-10-26T00:39:59.00Z -1.401683 -81.599808 6.4 190.013
TN303 2013-10-26T00:41:00.00Z -1.405142 -81.600397 6.24 190.278
TN303 2013-10-26T00:42:00.00Z -1.408547 -81.600933 6.72 189.054
TN303 2013-10-26T00:43:00.00Z -1.41194 -81.601507 6.55 188.802
TN303 2013-10-26T00:44:00.00Z -1.415312 -81.602072 6.16 189.352
TN303 2013-10-26T00:44:59.00Z -1.41864 -81.602593 6.17 189.862
TN303 2013-10-26T00:45:59.00Z -1.422015 -81.603147 6.18 190.37
TN303 2013-10-26T00:47:00.00Z -1.425415 -81.603727 6.4 190.013
TN303 2013-10-26T00:48:00.00Z -1.428752 -81.604273 6.06 190.04
TN303 2013-10-26T00:49:00.00Z -1.432082 -81.604797 6.05 189.522
TN303 2013-10-26T00:50:00.00Z -1.435433 -81.605357 6.19 190.876
TN303 2013-10-26T00:51:00.00Z -1.438778 -81.605905 5.93 191.907
TN303 2013-10-26T00:51:59.00Z -1.442065 -81.606455 6.33 189.108
TN303 2013-10-26T00:53:00.00Z -1.445502 -81.60705 6.32 188.61
TN303 2013-10-26T00:54:00.00Z -1.44887 -81.60762 6.47 187.903
TN303 2013-10-26T00:54:59.00Z -1.452192 -81.608138 6.18 190.369
TN303 2013-10-26T00:56:00.00Z -1.455645 -81.608708 6.37 191.086
TN303 2013-10-26T00:56:59.00Z -1.458977 -81.609277 5.95 189.698
TN303 2013-10-26T00:57:59.00Z -1.462313 -81.609815 6.11 189.436
TN303 2013-10-26T00:59:00.00Z -1.465707 -81.610353 6.23 189.774
TN303 2013-10-26T00:59:59.00Z -1.469005 -81.61088 6.15 188.841
TN303 2013-10-26T01:00:59.00Z -1.472338 -81.611433 6.4 190.013
TN303 2013-10-26T01:01:59.00Z -1.475688 -81.612017 6.27 189.188
TN303 2013-10-26T01:02:59.00Z -1.479018 -81.612585 6.29 190.188
TN303 2013-10-26T01:04:00.00Z -1.482425 -81.613157 6.44 188.952
TN303 2013-10-26T01:05:00.00Z -1.485777 -81.61369 6.15 188.328
TN303 2013-10-26T01:06:00.00Z -1.4891 -81.614262 6.33 189.108
TN303 2013-10-26T01:06:59.00Z -1.492378 -81.614785 6.37 188.535
TN303 2013-10-26T01:08:00.00Z -1.495757 -81.615355 5.95 189.698
TN303 2013-10-26T01:09:00.00Z -1.49908 -81.6159 6.44 188.952
TN303 2013-10-26T01:09:59.00Z -1.502373 -81.616418 6.18 190.369
TN303 2013-10-26T01:10:59.00Z -1.505757 -81.616938 6.15 188.841
TN303 2013-10-26T01:11:59.00Z -1.50914 -81.617455 6.54 188.319
TN303 2013-10-26T01:12:59.00Z -1.512483 -81.617972 6.25 187.676
TN303 2013-10-26T01:14:00.00Z -1.515903 -81.618493 6.36 187.543
TN303 2013-10-26T01:15:00.00Z -1.519272 -81.618995 5.71 188.971
TN303 2013-10-26T01:15:59.00Z -1.52256 -81.619492 6.16 189.352
TN303 2013-10-26T01:16:59.00Z -1.525917 -81.61998 6.43 188.462
TN303 2013-10-26T01:17:59.00Z -1.529273 -81.620503 6.01 190.132
TN303 2013-10-26T01:18:59.00Z -1.532618 -81.620988 6.41 187.478
TN303 2013-10-26T01:20:00.00Z -1.536028 -81.62149 6.26 188.685
TN303 2013-10-26T01:21:00.00Z -1.539397 -81.62199 6.16 189.351
TN303 2013-10-26T01:22:00.00Z -1.542763 -81.622482 6.44 188.952
TN303 2013-10-26T01:22:59.00Z -1.546078 -81.622955 6.66 188.655
TN303 2013-10-26T01:24:00.00Z -1.5495 -81.623483 6.32 188.609
TN303 2013-10-26T01:24:59.00Z -1.552818 -81.62401 6.15 188.84
TN303 2013-10-26T01:25:59.00Z -1.556192 -81.624518 6.26 191.28
TN303 2013-10-26T01:26:59.00Z -1.559563 -81.625013 6.37 188.535
TN303 2013-10-26T01:28:00.00Z -1.563005 -81.625517 6.15 188.328
TN303 2013-10-26T01:29:00.00Z -1.566373 -81.626033 6.24 187.17
TN303 2013-10-26T01:29:59.00Z -1.56968 -81.626492 6.41 187.478
TN303 2013-10-26T01:31:00.00Z -1.573115 -81.626987 6.3 187.609
TN303 2013-10-26T01:32:00.00Z -1.576507 -81.627475 6.32 188.609
TN303 2013-10-26T01:32:59.00Z -1.579828 -81.627952 6.42 187.97
TN303 2013-10-26T01:33:59.00Z -1.583215 -81.628423 6.45 189.927
TN303 2013-10-26T01:35:00.00Z -1.586663 -81.628917 6.4 186.49
TN303 2013-10-26T01:36:00.00Z -1.59007 -81.629423 6.38 189.029
TN303 2013-10-26T01:37:00.00Z -1.593477 -81.629902 6.31 188.11
TN303 2013-10-26T01:38:00.00Z -1.596895 -81.630398 6.34 189.604
TN303 2013-10-26T01:38:59.00Z -1.600252 -81.630885 6.18 186.722
TN303 2013-10-26T01:40:00.00Z -1.60373 -81.631358 6.15 188.84
TN303 2013-10-26T01:41:00.00Z -1.607155 -81.631845 6.35 187.045
TN303 2013-10-26T01:42:00.00Z -1.610588 -81.632345 6.41 187.478
TN303 2013-10-26T01:43:00.00Z -1.614033 -81.632815 6.55 188.801
TN303 2013-10-26T01:44:00.00Z -1.617473 -81.63333 6.41 187.478
TN303 2013-10-26T01:45:00.00Z -1.620893 -81.6338 6.6 184.834
TN303 2013-10-26T01:46:00.00Z -1.624315 -81.634277 6.42 187.97
TN303 2013-10-26T01:47:00.00Z -1.627732 -81.634748 6.23 189.774
TN303 2013-10-26T01:48:00.00Z -1.631153 -81.635262 6.37 188.039
TN303 2013-10-26T01:48:59.00Z -1.634528 -81.635752 6.29 190.187
TN303 2013-10-26T01:50:00.00Z -1.63803 -81.636257 6.52 187.351
TN303 2013-10-26T01:51:00.00Z -1.641502 -81.636732 6.58 187.77
TN303 2013-10-26T01:52:00.00Z -1.644972 -81.637232 6.58 187.29
TN303 2013-10-26T01:53:00.00Z -1.648425 -81.637715 6.41 187.478
TN303 2013-10-26T01:53:59.00Z -1.65181 -81.638225 6.59 188.249
TN303 2013-10-26T01:54:59.00Z -1.655228 -81.63874 6.36 187.543
TN303 2013-10-26T01:56:00.00Z -1.658715 -81.639267 6.31 188.109
TN303 2013-10-26T01:56:59.00Z -1.66209 -81.639805 6.44 188.951
TN303 2013-10-26T01:58:00.00Z -1.665557 -81.64035 6.29 190.187
TN303 2013-10-26T01:59:00.00Z -1.668957 -81.640867 6.47 187.902
TN303 2013-10-26T01:59:59.00Z -1.672297 -81.641343 6.47 187.414
TN303 2013-10-26T02:01:00.00Z -1.67576 -81.641822 6.58 187.29
TN303 2013-10-26T02:01:59.00Z -1.679102 -81.6423 6.43 188.461
TN303 2013-10-26T02:03:00.00Z -1.682563 -81.642788 6.36 187.543
TN303 2013-10-26T02:04:00.00Z -1.685983 -81.643282 6.41 187.478
TN303 2013-10-26T02:05:00.00Z -1.689417 -81.643768 6.3 187.107
TN303 2013-10-26T02:06:00.00Z -1.692858 -81.64423 6.37 188.534
TN303 2013-10-26T02:06:59.00Z -1.696238 -81.644737 6.4 190.012
TN303 2013-10-26T02:08:00.00Z -1.699717 -81.645275 6.19 187.744
TN303 2013-10-26T02:08:59.00Z -1.703073 -81.645782 6.4 186.49
TN303 2013-10-26T02:10:00.00Z -1.706538 -81.646272 6.4 186.49
TN303 2013-10-26T02:10:59.00Z -1.7099 -81.646735 6.33 189.107
TN303 2013-10-26T02:11:59.00Z -1.713318 -81.647223 6.35 187.045
TN303 2013-10-26T02:12:59.00Z -1.71672 -81.647703 6.3 187.608
TN303 2013-10-26T02:13:59.00Z -1.720147 -81.64816 6.29 186.604
TN303 2013-10-26T02:14:59.00Z -1.723575 -81.648618 6.03 187.956
TN303 2013-10-26T02:15:59.00Z -1.726985 -81.649088 6.52 187.351
TN303 2013-10-26T02:16:59.00Z -1.730392 -81.649542 6.17 185.695
TN303 2013-10-26T02:17:59.00Z -1.733787 -81.650013 6.3 187.608
TN303 2013-10-26T02:19:00.00Z -1.73722 -81.650535 6.15 188.84
TN303 2013-10-26T02:19:59.00Z -1.740512 -81.651043 6.21 188.761
TN303 2013-10-26T02:21:00.00Z -1.743932 -81.651588 6.32 188.608
TN303 2013-10-26T02:21:59.00Z -1.747225 -81.652093 6.24 187.169
TN303 2013-10-26T02:23:00.00Z -1.750597 -81.652598 6.19 187.744
TN303 2013-10-26T02:23:59.00Z -1.753868 -81.653065 6.26 188.684
TN303 2013-10-26T02:25:00.00Z -1.757238 -81.653575 6.25 187.675
TN303 2013-10-26T02:26:00.00Z -1.760562 -81.654073 6.15 188.839
TN303 2013-10-26T02:27:00.00Z -1.76392 -81.654558 6.29 190.187
TN303 2013-10-26T02:28:00.00Z -1.767255 -81.65508 6.14 187.813
TN303 2013-10-26T02:28:59.00Z -1.770543 -81.65555 6.23 186.662
TN303 2013-10-26T02:30:00.00Z -1.773973 -81.656037 6.38 189.028
TN303 2013-10-26T02:30:59.00Z -1.777295 -81.65652 6.41 187.477
TN303 2013-10-26T02:32:00.00Z -1.780703 -81.656993 6.14 187.813
TN303 2013-10-26T02:33:00.00Z -1.784055 -81.657485 6.27 189.186
TN303 2013-10-26T02:33:59.00Z -1.787362 -81.65797 6.33 189.106
TN303 2013-10-26T02:35:00.00Z -1.790788 -81.658462 6.25 187.675
TN303 2013-10-26T02:35:59.00Z -1.79412 -81.658933 6.34 189.603
TN303 2013-10-26T02:37:00.00Z -1.797567 -81.659448 6.21 188.761
TN303 2013-10-26T02:37:59.00Z -1.800903 -81.659935 6.36 187.542
TN303 2013-10-26T02:39:00.00Z -1.804357 -81.660433 6.15 188.839
TN303 2013-10-26T02:40:00.00Z -1.807743 -81.660908 6.25 187.675
TN303 2013-10-26T02:40:59.00Z -1.811072 -81.66139 6.16 185.18
TN303 2013-10-26T02:41:59.00Z -1.814452 -81.661857 6.39 185.498
TN303 2013-10-26T02:42:59.00Z -1.817837 -81.662323 6.32 188.608
TN303 2013-10-26T02:43:59.00Z -1.821205 -81.662813 6.15 188.839
TN303 2013-10-26T02:44:59.00Z -1.824592 -81.663292 5.92 188.104
TN303 2013-10-26T02:45:59.00Z -1.827977 -81.663762 6.12 186.782
TN303 2013-10-26T02:47:00.00Z -1.831427 -81.664208 6.11 185.227
TN303 2013-10-26T02:47:59.00Z -1.83476 -81.664627 6.25 187.675
TN303 2013-10-26T02:49:00.00Z -1.838207 -81.665083 6.24 187.169
TN303 2013-10-26T02:50:00.00Z -1.841588 -81.66553 6.43 188.46
TN303 2013-10-26T02:51:00.00Z -1.844978 -81.665997 6.25 187.675
TN303 2013-10-26T02:51:59.00Z -1.848322 -81.666435 6.14 187.813
TN303 2013-10-26T02:53:00.00Z -1.851778 -81.666905 6.57 186.808
TN303 2013-10-26T02:53:59.00Z -1.855117 -81.66733 6.39 185.994
TN303 2013-10-26T02:55:00.00Z -1.858578 -81.667803 6.08 187.364
TN303 2013-10-26T02:55:59.00Z -1.861927 -81.668248 6.45 189.439
TN303 2013-10-26T02:56:59.00Z -1.865332 -81.668665 6.43 188.46
TN303 2013-10-26T02:57:59.00Z -1.868738 -81.669077 6.22 185.134
TN303 2013-10-26T02:59:00.00Z -1.872195 -81.669527 6.26 188.18
TN303 2013-10-26T03:00:00.00Z -1.875587 -81.669958 6.27 184.582
TN303 2013-10-26T03:00:59.00Z -1.878945 -81.67035 6.33 189.106
TN303 2013-10-26T03:01:59.00Z -1.88234 -81.670803 6.32 188.608
TN303 2013-10-26T03:02:59.00Z -1.885745 -81.671245 6.27 189.186
TN303 2013-10-26T03:03:59.00Z -1.889153 -81.671665 6.36 187.542
TN303 2013-10-26T03:05:00.00Z -1.892635 -81.672142 6.12 186.781
TN303 2013-10-26T03:06:00.00Z -1.896065 -81.672573 6.25 187.675
TN303 2013-10-26T03:07:00.00Z -1.899503 -81.673032 6.52 187.35
TN303 2013-10-26T03:08:00.00Z -1.902937 -81.67355 6.48 188.388
TN303 2013-10-26T03:09:00.00Z -1.906383 -81.674032 6.09 188.402
TN303 2013-10-26T03:09:59.00Z -1.909748 -81.674535 6.45 189.925
TN303 2013-10-26T03:11:00.00Z -1.913227 -81.675063 6.59 188.248
TN303 2013-10-26T03:11:59.00Z -1.916597 -81.675552 6.3 187.608
TN303 2013-10-26T03:12:59.00Z -1.92002 -81.676045 6.31 191.18
TN303 2013-10-26T03:14:00.00Z -1.92349 -81.676593 6.32 188.608
TN303 2013-10-26T03:15:00.00Z -1.926908 -81.677132 6.3 190.684
TN303 2013-10-26T03:15:59.00Z -1.93026 -81.677655 6.26 188.683
TN303 2013-10-26T03:17:00.00Z -1.933748 -81.678207 6.55 188.799
TN303 2013-10-26T03:17:59.00Z -1.937128 -81.67874 6.37 188.533
TN303 2013-10-26T03:19:00.00Z -1.940613 -81.679305 6.37 188.038
TN303 2013-10-26T03:19:59.00Z -1.943997 -81.679873 6.35 190.097
TN303 2013-10-26T03:21:00.00Z -1.947472 -81.680465 6.33 189.105
TN303 2013-10-26T03:22:00.00Z -1.950883 -81.680992 6.14 187.812
TN303 2013-10-26T03:23:00.00Z -1.954292 -81.681563 6.49 188.874
TN303 2013-10-26T03:23:59.00Z -1.957665 -81.682112 6.33 189.105
TN303 2013-10-26T03:24:59.00Z -1.961103 -81.682672 6.38 189.027
TN303 2013-10-26T03:25:59.00Z -1.964557 -81.683263 6.7 188.112
TN303 2013-10-26T03:27:00.00Z -1.968098 -81.683852 6.27 189.185
TN303 2013-10-26T03:27:59.00Z -1.97151 -81.68441 6.55 188.799
TN303 2013-10-26T03:28:59.00Z -1.974993 -81.684965 6.44 188.95
TN303 2013-10-26T03:30:00.00Z -1.978542 -81.685543 6.62 189.678
TN303 2013-10-26T03:31:00.00Z -1.982033 -81.686085 6.44 188.949
TN303 2013-10-26T03:32:00.00Z -1.985538 -81.686642 6.45 189.925
TN303 2013-10-26T03:33:00.00Z -1.989028 -81.687193 6.23 192.381
TN303 2013-10-26T03:34:00.00Z -1.9925 -81.687777 6.55 188.799
TN303 2013-10-26T03:34:59.00Z -1.995912 -81.688347 6.16 189.349
TN303 2013-10-26T03:35:59.00Z -1.99938 -81.688898 6.32 188.607
TN303 2013-10-26T03:37:00.00Z -2.002935 -81.689435 6.32 191.674
TN303 2013-10-26T03:37:59.00Z -2.006373 -81.689977 6.66 188.653
TN303 2013-10-26T03:38:59.00Z -2.009885 -81.690527 6.8 187.052
TN303 2013-10-26T03:39:59.00Z -2.013405 -81.691053 6.56 189.759
TN303 2013-10-26T03:41:00.00Z -2.016985 -81.691607 6.53 187.834
TN303 2013-10-26T03:41:59.00Z -2.020443 -81.692143 6.39 189.519
TN303 2013-10-26T03:42:59.00Z -2.023942 -81.692697 6.58 187.768
TN303 2013-10-26T03:44:00.00Z -2.027507 -81.693247 6.46 190.41
TN303 2013-10-26T03:45:00.00Z -2.030983 -81.693798 6.55 189.279
TN303 2013-10-26T03:46:00.00Z -2.034472 -81.694307 6.51 189.841
TN303 2013-10-26T03:46:59.00Z -2.037918 -81.694843 6.65 188.179
TN303 2013-10-26T03:47:59.00Z -2.041408 -81.69536 6.4 186.488
TN303 2013-10-26T03:48:59.00Z -2.044898 -81.69588 6.4 190.01
TN303 2013-10-26T03:50:00.00Z -2.048437 -81.696417 6.3 187.607
TN303 2013-10-26T03:50:59.00Z -2.051852 -81.696935 6.62 189.677
TN303 2013-10-26T03:52:00.00Z -2.055393 -81.697457 6.62 186.272
TN303 2013-10-26T03:53:00.00Z -2.058875 -81.697982 6.58 187.768
TN303 2013-10-26T03:53:59.00Z -2.062297 -81.69849 6.22 189.266
TN303 2013-10-26T03:55:00.00Z -2.065825 -81.69903 6.51 189.841
TN303 2013-10-26T03:55:59.00Z -2.069248 -81.699545 6.66 188.653
TN303 2013-10-26T03:56:59.00Z -2.072718 -81.700072 6.41 187.476
TN303 2013-10-26T03:58:00.00Z -2.076253 -81.700573 6.72 189.051
TN303 2013-10-26T03:59:00.00Z -2.079723 -81.701105 6.55 188.798
TN303 2013-10-26T03:59:59.00Z -2.083148 -81.701602 6.44 188.949
TN303 2013-10-26T04:01:00.00Z -2.086687 -81.702147 6.49 188.873
TN303 2013-10-26T04:01:59.00Z -2.090118 -81.702668 6.56 189.758
TN303 2013-10-26T04:02:59.00Z -2.093602 -81.703188 6.5 189.357
TN303 2013-10-26T04:04:00.00Z -2.097135 -81.70373 6.45 189.924
TN303 2013-10-26T04:04:59.00Z -2.100572 -81.704275 6.53 190.802
TN303 2013-10-26T04:06:00.00Z -2.104105 -81.704852 6.44 188.949
TN303 2013-10-26T04:06:59.00Z -2.107527 -81.705375 6.59 188.247
TN303 2013-10-26T04:07:59.00Z -2.110992 -81.705933 6.61 189.201
TN303 2013-10-26T04:09:00.00Z -2.114523 -81.70648 6.44 188.949
TN303 2013-10-26T04:10:00.00Z -2.118003 -81.706987 6.44 188.949
TN303 2013-10-26T04:11:00.00Z -2.1215 -81.707518 6.71 188.582
TN303 2013-10-26T04:11:59.00Z -2.124942 -81.708038 6.5 189.357
TN303 2013-10-26T04:13:00.00Z -2.128487 -81.70857 6.47 187.9
TN303 2013-10-26T04:13:59.00Z -2.131923 -81.7091 6.44 188.949
TN303 2013-10-26T04:15:00.00Z -2.13546 -81.709602 6.44 188.949
TN303 2013-10-26T04:16:00.00Z -2.13894 -81.71012 6.35 190.096
TN303 2013-10-26T04:16:59.00Z -2.142352 -81.710648 6.59 188.247
TN303 2013-10-26T04:18:00.00Z -2.14589 -81.711157 6.37 188.037
TN303 2013-10-26T04:19:00.00Z -2.14936 -81.71168 6.47 187.9
TN303 2013-10-26T04:19:59.00Z -2.152753 -81.712228 6.37 188.532
TN303 2013-10-26T04:20:59.00Z -2.156208 -81.712758 6.26 188.682
TN303 2013-10-26T04:22:00.00Z -2.159722 -81.713308 6.35 190.096
TN303 2013-10-26T04:23:00.00Z -2.163307 -81.713752 6.33 189.104
TN303 2013-10-26T04:24:00.00Z -2.166658 -81.714348 6.26 188.682
TN303 2013-10-26T04:25:00.00Z -2.170103 -81.714878 6.38 189.026
TN303 2013-10-26T04:26:00.00Z -2.173573 -81.715407 6.56 189.758
TN303 2013-10-26T04:26:59.00Z -2.176967 -81.71594 6.48 188.387
TN303 2013-10-26T04:27:59.00Z -2.180415 -81.716447 6.63 190.15
TN303 2013-10-26T04:28:59.00Z -2.183855 -81.716997 6.35 190.096
TN303 2013-10-26T04:29:59.00Z -2.187313 -81.717543 6.67 189.597
TN303 2013-10-26T04:31:00.00Z -2.190822 -81.718115 6.35 190.096
TN303 2013-10-26T04:32:00.00Z -2.194272 -81.718647 6.47 187.9
TN303 2013-10-26T04:33:00.00Z -2.197748 -81.719165 6.45 189.924
TN303 2013-10-26T04:33:59.00Z -2.20116 -81.71972 6.45 189.924
TN303 2013-10-26T04:34:59.00Z -2.204622 -81.72031 6.35 190.096
TN303 2013-10-26T04:36:00.00Z -2.208127 -81.720875 6.29 190.184
TN303 2013-10-26T04:36:59.00Z -2.211518 -81.721382 6.55 188.798
TN303 2013-10-26T04:37:59.00Z -2.214955 -81.721925 6.37 191.081
TN303 2013-10-26T04:38:59.00Z -2.218382 -81.722495 6.35 190.096
TN303 2013-10-26T04:39:59.00Z -2.221812 -81.723065 6.6 188.724
TN303 2013-10-26T04:40:59.00Z -2.225247 -81.723655 6.51 189.84
TN303 2013-10-26T04:41:59.00Z -2.228655 -81.724233 6.32 188.606
TN303 2013-10-26T04:43:00.00Z -2.232127 -81.724827 6.33 189.104
TN303 2013-10-26T04:43:59.00Z -2.23549 -81.725378 6.43 188.458
TN303 2013-10-26T04:45:00.00Z -2.23898 -81.725962 6.35 190.096
TN303 2013-10-26T04:46:00.00Z -2.242402 -81.726512 6.19 187.741
TN303 2013-10-26T04:46:59.00Z -2.245738 -81.72704 6.56 189.757
TN303 2013-10-26T04:48:00.00Z -2.249193 -81.727637 6.29 190.184
TN303 2013-10-26T04:48:59.00Z -2.252538 -81.728187 6.3 190.681
TN303 2013-10-26T04:49:59.00Z -2.255947 -81.728765 6.37 191.081
TN303 2013-10-26T04:51:00.00Z -2.25941 -81.729357 6.45 189.923
TN303 2013-10-26T04:51:59.00Z -2.26276 -81.729883 6.54 188.316
TN303 2013-10-26T04:52:59.00Z -2.266167 -81.730465 6.3 187.606
TN303 2013-10-26T04:53:59.00Z -2.269588 -81.731008 6.55 189.278
TN303 2013-10-26T04:55:00.00Z -2.273068 -81.731567 6.27 189.183
TN303 2013-10-26T04:55:59.00Z -2.276432 -81.732127 6.15 188.324
TN303 2013-10-26T04:57:00.00Z -2.27991 -81.732718 6.45 189.436
TN303 2013-10-26T04:58:00.00Z -2.283338 -81.733262 6.38 189.025
TN303 2013-10-26T04:59:00.00Z -2.286765 -81.733815 6.45 189.923
TN303 2013-10-26T05:00:00.00Z -2.290167 -81.734392 6.07 190.552
TN303 2013-10-26T05:01:00.00Z -2.293578 -81.734953 6.4 190.008
TN303 2013-10-26T05:01:59.00Z -2.296948 -81.735488 6.45 189.436
TN303 2013-10-26T05:03:00.00Z -2.30044 -81.736028 6.35 190.095
TN303 2013-10-26T05:03:59.00Z -2.303822 -81.73656 6.48 188.386
TN303 2013-10-26T05:04:59.00Z -2.307242 -81.737088 6.51 189.839
TN303 2013-10-26T05:05:59.00Z -2.310683 -81.73758 6.4 190.008
TN303 2013-10-26T05:06:59.00Z -2.314095 -81.738142 6.33 189.103
TN303 2013-10-26T05:07:59.00Z -2.317528 -81.738677 6.4 186.487
TN303 2013-10-26T05:09:00.00Z -2.321042 -81.739245 6.33 189.103
TN303 2013-10-26T05:09:59.00Z -2.324435 -81.739803 6.58 190.711
TN303 2013-10-26T05:10:59.00Z -2.327908 -81.740372 6.44 188.947
TN303 2013-10-26T05:11:59.00Z -2.331368 -81.740943 6.52 187.348
TN303 2013-10-26T05:13:00.00Z -2.33488 -81.74151 6.35 190.095
TN303 2013-10-26T05:14:00.00Z -2.338337 -81.742068 6.35 190.095
TN303 2013-10-26T05:15:00.00Z -2.341803 -81.742642 6.42 187.967
TN303 2013-10-26T05:15:59.00Z -2.345223 -81.74321 6.56 189.756
TN303 2013-10-26T05:17:00.00Z -2.348755 -81.743802 6.51 189.839
TN303 2013-10-26T05:18:00.00Z -2.352202 -81.74442 6.51 189.839
TN303 2013-10-26T05:19:00.00Z -2.355648 -81.745022 6.4 190.008
TN303 2013-10-26T05:20:00.00Z -2.359088 -81.74563 6.43 188.458
TN303 2013-10-26T05:20:59.00Z -2.362518 -81.746175 6.44 188.947
TN303 2013-10-26T05:21:59.00Z -2.366002 -81.746788 6.64 190.622
TN303 2013-10-26T05:22:59.00Z -2.369477 -81.747365 6.71 188.58
TN303 2013-10-26T05:24:00.00Z -2.373023 -81.747958 6.45 189.436
TN303 2013-10-26T05:25:00.00Z -2.376487 -81.748527 6.47 187.899
TN303 2013-10-26T05:25:59.00Z -2.37987 -81.749093 6.39 192.059
TN303 2013-10-26T05:26:59.00Z -2.3833 -81.749685 6.56 189.756
TN303 2013-10-26T05:27:59.00Z -2.386733 -81.750268 6.52 187.348
TN303 2013-10-26T05:28:59.00Z -2.390158 -81.750833 6.26 188.681
TN303 2013-10-26T05:30:00.00Z -2.393637 -81.751415 6.59 188.245
TN303 2013-10-26T05:31:00.00Z -2.397072 -81.751968 6.43 188.457
TN303 2013-10-26T05:31:59.00Z -2.400438 -81.752497 6.27 189.183
TN303 2013-10-26T05:33:00.00Z -2.403913 -81.753073 6.39 189.517
TN303 2013-10-26T05:33:59.00Z -2.407293 -81.753618 6.33 192.163
TN303 2013-10-26T05:34:59.00Z -2.410715 -81.75419 6.49 191.374
TN303 2013-10-26T05:36:00.00Z -2.414218 -81.754768 6.29 190.183
TN303 2013-10-26T05:36:59.00Z -2.417597 -81.755317 6.44 188.947
TN303 2013-10-26T05:38:00.00Z -2.421083 -81.755897 6.52 187.348
TN303 2013-10-26T05:39:00.00Z -2.424513 -81.756478 6.45 189.922
TN303 2013-10-26T05:40:00.00Z -2.427943 -81.757047 6.46 190.408
TN303 2013-10-26T05:40:59.00Z -2.431333 -81.757615 6.18 190.364
TN303 2013-10-26T05:42:00.00Z -2.434847 -81.758213 6.27 189.182
TN303 2013-10-26T05:42:59.00Z -2.438253 -81.758785 6.45 189.922
TN303 2013-10-26T05:44:00.00Z -2.441763 -81.75939 6.31 191.176
TN303 2013-10-26T05:44:59.00Z -2.44515 -81.759983 6.37 191.08
TN303 2013-10-26T05:46:00.00Z -2.448647 -81.760555 6.49 188.871
TN303 2013-10-26T05:47:00.00Z -2.45209 -81.761165 6.56 189.756
TN303 2013-10-26T05:48:00.00Z -2.455535 -81.761755 6.55 188.796
TN303 2013-10-26T05:48:59.00Z -2.458933 -81.76231 6.38 189.024
TN303 2013-10-26T05:50:00.00Z -2.462453 -81.762903 6.4 190.007
TN303 2013-10-26T05:51:00.00Z -2.465903 -81.763497 6.42 187.966
TN303 2013-10-26T05:51:59.00Z -2.469317 -81.764068 6.51 189.838
TN303 2013-10-26T05:53:00.00Z -2.472867 -81.764712 6.51 189.838
TN303 2013-10-26T05:54:00.00Z -2.476373 -81.765318 6.47 190.891
TN303 2013-10-26T05:55:00.00Z -2.479887 -81.765935 6.45 189.922
TN303 2013-10-26T05:55:59.00Z -2.483355 -81.7665 6.62 189.674
TN303 2013-10-26T05:57:00.00Z -2.486935 -81.76711 6.58 190.709
TN303 2013-10-26T05:57:59.00Z -2.490405 -81.76771 6.58 190.709
TN303 2013-10-26T05:58:59.00Z -2.493938 -81.768285 6.54 188.314
TN303 2013-10-26T05:59:59.00Z -2.497463 -81.768877 6.67 189.594
TN303 2013-10-26T06:01:00.00Z -2.50103 -81.769482 6.52 187.347
TN303 2013-10-26T06:01:59.00Z -2.504478 -81.770062 6.65 188.65
TN303 2013-10-26T06:02:59.00Z -2.507995 -81.770612 6.58 187.766
TN303 2013-10-26T06:04:00.00Z -2.511587 -81.7712 6.53 190.799
TN303 2013-10-26T06:04:59.00Z -2.51506 -81.771743 6.56 189.755
TN303 2013-10-26T06:05:59.00Z -2.518595 -81.772307 6.65 191.091
TN303 2013-10-26T06:06:59.00Z -2.522127 -81.77292 6.78 189.439
TN303 2013-10-26T06:07:59.00Z -2.525648 -81.773525 6.58 190.709
TN303 2013-10-26T06:09:00.00Z -2.529245 -81.774115 6.62 189.674
TN303 2013-10-26T06:10:00.00Z -2.532777 -81.774712 6.6 188.722
TN303 2013-10-26T06:10:59.00Z -2.536273 -81.775305 6.82 188.44
TN303 2013-10-26T06:11:59.00Z -2.53983 -81.775915 6.37 191.079
TN303 2013-10-26T06:13:00.00Z -2.54341 -81.77651 6.6 188.722
TN303 2013-10-26T06:13:59.00Z -2.546863 -81.7771 6.67 189.594
TN303 2013-10-26T06:15:00.00Z -2.550432 -81.777712 6.52 190.319
TN303 2013-10-26T06:16:00.00Z -2.55396 -81.77827 6.55 188.795
TN303 2013-10-26T06:17:00.00Z -2.557473 -81.778857 6.53 187.831
TN303 2013-10-26T06:18:00.00Z -2.560965 -81.779435 6.55 188.795
TN303 2013-10-26T06:19:00.00Z -2.564448 -81.780015 6.54 188.314
TN303 2013-10-26T06:19:59.00Z -2.567882 -81.780585 6.58 187.285
TN303 2013-10-26T06:21:00.00Z -2.571438 -81.781135 6.56 189.755
TN303 2013-10-26T06:22:00.00Z -2.574928 -81.781718 6.56 189.755
TN303 2013-10-26T06:22:59.00Z -2.578338 -81.782282 6.67 189.594
TN303 2013-10-26T06:23:59.00Z -2.581807 -81.782868 6.34 189.598
TN303 2013-10-26T06:24:59.00Z -2.585298 -81.783432 6.55 188.795
TN303 2013-10-26T06:26:00.00Z -2.588855 -81.784018 6.28 189.682
TN303 2013-10-26T06:26:59.00Z -2.59229 -81.784548 6.56 189.755
TN303 2013-10-26T06:27:59.00Z -2.595787 -81.785112 6.44 188.946
TN303 2013-10-26T06:28:59.00Z -2.599275 -81.78565 6.45 189.921
TN303 2013-10-26T06:30:00.00Z -2.602823 -81.786193 6.72 189.047
TN303 2013-10-26T06:31:00.00Z -2.606302 -81.786768 6.51 189.837
TN303 2013-10-26T06:31:59.00Z -2.60972 -81.787303 6.34 189.598
TN303 2013-10-26T06:32:59.00Z -2.61318 -81.787853 6.52 187.347
TN303 2013-10-26T06:34:00.00Z -2.616717 -81.788427 6.46 190.406
TN303 2013-10-26T06:34:59.00Z -2.620145 -81.78896 6.6 188.722
TN303 2013-10-26T06:36:00.00Z -2.623662 -81.789547 6.49 188.87
TN303 2013-10-26T06:37:00.00Z -2.627132 -81.790108 6.71 188.578
TN303 2013-10-26T06:38:00.00Z -2.630618 -81.790697 6.4 190.006
TN303 2013-10-26T06:39:00.00Z -2.63409 -81.791245 6.4 186.486
TN303 2013-10-26T06:40:00.00Z -2.637557 -81.7918 6.43 188.456
TN303 2013-10-26T06:40:59.00Z -2.640967 -81.792335 6.83 191.738
TN303 2013-10-26T06:41:59.00Z -2.64444 -81.792925 6.43 188.456
TN303 2013-10-26T06:42:59.00Z -2.647925 -81.7935 6.44 188.945
TN303 2013-10-26T06:44:00.00Z -2.65146 -81.794085 6.64 190.619
TN303 2013-10-26T06:45:00.00Z -2.65493 -81.794628 6.45 189.92
TN303 2013-10-26T06:45:59.00Z -2.658347 -81.795178 6.64 190.619
TN303 2013-10-26T06:46:59.00Z -2.661823 -81.79575 6.55 188.795
TN303 2013-10-26T06:47:59.00Z -2.665298 -81.796335 6.59 191.183
TN303 2013-10-26T06:49:00.00Z -2.668782 -81.797128 6.45 194.471
TN303 2013-10-26T06:50:00.00Z -2.672192 -81.798002 6.34 196.307
TN303 2013-10-26T06:51:00.00Z -2.675572 -81.799022 6.66 195.505
TN303 2013-10-26T06:51:59.00Z -2.678912 -81.800007 6.41 196.645
TN303 2013-10-26T06:52:59.00Z -2.682313 -81.800983 6.6 197.158
TN303 2013-10-26T06:53:59.00Z -2.685713 -81.80201 6.35 196.788
TN303 2013-10-26T06:54:59.00Z -2.6891 -81.80301 6.76 196.743
TN303 2013-10-26T06:55:59.00Z -2.69247 -81.804145 6.38 202.005
TN303 2013-10-26T06:57:00.00Z -2.695785 -81.805538 6.32 203.315
TN303 2013-10-26T06:58:00.00Z -2.699043 -81.806885 6.62 203.252
TN303 2013-10-26T06:59:00.00Z -2.70225 -81.808358 6.52 209.096
TN303 2013-10-26T06:59:59.00Z -2.705353 -81.809905 6.83 205.027
TN303 2013-10-26T07:01:00.00Z -2.70859 -81.811478 6.39 206.916
TN303 2013-10-26T07:02:00.00Z -2.71175 -81.813095 6.61 208.63
TN303 2013-10-26T07:03:00.00Z -2.714885 -81.814742 6.19 206.693
TN303 2013-10-26T07:03:59.00Z -2.717955 -81.816353 6.56 207.778
TN303 2013-10-26T07:05:00.00Z -2.72114 -81.818015 6.34 206.019
TN303 2013-10-26T07:06:00.00Z -2.724267 -81.81964 6.29 206.24
TN303 2013-10-26T07:07:00.00Z -2.727407 -81.821283 6.56 207.777
TN303 2013-10-26T07:07:59.00Z -2.730492 -81.822932 6.41 207.359
TN303 2013-10-26T07:09:00.00Z -2.733658 -81.824643 6.73 206.481
TN303 2013-10-26T07:10:00.00Z -2.736757 -81.826337 6.24 207.605
TN303 2013-10-26T07:10:59.00Z -2.73983 -81.827973 6.7 209.882
TN303 2013-10-26T07:12:00.00Z -2.743032 -81.82964 6.69 208.82
TN303 2013-10-26T07:13:00.00Z -2.74612 -81.831313 6.59 209.284
TN303 2013-10-26T07:13:59.00Z -2.749132 -81.83295 6.46 211.104
TN303 2013-10-26T07:14:59.00Z -2.752092 -81.834797 6.3 212.577
TN303 2013-10-26T07:16:00.00Z -2.75505 -81.836742 6.61 214.905
TN303 2013-10-26T07:16:59.00Z -2.75787 -81.838702 6.66 216.354
TN303 2013-10-26T07:17:59.00Z -2.76067 -81.840805 6.67 215.688
TN303 2013-10-26T07:18:59.00Z -2.763468 -81.842938 6.54 216.536
TN303 2013-10-26T07:20:00.00Z -2.766302 -81.845105 6.55 218.284
TN303 2013-10-26T07:20:59.00Z -2.76903 -81.847218 6.6 217.311
TN303 2013-10-26T07:21:59.00Z -2.771772 -81.849373 6.78 219.181
TN303 2013-10-26T07:23:00.00Z -2.774578 -81.851563 6.66 218.74
TN303 2013-10-26T07:24:00.00Z -2.777373 -81.853693 6.54 218.966
TN303 2013-10-26T07:25:00.00Z -2.78013 -81.8559 6.4 217.419
TN303 2013-10-26T07:26:00.00Z -2.782915 -81.85807 6.78 219.181
TN303 2013-10-26T07:27:00.00Z -2.785818 -81.860057 6.59 209.283
TN303 2013-10-26T07:28:00.00Z -2.788878 -81.86185 6.61 211.433
TN303 2013-10-26T07:29:00.00Z -2.792062 -81.863317 6.53 199.918
TN303 2013-10-26T07:29:59.00Z -2.795372 -81.864343 6.39 192.055
TN303 2013-10-26T07:31:00.00Z -2.798888 -81.864883 6.52 186.861
TN303 2013-10-26T07:31:59.00Z -2.802307 -81.865135 6.37 183.502
TN303 2013-10-26T07:32:59.00Z -2.805828 -81.865368 6.64 180.96
TN303 2013-10-26T07:34:00.00Z -2.80938 -81.865388 6.42 181.986
TN303 2013-10-26T07:35:00.00Z -2.812892 -81.865457 6.52 179.024
TN303 2013-10-26T07:36:00.00Z -2.816393 -81.865517 6.58 180.484
TN303 2013-10-26T07:37:00.00Z -2.819867 -81.865557 6.64 182.399
TN303 2013-10-26T07:38:00.00Z -2.82338 -81.865632 6.64 182.399
TN303 2013-10-26T07:38:59.00Z -2.826852 -81.865685 6.36 181.503
TN303 2013-10-26T07:39:59.00Z -2.830367 -81.865753 6.52 180.976
TN303 2013-10-26T07:41:00.00Z -2.833955 -81.865817 6.41 180.0
TN303 2013-10-26T07:41:59.00Z -2.837382 -81.865883 6.52 180.976
TN303 2013-10-26T07:43:00.00Z -2.84095 -81.865952 6.52 180.488
TN303 2013-10-26T07:44:00.00Z -2.844485 -81.86601 6.42 181.986
TN303 2013-10-26T07:45:00.00Z -2.848043 -81.866093 6.58 181.936
TN303 2013-10-26T07:45:59.00Z -2.851535 -81.866202 6.63 180.48
TN303 2013-10-26T07:46:59.00Z -2.855073 -81.86627 6.59 183.867
TN303 2013-10-26T07:47:59.00Z -2.858625 -81.866355 6.75 181.416
TN303 2013-10-26T07:48:59.00Z -2.862162 -81.866442 6.36 180.501
TN303 2013-10-26T07:50:00.00Z -2.865718 -81.866528 6.19 181.029
TN303 2013-10-26T07:51:00.00Z -2.869217 -81.866607 6.63 180.48
TN303 2013-10-26T07:51:59.00Z -2.87269 -81.86664 6.8 179.063
TN303 2013-10-26T07:53:00.00Z -2.87629 -81.866702 6.8 179.063
TN303 2013-10-26T07:54:00.00Z -2.87985 -81.866755 6.36 181.502
TN303 2013-10-26T07:54:59.00Z -2.883358 -81.866817 6.47 181.477
TN303 2013-10-26T07:55:59.00Z -2.88693 -81.866898 6.54 183.413
TN303 2013-10-26T07:57:00.00Z -2.890567 -81.86699 6.63 180.0
TN303 2013-10-26T07:57:59.00Z -2.894087 -81.86704 6.64 178.56
TN303 2013-10-26T07:59:00.00Z -2.897723 -81.867073 6.64 180.96
TN303 2013-10-26T07:59:59.00Z -2.901252 -81.867125 6.63 180.0
TN303 2013-10-26T08:01:00.00Z -2.90487 -81.867163 6.41 180.0
TN303 2013-10-26T08:02:00.00Z -2.908423 -81.867237 6.63 180.48
TN303 2013-10-26T08:03:00.00Z -2.911962 -81.8673 6.53 182.439
TN303 2013-10-26T08:03:59.00Z -2.91543 -81.867352 6.52 179.024
TN303 2013-10-26T08:04:59.00Z -2.918935 -81.867397 6.36 181.502
TN303 2013-10-26T08:06:00.00Z -2.92255 -81.867442 6.47 182.46
TN303 2013-10-26T08:06:59.00Z -2.926022 -81.867487 6.36 180.501
TN303 2013-10-26T08:08:00.00Z -2.92963 -81.86753 6.42 181.986
TN303 2013-10-26T08:09:00.00Z -2.933223 -81.867563 6.58 180.968
TN303 2013-10-26T08:09:59.00Z -2.936717 -81.867608 6.42 182.481
TN303 2013-10-26T08:10:59.00Z -2.940258 -81.867663 6.63 180.0
TN303 2013-10-26T08:11:59.00Z -2.9438 -81.867742 6.53 181.464
TN303 2013-10-26T08:12:59.00Z -2.947363 -81.86779 6.58 180.968
TN303 2013-10-26T08:14:00.00Z -2.950962 -81.867803 6.64 178.56
TN303 2013-10-26T08:14:59.00Z -2.954453 -81.867858 6.47 182.46
TN303 2013-10-26T08:15:59.00Z -2.958033 -81.86794 6.47 180.0
TN303 2013-10-26T08:16:59.00Z -2.961538 -81.867977 6.3 180.505
TN303 2013-10-26T08:18:00.00Z -2.965112 -81.868068 6.41 180.993
TN303 2013-10-26T08:19:00.00Z -2.968708 -81.868195 6.76 183.301
TN303 2013-10-26T08:19:59.00Z -2.972268 -81.868263 6.58 180.0
TN303 2013-10-26T08:21:00.00Z -2.975863 -81.868335 6.36 181.002
TN303 2013-10-26T08:22:00.00Z -2.979378 -81.868393 6.58 181.935
TN303 2013-10-26T08:22:59.00Z -2.982848 -81.868478 6.63 179.52
TN303 2013-10-26T08:24:00.00Z -2.986415 -81.868572 6.47 181.477
TN303 2013-10-26T08:24:59.00Z -2.989862 -81.868665 6.52 180.0
TN303 2013-10-26T08:26:00.00Z -2.993447 -81.868815 6.42 181.489
TN303 2013-10-26T08:27:00.00Z -2.996957 -81.868908 6.36 182.503
TN303 2013-10-26T08:27:59.00Z -3.000417 -81.868998 6.25 182.038
TN303 2013-10-26T08:28:59.00Z -3.003923 -81.869095 6.64 181.44
TN303 2013-10-26T08:30:00.00Z -3.007487 -81.869182 6.64 180.96
TN303 2013-10-26T08:30:59.00Z -3.010927 -81.869255 6.53 181.464
TN303 2013-10-26T08:32:00.00Z -3.01452 -81.869348 6.42 181.985
TN303 2013-10-26T08:32:59.00Z -3.017998 -81.869448 6.58 180.0
TN303 2013-10-26T08:33:59.00Z -3.021508 -81.869512 6.63 180.48
TN303 2013-10-26T08:34:59.00Z -3.025 -81.869738 6.68 186.689
TN303 2013-10-26T08:35:59.00Z -3.028482 -81.870028 6.45 185.937
TN303 2013-10-26T08:36:59.00Z -3.031942 -81.870333 6.54 184.385
TN303 2013-10-26T08:37:59.00Z -3.035455 -81.870595 6.76 183.772
TN303 2013-10-26T08:39:00.00Z -3.039062 -81.870888 6.72 185.694
TN303 2013-10-26T08:39:59.00Z -3.042562 -81.871147 6.65 183.834
TN303 2013-10-26T08:41:00.00Z -3.046153 -81.871413 6.59 183.384
TN303 2013-10-26T08:42:00.00Z -3.049715 -81.871687 6.77 184.711
TN303 2013-10-26T08:42:59.00Z -3.053252 -81.871962 6.82 184.672
TN303 2013-10-26T08:43:59.00Z -3.056822 -81.872233 6.82 184.672
TN303 2013-10-26T08:45:00.00Z -3.060422 -81.872537 6.81 182.807
TN303 2013-10-26T08:45:59.00Z -3.063933 -81.872818 6.38 184.996
TN303 2013-10-26T08:46:59.00Z -3.06749 -81.873122 6.53 182.439
TN303 2013-10-26T08:47:59.00Z -3.071023 -81.873398 6.6 184.348
TN303 2013-10-26T08:48:59.00Z -3.074555 -81.873652 6.53 182.926
TN303 2013-10-26T08:50:00.00Z -3.078162 -81.873947 6.38 184.996
TN303 2013-10-26T08:50:59.00Z -3.081617 -81.874258 6.39 185.988
TN303 2013-10-26T08:51:59.00Z -3.085158 -81.874555 6.62 186.267
TN303 2013-10-26T08:52:59.00Z -3.088742 -81.874828 6.7 183.328
TN303 2013-10-26T08:53:59.00Z -3.092308 -81.875155 6.76 183.771
TN303 2013-10-26T08:54:59.00Z -3.095852 -81.87541 6.44 184.953
TN303 2013-10-26T08:56:00.00Z -3.099462 -81.875715 6.38 184.996
TN303 2013-10-26T08:57:00.00Z -3.102968 -81.87598 6.77 184.71
TN303 2013-10-26T08:57:59.00Z -3.106452 -81.876275 6.44 184.953
TN303 2013-10-26T08:59:00.00Z -3.110003 -81.876583 6.33 185.039
TN303 2013-10-26T08:59:59.00Z -3.11348 -81.876873 6.65 184.312
TN303 2013-10-26T09:00:59.00Z -3.117048 -81.877155 6.75 182.359
TN303 2013-10-26T09:01:59.00Z -3.120663 -81.877457 6.76 183.771
TN303 2013-10-26T09:02:59.00Z -3.124243 -81.877693 6.78 185.647
TN303 2013-10-26T09:04:00.00Z -3.127867 -81.877987 6.44 184.953
TN303 2013-10-26T09:05:00.00Z -3.131417 -81.87824 6.15 183.627
TN303 2013-10-26T09:06:00.00Z -3.134938 -81.878498 6.54 183.899
TN303 2013-10-26T09:07:00.00Z -3.138458 -81.878722 6.48 182.951
TN303 2013-10-26T09:08:00.00Z -3.141997 -81.878957 6.44 184.953
TN303 2013-10-26T09:09:00.00Z -3.145537 -81.879167 6.53 182.926
TN303 2013-10-26T09:09:59.00Z -3.149023 -81.879373 6.86 182.321
TN303 2013-10-26T09:10:59.00Z -3.152578 -81.879595 6.48 183.932
TN303 2013-10-26T09:11:59.00Z -3.156073 -81.879857 6.47 182.46
TN303 2013-10-26T09:13:00.00Z -3.159592 -81.880092 6.09 183.138
TN303 2013-10-26T09:14:00.00Z -3.163027 -81.880303 6.37 183.501
TN303 2013-10-26T09:14:59.00Z -3.166408 -81.880537 6.48 182.951
TN303 2013-10-26T09:15:59.00Z -3.169868 -81.880752 6.32 184.035
TN303 2013-10-26T09:17:00.00Z -3.173418 -81.880953 6.36 182.502
TN303 2013-10-26T09:17:59.00Z -3.176865 -81.881172 6.37 184.0
TN303 2013-10-26T09:18:59.00Z -3.180407 -81.881392 6.42 182.976
TN303 2013-10-26T09:19:59.00Z -3.183945 -81.881648 6.65 184.311
TN303 2013-10-26T09:21:00.00Z -3.18754 -81.881908 6.22 185.128
TN303 2013-10-26T09:22:00.00Z -3.191058 -81.882133 6.48 183.441
TN303 2013-10-26T09:23:00.00Z -3.19455 -81.882378 6.56 185.836
TN303 2013-10-26T09:24:00.00Z -3.198052 -81.882687 6.42 182.481
TN303 2013-10-26T09:24:59.00Z -3.201475 -81.882937 6.65 183.834
TN303 2013-10-26T09:26:00.00Z -3.20501 -81.88319 6.11 185.221
TN303 2013-10-26T09:26:59.00Z -3.208408 -81.883488 6.6 184.347
TN303 2013-10-26T09:28:00.00Z -3.211963 -81.883737 6.49 184.91
TN303 2013-10-26T09:29:00.00Z -3.215438 -81.884043 6.34 186.04
TN303 2013-10-26T09:30:00.00Z -3.21887 -81.884323 6.47 182.46
TN303 2013-10-26T09:31:00.00Z -3.222288 -81.884587 6.55 184.869
TN303 2013-10-26T09:32:00.00Z -3.225692 -81.884858 6.64 182.398
TN303 2013-10-26T09:33:00.00Z -3.229135 -81.885133 5.89 185.417
TN303 2013-10-26T09:34:00.00Z -3.232555 -81.885388 6.56 185.836
TN303 2013-10-26T09:34:59.00Z -3.235915 -81.885677 6.23 186.654
TN303 2013-10-26T09:36:00.00Z -3.239368 -81.885975 6.31 183.532
TN303 2013-10-26T09:37:00.00Z -3.242778 -81.886277 6.55 184.869
TN303 2013-10-26T09:38:00.00Z -3.246202 -81.886558 6.38 184.498
TN303 2013-10-26T09:38:59.00Z -3.249598 -81.886832 6.49 184.91
TN303 2013-10-26T09:39:59.00Z -3.25304 -81.887112 6.37 183.002
TN303 2013-10-26T09:41:00.00Z -3.256525 -81.88739 5.95 186.431
TN303 2013-10-26T09:41:59.00Z -3.259922 -81.887643 6.54 183.412
TN303 2013-10-26T09:42:59.00Z -3.263397 -81.887885 6.14 182.592
TN303 2013-10-26T09:44:00.00Z -3.266918 -81.888127 6.6 184.828
TN303 2013-10-26T09:44:59.00Z -3.270338 -81.888367 6.38 184.995
TN303 2013-10-26T09:46:00.00Z -3.273887 -81.888628 6.28 186.092
TN303 2013-10-26T09:47:00.00Z -3.27736 -81.88886 6.47 182.459
TN303 2013-10-26T09:47:59.00Z -3.280788 -81.889175 6.67 189.588
TN303 2013-10-26T09:49:00.00Z -3.284303 -81.889713 6.45 189.915
TN303 2013-10-26T09:49:59.00Z -3.287645 -81.890272 6.45 189.915
TN303 2013-10-26T09:50:59.00Z -3.291075 -81.890803 6.45 189.428
TN303 2013-10-26T09:52:00.00Z -3.294582 -81.891337 6.73 189.509
TN303 2013-10-26T09:53:00.00Z -3.297975 -81.891882 6.82 188.435
TN303 2013-10-26T09:54:00.00Z -3.301327 -81.892465 6.29 190.175
TN303 2013-10-26T09:55:00.00Z -3.304727 -81.892995 6.44 188.94
TN303 2013-10-26T09:56:00.00Z -3.308122 -81.89354 6.29 190.175
TN303 2013-10-26T09:57:00.00Z -3.311487 -81.894065 6.44 188.94
TN303 2013-10-26T09:58:00.00Z -3.314868 -81.894633 6.66 189.116
TN303 2013-10-26T09:58:59.00Z -3.318187 -81.895175 6.33 189.095
TN303 2013-10-26T09:59:59.00Z -3.321575 -81.895708 6.05 188.99
TN303 2013-10-26T10:01:00.00Z -3.325035 -81.896257 6.3 187.599
TN303 2013-10-26T10:01:59.00Z -3.32836 -81.8968 6.29 190.174
TN303 2013-10-26T10:02:59.00Z -3.33174 -81.897368 6.17 189.848
TN303 2013-10-26T10:04:00.00Z -3.335193 -81.897912 6.38 189.017
TN303 2013-10-26T10:04:59.00Z -3.338567 -81.898443 6.73 189.509
TN303 2013-10-26T10:06:00.00Z -3.342027 -81.89902 6.51 189.83
TN303 2013-10-26T10:06:59.00Z -3.34534 -81.899578 6.15 188.829
TN303 2013-10-26T10:08:00.00Z -3.348808 -81.900118 6.45 189.428
TN303 2013-10-26T10:08:59.00Z -3.35217 -81.90067 6.15 188.828
TN303 2013-10-26T10:10:00.00Z -3.355645 -81.90123 6.3 187.599
TN303 2013-10-26T10:11:00.00Z -3.359048 -81.901785 6.43 191.462
TN303 2013-10-26T10:11:59.00Z -3.362398 -81.902342 6.13 190.448
TN303 2013-10-26T10:13:00.00Z -3.365877 -81.902898 6.32 188.598
TN303 2013-10-26T10:13:59.00Z -3.369245 -81.903465 6.54 188.308
TN303 2013-10-26T10:14:59.00Z -3.372645 -81.904018 6.52 187.342
TN303 2013-10-26T10:15:59.00Z -3.376063 -81.904563 6.28 189.675
TN303 2013-10-26T10:17:00.00Z -3.379552 -81.905117 6.6 188.716
TN303 2013-10-26T10:17:59.00Z -3.382943 -81.905648 6.5 191.845
TN303 2013-10-26T10:18:59.00Z -3.386395 -81.906215 6.64 190.612
TN303 2013-10-26T10:20:00.00Z -3.389892 -81.906793 6.51 192.324
TN303 2013-10-26T10:21:00.00Z -3.393345 -81.907368 6.3 187.598
TN303 2013-10-26T10:21:59.00Z -3.396753 -81.907935 6.65 188.643
TN303 2013-10-26T10:22:59.00Z -3.400245 -81.908492 6.42 187.959
TN303 2013-10-26T10:23:59.00Z -3.403773 -81.909062 6.4 189.999
TN303 2013-10-26T10:25:00.00Z -3.407342 -81.909675 6.32 188.597
TN303 2013-10-26T10:26:00.00Z -3.410825 -81.910245 6.27 189.174
TN303 2013-10-26T10:26:59.00Z -3.414213 -81.910798 6.25 187.665
TN303 2013-10-26T10:28:00.00Z -3.417738 -81.911388 6.6 188.715
TN303 2013-10-26T10:29:00.00Z -3.421187 -81.911987 6.44 188.939
TN303 2013-10-26T10:30:00.00Z -3.424678 -81.91244 6.65 188.643
TN303 2013-10-26T10:30:59.00Z -3.428093 -81.912912 6.52 187.341
TN303 2013-10-26T10:32:00.00Z -3.431572 -81.913402 6.47 187.891
TN303 2013-10-26T10:32:59.00Z -3.434977 -81.913887 6.47 187.404
TN303 2013-10-26T10:33:59.00Z -3.438477 -81.914348 6.7 188.102
TN303 2013-10-26T10:34:59.00Z -3.442007 -81.914735 6.27 185.082
TN303 2013-10-26T10:36:00.00Z -3.445462 -81.915042 5.99 184.257
TN303 2013-10-26T10:37:00.00Z -3.44892 -81.915313 6.2 183.594
TN303 2013-10-26T10:38:00.00Z -3.4524 -81.915612 6.28 185.587
TN303 2013-10-26T10:38:59.00Z -3.455805 -81.915905 6.27 185.082
TN303 2013-10-26T10:40:00.00Z -3.45934 -81.916222 6.39 185.49
TN303 2013-10-26T10:40:59.00Z -3.462788 -81.916525 6.37 183.5
TN303 2013-10-26T10:42:00.00Z -3.466337 -81.916822 6.43 183.964
TN303 2013-10-26T10:43:00.00Z -3.46982 -81.917138 6.65 184.31
TN303 2013-10-26T10:44:00.00Z -3.473345 -81.917485 6.44 184.951
TN303 2013-10-26T10:45:00.00Z -3.476832 -81.917805 6.29 186.594
TN303 2013-10-26T10:46:00.00Z -3.480318 -81.918113 6.55 184.867
TN303 2013-10-26T10:47:00.00Z -3.483777 -81.91864 6.18 190.354
TN303 2013-10-26T10:47:59.00Z -3.487158 -81.91923 6.05 192.188
TN303 2013-10-26T10:48:59.00Z -3.490595 -81.919827 6.33 189.094
TN303 2013-10-26T10:49:59.00Z -3.4941 -81.920425 6.71 188.571
TN303 2013-10-26T10:50:59.00Z -3.497658 -81.921032 6.73 189.507
TN303 2013-10-26T10:51:59.00Z -3.501183 -81.921632 7.09 188.105
TN303 2013-10-26T10:52:59.00Z -3.504695 -81.922212 6.69 187.631
TN303 2013-10-26T10:54:00.00Z -3.508275 -81.922818 6.28 189.674
TN303 2013-10-26T10:55:00.00Z -3.511708 -81.923412 6.73 189.507
TN303 2013-10-26T10:55:59.00Z -3.515135 -81.923982 6.55 188.788
TN303 2013-10-26T10:56:59.00Z -3.518648 -81.924585 6.04 191.673
TN303 2013-10-26T10:58:00.00Z -3.52218 -81.925193 6.45 189.912
TN303 2013-10-26T10:59:00.00Z -3.525637 -81.925833 6.23 189.759
TN303 2013-10-26T11:00:00.00Z -3.529067 -81.926468 6.56 185.834
TN303 2013-10-26T11:00:59.00Z -3.532453 -81.927067 6.95 189.657
TN303 2013-10-26T11:01:59.00Z -3.535945 -81.92769 6.49 191.363
TN303 2013-10-26T11:03:00.00Z -3.539467 -81.928328 6.77 191.363
TN303 2013-10-26T11:03:59.00Z -3.542875 -81.928923 6.37 191.069
TN303 2013-10-26T11:04:59.00Z -3.546302 -81.929527 6.49 191.363
TN303 2013-10-26T11:06:00.00Z -3.549795 -81.930182 6.56 189.746
TN303 2013-10-26T11:06:59.00Z -3.553227 -81.930808 6.75 190.437
TN303 2013-10-26T11:08:00.00Z -3.556733 -81.93145 6.4 189.997
TN303 2013-10-26T11:09:00.00Z -3.560152 -81.932075 6.54 191.267
TN303 2013-10-26T11:09:59.00Z -3.563518 -81.932712 6.57 190.223
TN303 2013-10-26T11:11:00.00Z -3.567108 -81.933347 6.67 189.585
TN303 2013-10-26T11:12:00.00Z -3.570573 -81.933965 6.58 190.699
TN303 2013-10-26T11:12:59.00Z -3.573908 -81.934583 6.17 189.846
TN303 2013-10-26T11:14:00.00Z -3.577372 -81.935208 6.17 189.846
TN303 2013-10-26T11:15:00.00Z -3.580748 -81.935853 6.4 189.997
TN303 2013-10-26T11:15:59.00Z -3.584065 -81.936473 6.04 191.672
TN303 2013-10-26T11:17:00.00Z -3.58748 -81.937148 6.66 191.55
TN303 2013-10-26T11:17:59.00Z -3.59081 -81.937817 6.35 190.083
TN303 2013-10-26T11:19:00.00Z -3.594308 -81.93851 6.18 190.353
TN303 2013-10-26T11:19:59.00Z -3.5977 -81.93903 6.47 190.88
TN303 2013-10-26T11:21:00.00Z -3.60127 -81.939605 6.03 187.944
TN303 2013-10-26T11:22:00.00Z -3.604735 -81.94013 6.02 190.636
TN303 2013-10-26T11:22:59.00Z -3.608137 -81.94073 6.51 189.828
TN303 2013-10-26T11:24:00.00Z -3.611652 -81.941323 6.62 189.664
TN303 2013-10-26T11:25:00.00Z -3.615155 -81.9419 6.56 189.745
TN303 2013-10-26T11:26:00.00Z -3.618638 -81.942462 6.82 188.432
TN303 2013-10-26T11:27:00.00Z -3.622142 -81.94295 6.48 188.376
TN303 2013-10-26T11:27:59.00Z -3.625533 -81.943418 6.33 185.037
TN303 2013-10-26T11:29:00.00Z -3.628992 -81.943885 6.19 187.732
TN303 2013-10-26T11:29:59.00Z -3.63232 -81.944373 6.59 188.236
TN303 2013-10-26T11:31:00.00Z -3.635745 -81.94485 6.23 186.652
TN303 2013-10-26T11:31:59.00Z -3.639078 -81.94529 6.15 188.826
TN303 2013-10-26T11:33:00.00Z -3.642533 -81.945772 6.34 186.536
TN303 2013-10-26T11:34:00.00Z -3.645955 -81.946233 6.41 187.466
TN303 2013-10-26T11:35:00.00Z -3.649352 -81.946687 6.47 187.89
TN303 2013-10-26T11:35:59.00Z -3.652705 -81.947133 6.27 184.575
TN303 2013-10-26T11:37:00.00Z -3.65618 -81.947563 6.24 187.158
TN303 2013-10-26T11:37:59.00Z -3.659508 -81.948008 6.41 187.466
TN303 2013-10-26T11:39:00.00Z -3.66295 -81.948443 6.25 187.663
TN303 2013-10-26T11:39:59.00Z -3.666255 -81.94889 6.59 188.236
TN303 2013-10-26T11:41:00.00Z -3.669677 -81.949348 6.41 186.973
TN303 2013-10-26T11:42:00.00Z -3.673075 -81.949795 6.23 186.651
TN303 2013-10-26T11:43:00.00Z -3.676468 -81.95024 5.99 189.069
TN303 2013-10-26T11:44:00.00Z -3.679865 -81.950687 6.22 185.635
TN303 2013-10-26T11:44:59.00Z -3.683223 -81.9511 6.43 188.447
TN303 2013-10-26T11:45:59.00Z -3.686617 -81.951565 5.94 189.153
TN303 2013-10-26T11:46:59.00Z -3.689997 -81.95201 6.19 187.731
TN303 2013-10-26T11:47:59.00Z -3.693423 -81.952475 6.4 186.479
TN303 2013-10-26T11:48:59.00Z -3.69686 -81.952925 6.14 187.801
TN303 2013-10-26T11:50:00.00Z -3.700342 -81.953407 6.15 188.314
TN303 2013-10-26T11:50:59.00Z -3.703722 -81.953865 6.4 186.479
TN303 2013-10-26T11:52:00.00Z -3.707193 -81.954338 6.62 189.663
TN303 2013-10-26T11:52:59.00Z -3.71059 -81.954793 6.68 186.685
TN303 2013-10-26T11:53:59.00Z -3.714078 -81.955243 6.54 188.305
TN303 2013-10-26T11:55:00.00Z -3.717623 -81.955778 6.37 188.52
TN303 2013-10-26T11:56:00.00Z -3.721105 -81.95629 6.44 188.936
TN303 2013-10-26T11:57:00.00Z -3.724563 -81.956823 6.51 192.319
TN303 2013-10-26T11:58:00.00Z -3.728025 -81.957352 6.53 187.822
TN303 2013-10-26T11:59:00.00Z -3.731503 -81.957867 6.69 187.629
TN303 2013-10-26T12:00:00.00Z -3.734982 -81.958377 6.31 188.095
TN303 2013-10-26T12:01:00.00Z -3.738473 -81.958885 6.55 188.785
TN303 2013-10-26T12:02:00.00Z -3.741968 -81.959425 6.43 188.447
TN303 2013-10-26T12:02:59.00Z -3.74539 -81.95995 6.66 184.785
TN303 2013-10-26T12:03:59.00Z -3.748877 -81.960498 6.32 188.594
TN303 2013-10-26T12:05:00.00Z -3.752392 -81.96104 6.35 190.082
TN303 2013-10-26T12:05:59.00Z -3.755793 -81.96159 6.18 190.351
TN303 2013-10-26T12:06:59.00Z -3.759285 -81.962157 6.44 188.936
TN303 2013-10-26T12:08:00.00Z -3.762823 -81.962723 6.35 187.033
TN303 2013-10-26T12:08:59.00Z -3.76623 -81.96329 6.25 187.662
TN303 2013-10-26T12:10:00.00Z -3.769748 -81.96388 6.4 189.995
TN303 2013-10-26T12:10:59.00Z -3.773158 -81.96445 6.45 189.91
TN303 2013-10-26T12:12:00.00Z -3.776648 -81.965015 6.29 190.17
TN303 2013-10-26T12:13:00.00Z -3.780072 -81.965575 6.24 190.259
TN303 2013-10-26T12:14:00.00Z -3.783478 -81.966155 7.0 189.131
TN303 2013-10-26T12:15:00.00Z -3.786845 -81.966743 6.47 190.878
TN303 2013-10-26T12:15:59.00Z -3.79015 -81.967337 6.57 190.22
TN303 2013-10-26T12:16:59.00Z -3.793538 -81.967923 6.45 189.909
TN303 2013-10-26T12:17:59.00Z -3.79694 -81.96851 6.55 188.785
TN303 2013-10-26T12:19:00.00Z -3.800393 -81.969093 6.44 191.941
TN303 2013-10-26T12:19:59.00Z -3.803748 -81.969653 6.52 187.338
TN303 2013-10-26T12:21:00.00Z -3.807227 -81.970227 6.21 191.861
TN303 2013-10-26T12:21:59.00Z -3.810613 -81.970775 6.45 189.909
TN303 2013-10-26T12:23:00.00Z -3.814115 -81.971368 6.3 187.595
TN303 2013-10-26T12:24:00.00Z -3.817523 -81.97196 6.47 190.877
TN303 2013-10-26T12:25:00.00Z -3.820943 -81.972552 6.15 188.312
TN303 2013-10-26T12:26:00.00Z -3.824333 -81.973133 6.17 192.471
TN303 2013-10-26T12:27:00.00Z -3.827738 -81.973715 6.55 188.785
TN303 2013-10-26T12:28:00.00Z -3.831168 -81.974307 6.3 190.666
TN303 2013-10-26T12:28:59.00Z -3.834557 -81.974877 6.73 189.504
TN303 2013-10-26T12:29:59.00Z -3.83805 -81.975468 6.6 191.642
TN303 2013-10-26T12:31:00.00Z -3.841532 -81.976058 6.21 188.745
TN303 2013-10-26T12:31:59.00Z -3.844862 -81.976628 6.26 191.259
TN303 2013-10-26T12:33:00.00Z -3.848318 -81.977192 6.58 187.756
TN303 2013-10-26T12:33:59.00Z -3.851675 -81.977745 6.35 190.081
TN303 2013-10-26T12:35:00.00Z -3.855167 -81.978345 6.37 191.065
TN303 2013-10-26T12:36:00.00Z -3.85853 -81.97891 6.37 191.065
TN303 2013-10-26T12:37:00.00Z -3.861883 -81.97949 6.45 189.909
TN303 2013-10-26T12:37:59.00Z -3.86523 -81.980037 6.56 186.314
TN303 2013-10-26T12:38:59.00Z -3.86864 -81.980592 6.44 188.934
TN303 2013-10-26T12:39:59.00Z -3.872048 -81.981138 6.28 189.67
TN303 2013-10-26T12:41:00.00Z -3.87549 -81.98171 6.16 189.334
TN303 2013-10-26T12:41:59.00Z -3.87881 -81.982297 6.21 191.86
TN303 2013-10-26T12:42:59.00Z -3.882187 -81.982897 6.21 191.86
TN303 2013-10-26T12:43:59.00Z -3.885552 -81.98351 6.44 188.934
TN303 2013-10-26T12:45:00.00Z -3.889012 -81.984083 6.72 189.036
TN303 2013-10-26T12:45:59.00Z -3.892362 -81.984635 6.09 191.563
TN303 2013-10-26T12:46:59.00Z -3.89578 -81.985202 6.49 191.358
TN303 2013-10-26T12:48:00.00Z -3.899305 -81.985802 6.73 189.503
TN303 2013-10-26T12:48:59.00Z -3.902712 -81.986372 6.56 192.214
TN303 2013-10-26T12:49:59.00Z -3.906133 -81.986967 6.29 190.168
TN303 2013-10-26T12:50:59.00Z -3.909507 -81.98757 6.24 190.258
TN303 2013-10-26T12:52:00.00Z -3.912963 -81.98817 6.08 187.869
TN303 2013-10-26T12:52:59.00Z -3.916315 -81.988738 6.18 190.349
TN303 2013-10-26T12:54:00.00Z -3.919823 -81.98934 6.42 190.969
TN303 2013-10-26T12:55:00.00Z -3.923318 -81.989928 6.81 187.967
TN303 2013-10-26T12:55:59.00Z -3.926765 -81.990523 6.37 191.064
TN303 2013-10-26T12:56:59.00Z -3.930308 -81.991145 6.49 191.358
TN303 2013-10-26T12:57:59.00Z -3.9338 -81.991737 6.44 188.934
TN303 2013-10-26T12:59:00.00Z -3.93734 -81.992365 6.31 191.16
TN303 2013-10-26T12:59:59.00Z -3.940803 -81.992975 6.58 190.694
TN303 2013-10-26T13:01:00.00Z -3.944385 -81.993522 6.44 184.948
TN303 2013-10-26T13:01:59.00Z -3.947863 -81.993875 6.78 185.642
TN303 2013-10-26T13:02:59.00Z -3.951408 -81.99424 6.63 187.215
TN303 2013-10-26T13:04:00.00Z -3.954973 -81.994607 6.76 183.768
TN303 2013-10-26T13:05:00.00Z -3.958495 -81.994968 6.55 184.865
TN303 2013-10-26T13:06:00.00Z -3.962035 -81.995337 6.47 187.887
TN303 2013-10-26T13:07:00.00Z -3.965562 -81.995728 6.56 185.832
TN303 2013-10-26T13:08:00.00Z -3.969037 -81.996122 6.44 184.948
TN303 2013-10-26T13:09:00.00Z -3.972483 -81.996518 6.9 186.469
TN303 2013-10-26T13:10:00.00Z -3.975977 -81.99689 6.48 188.373
TN303 2013-10-26T13:11:00.00Z -3.979472 -81.997263 6.43 184.455
TN303 2013-10-26T13:12:00.00Z -3.98296 -81.997615 6.21 184.103
TN303 2013-10-26T13:13:00.00Z -3.986455 -81.998043 7.05 185.421
TN303 2013-10-26T13:13:59.00Z -3.989898 -81.998457 6.67 186.209
TN303 2013-10-26T13:15:00.00Z -3.993428 -81.998895 5.84 186.547
TN303 2013-10-26T13:16:00.00Z -3.995935 -81.999225 2.9 187.699
TN303 2013-10-26T13:17:00.00Z -3.997172 -81.999542 1.92 198.508
TN303 2013-10-26T13:18:00.00Z -3.9979 -81.999945 1.69 221.13
TN303 2013-10-26T13:18:59.00Z -3.998498 -82.000383 1.47 214.4
TN303 2013-10-26T13:20:00.00Z -3.999273 -82.00087 1.86 216.645
TN303 2013-10-26T13:20:59.00Z -4.000382 -82.001277 2.45 194.408
TN303 2013-10-26T13:22:00.00Z -4.001977 -82.001522 3.62 187.046
TN303 2013-10-26T13:23:00.00Z -4.004102 -82.001595 4.16 183.83
TN303 2013-10-26T13:24:00.00Z -4.006557 -82.001492 4.62 173.785
TN303 2013-10-26T13:24:59.00Z -4.009265 -82.001132 5.73 173.327
TN303 2013-10-26T13:26:00.00Z -4.012545 -82.000582 6.6 168.36
TN303 2013-10-26T13:26:59.00Z -4.01583 -81.999903 6.65 168.925
TN303 2013-10-26T13:27:59.00Z -4.019223 -81.999223 6.45 170.093
TN303 2013-10-26T13:29:00.00Z -4.022697 -81.99852 6.26 168.743
TN303 2013-10-26T13:30:00.00Z -4.02613 -81.997837 6.4 170.008
TN303 2013-10-26T13:31:00.00Z -4.029563 -81.997157 6.5 168.164
TN303 2013-10-26T13:32:00.00Z -4.033002 -81.996447 6.33 167.856
TN303 2013-10-26T13:32:59.00Z -4.03641 -81.995758 6.29 169.834
TN303 2013-10-26T13:34:00.00Z -4.039918 -81.995055 6.42 169.032
TN303 2013-10-26T13:35:00.00Z -4.04339 -81.994395 6.27 170.832
TN303 2013-10-26T13:35:59.00Z -4.046807 -81.993727 6.51 170.177
TN303 2013-10-26T13:36:59.00Z -4.050277 -81.99306 6.51 170.177
TN303 2013-10-26T13:37:59.00Z -4.053745 -81.992403 6.33 170.912
TN303 2013-10-26T13:39:00.00Z -4.057222 -81.991745 6.43 166.508
TN303 2013-10-26T13:40:00.00Z -4.060692 -81.991083 6.46 169.609
TN303 2013-10-26T13:41:00.00Z -4.064148 -81.990427 6.6 168.361
TN303 2013-10-26T13:42:00.00Z -4.067528 -81.98976 5.64 168.644
TN303 2013-10-26T13:43:00.00Z -4.069768 -81.989367 3.21 176.038
TN303 2013-10-26T13:44:00.00Z -4.070962 -81.989323 1.58 155.134
TN303 2013-10-26T13:45:00.00Z -4.071597 -81.989357 0.72 184.417
TN303 2013-10-26T13:45:59.00Z -4.071788 -81.989525 0.46 256.02
TN303 2013-10-26T13:46:59.00Z -4.071667 -81.989817 0.5 353.634
TN303 2013-10-26T13:48:00.00Z -4.071447 -81.990123 0.55 314.881
TN303 2013-10-26T13:48:59.00Z -4.07127 -81.990352 0.35 288.364
TN303 2013-10-26T13:49:59.00Z -4.071145 -81.990573 0.4 285.883
TN303 2013-10-26T13:51:00.00Z -4.07108 -81.990792 0.48 324.35
TN303 2013-10-26T13:52:00.00Z -4.070992 -81.991042 0.6 291.72
TN303 2013-10-26T13:52:59.00Z -4.070915 -81.991273 0.48 305.425
TN303 2013-10-26T13:54:00.00Z -4.070847 -81.991525 0.56 264.313
TN303 2013-10-26T13:54:59.00Z -4.07075 -81.991812 0.77 290.958
TN303 2013-10-26T13:56:00.00Z -4.070607 -81.992315 1.13 281.264
TN303 2013-10-26T13:57:00.00Z -4.070423 -81.992807 0.94 297.974
TN303 2013-10-26T13:57:59.00Z -4.070227 -81.99311 0.95 349.951
TN303 2013-10-26T13:59:00.00Z -4.07009 -81.993258 0.75 222.106
TN303 2013-10-26T14:00:00.00Z -4.07007 -81.993273 0.06 90.0
TN303 2013-10-26T14:00:59.00Z -4.070133 -81.993183 0.45 82.904
TN303 2013-10-26T14:02:00.00Z -4.070127 -81.993168 0.18 108.364
TN303 2013-10-26T14:02:59.00Z -4.070097 -81.99322 0.28 0.0
TN303 2013-10-26T14:03:59.00Z -4.070033 -81.993263 0.15 111.72
TN303 2013-10-26T14:05:00.00Z -4.070097 -81.993197 0.33 180.0
TN303 2013-10-26T14:06:00.00Z -4.070152 -81.993175 0.16 314.881
TN303 2013-10-26T14:07:00.00Z -4.070128 -81.993228 0.39 45.119
TN303 2013-10-26T14:08:00.00Z -4.0701 -81.993258 0.17 90.0
TN303 2013-10-26T14:09:00.00Z -4.070135 -81.993212 0.28 90.0
TN303 2013-10-26T14:10:00.00Z -4.070173 -81.99318 0.17 0.0
TN303 2013-10-26T14:11:00.00Z -4.070152 -81.993193 0.11 90.0
TN303 2013-10-26T14:11:59.00Z -4.070138 -81.993225 0.2 236.42
TN303 2013-10-26T14:12:59.00Z -4.070155 -81.993232 0.32 328.931
TN303 2013-10-26T14:14:00.00Z -4.070173 -81.993207 0.0 0.0
TN303 2013-10-26T14:14:59.00Z -4.070148 -81.993193 0.17 18.506
TN303 2013-10-26T14:15:59.00Z -4.0701 -81.993212 0.78 225.119
TN303 2013-10-26T14:16:59.00Z -4.070098 -81.993228 0.0 0.0
TN303 2013-10-26T14:18:00.00Z -4.07013 -81.99319 0.46 194.092
TN303 2013-10-26T14:19:00.00Z -4.070122 -81.993193 0.67 204.534
TN303 2013-10-26T14:19:59.00Z -4.070107 -81.99323 0.06 180.0
TN303 2013-10-26T14:20:59.00Z -4.070128 -81.993235 0.82 28.4
TN303 2013-10-26T14:21:59.00Z -4.070138 -81.993198 0.25 243.53
TN303 2013-10-26T14:22:59.00Z -4.070123 -81.993187 0.25 153.34
TN303 2013-10-26T14:23:59.00Z -4.070117 -81.993217 0.32 328.931
TN303 2013-10-26T14:24:59.00Z -4.070082 -81.99323 0.28 180.0
TN303 2013-10-26T14:25:59.00Z -4.070075 -81.993217 0.28 90.0
TN303 2013-10-26T14:27:00.00Z -4.070107 -81.993175 0.24 225.119
TN303 2013-10-26T14:28:01.00Z -4.070105 -81.993175 0.11 270.0
TN303 2013-10-26T14:28:59.00Z -4.070103 -81.993227 0.32 211.069
TN303 2013-10-26T14:30:00.00Z -4.070113 -81.993237 0.22 90.0
TN303 2013-10-26T14:30:59.00Z -4.070152 -81.993223 0.44 90.0
TN303 2013-10-26T14:32:00.00Z -4.070162 -81.99321 0.3 338.117
TN303 2013-10-26T14:32:59.00Z -4.070132 -81.993227 0.17 270.0
TN303 2013-10-26T14:34:00.00Z -4.070108 -81.993223 0.28 281.264
TN303 2013-10-26T14:34:59.00Z -4.070102 -81.99322 0.11 0.0
TN303 2013-10-26T14:36:00.00Z -4.070105 -81.993197 0.32 211.069
TN303 2013-10-26T14:36:59.00Z -4.070138 -81.993177 0.09 191.356
TN303 2013-10-26T14:38:00.00Z -4.070118 -81.993202 0.46 14.092
TN303 2013-10-26T14:39:00.00Z -4.070102 -81.993223 0.67 270.0
TN303 2013-10-26T14:40:00.00Z -4.070107 -81.993217 0.06 180.0
TN303 2013-10-26T14:40:59.00Z -4.07012 -81.993193 0.39 8.163
TN303 2013-10-26T14:41:59.00Z -4.07012 -81.993187 0.11 0.0
TN303 2013-10-26T14:43:00.00Z -4.070113 -81.993208 0.22 180.0
TN303 2013-10-26T14:43:59.00Z -4.070132 -81.993222 0.22 0.0
TN303 2013-10-26T14:45:00.00Z -4.070092 -81.993237 0.28 191.356
TN303 2013-10-26T14:46:00.00Z -4.070122 -81.993227 0.31 45.119
TN303 2013-10-26T14:46:59.00Z -4.070152 -81.993188 0.22 239.141
TN303 2013-10-26T14:48:00.00Z -4.070138 -81.993203 0.28 168.644
TN303 2013-10-26T14:48:59.00Z -4.070103 -81.993218 0.22 270.0
TN303 2013-10-26T14:50:00.00Z -4.070093 -81.993198 0.3 248.28
TN303 2013-10-26T14:50:59.00Z -4.070122 -81.993177 0.35 38.776
TN303 2013-10-26T14:51:59.00Z -4.070122 -81.993168 0.6 291.719
TN303 2013-10-26T14:53:00.00Z -4.070088 -81.993212 0.28 78.736
TN303 2013-10-26T14:54:00.00Z -4.070087 -81.993207 0.12 333.34
TN303 2013-10-26T14:55:00.00Z -4.070122 -81.993195 0.18 108.364
TN303 2013-10-26T14:56:00.00Z -4.070145 -81.993188 0.72 247.465
TN303 2013-10-26T14:56:59.00Z -4.070125 -81.993222 0.68 55.12
TN303 2013-10-26T14:58:00.00Z -4.07012 -81.993237 0.28 270.0
TN303 2013-10-26T14:59:00.00Z -4.070132 -81.993238 0.71 51.456
TN303 2013-10-26T15:00:00.00Z -4.070158 -81.99321 0.32 59.141
TN303 2013-10-26T15:00:59.00Z -4.070138 -81.99321 0.48 234.575
TN303 2013-10-26T15:01:59.00Z -4.07012 -81.99322 0.17 0.0
TN303 2013-10-26T15:03:00.00Z -4.070102 -81.993205 0.32 31.069
TN303 2013-10-26T15:04:00.00Z -4.070098 -81.993197 0.28 180.0
TN303 2013-10-26T15:04:59.00Z -4.070108 -81.993177 0.33 270.0
TN303 2013-10-26T15:05:59.00Z -4.070115 -81.993172 0.11 0.0
TN303 2013-10-26T15:07:00.00Z -4.070107 -81.993183 0.3 201.883
TN303 2013-10-26T15:08:00.00Z -4.070097 -81.9932 0.28 323.016
TN303 2013-10-26T15:08:59.00Z -4.07011 -81.993198 0.51 257.522
TN303 2013-10-26T15:09:59.00Z -4.070118 -81.993187 0.3 158.117
TN303 2013-10-26T15:10:59.00Z -4.070107 -81.993198 0.28 0.0
TN303 2013-10-26T15:12:00.00Z -4.07009 -81.993197 0.94 45.119
TN303 2013-10-26T15:13:00.00Z -4.070078 -81.993187 0.32 211.069
TN303 2013-10-26T15:14:00.00Z -4.070127 -81.993207 0.22 90.0
TN303 2013-10-26T15:15:00.00Z -4.070138 -81.993227 0.17 341.494
TN303 2013-10-26T15:15:59.00Z -4.070115 -81.993242 0.22 120.859
TN303 2013-10-26T15:17:00.00Z -4.070107 -81.99323 0.16 26.66
TN303 2013-10-26T15:18:00.00Z -4.070122 -81.993227 0.22 90.0
TN303 2013-10-26T15:18:59.00Z -4.07012 -81.993198 0.3 248.28
TN303 2013-10-26T15:20:00.00Z -4.070102 -81.993203 0.25 296.47
TN303 2013-10-26T15:21:00.00Z -4.070087 -81.993208 0.4 343.992
TN303 2013-10-26T15:21:59.00Z -4.070083 -81.993198 0.32 59.141
TN303 2013-10-26T15:22:59.00Z -4.070142 -81.993197 0.22 90.0
TN303 2013-10-26T15:24:00.00Z -4.070163 -81.993207 0.23 76.02
TN303 2013-10-26T15:24:59.00Z -4.070137 -81.993215 0.08 116.47
TN303 2013-10-26T15:25:59.00Z -4.070103 -81.99322 0.12 63.53
TN303 2013-10-26T15:27:00.00Z -4.070098 -81.993208 0.39 225.119
TN303 2013-10-26T15:27:59.00Z -4.070113 -81.993187 0.35 231.456
TN303 2013-10-26T15:28:59.00Z -4.070118 -81.993188 0.4 326.2
TN303 2013-10-26T15:29:59.00Z -4.070082 -81.993223 0.28 180.0
TN303 2013-10-26T15:31:00.00Z -4.07014 -81.993255 0.4 236.42
TN303 2013-10-26T15:32:00.00Z -4.070193 -81.993397 0.28 270.0
TN303 2013-10-26T15:33:00.00Z -4.070192 -81.993617 0.43 309.688
TN303 2013-10-26T15:34:00.00Z -4.070235 -81.993825 0.32 31.069
TN303 2013-10-26T15:34:59.00Z -4.070307 -81.993988 0.67 265.256
TN303 2013-10-26T15:35:59.00Z -4.07036 -81.994137 0.46 283.98
TN303 2013-10-26T15:37:00.00Z -4.07043 -81.994268 0.11 180.0
TN303 2013-10-26T15:38:00.00Z -4.070483 -81.994365 0.6 248.281
TN303 2013-10-26T15:38:59.00Z -4.070525 -81.994475 0.28 270.0
TN303 2013-10-26T15:39:59.00Z -4.070585 -81.994603 0.3 111.72
TN303 2013-10-26T15:40:59.00Z -4.070623 -81.994693 0.35 218.776
TN303 2013-10-26T15:42:00.00Z -4.07067 -81.9948 0.16 314.881
TN303 2013-10-26T15:43:00.00Z -4.07073 -81.994908 0.11 270.0
TN303 2013-10-26T15:44:00.00Z -4.070782 -81.995017 0.43 309.688
TN303 2013-10-26T15:45:00.00Z -4.07081 -81.995123 0.4 254.117
TN303 2013-10-26T15:45:59.00Z -4.070878 -81.995222 0.18 288.364
TN303 2013-10-26T15:46:59.00Z -4.07095 -81.99533 0.11 90.0
TN303 2013-10-26T15:47:59.00Z -4.07096 -81.995428 0.51 282.478
TN303 2013-10-26T15:48:59.00Z -4.070977 -81.99552 0.12 116.47
TN303 2013-10-26T15:49:59.00Z -4.07105 -81.99559 0.48 234.575
TN303 2013-10-26T15:50:59.00Z -4.071087 -81.995672 0.12 116.47
TN303 2013-10-26T15:52:00.00Z -4.071102 -81.995742 0.17 270.0
TN303 2013-10-26T15:53:00.00Z -4.071142 -81.995808 0.53 251.636
TN303 2013-10-26T15:54:00.00Z -4.071175 -81.995892 0.32 211.069
TN303 2013-10-26T15:55:00.00Z -4.071212 -81.995943 0.3 68.28
TN303 2013-10-26T15:56:00.00Z -4.071235 -81.996012 0.32 59.141
TN303 2013-10-26T15:56:59.00Z -4.07126 -81.996067 0.11 0.0
TN303 2013-10-26T15:57:59.00Z -4.071277 -81.996113 0.06 180.0
TN303 2013-10-26T15:59:00.00Z -4.071293 -81.99619 0.66 0.0
TN303 2013-10-26T15:59:59.00Z -4.07133 -81.996235 0.11 0.0
TN303 2013-10-26T16:00:59.00Z -4.071403 -81.996293 0.57 241.046
TN303 2013-10-26T16:01:59.00Z -4.071433 -81.996383 0.87 230.311
TN303 2013-10-26T16:02:59.00Z -4.071442 -81.996482 0.2 303.581
TN303 2013-10-26T16:04:00.00Z -4.071455 -81.996548 0.17 161.494
TN303 2013-10-26T16:04:59.00Z -4.071498 -81.996608 0.17 90.0
TN303 2013-10-26T16:06:00.00Z -4.07156 -81.996665 0.24 45.119
TN303 2013-10-26T16:07:00.00Z -4.071577 -81.996732 0.06 270.0
TN303 2013-10-26T16:07:59.00Z -4.071565 -81.99677 0.24 225.119
TN303 2013-10-26T16:08:59.00Z -4.07158 -81.996773 0.17 161.494
TN303 2013-10-26T16:09:59.00Z -4.071623 -81.99675 0.4 254.117
TN303 2013-10-26T16:10:59.00Z -4.07162 -81.996742 0.2 314.881
TN303 2013-10-26T16:12:00.00Z -4.071585 -81.996737 0.31 45.119
TN303 2013-10-26T16:13:00.00Z -4.071557 -81.996745 0.11 0.0
TN303 2013-10-26T16:14:00.00Z -4.071565 -81.99673 0.11 90.0
TN303 2013-10-26T16:14:59.00Z -4.071588 -81.996728 0.06 0.0
TN303 2013-10-26T16:16:00.00Z -4.071608 -81.996723 0.48 305.425
TN303 2013-10-26T16:17:00.00Z -4.07158 -81.996728 0.33 0.0
TN303 2013-10-26T16:17:59.00Z -4.071543 -81.996742 0.06 90.0
TN303 2013-10-26T16:19:00.00Z -4.071547 -81.996725 0.39 261.903
TN303 2013-10-26T16:20:00.00Z -4.07158 -81.996713 0.46 103.98
TN303 2013-10-26T16:20:59.00Z -4.071575 -81.996698 0.4 343.992
TN303 2013-10-26T16:22:00.00Z -4.071555 -81.996717 0.28 90.0
TN303 2013-10-26T16:22:59.00Z -4.071585 -81.996727 0.11 180.0
TN303 2013-10-26T16:23:59.00Z -4.071605 -81.996743 0.0 0.0
TN303 2013-10-26T16:25:00.00Z -4.071593 -81.996745 0.18 71.636
TN303 2013-10-26T16:25:59.00Z -4.071585 -81.996728 0.17 180.0
TN303 2013-10-26T16:26:59.00Z -4.071588 -81.996738 0.43 39.922
TN303 2013-10-26T16:28:00.00Z -4.071578 -81.996735 0.17 270.0
TN303 2013-10-26T16:28:59.00Z -4.071583 -81.996733 0.3 248.28
TN303 2013-10-26T16:30:00.00Z -4.071603 -81.996713 0.32 31.069
TN303 2013-10-26T16:31:01.00Z -4.071582 -81.996722 0.18 251.636
TN303 2013-10-26T16:31:59.00Z -4.071567 -81.996735 0.11 90.0
TN303 2013-10-26T16:32:59.00Z -4.071585 -81.996732 0.28 191.356
TN303 2013-10-26T16:34:00.00Z -4.071617 -81.996728 0.32 120.859
TN303 2013-10-26T16:35:00.00Z -4.071582 -81.996733 0.3 338.117
TN303 2013-10-26T16:36:00.00Z -4.071525 -81.99675 0.39 270.0
TN303 2013-10-26T16:36:59.00Z -4.07155 -81.996765 0.17 270.0
TN303 2013-10-26T16:38:00.00Z -4.07163 -81.996748 0.35 161.494
TN303 2013-10-26T16:39:00.00Z -4.071643 -81.996745 0.28 270.0
TN303 2013-10-26T16:39:59.00Z -4.071588 -81.996738 0.08 45.119
TN303 2013-10-26T16:40:59.00Z -4.071515 -81.996757 0.35 288.364
TN303 2013-10-26T16:41:59.00Z -4.071547 -81.996735 0.3 201.883
TN303 2013-10-26T16:42:59.00Z -4.071628 -81.996715 0.16 225.119
TN303 2013-10-26T16:44:00.00Z -4.0716 -81.996705 0.22 90.0
TN303 2013-10-26T16:45:00.00Z -4.071543 -81.996712 0.28 78.736
TN303 2013-10-26T16:46:00.00Z -4.071518 -81.996715 0.4 236.419
TN303 2013-10-26T16:47:00.00Z -4.071575 -81.996682 0.28 90.0
TN303 2013-10-26T16:48:00.00Z -4.07159 -81.996673 0.2 56.419
TN303 2013-10-26T16:48:59.00Z -4.071562 -81.996713 0.28 180.0
TN303 2013-10-26T16:49:59.00Z -4.07156 -81.996745 0.44 270.0
TN303 2013-10-26T16:50:59.00Z -4.071575 -81.99676 0.24 134.881
TN303 2013-10-26T16:51:59.00Z -4.071618 -81.99673 0.16 134.881
TN303 2013-10-26T16:52:59.00Z -4.07161 -81.996708 0.12 26.66
TN303 2013-10-26T16:54:00.00Z -4.071558 -81.996722 0.11 270.0
TN303 2013-10-26T16:55:00.00Z -4.071527 -81.996735 0.2 56.419
TN303 2013-10-26T16:55:59.00Z -4.071567 -81.996698 0.18 108.364
TN303 2013-10-26T16:56:59.00Z -4.071577 -81.996673 0.16 314.881
TN303 2013-10-26T16:58:00.00Z -4.071567 -81.99669 0.28 258.736
TN303 2013-10-26T16:59:00.00Z -4.071558 -81.996722 0.06 270.0
TN303 2013-10-26T17:00:00.00Z -4.071548 -81.996735 0.2 236.419
TN303 2013-10-26T17:00:59.00Z -4.071583 -81.996732 0.25 153.34
TN303 2013-10-26T17:01:59.00Z -4.071615 -81.996702 0.28 126.756
TN303 2013-10-26T17:03:00.00Z -4.071588 -81.99671 0.48 54.575
TN303 2013-10-26T17:04:00.00Z -4.071533 -81.996723 0.57 241.046
TN303 2013-10-26T17:05:00.00Z -4.071542 -81.996738 0.28 258.736
TN303 2013-10-26T17:05:59.00Z -4.071575 -81.996717 0.24 225.119
TN303 2013-10-26T17:06:59.00Z -4.071603 -81.996715 0.16 134.881
TN303 2013-10-26T17:07:59.00Z -4.071605 -81.996725 0.28 270.0
TN303 2013-10-26T17:09:00.00Z -4.07157 -81.996735 0.16 134.881
TN303 2013-10-26T17:10:00.00Z -4.07152 -81.996762 0.39 90.0
TN303 2013-10-26T17:11:00.00Z -4.071562 -81.996742 0.44 180.0
TN303 2013-10-26T17:11:59.00Z -4.071633 -81.996715 0.18 71.636
TN303 2013-10-26T17:13:00.00Z -4.071622 -81.996702 0.12 333.34
TN303 2013-10-26T17:14:00.00Z -4.071547 -81.996718 0.11 180.0
TN303 2013-10-26T17:15:00.00Z -4.071393 -81.996673 0.31 225.119
TN303 2013-10-26T17:15:59.00Z -4.071568 -81.99669 0.25 206.66
TN303 2013-10-26T17:17:00.00Z -4.071592 -81.996693 0.25 333.34
TN303 2013-10-26T17:18:00.00Z -4.071613 -81.996698 0.35 218.776
TN303 2013-10-26T17:18:59.00Z -4.071628 -81.996712 0.17 0.0
TN303 2013-10-26T17:20:00.00Z -4.07161 -81.996742 0.12 333.34
TN303 2013-10-26T17:20:59.00Z -4.07159 -81.99675 0.17 90.0
TN303 2013-10-26T17:21:59.00Z -4.071593 -81.99674 0.56 90.0
TN303 2013-10-26T17:23:00.00Z -4.071602 -81.996722 0.11 90.0
TN303 2013-10-26T17:23:59.00Z -4.071583 -81.996693 0.17 0.0
TN303 2013-10-26T17:25:00.00Z -4.07154 -81.996705 0.2 326.2
TN303 2013-10-26T17:26:00.00Z -4.071517 -81.996703 0.28 101.264
TN303 2013-10-26T17:26:59.00Z -4.07153 -81.996688 0.06 90.0
TN303 2013-10-26T17:27:59.00Z -4.071567 -81.996672 0.12 333.34
TN303 2013-10-26T17:28:59.00Z -4.071583 -81.996683 0.43 39.922
TN303 2013-10-26T17:30:00.00Z -4.071547 -81.996708 0.28 36.984
TN303 2013-10-26T17:30:59.00Z -4.071533 -81.996725 0.39 278.097
TN303 2013-10-26T17:31:59.00Z -4.071557 -81.996722 0.17 198.506
TN303 2013-10-26T17:32:59.00Z -4.071598 -81.996712 0.22 180.0
TN303 2013-10-26T17:34:00.00Z -4.071607 -81.996702 0.22 90.0
TN303 2013-10-26T17:34:59.00Z -4.071572 -81.996718 0.28 0.0
TN303 2013-10-26T17:36:00.00Z -4.071547 -81.996725 0.11 90.0
TN303 2013-10-26T17:36:59.00Z -4.071582 -81.996717 0.35 308.544
TN303 2013-10-26T17:38:00.00Z -4.071605 -81.99671 0.31 225.119
TN303 2013-10-26T17:38:59.00Z -4.071607 -81.996702 0.06 270.0
TN303 2013-10-26T17:40:00.00Z -4.071558 -81.996713 0.37 26.66
TN303 2013-10-26T17:41:00.00Z -4.071525 -81.996723 0.11 90.0
TN303 2013-10-26T17:41:59.00Z -4.071558 -81.996715 0.17 0.0
TN303 2013-10-26T17:42:59.00Z -4.071572 -81.996707 0.16 45.119
TN303 2013-10-26T17:43:59.00Z -4.071605 -81.996692 0.2 303.581
TN303 2013-10-26T17:45:00.00Z -4.071588 -81.99669 0.3 248.28
TN303 2013-10-26T17:45:59.00Z -4.07152 -81.996715 0.28 90.0
TN303 2013-10-26T17:46:59.00Z -4.071505 -81.996742 0.07 180.0
TN303 2013-10-26T17:47:59.00Z -4.071575 -81.996722 0.11 180.0
TN303 2013-10-26T17:49:00.00Z -4.071623 -81.996692 0.28 270.0
TN303 2013-10-26T17:49:59.00Z -4.071598 -81.996705 0.33 0.0
TN303 2013-10-26T17:50:59.00Z -4.071547 -81.996727 0.25 63.53
TN303 2013-10-26T17:51:59.00Z -4.071555 -81.996737 0.0 0.0
TN303 2013-10-26T17:53:00.00Z -4.071608 -81.996707 0.28 78.736
TN303 2013-10-26T17:54:00.00Z -4.071625 -81.996695 0.11 0.0
TN303 2013-10-26T17:55:01.00Z -4.071597 -81.996705 0.3 291.72
TN303 2013-10-26T17:56:00.00Z -4.071557 -81.99672 0.18 251.636
TN303 2013-10-26T17:56:59.00Z -4.07153 -81.996723 0.32 239.141
TN303 2013-10-26T17:58:00.00Z -4.071578 -81.996713 0.25 243.53
TN303 2013-10-26T17:59:00.00Z -4.071627 -81.996692 0.11 270.0
TN303 2013-10-26T17:59:59.00Z -4.071618 -81.996702 0.39 81.903
TN303 2013-10-26T18:01:00.00Z -4.071563 -81.996722 0.12 206.66
TN303 2013-10-26T18:02:00.00Z -4.071545 -81.996747 0.37 243.53
TN303 2013-10-26T18:03:00.00Z -4.071583 -81.996728 0.11 180.0
TN303 2013-10-26T18:04:00.00Z -4.07161 -81.99671 0.0 0.0
TN303 2013-10-26T18:04:59.00Z -4.071605 -81.996703 0.11 180.0
TN303 2013-10-26T18:05:59.00Z -4.071582 -81.996713 0.06 90.0
TN303 2013-10-26T18:06:59.00Z -4.071555 -81.996717 0.0 0.0
TN303 2013-10-26T18:07:59.00Z -4.071552 -81.996722 0.06 180.0
TN303 2013-10-26T18:08:59.00Z -4.071567 -81.996732 0.11 90.0
TN303 2013-10-26T18:10:00.00Z -4.071627 -81.996707 0.22 90.0
TN303 2013-10-26T18:11:00.00Z -4.071625 -81.99669 0.22 90.0
TN303 2013-10-26T18:12:00.00Z -4.071578 -81.996705 0.11 180.0
TN303 2013-10-26T18:12:59.00Z -4.07157 -81.996722 0.11 90.0
TN303 2013-10-26T18:13:59.00Z -4.07159 -81.996712 0.11 180.0
TN303 2013-10-26T18:14:59.00Z -4.071607 -81.996692 0.2 303.581
TN303 2013-10-26T18:15:59.00Z -4.071597 -81.996703 0.28 101.264
TN303 2013-10-26T18:16:59.00Z -4.071567 -81.996705 0.16 45.119
TN303 2013-10-26T18:17:59.00Z -4.071552 -81.996703 0.17 90.0
TN303 2013-10-26T18:18:59.00Z -4.071552 -81.996685 0.12 243.53
TN303 2013-10-26T18:19:59.00Z -4.071573 -81.996692 0.28 191.356
TN303 2013-10-26T18:20:59.00Z -4.071587 -81.996697 0.06 270.0
TN303 2013-10-26T18:21:59.00Z -4.07157 -81.996708 0.32 148.931
TN303 2013-10-26T18:23:00.00Z -4.071557 -81.996723 0.11 90.0
TN303 2013-10-26T18:23:59.00Z -4.071567 -81.996708 0.53 251.636
TN303 2013-10-26T18:25:00.00Z -4.071595 -81.996703 0.17 180.0
TN303 2013-10-26T18:26:00.00Z -4.071608 -81.996702 0.12 206.66
TN303 2013-10-26T18:26:59.00Z -4.071577 -81.996718 0.12 243.53
TN303 2013-10-26T18:28:00.00Z -4.071557 -81.996737 0.08 225.119
TN303 2013-10-26T18:29:00.00Z -4.071577 -81.99672 0.12 116.47
TN303 2013-10-26T18:30:00.00Z -4.071592 -81.99671 0.4 56.419
TN303 2013-10-26T18:31:00.00Z -4.071578 -81.996707 0.12 63.53
TN303 2013-10-26T18:32:00.00Z -4.07157 -81.996697 0.12 206.66
TN303 2013-10-26T18:33:00.00Z -4.071582 -81.996702 0.11 0.0
TN303 2013-10-26T18:33:59.00Z -4.071572 -81.996698 0.33 90.0
TN303 2013-10-26T18:35:00.00Z -4.071565 -81.996703 0.28 90.0
TN303 2013-10-26T18:35:59.00Z -4.071575 -81.996712 0.32 239.141
TN303 2013-10-26T18:37:00.00Z -4.071595 -81.996728 0.25 153.34
TN303 2013-10-26T18:37:59.00Z -4.071598 -81.996718 0.17 18.506
TN303 2013-10-26T18:39:00.00Z -4.071577 -81.996715 0.2 146.2
TN303 2013-10-26T18:40:00.00Z -4.071562 -81.99671 0.16 45.119
TN303 2013-10-26T18:40:59.00Z -4.071573 -81.996695 0.17 90.0
TN303 2013-10-26T18:42:00.00Z -4.071598 -81.996687 0.12 206.66
TN303 2013-10-26T18:43:00.00Z -4.071572 -81.996697 0.56 270.0
TN303 2013-10-26T18:43:59.00Z -4.071557 -81.996723 0.06 90.0
TN303 2013-10-26T18:44:59.00Z -4.071587 -81.996715 0.18 251.636
TN303 2013-10-26T18:45:59.00Z -4.071588 -81.996698 0.56 84.313
TN303 2013-10-26T18:46:59.00Z -4.071582 -81.996708 0.39 45.119
TN303 2013-10-26T18:48:00.00Z -4.071568 -81.996713 0.25 243.53
TN303 2013-10-26T18:49:00.00Z -4.071577 -81.996713 0.23 256.02
TN303 2013-10-26T18:50:00.00Z -4.071592 -81.996715 0.32 31.069
TN303 2013-10-26T18:51:00.00Z -4.071592 -81.996697 0.0 0.0
TN303 2013-10-26T18:51:59.00Z -4.07158 -81.99672 0.11 270.0
TN303 2013-10-26T18:52:59.00Z -4.07156 -81.996732 0.11 180.0
TN303 2013-10-26T18:53:59.00Z -4.071602 -81.996735 0.2 146.2
TN303 2013-10-26T18:54:59.00Z -4.071627 -81.996712 0.17 270.0
TN303 2013-10-26T18:56:00.00Z -4.0716 -81.996702 0.17 341.494
TN303 2013-10-26T18:57:00.00Z -4.071563 -81.996707 0.11 180.0
TN303 2013-10-26T18:57:59.00Z -4.071563 -81.996705 0.16 225.119
TN303 2013-10-26T18:59:00.00Z -4.071587 -81.996687 0.45 262.904
TN303 2013-10-26T18:59:59.00Z -4.071588 -81.996693 0.17 18.506
TN303 2013-10-26T19:00:59.00Z -4.071577 -81.996698 0.3 338.117
TN303 2013-10-26T19:02:00.00Z -4.071582 -81.996707 0.17 270.0
TN303 2013-10-26T19:02:59.00Z -4.0716 -81.996723 0.32 59.141
TN303 2013-10-26T19:04:00.00Z -4.071585 -81.996712 0.5 116.47
TN303 2013-10-26T19:04:59.00Z -4.071567 -81.99672 0.3 68.28
TN303 2013-10-26T19:06:00.00Z -4.071567 -81.99672 0.11 90.0
TN303 2013-10-26T19:06:59.00Z -4.071588 -81.996715 0.24 314.881
TN303 2013-10-26T19:08:00.00Z -4.071605 -81.996703 0.22 270.0
TN303 2013-10-26T19:09:00.00Z -4.071623 -81.996712 0.0 0.0
TN303 2013-10-26T19:10:00.00Z -4.071592 -81.99672 0.11 90.0
TN303 2013-10-26T19:11:00.00Z -4.071565 -81.996735 0.31 225.119
TN303 2013-10-26T19:11:59.00Z -4.07157 -81.996728 0.32 239.141
TN303 2013-10-26T19:12:59.00Z -4.071593 -81.996713 0.06 90.0
TN303 2013-10-26T19:13:59.00Z -4.0716 -81.996705 0.16 314.881
TN303 2013-10-26T19:14:59.00Z -4.071597 -81.99671 0.2 56.419
TN303 2013-10-26T19:16:00.00Z -4.07159 -81.996705 0.16 225.119
TN303 2013-10-26T19:17:00.00Z -4.071582 -81.9967 0.12 116.47
TN303 2013-10-26T19:18:00.00Z -4.071582 -81.99671 0.11 90.0
TN303 2013-10-26T19:19:00.00Z -4.071583 -81.996713 0.28 306.756
TN303 2013-10-26T19:20:00.00Z -4.071553 -81.996705 0.32 300.859
TN303 2013-10-26T19:20:59.00Z -4.071568 -81.996692 0.28 78.736
TN303 2013-10-26T19:21:59.00Z -4.071602 -81.996682 0.12 116.47
TN303 2013-10-26T19:22:59.00Z -4.071598 -81.996692 0.17 0.0
TN303 2013-10-26T19:23:59.00Z -4.071577 -81.996718 0.16 314.881
TN303 2013-10-26T19:24:59.00Z -4.071575 -81.996733 0.22 270.0
TN303 2013-10-26T19:25:59.00Z -4.071582 -81.996722 0.17 180.0
TN303 2013-10-26T19:26:59.00Z -4.071588 -81.996697 0.11 90.0
TN303 2013-10-26T19:28:00.00Z -4.071585 -81.996695 0.44 90.0
TN303 2013-10-26T19:28:59.00Z -4.071573 -81.996698 0.06 90.0
TN303 2013-10-26T19:29:59.00Z -4.071577 -81.99671 0.12 243.53
TN303 2013-10-26T19:30:59.00Z -4.071587 -81.996707 0.39 98.097
TN303 2013-10-26T19:32:00.00Z -4.071592 -81.996703 0.4 213.8
TN303 2013-10-26T19:33:00.00Z -4.071585 -81.996728 0.4 196.008
TN303 2013-10-26T19:34:00.00Z -4.071585 -81.99674 0.0 0.0
TN303 2013-10-26T19:35:00.00Z -4.071607 -81.996728 0.11 0.0
TN303 2013-10-26T19:36:00.00Z -4.071623 -81.996722 0.28 53.244
TN303 2013-10-26T19:36:59.00Z -4.071603 -81.996718 0.06 0.0
TN303 2013-10-26T19:37:59.00Z -4.07157 -81.996725 0.3 291.72
TN303 2013-10-26T19:39:00.00Z -4.071545 -81.99672 0.31 134.881
TN303 2013-10-26T19:40:00.00Z -4.07157 -81.996708 0.28 168.644
TN303 2013-10-26T19:41:00.00Z -4.071612 -81.99669 0.11 90.0
TN303 2013-10-26T19:41:59.00Z -4.071607 -81.996698 0.11 0.0
TN303 2013-10-26T19:42:59.00Z -4.071572 -81.996717 0.06 270.0
TN303 2013-10-26T19:43:59.00Z -4.071558 -81.996725 0.2 123.581
TN303 2013-10-26T19:45:00.00Z -4.071578 -81.996718 0.23 165.908
TN303 2013-10-26T19:45:59.00Z -4.071602 -81.99671 0.52 212.112
TN303 2013-10-26T19:47:00.00Z -4.071598 -81.996713 0.11 270.0
TN303 2013-10-26T19:48:00.00Z -4.071573 -81.99672 0.06 0.0
TN303 2013-10-26T19:49:00.00Z -4.071563 -81.996715 0.25 206.66
TN303 2013-10-26T19:49:59.00Z -4.071585 -81.996715 0.2 236.419
TN303 2013-10-26T19:50:59.00Z -4.071608 -81.996712 0.0 0.0
TN303 2013-10-26T19:52:00.00Z -4.071592 -81.996718 0.53 251.636
TN303 2013-10-26T19:53:00.00Z -4.07156 -81.996727 0.47 249.522
TN303 2013-10-26T19:53:59.00Z -4.071558 -81.99673 0.18 71.636
TN303 2013-10-26T19:55:00.00Z -4.071572 -81.996717 0.12 333.34
TN303 2013-10-26T19:56:00.00Z -4.071582 -81.996707 0.23 345.908
TN303 2013-10-26T19:56:59.00Z -4.071573 -81.996717 0.28 270.0
TN303 2013-10-26T19:58:00.00Z -4.071582 -81.996703 0.71 231.456
TN303 2013-10-26T19:59:01.00Z -4.0716 -81.996718 0.11 270.0
TN303 2013-10-26T19:59:59.00Z -4.071603 -81.996727 0.4 163.992
TN303 2013-10-26T20:01:00.00Z -4.071567 -81.996717 0.06 270.0
TN303 2013-10-26T20:01:59.00Z -4.071538 -81.996728 0.16 225.119
TN303 2013-10-26T20:02:59.00Z -4.071587 -81.996718 0.33 90.0
TN303 2013-10-26T20:04:00.00Z -4.071645 -81.996702 0.17 198.506
TN303 2013-10-26T20:05:00.00Z -4.071622 -81.99671 0.33 90.0
TN303 2013-10-26T20:06:00.00Z -4.071535 -81.996723 0.32 31.069
TN303 2013-10-26T20:07:00.00Z -4.071518 -81.996717 0.28 53.244
TN303 2013-10-26T20:08:00.00Z -4.071565 -81.99669 0.11 90.0
TN303 2013-10-26T20:08:59.00Z -4.071633 -81.996682 0.25 116.47
TN303 2013-10-26T20:09:59.00Z -4.07162 -81.996687 0.11 0.0
TN303 2013-10-26T20:11:00.00Z -4.071573 -81.996722 0.62 10.347
TN303 2013-10-26T20:11:59.00Z -4.071538 -81.996737 0.28 281.264
TN303 2013-10-26T20:13:00.00Z -4.071578 -81.996732 0.11 90.0
TN303 2013-10-26T20:14:00.00Z -4.071635 -81.996715 0.2 56.419
TN303 2013-10-26T20:14:59.00Z -4.071633 -81.996713 0.11 180.0
TN303 2013-10-26T20:16:00.00Z -4.071573 -81.996733 0.39 270.0
TN303 2013-10-26T20:17:00.00Z -4.071548 -81.996747 0.33 0.0
TN303 2013-10-26T20:18:00.00Z -4.071555 -81.996742 0.17 198.506
TN303 2013-10-26T20:18:59.00Z -4.0716 -81.996738 0.3 248.28
TN303 2013-10-26T20:20:00.00Z -4.071638 -81.99672 0.16 225.119
TN303 2013-10-26T20:21:00.00Z -4.07162 -81.996727 0.17 270.0
TN303 2013-10-26T20:21:59.00Z -4.071563 -81.99673 0.42 66.888
TN303 2013-10-26T20:23:00.00Z -4.071522 -81.996715 0.2 146.2
TN303 2013-10-26T20:23:59.00Z -4.071548 -81.996695 0.3 158.117
TN303 2013-10-26T20:25:00.00Z -4.071608 -81.996685 0.33 90.0
TN303 2013-10-26T20:26:00.00Z -4.07162 -81.996698 0.11 90.0
TN303 2013-10-26T20:26:59.00Z -4.071593 -81.996725 0.28 270.0
TN303 2013-10-26T20:28:00.00Z -4.071567 -81.996738 0.08 134.881
TN303 2013-10-26T20:28:59.00Z -4.071563 -81.99672 0.18 71.636
TN303 2013-10-26T20:29:59.00Z -4.071565 -81.996705 0.16 225.119
TN303 2013-10-26T20:31:00.00Z -4.071585 -81.996703 0.28 270.0
TN303 2013-10-26T20:32:00.00Z -4.071598 -81.996693 0.08 45.119
TN303 2013-10-26T20:33:00.00Z -4.071585 -81.996698 0.42 23.285
TN303 2013-10-26T20:33:59.00Z -4.071545 -81.99672 0.17 90.0
TN303 2013-10-26T20:35:00.00Z -4.07156 -81.99671 0.16 314.881
TN303 2013-10-26T20:36:00.00Z -4.071602 -81.996692 0.35 308.544
TN303 2013-10-26T20:37:00.00Z -4.071592 -81.99668 0.32 239.141
TN303 2013-10-26T20:38:00.00Z -4.071563 -81.9967 0.33 270.0
TN303 2013-10-26T20:39:00.00Z -4.071547 -81.996728 0.28 101.264
TN303 2013-10-26T20:39:59.00Z -4.071572 -81.996725 0.11 90.0
TN303 2013-10-26T20:41:00.00Z -4.071598 -81.996715 0.11 270.0
TN303 2013-10-26T20:41:59.00Z -4.0716 -81.996723 0.28 90.0
TN303 2013-10-26T20:43:00.00Z -4.07158 -81.996723 0.11 90.0
TN303 2013-10-26T20:44:00.00Z -4.071587 -81.996723 0.33 90.0
TN303 2013-10-26T20:45:00.00Z -4.071592 -81.996717 0.4 74.117
TN303 2013-10-26T20:45:59.00Z -4.071582 -81.996723 0.2 56.419
TN303 2013-10-26T20:46:59.00Z -4.071567 -81.99671 0.11 0.0
TN303 2013-10-26T20:48:00.00Z -4.071585 -81.996708 0.11 180.0
TN303 2013-10-26T20:48:59.00Z -4.0716 -81.996713 0.11 180.0
TN303 2013-10-26T20:49:59.00Z -4.071605 -81.996718 0.12 153.34
TN303 2013-10-26T20:51:00.00Z -4.071597 -81.996733 0.43 50.311
TN303 2013-10-26T20:52:00.00Z -4.071577 -81.996725 0.12 243.53
TN303 2013-10-26T20:52:59.00Z -4.071557 -81.996728 0.0 0.0
TN303 2013-10-26T20:54:00.00Z -4.071568 -81.996728 0.31 225.119
TN303 2013-10-26T20:54:59.00Z -4.071598 -81.996725 0.35 231.456
TN303 2013-10-26T20:55:59.00Z -4.07162 -81.996725 0.4 343.992
TN303 2013-10-26T20:57:00.00Z -4.07158 -81.996715 0.28 0.0
TN303 2013-10-26T20:58:00.00Z -4.07155 -81.996727 0.17 198.506
TN303 2013-10-26T20:58:59.00Z -4.071558 -81.996708 0.06 90.0
TN303 2013-10-26T21:00:00.00Z -4.071575 -81.996693 0.53 251.636
TN303 2013-10-26T21:01:00.00Z -4.071592 -81.996683 0.06 180.0
TN303 2013-10-26T21:02:00.00Z -4.071582 -81.996683 0.06 180.0
TN303 2013-10-26T21:02:59.00Z -4.07156 -81.99669 0.39 270.0
TN303 2013-10-26T21:04:00.00Z -4.071573 -81.996715 0.22 180.0
TN303 2013-10-26T21:04:59.00Z -4.071577 -81.996705 0.44 270.0
TN303 2013-10-26T21:06:00.00Z -4.071562 -81.996725 0.22 0.0
TN303 2013-10-26T21:06:59.00Z -4.071572 -81.996737 0.25 26.66
TN303 2013-10-26T21:08:00.00Z -4.07157 -81.996782 0.28 348.644
TN303 2013-10-26T21:09:00.00Z -4.071605 -81.996887 0.39 314.881
TN303 2013-10-26T21:10:00.00Z -4.071558 -81.996962 0.35 288.364
TN303 2013-10-26T21:11:00.00Z -4.071422 -81.997137 0.68 304.88
TN303 2013-10-26T21:11:59.00Z -4.071227 -81.997308 0.77 300.153
TN303 2013-10-26T21:13:00.00Z -4.070955 -81.997483 0.4 326.2
TN303 2013-10-26T21:13:59.00Z -4.070648 -81.99764 0.72 327.421
TN303 2013-10-26T21:14:59.00Z -4.070327 -81.997782 0.42 336.715
TN303 2013-10-26T21:15:59.00Z -4.070108 -81.997902 0.69 331.289
TN303 2013-10-26T21:16:59.00Z -4.069842 -81.998028 0.48 324.35
TN303 2013-10-26T21:18:00.00Z -4.069497 -81.998237 0.74 333.34
TN303 2013-10-26T21:18:59.00Z -4.069145 -81.998485 0.68 324.896
TN303 2013-10-26T21:19:59.00Z -4.068953 -81.998645 0.48 144.35
TN303 2013-10-26T21:21:00.00Z -4.069725 -81.998455 2.66 167.94
TN303 2013-10-26T21:22:00.00Z -4.071793 -81.998022 4.74 168.513
TN303 2013-10-26T21:23:00.00Z -4.074763 -81.997497 6.18 169.653
TN303 2013-10-26T21:23:59.00Z -4.078073 -81.996983 6.51 173.634
TN303 2013-10-26T21:25:00.00Z -4.081587 -81.99644 6.45 170.094
TN303 2013-10-26T21:26:00.00Z -4.085085 -81.995925 6.52 172.664
TN303 2013-10-26T21:27:00.00Z -4.088558 -81.995395 6.82 171.573
TN303 2013-10-26T21:27:59.00Z -4.091948 -81.994862 6.45 170.094
TN303 2013-10-26T21:28:59.00Z -4.095373 -81.994352 6.41 172.538
TN303 2013-10-26T21:30:00.00Z -4.098883 -81.993817 6.16 170.669
TN303 2013-10-26T21:30:59.00Z -4.102282 -81.99328 6.24 169.745
TN303 2013-10-26T21:31:59.00Z -4.105758 -81.992773 6.44 171.068
TN303 2013-10-26T21:32:59.00Z -4.109197 -81.9922 6.43 171.557
TN303 2013-10-26T21:34:00.00Z -4.112673 -81.991572 6.5 168.165
TN303 2013-10-26T21:35:00.00Z -4.116063 -81.990893 6.19 169.148
TN303 2013-10-26T21:35:59.00Z -4.119413 -81.990218 6.43 168.548
TN303 2013-10-26T21:36:59.00Z -4.122803 -81.98951 6.45 167.582
TN303 2013-10-26T21:37:59.00Z -4.12618 -81.988763 6.21 168.143
TN303 2013-10-26T21:39:00.00Z -4.129587 -81.987957 6.29 167.257
TN303 2013-10-26T21:39:59.00Z -4.132912 -81.987212 6.45 165.55
TN303 2013-10-26T21:40:59.00Z -4.136273 -81.986457 6.31 164.686
TN303 2013-10-26T21:42:00.00Z -4.13971 -81.98567 6.24 167.145
TN303 2013-10-26T21:43:00.00Z -4.143073 -81.984883 6.47 167.102
TN303 2013-10-26T21:44:00.00Z -4.146443 -81.984088 6.38 165.909
TN303 2013-10-26T21:44:59.00Z -4.149752 -81.983323 6.24 167.145
TN303 2013-10-26T21:46:00.00Z -4.153177 -81.982525 6.38 162.283
TN303 2013-10-26T21:47:00.00Z -4.15655 -81.9817 6.4 167.476
TN303 2013-10-26T21:48:00.00Z -4.159928 -81.980898 6.55 166.263
TN303 2013-10-26T21:48:59.00Z -4.163282 -81.98009 6.63 165.444
TN303 2013-10-26T21:49:59.00Z -4.16668 -81.979283 6.41 166.992
TN303 2013-10-26T21:50:59.00Z -4.170035 -81.978472 6.57 165.323
TN303 2013-10-26T21:52:00.00Z -4.17347 -81.977667 6.33 167.858
TN303 2013-10-26T21:53:00.00Z -4.176865 -81.976877 6.64 166.955
TN303 2013-10-26T21:54:00.00Z -4.180257 -81.976068 6.36 164.818
TN303 2013-10-26T21:55:00.00Z -4.183627 -81.975243 6.28 165.664
TN303 2013-10-26T21:55:59.00Z -4.186888 -81.974442 6.24 167.146
TN303 2013-10-26T21:57:00.00Z -4.190247 -81.97364 6.21 168.144
TN303 2013-10-26T21:58:00.00Z -4.193647 -81.972955 6.16 170.67
TN303 2013-10-26T21:58:59.00Z -4.196953 -81.972268 6.49 166.147
TN303 2013-10-26T21:59:59.00Z -4.20036 -81.971577 6.28 170.334
TN303 2013-10-26T22:01:00.00Z -4.203803 -81.970892 6.5 168.166
TN303 2013-10-26T22:01:59.00Z -4.207125 -81.970237 6.26 166.156
TN303 2013-10-26T22:03:00.00Z -4.21057 -81.96951 6.15 171.18
TN303 2013-10-26T22:03:59.00Z -4.213878 -81.968848 6.57 165.323
TN303 2013-10-26T22:05:00.00Z -4.217347 -81.968142 5.96 169.274
TN303 2013-10-26T22:06:00.00Z -4.22075 -81.967458 6.18 169.655
TN303 2013-10-26T22:06:59.00Z -4.224063 -81.966798 6.46 169.611
TN303 2013-10-26T22:08:00.00Z -4.227497 -81.966087 6.51 167.688
TN303 2013-10-26T22:08:59.00Z -4.230843 -81.965433 6.7 169.019
TN303 2013-10-26T22:10:00.00Z -4.2343 -81.964713 6.36 166.881
TN303 2013-10-26T22:11:00.00Z -4.237655 -81.964003 6.3 169.339
TN303 2013-10-26T22:12:00.00Z -4.241038 -81.963322 6.24 167.147
TN303 2013-10-26T22:12:59.00Z -4.244377 -81.962637 6.55 168.266
TN303 2013-10-26T22:14:00.00Z -4.247823 -81.961948 6.55 166.264
TN303 2013-10-26T22:15:00.00Z -4.251213 -81.961253 6.32 168.351
TN303 2013-10-26T22:15:59.00Z -4.254513 -81.960562 6.33 167.859
TN303 2013-10-26T22:16:59.00Z -4.257893 -81.959878 6.52 167.212
TN303 2013-10-26T22:18:00.00Z -4.261345 -81.959187 6.35 169.925
TN303 2013-10-26T22:19:00.00Z -4.264737 -81.95851 6.38 168.451
TN303 2013-10-26T22:19:59.00Z -4.268088 -81.957858 6.7 169.019
TN303 2013-10-26T22:20:59.00Z -4.271495 -81.957188 6.25 166.651
TN303 2013-10-26T22:22:00.00Z -4.274973 -81.956473 6.42 169.036
TN303 2013-10-26T22:23:00.00Z -4.278378 -81.955772 6.44 168.066
TN303 2013-10-26T22:24:00.00Z -4.28181 -81.955105 6.21 168.145
TN303 2013-10-26T22:24:59.00Z -4.285185 -81.954432 6.47 169.129
TN303 2013-10-26T22:25:59.00Z -4.288587 -81.953742 6.37 168.941
TN303 2013-10-26T22:26:59.00Z -4.292 -81.953055 6.43 166.512
TN303 2013-10-26T22:28:00.00Z -4.295475 -81.952345 6.4 170.012
TN303 2013-10-26T22:29:00.00Z -4.298878 -81.95164 6.43 168.55
TN303 2013-10-26T22:29:59.00Z -4.302237 -81.950975 6.53 169.221
TN303 2013-10-26T22:31:00.00Z -4.305703 -81.950308 6.4 170.012
TN303 2013-10-26T22:32:00.00Z -4.309103 -81.949622 6.56 165.794
TN303 2013-10-26T22:33:00.00Z -4.312527 -81.948962 6.28 167.754
TN303 2013-10-26T22:34:00.00Z -4.315988 -81.948308 6.46 169.612
TN303 2013-10-26T22:35:00.00Z -4.319428 -81.947622 6.8 167.272
TN303 2013-10-26T22:36:00.00Z -4.322883 -81.946953 6.62 170.344
TN303 2013-10-26T22:36:59.00Z -4.326255 -81.946305 6.43 166.512
TN303 2013-10-26T22:37:59.00Z -4.329672 -81.945622 6.69 167.064
TN303 2013-10-26T22:38:59.00Z -4.333117 -81.944962 6.56 167.793
TN303 2013-10-26T22:39:59.00Z -4.33657 -81.944295 6.49 168.648
TN303 2013-10-26T22:40:59.00Z -4.340027 -81.943628 6.67 167.994
TN303 2013-10-26T22:42:00.00Z -4.34356 -81.942952 6.44 168.067
TN303 2013-10-26T22:42:59.00Z -4.346983 -81.942288 6.59 168.837
TN303 2013-10-26T22:44:00.00Z -4.350532 -81.941617 6.55 168.267
TN303 2013-10-26T22:45:00.00Z -4.354003 -81.940952 6.42 169.037
TN303 2013-10-26T22:46:00.00Z -4.357483 -81.940298 6.4 170.012
TN303 2013-10-26T22:47:00.00Z -4.360933 -81.939642 6.5 168.168
TN303 2013-10-26T22:47:59.00Z -4.364302 -81.938913 6.31 164.69
TN303 2013-10-26T22:48:59.00Z -4.367693 -81.938127 6.35 167.371
TN303 2013-10-26T22:49:59.00Z -4.37107 -81.937368 6.57 165.326
TN303 2013-10-26T22:51:00.00Z -4.374525 -81.936567 6.57 165.326
TN303 2013-10-26T22:52:00.00Z -4.377918 -81.935795 6.51 167.69
TN303 2013-10-26T22:53:00.00Z -4.381283 -81.935027 6.45 167.586
TN303 2013-10-26T22:53:59.00Z -4.384618 -81.934277 6.64 166.958
TN303 2013-10-26T22:55:00.00Z -4.388068 -81.933495 6.55 166.267
TN303 2013-10-26T22:55:59.00Z -4.39138 -81.932737 6.51 167.691
TN303 2013-10-26T22:57:00.00Z -4.394825 -81.931958 6.44 166.033
TN303 2013-10-26T22:58:00.00Z -4.398217 -81.931192 6.38 165.913
TN303 2013-10-26T22:58:59.00Z -4.401562 -81.930428 6.21 168.147
TN303 2013-10-26T22:59:59.00Z -4.404977 -81.929673 6.55 166.267
TN303 2013-10-26T23:01:00.00Z -4.408435 -81.928902 6.35 167.372
TN303 2013-10-26T23:02:00.00Z -4.411843 -81.928143 6.43 168.552
TN303 2013-10-26T23:03:00.00Z -4.415257 -81.927372 6.51 167.691
TN303 2013-10-26T23:03:59.00Z -4.418567 -81.926603 6.28 165.668
TN303 2013-10-26T23:05:00.00Z -4.421988 -81.925815 6.49 166.151
TN303 2013-10-26T23:06:00.00Z -4.425345 -81.925037 6.49 166.151
TN303 2013-10-26T23:07:00.00Z -4.428688 -81.924297 6.45 167.587
TN303 2013-10-26T23:08:00.00Z -4.432048 -81.923555 6.2 164.421
TN303 2013-10-26T23:08:59.00Z -4.435358 -81.922835 6.26 166.16
TN303 2013-10-26T23:10:00.00Z -4.438737 -81.922057 6.01 167.197
TN303 2013-10-26T23:11:00.00Z -4.442093 -81.921315 6.49 168.65
TN303 2013-10-26T23:11:59.00Z -4.445423 -81.920608 6.47 167.107
TN303 2013-10-26T23:13:00.00Z -4.448847 -81.919853 6.18 169.658
TN303 2013-10-26T23:14:00.00Z -4.452215 -81.919125 6.26 166.161
TN303 2013-10-26T23:14:59.00Z -4.455548 -81.918383 6.38 165.914
TN303 2013-10-26T23:16:00.00Z -4.459003 -81.917652 6.71 166.604
TN303 2013-10-26T23:16:59.00Z -4.462337 -81.91691 6.57 165.328
TN303 2013-10-26T23:18:00.00Z -4.465805 -81.916138 6.24 167.151
TN303 2013-10-26T23:19:00.00Z -4.469198 -81.915385 6.45 167.587
TN303 2013-10-26T23:19:59.00Z -4.472537 -81.914668 6.27 168.252
TN303 2013-10-26T23:20:59.00Z -4.475942 -81.913933 6.21 168.148
TN303 2013-10-26T23:21:59.00Z -4.479317 -81.913198 6.33 165.793
TN303 2013-10-26T23:22:59.00Z -4.482703 -81.912455 6.48 166.629
TN303 2013-10-26T23:23:59.00Z -4.486087 -81.911707 6.29 167.263
TN303 2013-10-26T23:25:00.00Z -4.48952 -81.910938 6.44 166.035
TN303 2013-10-26T23:25:59.00Z -4.492857 -81.91016 6.37 168.944
TN303 2013-10-26T23:27:00.00Z -4.496327 -81.909393 6.57 167.323
TN303 2013-10-26T23:28:00.00Z -4.499757 -81.90864 6.45 170.099
TN303 2013-10-26T23:28:59.00Z -4.503103 -81.907913 6.51 167.693
TN303 2013-10-26T23:30:00.00Z -4.506562 -81.907127 6.24 169.75
TN303 2013-10-26T23:30:59.00Z -4.509937 -81.90638 6.54 168.746
TN303 2013-10-26T23:32:00.00Z -4.513422 -81.905593 6.19 169.154
TN303 2013-10-26T23:32:59.00Z -4.51678 -81.904855 6.47 169.132
TN303 2013-10-26T23:33:59.00Z -4.520223 -81.904112 6.01 169.896
TN303 2013-10-26T23:35:00.00Z -4.523708 -81.903327 6.44 168.07
TN303 2013-10-26T23:36:00.00Z -4.527137 -81.902577 6.29 165.181
TN303 2013-10-26T23:37:00.00Z -4.530552 -81.901805 6.56 167.796
TN303 2013-10-26T23:38:00.00Z -4.533997 -81.90105 6.35 169.928
TN303 2013-10-26T23:38:59.00Z -4.537388 -81.900317 6.64 166.961
TN303 2013-10-26T23:40:00.00Z -4.540885 -81.899527 6.23 167.65
TN303 2013-10-26T23:41:00.00Z -4.544315 -81.898762 6.56 170.266
TN303 2013-10-26T23:41:59.00Z -4.547693 -81.897992 6.45 167.589
TN303 2013-10-26T23:42:59.00Z -4.551142 -81.89724 6.35 169.928
TN303 2013-10-26T23:44:00.00Z -4.55467 -81.89646 6.59 168.84
TN303 2013-10-26T23:45:00.00Z -4.558123 -81.895715 6.81 164.898
TN303 2013-10-26T23:45:59.00Z -4.561547 -81.894982 6.55 168.271
TN303 2013-10-26T23:46:59.00Z -4.564997 -81.894218 6.57 165.33
TN303 2013-10-26T23:48:00.00Z -4.568502 -81.89346 6.4 167.483
TN303 2013-10-26T23:49:00.00Z -4.57193 -81.892712 6.5 168.172
TN303 2013-10-26T23:49:59.00Z -4.575323 -81.89198 6.51 167.694
TN303 2013-10-26T23:51:00.00Z -4.578808 -81.891205 6.35 167.375
TN303 2013-10-26T23:52:00.00Z -4.582273 -81.890463 6.49 168.652
TN303 2013-10-26T23:53:00.00Z -4.58575 -81.889708 6.4 167.483
TN303 2013-10-26T23:53:59.00Z -4.589153 -81.888957 6.6 168.369
TN303 2013-10-26T23:55:00.00Z -4.592692 -81.888162 6.63 165.452
TN303 2013-10-26T23:56:00.00Z -4.596183 -81.887377 6.44 168.071
TN303 2013-10-26T23:56:59.00Z -4.599588 -81.886612 6.6 168.369
TN303 2013-10-26T23:57:59.00Z -4.60305 -81.885825 6.65 166.497
TN303 2013-10-26T23:58:59.00Z -4.606513 -81.885078 6.45 167.59
TN303 2013-10-27T00:00:00.00Z -4.61 -81.884325 6.35 167.375
TN303 2013-10-27T00:01:00.00Z -4.613457 -81.883562 6.53 166.743
TN303 2013-10-27T00:02:00.00Z -4.616928 -81.882813 6.72 168.096
TN303 2013-10-27T00:03:00.00Z -4.620405 -81.882022 6.45 170.101
TN303 2013-10-27T00:04:00.00Z -4.623905 -81.881287 6.68 165.571
TN303 2013-10-27T00:04:59.00Z -4.627305 -81.880555 6.4 167.484
TN303 2013-10-27T00:06:00.00Z -4.630822 -81.87974 6.59 166.854
TN303 2013-10-27T00:06:59.00Z -4.634258 -81.879007 6.53 166.744
TN303 2013-10-27T00:07:59.00Z -4.63773 -81.878245 6.51 167.695
TN303 2013-10-27T00:09:00.00Z -4.641207 -81.877522 6.69 167.07
TN303 2013-10-27T00:10:00.00Z -4.644673 -81.87678 6.62 167.899
TN303 2013-10-27T00:11:00.00Z -4.64817 -81.876025 6.67 167.999
TN303 2013-10-27T00:11:59.00Z -4.651582 -81.87528 6.33 165.796
TN303 2013-10-27T00:13:00.00Z -4.655118 -81.874512 6.4 165.436
TN303 2013-10-27T00:13:59.00Z -4.658523 -81.873798 6.49 168.653
TN303 2013-10-27T00:15:00.00Z -4.662032 -81.87302 6.67 167.999
TN303 2013-10-27T00:16:00.00Z -4.665462 -81.872253 6.49 168.653
TN303 2013-10-27T00:17:00.00Z -4.668925 -81.871518 6.62 167.899
TN303 2013-10-27T00:18:00.00Z -4.672403 -81.870747 6.47 169.135
TN303 2013-10-27T00:18:59.00Z -4.675798 -81.87002 6.45 170.102
TN303 2013-10-27T00:19:59.00Z -4.679188 -81.869345 6.2 168.653
TN303 2013-10-27T00:21:00.00Z -4.682572 -81.868677 6.47 169.135
TN303 2013-10-27T00:22:00.00Z -4.685873 -81.868022 6.24 167.155
TN303 2013-10-27T00:23:00.00Z -4.689142 -81.867312 5.96 169.28
TN303 2013-10-27T00:24:00.00Z -4.692398 -81.866605 6.18 167.041
TN303 2013-10-27T00:24:59.00Z -4.695625 -81.865923 6.19 169.157
TN303 2013-10-27T00:26:00.00Z -4.698945 -81.86518 6.02 169.378
TN303 2013-10-27T00:26:59.00Z -4.702148 -81.864488 6.16 168.047
TN303 2013-10-27T00:28:00.00Z -4.705463 -81.863763 6.3 169.346
TN303 2013-10-27T00:29:00.00Z -4.708723 -81.863032 6.31 168.851
TN303 2013-10-27T00:30:00.00Z -4.711997 -81.862328 6.18 169.662
TN303 2013-10-27T00:31:00.00Z -4.715272 -81.86159 6.09 168.449
TN303 2013-10-27T00:31:59.00Z -4.718488 -81.860895 6.18 167.041
TN303 2013-10-27T00:33:00.00Z -4.7218 -81.860155 6.35 167.377
TN303 2013-10-27T00:34:00.00Z -4.725063 -81.859415 6.2 168.654
TN303 2013-10-27T00:34:59.00Z -4.728272 -81.858715 6.16 165.92
TN303 2013-10-27T00:35:59.00Z -4.731537 -81.857973 6.25 166.66
TN303 2013-10-27T00:36:59.00Z -4.734795 -81.857227 6.13 166.926
TN303 2013-10-27T00:37:59.00Z -4.738078 -81.8565 6.37 166.404
TN303 2013-10-27T00:39:00.00Z -4.74141 -81.855748 5.94 167.606
TN303 2013-10-27T00:40:00.00Z -4.744682 -81.855003 5.98 168.759
TN303 2013-10-27T00:40:59.00Z -4.747923 -81.854253 6.25 166.66
TN303 2013-10-27T00:42:00.00Z -4.751253 -81.853467 6.12 167.432
TN303 2013-10-27T00:42:59.00Z -4.754465 -81.852743 6.2 164.428
TN303 2013-10-27T00:43:59.00Z -4.757763 -81.85201 6.15 168.553
TN303 2013-10-27T00:45:00.00Z -4.761088 -81.851238 6.18 167.042
TN303 2013-10-27T00:46:00.00Z -4.764363 -81.850473 6.2 166.542
TN303 2013-10-27T00:46:59.00Z -4.767535 -81.849705 6.01 165.023
TN303 2013-10-27T00:48:00.00Z -4.77082 -81.848922 6.04 164.006
TN303 2013-10-27T00:49:00.00Z -4.774053 -81.848122 6.1 165.794
TN303 2013-10-27T00:49:59.00Z -4.777245 -81.847352 6.1 165.794
TN303 2013-10-27T00:50:59.00Z -4.780507 -81.846568 6.17 165.421
TN303 2013-10-27T00:52:00.00Z -4.783815 -81.845778 6.05 163.502
TN303 2013-10-27T00:53:00.00Z -4.787075 -81.844973 6.05 167.831
TN303 2013-10-27T00:53:59.00Z -4.7903 -81.8442 6.2 164.429
TN303 2013-10-27T00:55:00.00Z -4.793655 -81.84339 6.0 165.535
TN303 2013-10-27T00:56:00.00Z -4.796942 -81.842583 6.27 168.258
TN303 2013-10-27T00:57:00.00Z -4.800222 -81.84176 6.28 165.676
TN303 2013-10-27T00:58:00.00Z -4.803493 -81.840948 5.64 168.655
TN303 2013-10-27T00:59:00.00Z -4.806775 -81.840145 6.62 167.902
TN303 2013-10-27T00:59:59.00Z -4.810012 -81.839355 6.24 167.157
TN303 2013-10-27T01:01:00.00Z -4.813353 -81.838493 6.55 166.275
TN303 2013-10-27T01:01:59.00Z -4.816583 -81.837705 6.35 167.379
TN303 2013-10-27T01:02:59.00Z -4.819872 -81.836893 6.31 164.699
TN303 2013-10-27T01:03:59.00Z -4.823167 -81.83609 6.17 165.422
TN303 2013-10-27T01:04:59.00Z -4.826472 -81.835297 6.29 167.269
TN303 2013-10-27T01:06:00.00Z -4.82983 -81.834505 6.35 167.379
TN303 2013-10-27T01:06:59.00Z -4.833072 -81.83373 6.33 165.8
TN303 2013-10-27T01:07:59.00Z -4.836405 -81.832995 6.37 168.949
TN303 2013-10-27T01:09:00.00Z -4.839825 -81.832252 6.33 167.869
TN303 2013-10-27T01:10:01.00Z -4.84323 -81.831508 6.14 166.424
TN303 2013-10-27T01:11:00.00Z -4.846498 -81.830767 6.45 167.594
TN303 2013-10-27T01:12:00.00Z -4.849835 -81.83003 6.05 167.832
TN303 2013-10-27T01:12:59.00Z -4.853118 -81.829293 6.25 166.662
TN303 2013-10-27T01:14:00.00Z -4.856563 -81.828552 6.29 165.187
TN303 2013-10-27T01:15:00.00Z -4.85993 -81.827805 6.21 168.155
TN303 2013-10-27T01:15:59.00Z -4.863232 -81.827062 6.32 166.288
TN303 2013-10-27T01:17:00.00Z -4.866675 -81.8263 6.23 167.655
TN303 2013-10-27T01:18:00.00Z -4.870035 -81.825535 6.4 167.488
TN303 2013-10-27T01:19:00.00Z -4.87342 -81.824775 6.38 165.923
TN303 2013-10-27T01:20:00.00Z -4.87681 -81.823973 6.51 167.699
TN303 2013-10-27T01:20:59.00Z -4.880145 -81.82322 6.21 168.155
TN303 2013-10-27T01:22:00.00Z -4.883615 -81.82242 6.51 167.699
TN303 2013-10-27T01:23:00.00Z -4.88703 -81.821638 6.18 169.665
TN303 2013-10-27T01:23:59.00Z -4.890403 -81.820867 6.35 167.38
TN303 2013-10-27T01:24:59.00Z -4.893807 -81.82008 6.29 167.27
TN303 2013-10-27T01:26:00.00Z -4.89727 -81.819257 6.64 166.968
TN303 2013-10-27T01:26:59.00Z -4.90063 -81.818475 6.35 167.38
TN303 2013-10-27T01:27:59.00Z -4.904043 -81.817687 6.58 169.32
TN303 2013-10-27T01:28:59.00Z -4.907452 -81.816903 6.6 166.39
TN303 2013-10-27T01:30:00.00Z -4.910925 -81.816092 6.31 168.855
TN303 2013-10-27T01:31:00.00Z -4.914338 -81.815285 6.72 168.101
TN303 2013-10-27T01:31:59.00Z -4.917682 -81.81451 6.32 166.289
TN303 2013-10-27T01:32:59.00Z -4.921067 -81.813702 6.69 163.618
TN303 2013-10-27T01:34:00.00Z -4.924518 -81.812875 6.49 168.657
TN303 2013-10-27T01:34:59.00Z -4.927865 -81.81209 6.38 168.462
TN303 2013-10-27T01:36:00.00Z -4.931325 -81.811317 6.77 168.657
TN303 2013-10-27T01:37:00.00Z -4.934757 -81.810545 6.33 167.871
TN303 2013-10-27T01:37:59.00Z -4.938113 -81.809795 6.37 166.408
TN303 2013-10-27T01:38:59.00Z -4.94153 -81.80903 6.32 168.362
TN303 2013-10-27T01:40:00.00Z -4.945013 -81.808243 6.64 169.409
TN303 2013-10-27T01:41:00.00Z -4.94845 -81.807475 6.35 167.381
TN303 2013-10-27T01:41:59.00Z -4.951807 -81.806703 6.44 166.044
TN303 2013-10-27T01:43:00.00Z -4.955262 -81.805888 6.55 166.277
TN303 2013-10-27T01:43:59.00Z -4.958625 -81.805125 6.55 166.278
TN303 2013-10-27T01:44:59.00Z -4.962055 -81.804313 6.63 167.436
TN303 2013-10-27T01:45:59.00Z -4.965508 -81.803652 6.71 168.565
TN303 2013-10-27T01:47:00.00Z -4.969013 -81.802975 6.45 170.106
TN303 2013-10-27T01:47:59.00Z -4.972405 -81.802292 6.31 168.856
TN303 2013-10-27T01:49:00.00Z -4.97591 -81.801597 6.39 167.975
TN303 2013-10-27T01:50:00.00Z -4.979345 -81.800903 6.2 168.658
TN303 2013-10-27T01:50:59.00Z -4.98268 -81.800212 6.47 169.139
TN303 2013-10-27T01:51:59.00Z -4.98607 -81.799512 6.35 167.382
TN303 2013-10-27T01:53:00.00Z -4.989507 -81.798798 6.22 170.763
TN303 2013-10-27T01:54:00.00Z -4.992907 -81.798108 6.49 168.658
TN303 2013-10-27T01:54:59.00Z -4.996255 -81.797427 6.37 166.409
TN303 2013-10-27T01:55:59.00Z -4.999658 -81.796743 6.3 169.351
TN303 2013-10-27T01:57:00.00Z -5.003125 -81.796017 6.55 168.278
TN303 2013-10-27T01:57:59.00Z -5.00651 -81.79533 6.33 170.924
TN303 2013-10-27T01:58:59.00Z -5.009927 -81.79463 6.42 166.525
TN303 2013-10-27T02:00:00.00Z -5.013387 -81.793928 6.24 167.161
TN303 2013-10-27T02:00:59.00Z -5.016722 -81.793218 6.41 167.007
TN303 2013-10-27T02:01:59.00Z -5.02012 -81.792475 6.44 166.045
TN303 2013-10-27T02:03:00.00Z -5.023602 -81.791743 6.33 165.804
TN303 2013-10-27T02:04:00.00Z -5.027015 -81.790998 6.4 170.022
TN303 2013-10-27T02:05:00.00Z -5.030452 -81.79029 6.21 168.158
TN303 2013-10-27T02:06:00.00Z -5.033868 -81.789592 6.45 167.597
TN303 2013-10-27T02:07:00.00Z -5.037283 -81.78889 6.35 167.383
TN303 2013-10-27T02:08:00.00Z -5.04068 -81.788172 6.33 167.872
TN303 2013-10-27T02:08:59.00Z -5.044028 -81.787478 6.49 168.659
TN303 2013-10-27T02:10:00.00Z -5.047532 -81.786738 6.29 167.273
TN303 2013-10-27T02:10:59.00Z -5.050927 -81.786008 6.49 168.659
TN303 2013-10-27T02:11:59.00Z -5.054383 -81.785293 6.41 169.534
TN303 2013-10-27T02:12:59.00Z -5.057847 -81.784542 6.78 168.2
TN303 2013-10-27T02:13:59.00Z -5.061347 -81.783828 6.4 167.492
TN303 2013-10-27T02:15:00.00Z -5.064878 -81.783097 6.53 166.752
TN303 2013-10-27T02:16:00.00Z -5.068355 -81.782378 6.33 170.925
TN303 2013-10-27T02:17:00.00Z -5.071847 -81.78168 6.18 169.667
TN303 2013-10-27T02:17:59.00Z -5.075263 -81.780973 6.7 169.032
TN303 2013-10-27T02:19:00.00Z -5.078795 -81.780233 6.49 168.66
TN303 2013-10-27T02:19:59.00Z -5.082202 -81.779532 6.51 167.703
TN303 2013-10-27T02:21:00.00Z -5.085685 -81.77881 6.23 167.659
TN303 2013-10-27T02:22:00.00Z -5.089087 -81.77809 6.18 169.668
TN303 2013-10-27T02:23:00.00Z -5.092472 -81.777393 6.31 168.858
TN303 2013-10-27T02:23:59.00Z -5.095847 -81.776708 6.04 171.551
TN303 2013-10-27T02:25:00.00Z -5.099305 -81.775998 6.35 167.384
TN303 2013-10-27T02:26:00.00Z -5.102713 -81.77527 6.49 168.66
TN303 2013-10-27T02:26:59.00Z -5.106072 -81.774567 6.5 168.181
TN303 2013-10-27T02:27:59.00Z -5.109492 -81.773832 6.53 166.753
TN303 2013-10-27T02:29:00.00Z -5.112983 -81.773112 6.62 167.907
TN303 2013-10-27T02:30:00.00Z -5.116437 -81.772413 6.65 168.942
TN303 2013-10-27T02:30:59.00Z -5.119833 -81.771708 6.63 167.439
TN303 2013-10-27T02:31:59.00Z -5.12329 -81.770988 6.51 167.704
TN303 2013-10-27T02:32:59.00Z -5.126742 -81.770267 6.59 166.864
TN303 2013-10-27T02:34:00.00Z -5.130233 -81.769512 6.31 168.858
TN303 2013-10-27T02:34:59.00Z -5.133607 -81.768813 6.56 167.807
TN303 2013-10-27T02:36:00.00Z -5.13709 -81.768082 6.39 167.978
TN303 2013-10-27T02:37:00.00Z -5.140498 -81.767378 6.51 167.704
TN303 2013-10-27T02:38:00.00Z -5.1439 -81.766668 6.05 167.838
TN303 2013-10-27T02:38:59.00Z -5.147223 -81.765958 6.45 167.599
TN303 2013-10-27T02:39:59.00Z -5.150638 -81.765247 6.13 169.576
TN303 2013-10-27T02:40:59.00Z -5.154047 -81.764542 6.66 168.474
TN303 2013-10-27T02:42:00.00Z -5.157528 -81.763807 6.31 168.859
TN303 2013-10-27T02:42:59.00Z -5.160893 -81.763108 6.49 168.661
TN303 2013-10-27T02:44:00.00Z -5.164423 -81.762392 6.44 168.081
TN303 2013-10-27T02:44:59.00Z -5.167817 -81.761657 6.55 168.281
TN303 2013-10-27T02:46:00.00Z -5.17134 -81.760903 6.32 168.366
TN303 2013-10-27T02:47:00.00Z -5.174785 -81.760162 6.68 165.583
TN303 2013-10-27T02:47:59.00Z -5.178177 -81.759398 6.29 167.276
TN303 2013-10-27T02:49:00.00Z -5.181678 -81.75864 6.43 168.565
TN303 2013-10-27T02:50:00.00Z -5.18512 -81.757898 6.67 168.008
TN303 2013-10-27T02:50:59.00Z -5.18853 -81.757173 6.65 166.508
TN303 2013-10-27T02:51:59.00Z -5.19201 -81.756413 6.63 167.44
TN303 2013-10-27T02:53:00.00Z -5.195562 -81.755663 6.68 167.543
TN303 2013-10-27T02:53:59.00Z -5.198998 -81.754923 6.72 168.106
TN303 2013-10-27T02:54:59.00Z -5.202498 -81.754168 6.74 167.645
TN303 2013-10-27T02:56:00.00Z -5.206053 -81.753432 6.53 166.755
TN303 2013-10-27T02:57:00.00Z -5.20955 -81.752675 6.64 166.974
TN303 2013-10-27T02:58:00.00Z -5.213047 -81.751917 6.86 167.39
TN303 2013-10-27T02:59:00.00Z -5.21656 -81.751197 6.77 168.662
TN303 2013-10-27T02:59:59.00Z -5.220005 -81.750503 6.62 167.909
TN303 2013-10-27T03:01:00.00Z -5.22358 -81.749793 6.42 169.051
TN303 2013-10-27T03:01:59.00Z -5.227032 -81.749092 6.64 169.413
TN303 2013-10-27T03:02:59.00Z -5.23055 -81.748372 6.75 169.586
TN303 2013-10-27T03:04:00.00Z -5.234132 -81.747625 6.69 167.081
TN303 2013-10-27T03:05:00.00Z -5.237643 -81.746902 6.66 168.476
TN303 2013-10-27T03:06:00.00Z -5.241158 -81.746212 6.47 169.144
TN303 2013-10-27T03:06:59.00Z -5.244602 -81.745503 7.03 169.549
TN303 2013-10-27T03:07:59.00Z -5.248095 -81.744773 6.49 168.663
TN303 2013-10-27T03:09:00.00Z -5.251653 -81.744045 6.79 167.746
TN303 2013-10-27T03:09:59.00Z -5.255092 -81.743315 6.69 167.081
TN303 2013-10-27T03:11:00.00Z -5.25865 -81.742537 6.91 167.491
TN303 2013-10-27T03:12:00.00Z -5.262153 -81.741767 6.79 165.817
TN303 2013-10-27T03:12:59.00Z -5.265613 -81.740987 7.02 167.687
TN303 2013-10-27T03:14:00.00Z -5.269205 -81.740208 6.9 167.941
TN303 2013-10-27T03:14:59.00Z -5.272682 -81.739457 6.56 167.809
TN303 2013-10-27T03:16:00.00Z -5.276263 -81.738662 7.02 167.687
TN303 2013-10-27T03:16:59.00Z -5.279765 -81.73791 6.8 167.29
TN303 2013-10-27T03:18:00.00Z -5.283385 -81.737115 6.89 168.392
TN303 2013-10-27T03:19:00.00Z -5.286937 -81.736348 6.79 167.746
TN303 2013-10-27T03:20:00.00Z -5.290502 -81.735632 6.6 166.398
TN303 2013-10-27T03:20:59.00Z -5.29397 -81.734913 6.78 168.204
TN303 2013-10-27T03:21:59.00Z -5.297483 -81.734163 6.76 169.125
TN303 2013-10-27T03:22:59.00Z -5.301003 -81.733425 6.7 169.036
TN303 2013-10-27T03:23:59.00Z -5.304508 -81.73269 6.76 166.729
TN303 2013-10-27T03:24:59.00Z -5.308015 -81.731828 6.63 167.443
TN303 2013-10-27T03:26:00.00Z -5.311588 -81.730935 6.48 166.645
TN303 2013-10-27T03:26:59.00Z -5.315062 -81.730083 6.41 167.013
TN303 2013-10-27T03:28:00.00Z -5.318665 -81.729193 6.63 165.467
TN303 2013-10-27T03:28:59.00Z -5.322157 -81.728333 6.68 167.546
TN303 2013-10-27T03:30:00.00Z -5.325753 -81.727433 6.72 164.214
TN303 2013-10-27T03:30:59.00Z -5.329215 -81.726557 6.68 165.586
TN303 2013-10-27T03:31:59.00Z -5.33275 -81.725672 6.53 166.758
TN303 2013-10-27T03:32:59.00Z -5.336248 -81.724778 6.76 166.73
TN303 2013-10-27T03:33:59.00Z -5.33978 -81.72392 6.53 166.758
TN303 2013-10-27T03:34:59.00Z -5.343335 -81.72317 6.76 169.125
TN303 2013-10-27T03:35:59.00Z -5.346858 -81.722417 6.71 168.572
TN303 2013-10-27T03:37:00.00Z -5.350433 -81.72167 6.51 167.708
TN303 2013-10-27T03:38:00.00Z -5.35396 -81.720923 6.67 168.011
TN303 2013-10-27T03:39:00.00Z -5.357488 -81.720158 6.76 169.126
TN303 2013-10-27T03:40:00.00Z -5.361003 -81.7194 6.44 168.085
TN303 2013-10-27T03:41:00.00Z -5.364498 -81.718662 6.51 167.708
TN303 2013-10-27T03:41:59.00Z -5.367938 -81.71791 6.76 166.731
TN303 2013-10-27T03:42:59.00Z -5.371443 -81.717168 6.89 168.394
TN303 2013-10-27T03:44:00.00Z -5.37501 -81.71643 6.84 165.933
TN303 2013-10-27T03:44:59.00Z -5.378437 -81.715702 6.37 168.959
TN303 2013-10-27T03:46:00.00Z -5.381962 -81.714963 6.52 167.233
TN303 2013-10-27T03:46:59.00Z -5.385378 -81.714247 6.58 169.328
TN303 2013-10-27T03:48:00.00Z -5.38892 -81.713483 6.49 168.665
TN303 2013-10-27T03:48:59.00Z -5.392348 -81.712768 6.68 165.588
TN303 2013-10-27T03:50:00.00Z -5.395922 -81.711998 6.81 169.214
TN303 2013-10-27T03:50:59.00Z -5.399383 -81.711283 6.84 165.934
TN303 2013-10-27T03:52:00.00Z -5.402943 -81.710538 6.47 167.125
TN303 2013-10-27T03:53:00.00Z -5.40643 -81.709763 6.52 167.233
TN303 2013-10-27T03:53:59.00Z -5.409888 -81.709032 6.64 166.978
TN303 2013-10-27T03:54:59.00Z -5.4134 -81.708285 6.58 169.328
TN303 2013-10-27T03:55:59.00Z -5.4169 -81.707565 6.65 168.947
TN303 2013-10-27T03:56:59.00Z -5.420407 -81.706862 6.59 166.87
TN303 2013-10-27T03:58:00.00Z -5.423968 -81.706135 6.77 168.666
TN303 2013-10-27T03:59:00.00Z -5.427458 -81.7054 6.75 167.19
TN303 2013-10-27T04:00:00.00Z -5.430943 -81.704657 6.5 168.187
TN303 2013-10-27T04:00:59.00Z -5.434352 -81.703907 6.67 168.013
TN303 2013-10-27T04:01:59.00Z -5.437823 -81.703148 6.92 167.047
TN303 2013-10-27T04:03:00.00Z -5.44136 -81.702405 6.69 167.085
TN303 2013-10-27T04:04:00.00Z -5.444832 -81.701675 6.42 166.534
TN303 2013-10-27T04:05:00.00Z -5.448288 -81.70094 6.32 168.371
TN303 2013-10-27T04:06:00.00Z -5.451763 -81.700225 6.53 166.76
TN303 2013-10-27T04:07:00.00Z -5.455242 -81.699488 6.67 168.013
TN303 2013-10-27T04:08:00.00Z -5.45873 -81.698787 6.58 169.329
TN303 2013-10-27T04:09:00.00Z -5.462215 -81.698093 6.65 168.948
TN303 2013-10-27T04:10:00.00Z -5.465713 -81.697412 6.51 167.71
TN303 2013-10-27T04:11:00.00Z -5.469207 -81.696708 6.49 168.667
TN303 2013-10-27T04:11:59.00Z -5.472648 -81.696057 6.71 168.574
TN303 2013-10-27T04:12:59.00Z -5.476157 -81.695373 6.78 168.208
TN303 2013-10-27T04:14:00.00Z -5.47971 -81.69469 6.55 168.287
TN303 2013-10-27T04:15:00.00Z -5.483228 -81.694008 6.68 169.972
TN303 2013-10-27T04:16:00.00Z -5.48673 -81.693285 6.64 166.979
TN303 2013-10-27T04:17:00.00Z -5.490212 -81.692573 6.78 168.208
TN303 2013-10-27T04:17:59.00Z -5.493622 -81.691882 6.77 168.667
TN303 2013-10-27T04:18:59.00Z -5.49709 -81.691192 6.45 170.114
TN303 2013-10-27T04:19:59.00Z -5.50057 -81.690492 6.51 167.711
TN303 2013-10-27T04:21:00.00Z -5.504122 -81.689785 6.35 169.943
TN303 2013-10-27T04:21:59.00Z -5.507557 -81.689067 6.63 165.472
TN303 2013-10-27T04:23:00.00Z -5.511143 -81.688323 6.7 169.039
TN303 2013-10-27T04:24:00.00Z -5.51465 -81.687607 6.6 168.385
TN303 2013-10-27T04:24:59.00Z -5.518078 -81.686917 6.72 168.112
TN303 2013-10-27T04:26:00.00Z -5.521577 -81.686185 6.47 169.149
TN303 2013-10-27T04:26:59.00Z -5.524968 -81.685482 6.42 169.056
TN303 2013-10-27T04:27:59.00Z -5.528423 -81.684838 6.72 168.113
TN303 2013-10-27T04:29:00.00Z -5.531918 -81.684112 6.49 166.174
TN303 2013-10-27T04:30:00.00Z -5.535388 -81.683423 6.27 164.094
TN303 2013-10-27T04:30:59.00Z -5.538782 -81.682703 6.6 171.31
TN303 2013-10-27T04:32:00.00Z -5.542278 -81.682007 6.51 167.712
TN303 2013-10-27T04:33:00.00Z -5.545673 -81.68133 6.27 170.852
TN303 2013-10-27T04:34:00.00Z -5.54907 -81.680668 6.67 168.015
TN303 2013-10-27T04:35:00.00Z -5.552465 -81.679992 6.44 168.089
TN303 2013-10-27T04:35:59.00Z -5.555793 -81.679363 6.41 169.543
TN303 2013-10-27T04:37:00.00Z -5.559225 -81.67872 6.35 169.944
TN303 2013-10-27T04:38:00.00Z -5.562595 -81.678053 6.36 169.452
TN303 2013-10-27T04:39:00.00Z -5.565947 -81.677342 6.39 167.987
TN303 2013-10-27T04:40:00.00Z -5.569312 -81.67666 6.27 168.272
TN303 2013-10-27T04:41:00.00Z -5.572668 -81.675978 6.29 169.856
TN303 2013-10-27T04:42:00.00Z -5.576025 -81.675307 6.42 166.537
TN303 2013-10-27T04:42:59.00Z -5.579375 -81.674655 6.38 168.474
TN303 2013-10-27T04:44:00.00Z -5.582842 -81.673945 6.35 169.944
TN303 2013-10-27T04:45:00.00Z -5.586265 -81.673282 6.18 169.676
TN303 2013-10-27T04:46:00.00Z -5.589687 -81.672605 6.67 168.016
TN303 2013-10-27T04:46:59.00Z -5.593093 -81.672067 6.37 171.503
TN303 2013-10-27T04:48:00.00Z -5.596628 -81.67156 6.58 172.264
TN303 2013-10-27T04:49:00.00Z -5.600107 -81.67106 6.18 173.308
TN303 2013-10-27T04:50:00.00Z -5.603572 -81.670557 6.23 170.269
TN303 2013-10-27T04:51:00.00Z -5.607015 -81.669862 6.56 170.282
TN303 2013-10-27T04:52:00.00Z -5.610488 -81.669193 6.86 169.304
TN303 2013-10-27T04:53:00.00Z -5.613958 -81.668492 6.33 167.884
TN303 2013-10-27T04:53:59.00Z -5.61737 -81.667817 6.66 168.483
TN303 2013-10-27T04:54:59.00Z -5.620843 -81.667098 6.7 169.041
TN303 2013-10-27T04:55:59.00Z -5.624317 -81.666408 6.67 168.017
TN303 2013-10-27T04:56:59.00Z -5.627787 -81.665702 6.5 168.191
TN303 2013-10-27T04:58:00.00Z -5.631313 -81.664938 6.42 169.058
TN303 2013-10-27T04:58:59.00Z -5.634728 -81.664242 6.29 169.857
TN303 2013-10-27T05:00:00.00Z -5.63825 -81.663545 6.45 170.117
TN303 2013-10-27T05:01:00.00Z -5.641698 -81.66282 6.58 169.332
TN303 2013-10-27T05:02:00.00Z -5.645173 -81.662125 6.31 168.868
TN303 2013-10-27T05:02:59.00Z -5.648567 -81.661403 6.46 169.633
TN303 2013-10-27T05:03:59.00Z -5.652013 -81.660692 6.29 169.858
TN303 2013-10-27T05:04:59.00Z -5.655447 -81.65999 6.4 167.503
TN303 2013-10-27T05:06:00.00Z -5.658957 -81.65934 6.37 176.511
TN303 2013-10-27T05:06:59.00Z -5.662357 -81.659607 6.41 192.98
TN303 2013-10-27T05:07:59.00Z -5.665777 -81.66046 6.14 197.321
TN303 2013-10-27T05:08:59.00Z -5.669105 -81.661608 6.3 202.772
TN303 2013-10-27T05:09:59.00Z -5.672405 -81.662898 6.41 201.284
TN303 2013-10-27T05:11:00.00Z -5.675732 -81.664237 6.49 203.106
TN303 2013-10-27T05:12:00.00Z -5.678998 -81.665543 6.55 201.836
TN303 2013-10-27T05:12:59.00Z -5.68221 -81.666812 6.57 202.284
TN303 2013-10-27T05:14:00.00Z -5.685538 -81.668125 6.46 201.106
TN303 2013-10-27T05:15:00.00Z -5.688807 -81.669397 6.33 202.115
TN303 2013-10-27T05:15:59.00Z -5.691993 -81.670682 6.52 202.468
TN303 2013-10-27T05:17:00.00Z -5.695322 -81.671855 6.49 195.837
TN303 2013-10-27T05:17:59.00Z -5.698632 -81.672665 6.37 191.035
TN303 2013-10-27T05:18:59.00Z -5.702083 -81.673037 6.36 181.497
TN303 2013-10-27T05:20:00.00Z -5.705608 -81.673003 6.32 175.979
TN303 2013-10-27T05:20:59.00Z -5.708973 -81.672562 6.45 170.118
TN303 2013-10-27T05:21:59.00Z -5.71239 -81.672022 6.35 169.947
TN303 2013-10-27T05:23:00.00Z -5.715853 -81.67146 6.16 170.691
TN303 2013-10-27T05:23:59.00Z -5.719223 -81.67094 6.36 172.492
TN303 2013-10-27T05:25:00.00Z -5.722693 -81.670413 6.38 171.013
TN303 2013-10-27T05:26:00.00Z -5.726115 -81.669883 6.55 171.24
TN303 2013-10-27T05:27:00.00Z -5.729553 -81.669352 6.38 171.013
TN303 2013-10-27T05:27:59.00Z -5.732913 -81.668838 6.37 171.998
TN303 2013-10-27T05:29:00.00Z -5.736402 -81.668338 6.42 172.067
TN303 2013-10-27T05:30:00.00Z -5.73986 -81.667838 6.76 169.133
TN303 2013-10-27T05:30:59.00Z -5.743233 -81.667135 6.49 166.179
TN303 2013-10-27T05:32:00.00Z -5.7467 -81.666305 6.38 168.477
TN303 2013-10-27T05:33:00.00Z -5.75009 -81.665443 6.49 162.62
TN303 2013-10-27T05:34:00.00Z -5.75346 -81.664482 6.49 164.165
TN303 2013-10-27T05:34:59.00Z -5.756793 -81.663558 6.49 162.62
TN303 2013-10-27T05:36:00.00Z -5.760223 -81.662567 6.84 164.031
TN303 2013-10-27T05:37:00.00Z -5.763605 -81.661617 6.31 164.722
TN303 2013-10-27T05:38:00.00Z -5.767 -81.660672 6.49 164.165
TN303 2013-10-27T05:39:00.00Z -5.770385 -81.659728 6.75 163.321
TN303 2013-10-27T05:39:59.00Z -5.773715 -81.658785 6.44 164.031
TN303 2013-10-27T05:41:00.00Z -5.77714 -81.65778 6.47 165.11
TN303 2013-10-27T05:42:00.00Z -5.780505 -81.65681 6.46 163.559
TN303 2013-10-27T05:43:00.00Z -5.78388 -81.655833 6.54 166.296
TN303 2013-10-27T05:43:59.00Z -5.787212 -81.654885 6.34 163.756
TN303 2013-10-27T05:44:59.00Z -5.790588 -81.653883 6.16 163.819
TN303 2013-10-27T05:46:00.00Z -5.794032 -81.652888 6.33 165.822
TN303 2013-10-27T05:47:00.00Z -5.797447 -81.651923 6.44 164.032
TN303 2013-10-27T05:48:00.00Z -5.80086 -81.65095 6.62 163.966
TN303 2013-10-27T05:49:00.00Z -5.80425 -81.649978 6.43 164.506
TN303 2013-10-27T05:50:00.00Z -5.807643 -81.64901 6.49 166.181
TN303 2013-10-27T05:51:00.00Z -5.811012 -81.648068 6.54 162.766
TN303 2013-10-27T05:51:59.00Z -5.814282 -81.647128 6.11 163.675
TN303 2013-10-27T05:53:00.00Z -5.817668 -81.646178 6.56 163.833
TN303 2013-10-27T05:54:00.00Z -5.82102 -81.645245 6.58 163.37
TN303 2013-10-27T05:54:59.00Z -5.824317 -81.644322 6.36 164.855
TN303 2013-10-27T05:55:59.00Z -5.827668 -81.64339 6.38 162.326
TN303 2013-10-27T05:57:00.00Z -5.831052 -81.642448 6.51 163.698
TN303 2013-10-27T05:57:59.00Z -5.834342 -81.641505 6.51 163.698
TN303 2013-10-27T05:59:00.00Z -5.837737 -81.640565 6.84 162.567
TN303 2013-10-27T05:59:59.00Z -5.841028 -81.639648 6.3 164.724
TN303 2013-10-27T06:01:00.00Z -5.84444 -81.63872 6.28 162.02
TN303 2013-10-27T06:02:00.00Z -5.847795 -81.637802 6.2 164.455
TN303 2013-10-27T06:03:00.00Z -5.851117 -81.63686 6.07 163.028
TN303 2013-10-27T06:04:00.00Z -5.854443 -81.635943 6.53 164.767
TN303 2013-10-27T06:05:00.00Z -5.857785 -81.635037 6.3 164.724
TN303 2013-10-27T06:06:00.00Z -5.861135 -81.634137 6.47 163.091
TN303 2013-10-27T06:07:00.00Z -5.86449 -81.63325 6.16 165.945
TN303 2013-10-27T06:07:59.00Z -5.86778 -81.632345 6.17 165.446
TN303 2013-10-27T06:09:00.00Z -5.871185 -81.63139 6.34 163.758
TN303 2013-10-27T06:09:59.00Z -5.87449 -81.63048 6.34 163.759
TN303 2013-10-27T06:11:00.00Z -5.877888 -81.629547 6.18 163.328
TN303 2013-10-27T06:11:59.00Z -5.881168 -81.62865 6.41 164.985
TN303 2013-10-27T06:13:00.00Z -5.88458 -81.627735 6.3 164.725
TN303 2013-10-27T06:14:00.00Z -5.88793 -81.62681 6.05 161.873
TN303 2013-10-27T06:15:00.00Z -5.89128 -81.625865 6.44 164.034
TN303 2013-10-27T06:15:59.00Z -5.894588 -81.624972 6.5 165.709
TN303 2013-10-27T06:16:59.00Z -5.897983 -81.624055 6.22 165.575
TN303 2013-10-27T06:17:59.00Z -5.901358 -81.623142 6.21 166.07
TN303 2013-10-27T06:18:59.00Z -5.904725 -81.622237 6.47 163.092
TN303 2013-10-27T06:19:59.00Z -5.908085 -81.62131 6.16 165.946
TN303 2013-10-27T06:21:00.00Z -5.911497 -81.620377 6.65 163.052
TN303 2013-10-27T06:21:59.00Z -5.914792 -81.619452 6.47 165.113
TN303 2013-10-27T06:22:59.00Z -5.91818 -81.61855 6.51 163.7
TN303 2013-10-27T06:24:00.00Z -5.92163 -81.617598 6.66 162.596
TN303 2013-10-27T06:24:59.00Z -5.924983 -81.616683 6.57 165.361
TN303 2013-10-27T06:26:00.00Z -5.92845 -81.615743 6.81 163.459
TN303 2013-10-27T06:27:00.00Z -5.931865 -81.614787 6.57 165.361
TN303 2013-10-27T06:28:00.00Z -5.935257 -81.613812 6.45 165.589
TN303 2013-10-27T06:28:59.00Z -5.93859 -81.612892 6.47 163.093
TN303 2013-10-27T06:30:00.00Z -5.942057 -81.611908 6.32 164.242
TN303 2013-10-27T06:31:00.00Z -5.945468 -81.610943 6.62 163.97
TN303 2013-10-27T06:32:00.00Z -5.948867 -81.60992 6.83 158.605
TN303 2013-10-27T06:33:00.00Z -5.952142 -81.60852 6.39 156.515
TN303 2013-10-27T06:34:00.00Z -5.955337 -81.607017 6.78 153.825
TN303 2013-10-27T06:35:00.00Z -5.958515 -81.605453 6.49 156.904
TN303 2013-10-27T06:36:00.00Z -5.96172 -81.603932 6.06 158.563
TN303 2013-10-27T06:37:00.00Z -5.96491 -81.602432 6.41 154.956
TN303 2013-10-27T06:38:00.00Z -5.968067 -81.600912 6.43 154.51
TN303 2013-10-27T06:38:59.00Z -5.971175 -81.59944 6.7 152.984
TN303 2013-10-27T06:39:59.00Z -5.974303 -81.597933 6.09 155.271
TN303 2013-10-27T06:41:00.00Z -5.977475 -81.596402 6.06 153.408
TN303 2013-10-27T06:41:59.00Z -5.980535 -81.594932 6.53 152.756
TN303 2013-10-27T06:43:00.00Z -5.983715 -81.593372 6.48 152.533
TN303 2013-10-27T06:43:59.00Z -5.986793 -81.591863 6.53 154.928
TN303 2013-10-27T06:45:00.00Z -5.989973 -81.590275 6.43 154.511
TN303 2013-10-27T06:46:00.00Z -5.993127 -81.588768 6.36 153.631
TN303 2013-10-27T06:46:59.00Z -5.996223 -81.587297 6.61 155.769
TN303 2013-10-27T06:48:00.00Z -5.999525 -81.585963 6.24 162.991
TN303 2013-10-27T06:48:59.00Z -6.002778 -81.584873 6.35 163.283
TN303 2013-10-27T06:50:00.00Z -6.006192 -81.58389 6.54 166.301
TN303 2013-10-27T06:50:59.00Z -6.009547 -81.58307 6.54 166.301
TN303 2013-10-27T06:51:59.00Z -6.012972 -81.582282 6.55 168.298
TN303 2013-10-27T06:53:00.00Z -6.016447 -81.581467 6.4 167.511
TN303 2013-10-27T06:54:00.00Z -6.01988 -81.5807 6.57 167.353
TN303 2013-10-27T06:55:00.00Z -6.023312 -81.579937 6.56 165.832
TN303 2013-10-27T06:56:00.00Z -6.026735 -81.579153 6.84 165.949
TN303 2013-10-27T06:57:00.00Z -6.030175 -81.578382 6.72 166.178
TN303 2013-10-27T06:57:59.00Z -6.033573 -81.5776 6.54 166.302
TN303 2013-10-27T06:58:59.00Z -6.03701 -81.576827 6.33 167.893
TN303 2013-10-27T07:00:00.00Z -6.040525 -81.57607 6.79 167.762
TN303 2013-10-27T07:01:00.00Z -6.043933 -81.575315 6.28 165.704
TN303 2013-10-27T07:02:00.00Z -6.047337 -81.574567 5.96 169.304
TN303 2013-10-27T07:02:59.00Z -6.050688 -81.573835 6.35 167.404
TN303 2013-10-27T07:04:00.00Z -6.054167 -81.57308 6.38 168.483
TN303 2013-10-27T07:05:00.00Z -6.0576 -81.572287 6.51 167.723
TN303 2013-10-27T07:06:00.00Z -6.06103 -81.57149 6.57 167.354
TN303 2013-10-27T07:06:59.00Z -6.064447 -81.570702 6.47 165.117
TN303 2013-10-27T07:08:00.00Z -6.067997 -81.56991 6.53 166.774
TN303 2013-10-27T07:09:00.00Z -6.071503 -81.569117 6.44 168.1
TN303 2013-10-27T07:09:59.00Z -6.07493 -81.568315 6.38 168.484
TN303 2013-10-27T07:11:00.00Z -6.078468 -81.567503 6.24 167.183
TN303 2013-10-27T07:12:00.00Z -6.081937 -81.566672 6.73 170.528
TN303 2013-10-27T07:13:00.00Z -6.085427 -81.56601 6.54 168.774
TN303 2013-10-27T07:14:00.00Z -6.088922 -81.56534 6.75 169.601
TN303 2013-10-27T07:15:00.00Z -6.092397 -81.564678 6.26 171.862
TN303 2013-10-27T07:15:59.00Z -6.095837 -81.564028 6.47 172.139
TN303 2013-10-27T07:16:59.00Z -6.09935 -81.563372 6.62 167.927
TN303 2013-10-27T07:18:00.00Z -6.102898 -81.56267 6.44 171.096
TN303 2013-10-27T07:19:00.00Z -6.106377 -81.562015 6.48 168.68
TN303 2013-10-27T07:20:00.00Z -6.109852 -81.561358 6.31 168.877
TN303 2013-10-27T07:21:00.00Z -6.113318 -81.56066 6.73 170.529
TN303 2013-10-27T07:21:59.00Z -6.116727 -81.560007 6.67 168.027
TN303 2013-10-27T07:22:59.00Z -6.120145 -81.559315 6.85 169.769
TN303 2013-10-27T07:23:59.00Z -6.123588 -81.558665 6.45 170.125
TN303 2013-10-27T07:25:00.00Z -6.127092 -81.557985 6.21 168.18
TN303 2013-10-27T07:26:00.00Z -6.130542 -81.557315 6.38 168.485
TN303 2013-10-27T07:26:59.00Z -6.133895 -81.556613 6.46 169.642
TN303 2013-10-27T07:28:00.00Z -6.137373 -81.555937 6.31 168.877
TN303 2013-10-27T07:29:00.00Z -6.140748 -81.555248 5.98 166.08
TN303 2013-10-27T07:30:00.00Z -6.144133 -81.554555 6.2 168.68
TN303 2013-10-27T07:31:00.00Z -6.147545 -81.553897 6.47 169.161
TN303 2013-10-27T07:32:00.00Z -6.150967 -81.553205 6.18 169.686
TN303 2013-10-27T07:33:00.00Z -6.154375 -81.552523 6.36 169.463
TN303 2013-10-27T07:34:00.00Z -6.157783 -81.551847 6.23 167.682
TN303 2013-10-27T07:34:59.00Z -6.16114 -81.551167 6.2 168.681
TN303 2013-10-27T07:36:00.00Z -6.16463 -81.550487 6.39 167.999
TN303 2013-10-27T07:37:00.00Z -6.168038 -81.549793 6.48 168.681
TN303 2013-10-27T07:37:59.00Z -6.17139 -81.549122 6.35 169.955
TN303 2013-10-27T07:38:59.00Z -6.17479 -81.548447 6.47 169.161
TN303 2013-10-27T07:39:59.00Z -6.178153 -81.547793 6.48 168.681
TN303 2013-10-27T07:41:00.00Z -6.181595 -81.547142 6.31 168.878
TN303 2013-10-27T07:41:59.00Z -6.184947 -81.546515 6.47 169.161
TN303 2013-10-27T07:43:00.00Z -6.1884 -81.545837 6.23 167.682
TN303 2013-10-27T07:44:00.00Z -6.191785 -81.545235 6.75 169.603
TN303 2013-10-27T07:44:59.00Z -6.195132 -81.544608 6.65 168.962
TN303 2013-10-27T07:45:59.00Z -6.198533 -81.543965 6.43 168.585
TN303 2013-10-27T07:47:00.00Z -6.201993 -81.543313 6.59 168.87
TN303 2013-10-27T07:47:59.00Z -6.205345 -81.54269 6.35 169.956
TN303 2013-10-27T07:49:00.00Z -6.20879 -81.54203 6.31 168.879
TN303 2013-10-27T07:49:59.00Z -6.212142 -81.541382 6.35 169.956
TN303 2013-10-27T07:51:00.00Z -6.215583 -81.540748 6.68 167.565
TN303 2013-10-27T07:52:00.00Z -6.218982 -81.5401 6.51 167.726
TN303 2013-10-27T07:52:59.00Z -6.222338 -81.53948 6.64 166.996
TN303 2013-10-27T07:54:00.00Z -6.225782 -81.538852 5.88 170.797
TN303 2013-10-27T07:55:00.00Z -6.229147 -81.538247 6.61 170.846
TN303 2013-10-27T07:56:00.00Z -6.232553 -81.537678 6.16 170.7
TN303 2013-10-27T07:56:59.00Z -6.235885 -81.537065 6.6 171.321
TN303 2013-10-27T07:58:00.00Z -6.239318 -81.536443 6.45 170.127
TN303 2013-10-27T07:58:59.00Z -6.242633 -81.535845 6.18 169.688
TN303 2013-10-27T08:00:00.00Z -6.246048 -81.535227 6.23 167.684
TN303 2013-10-27T08:01:00.00Z -6.249407 -81.534622 5.76 171.709
TN303 2013-10-27T08:02:00.00Z -6.252747 -81.534045 6.24 169.779
TN303 2013-10-27T08:02:59.00Z -6.256052 -81.53343 6.24 169.779
TN303 2013-10-27T08:03:59.00Z -6.259403 -81.532848 6.4 170.043
TN303 2013-10-27T08:04:59.00Z -6.262767 -81.532237 6.67 168.03
TN303 2013-10-27T08:06:00.00Z -6.266215 -81.531612 6.69 167.104
TN303 2013-10-27T08:07:00.00Z -6.26959 -81.530975 6.51 167.728
TN303 2013-10-27T08:07:59.00Z -6.27292 -81.530387 6.54 171.728
TN303 2013-10-27T08:09:00.00Z -6.27635 -81.529802 6.18 169.689
TN303 2013-10-27T08:09:59.00Z -6.27964 -81.529222 6.5 168.205
TN303 2013-10-27T08:10:59.00Z -6.28296 -81.528515 6.24 167.188
TN303 2013-10-27T08:12:00.00Z -6.28634 -81.52782 6.04 168.375
TN303 2013-10-27T08:13:00.00Z -6.289635 -81.52716 6.32 168.388
TN303 2013-10-27T08:13:59.00Z -6.292853 -81.526505 6.43 168.587
TN303 2013-10-27T08:14:59.00Z -6.296122 -81.525842 6.2 168.684
TN303 2013-10-27T08:16:00.00Z -6.299455 -81.525172 6.2 168.684
TN303 2013-10-27T08:17:00.00Z -6.302745 -81.524488 6.62 167.932
TN303 2013-10-27T08:17:59.00Z -6.305985 -81.523808 6.07 169.503
TN303 2013-10-27T08:19:00.00Z -6.309305 -81.523095 6.21 168.184
TN303 2013-10-27T08:20:00.00Z -6.312563 -81.522422 6.71 168.591
TN303 2013-10-27T08:21:00.00Z -6.315843 -81.521752 6.33 167.899
TN303 2013-10-27T08:22:00.00Z -6.319105 -81.521072 5.9 169.738
TN303 2013-10-27T08:23:00.00Z -6.322383 -81.520385 6.35 167.411
TN303 2013-10-27T08:23:59.00Z -6.325587 -81.519707 6.07 169.503
TN303 2013-10-27T08:25:00.00Z -6.328888 -81.519008 6.2 168.684
TN303 2013-10-27T08:26:00.00Z -6.332155 -81.518338 6.08 168.991
TN303 2013-10-27T08:27:00.00Z -6.335448 -81.51767 6.26 166.202
TN303 2013-10-27T08:27:59.00Z -6.338688 -81.516997 5.9 166.999
TN303 2013-10-27T08:29:00.00Z -6.342017 -81.516282 5.82 167.937
TN303 2013-10-27T08:30:00.00Z -6.345263 -81.515592 6.81 164.942
TN303 2013-10-27T08:31:00.00Z -6.34852 -81.514862 6.13 166.961
TN303 2013-10-27T08:31:59.00Z -6.351755 -81.514187 6.07 169.504
TN303 2013-10-27T08:32:59.00Z -6.35503 -81.513487 6.29 169.871
TN303 2013-10-27T08:34:00.00Z -6.358372 -81.512813 6.27 168.288
TN303 2013-10-27T08:34:59.00Z -6.361587 -81.512142 5.99 168.27
TN303 2013-10-27T08:35:59.00Z -6.364843 -81.51148 6.2 168.685
TN303 2013-10-27T08:37:00.00Z -6.368152 -81.510818 6.56 167.833
TN303 2013-10-27T08:38:00.00Z -6.371375 -81.510165 6.13 166.961
TN303 2013-10-27T08:39:00.00Z -6.374608 -81.50948 5.9 167.0
TN303 2013-10-27T08:40:00.00Z -6.377847 -81.50878 6.13 166.961
TN303 2013-10-27T08:41:00.00Z -6.381122 -81.508105 6.32 166.323
TN303 2013-10-27T08:42:00.00Z -6.38442 -81.507425 6.33 170.946
TN303 2013-10-27T08:42:59.00Z -6.387658 -81.506772 6.15 168.585
TN303 2013-10-27T08:43:59.00Z -6.390965 -81.506095 5.77 170.624
TN303 2013-10-27T08:45:00.00Z -6.39433 -81.505413 6.3 169.376
TN303 2013-10-27T08:46:00.00Z -6.39764 -81.504757 6.93 166.624
TN303 2013-10-27T08:47:00.00Z -6.400922 -81.50408 5.93 168.162
TN303 2013-10-27T08:47:59.00Z -6.40416 -81.503412 5.93 168.162
TN303 2013-10-27T08:49:00.00Z -6.407488 -81.502725 6.4 170.046
TN303 2013-10-27T08:50:00.00Z -6.410782 -81.50203 5.99 168.271
TN303 2013-10-27T08:51:00.00Z -6.414077 -81.50132 6.27 168.29
TN303 2013-10-27T08:52:00.00Z -6.417392 -81.500612 6.02 166.725
TN303 2013-10-27T08:53:00.00Z -6.4207 -81.499902 6.23 167.688
TN303 2013-10-27T08:54:00.00Z -6.424003 -81.499168 6.19 169.188
TN303 2013-10-27T08:55:00.00Z -6.427285 -81.498447 6.12 167.467
TN303 2013-10-27T08:56:00.00Z -6.43057 -81.497707 6.41 165.0
TN303 2013-10-27T08:57:00.00Z -6.433848 -81.496943 5.94 167.641
TN303 2013-10-27T08:57:59.00Z -6.437075 -81.496187 6.37 166.442
TN303 2013-10-27T08:58:59.00Z -6.440357 -81.495428 6.71 166.647
TN303 2013-10-27T08:59:59.00Z -6.443628 -81.494672 5.48 168.346
TN303 2013-10-27T09:00:59.00Z -6.446867 -81.493913 6.2 164.472
TN303 2013-10-27T09:01:59.00Z -6.450138 -81.493155 6.15 168.586
TN303 2013-10-27T09:03:00.00Z -6.453437 -81.492418 6.31 168.884
TN303 2013-10-27T09:03:59.00Z -6.456638 -81.491703 6.3 169.378
TN303 2013-10-27T09:04:59.00Z -6.4599 -81.49098 6.05 167.866
TN303 2013-10-27T09:05:59.00Z -6.463168 -81.49021 6.04 168.379
TN303 2013-10-27T09:07:00.00Z -6.466482 -81.489455 6.2 168.687
TN303 2013-10-27T09:08:00.00Z -6.46974 -81.488707 6.06 165.2
TN303 2013-10-27T09:08:59.00Z -6.472928 -81.48796 6.65 166.538
TN303 2013-10-27T09:09:59.00Z -6.476187 -81.487183 6.29 167.305
TN303 2013-10-27T09:11:00.00Z -6.479522 -81.486418 6.25 166.699
TN303 2013-10-27T09:12:00.00Z -6.482775 -81.48565 6.23 163.492
TN303 2013-10-27T09:13:00.00Z -6.486035 -81.484867 6.23 167.689
TN303 2013-10-27T09:13:59.00Z -6.489223 -81.484132 5.94 165.444
TN303 2013-10-27T09:14:59.00Z -6.49246 -81.483353 6.09 166.34
TN303 2013-10-27T09:16:00.00Z -6.495753 -81.482533 6.25 166.699
TN303 2013-10-27T09:17:00.00Z -6.499002 -81.481777 6.42 166.559
TN303 2013-10-27T09:17:59.00Z -6.502222 -81.481032 6.09 168.484
TN303 2013-10-27T09:19:00.00Z -6.50556 -81.480268 6.21 168.188
TN303 2013-10-27T09:20:00.00Z -6.508847 -81.4795 6.05 165.707
TN303 2013-10-27T09:20:59.00Z -6.512077 -81.478725 6.28 165.717
TN303 2013-10-27T09:22:00.00Z -6.515443 -81.477927 6.23 167.69
TN303 2013-10-27T09:23:00.00Z -6.518772 -81.47715 6.36 166.929
TN303 2013-10-27T09:23:59.00Z -6.522048 -81.476375 6.43 168.592
TN303 2013-10-27T09:25:00.00Z -6.525405 -81.475583 6.36 166.929
TN303 2013-10-27T09:25:59.00Z -6.528655 -81.474867 6.62 167.937
TN303 2013-10-27T09:27:00.00Z -6.532053 -81.47416 6.18 169.694
TN303 2013-10-27T09:27:59.00Z -6.535337 -81.473465 6.24 167.194
TN303 2013-10-27T09:28:59.00Z -6.538685 -81.472747 6.62 167.937
TN303 2013-10-27T09:30:00.00Z -6.542073 -81.472032 6.24 167.195
TN303 2013-10-27T09:30:59.00Z -6.545327 -81.471328 6.18 169.694
TN303 2013-10-27T09:31:59.00Z -6.548652 -81.470625 6.21 168.189
TN303 2013-10-27T09:32:59.00Z -6.552008 -81.469922 6.45 167.63
TN303 2013-10-27T09:33:59.00Z -6.555355 -81.469207 6.06 167.357
TN303 2013-10-27T09:35:00.00Z -6.558747 -81.468493 5.96 169.314
TN303 2013-10-27T09:35:59.00Z -6.562052 -81.467808 6.38 168.495
TN303 2013-10-27T09:36:59.00Z -6.565403 -81.467093 6.14 169.094
TN303 2013-10-27T09:38:00.00Z -6.568797 -81.466363 6.19 169.191
TN303 2013-10-27T09:38:59.00Z -6.572085 -81.465695 6.47 169.17
TN303 2013-10-27T09:39:59.00Z -6.575453 -81.465005 5.94 167.644
TN303 2013-10-27T09:41:00.00Z -6.578875 -81.464282 6.56 170.299
TN303 2013-10-27T09:42:00.00Z -6.582247 -81.463558 6.29 167.307
TN303 2013-10-27T09:43:00.00Z -6.585615 -81.462788 6.21 168.19
TN303 2013-10-27T09:44:00.00Z -6.588993 -81.462025 6.62 167.939
TN303 2013-10-27T09:45:00.00Z -6.592365 -81.461272 6.07 169.509
TN303 2013-10-27T09:46:00.00Z -6.595713 -81.460528 5.87 171.336
TN303 2013-10-27T09:46:59.00Z -6.598987 -81.459825 6.59 166.897
TN303 2013-10-27T09:47:59.00Z -6.602332 -81.459098 6.52 167.261
TN303 2013-10-27T09:49:00.00Z -6.605733 -81.45836 5.58 172.031
TN303 2013-10-27T09:49:59.00Z -6.609002 -81.457627 6.34 165.359
TN303 2013-10-27T09:50:59.00Z -6.612342 -81.456875 6.29 167.308
TN303 2013-10-27T09:52:00.00Z -6.615763 -81.45614 6.27 170.87
TN303 2013-10-27T09:53:00.00Z -6.619108 -81.455427 6.06 167.359
TN303 2013-10-27T09:54:00.00Z -6.622457 -81.4547 6.6 166.43
TN303 2013-10-27T09:54:59.00Z -6.625745 -81.453978 6.3 169.381
TN303 2013-10-27T09:55:59.00Z -6.629088 -81.453257 6.5 168.213
TN303 2013-10-27T09:57:00.00Z -6.632508 -81.452518 6.25 166.703
TN303 2013-10-27T09:57:59.00Z -6.635805 -81.451803 6.51 167.736
TN303 2013-10-27T09:58:59.00Z -6.63917 -81.451057 6.13 166.968
TN303 2013-10-27T09:59:59.00Z -6.64254 -81.450333 6.52 167.262
TN303 2013-10-27T10:00:59.00Z -6.64591 -81.449613 6.36 169.473
TN303 2013-10-27T10:02:00.00Z -6.649328 -81.448862 6.5 168.213
TN303 2013-10-27T10:03:00.00Z -6.65268 -81.448125 6.38 168.497
TN303 2013-10-27T10:03:59.00Z -6.655953 -81.44741 6.18 167.084
TN303 2013-10-27T10:05:00.00Z -6.659377 -81.446658 6.13 166.968
TN303 2013-10-27T10:06:00.00Z -6.662732 -81.44593 6.44 166.085
TN303 2013-10-27T10:06:59.00Z -6.666015 -81.445227 6.31 168.889
TN303 2013-10-27T10:08:00.00Z -6.669438 -81.444503 6.3 169.382
TN303 2013-10-27T10:09:00.00Z -6.672785 -81.443775 6.41 165.007
TN303 2013-10-27T10:09:59.00Z -6.676093 -81.443058 6.19 169.194
TN303 2013-10-27T10:10:59.00Z -6.679467 -81.442343 6.89 166.078
TN303 2013-10-27T10:12:00.00Z -6.682883 -81.441612 6.8 167.322
TN303 2013-10-27T10:13:00.00Z -6.68626 -81.440883 5.24 172.726
TN303 2013-10-27T10:14:00.00Z -6.68957 -81.440172 6.44 168.114
TN303 2013-10-27T10:14:59.00Z -6.692858 -81.439468 6.28 165.722
TN303 2013-10-27T10:16:00.00Z -6.69629 -81.438705 6.13 166.969
TN303 2013-10-27T10:17:00.00Z -6.69966 -81.437958 6.51 167.738
TN303 2013-10-27T10:17:59.00Z -6.702973 -81.437242 6.78 168.234
TN303 2013-10-27T10:19:00.00Z -6.706387 -81.436485 6.07 169.511
TN303 2013-10-27T10:20:00.00Z -6.709747 -81.435787 6.29 167.31
TN303 2013-10-27T10:20:59.00Z -6.713017 -81.43506 6.09 168.489
TN303 2013-10-27T10:21:59.00Z -6.716362 -81.434372 6.47 169.173
TN303 2013-10-27T10:23:00.00Z -6.719773 -81.433637 6.2 164.48
TN303 2013-10-27T10:24:00.00Z -6.723118 -81.432918 5.91 169.219
TN303 2013-10-27T10:25:00.00Z -6.72645 -81.432213 5.98 171.498
TN303 2013-10-27T10:26:00.00Z -6.72979 -81.431507 6.44 168.115
TN303 2013-10-27T10:26:59.00Z -6.733083 -81.430822 6.24 167.199
TN303 2013-10-27T10:28:00.00Z -6.736502 -81.430093 6.29 167.311
TN303 2013-10-27T10:29:00.00Z -6.739872 -81.429378 6.04 171.576
TN303 2013-10-27T10:30:00.00Z -6.743217 -81.428683 6.36 169.475
TN303 2013-10-27T10:31:00.00Z -6.746567 -81.427988 6.4 167.529
TN303 2013-10-27T10:31:59.00Z -6.749843 -81.427298 6.0 170.454
TN303 2013-10-27T10:32:59.00Z -6.753183 -81.426607 6.45 167.635
TN303 2013-10-27T10:34:00.00Z -6.756597 -81.425892 6.12 167.475
TN303 2013-10-27T10:34:59.00Z -6.75989 -81.42522 5.91 169.219
TN303 2013-10-27T10:35:59.00Z -6.763212 -81.424545 6.27 168.298
TN303 2013-10-27T10:37:00.00Z -6.76661 -81.423863 6.36 169.476
TN303 2013-10-27T10:37:59.00Z -6.7699 -81.423197 6.2 168.694
TN303 2013-10-27T10:39:00.00Z -6.773302 -81.42251 6.21 168.194
TN303 2013-10-27T10:40:00.00Z -6.776678 -81.421862 6.13 169.607
TN303 2013-10-27T10:40:59.00Z -6.779972 -81.421218 6.25 169.291
TN303 2013-10-27T10:42:00.00Z -6.78338 -81.420538 6.19 169.196
TN303 2013-10-27T10:42:59.00Z -6.786678 -81.419858 6.41 169.567
TN303 2013-10-27T10:44:00.00Z -6.790077 -81.41918 6.33 167.91
TN303 2013-10-27T10:44:59.00Z -6.793375 -81.418515 6.37 168.987
TN303 2013-10-27T10:46:00.00Z -6.796802 -81.417842 6.51 167.74
TN303 2013-10-27T10:47:00.00Z -6.800173 -81.417148 6.49 166.206
TN303 2013-10-27T10:48:00.00Z -6.803555 -81.416462 6.37 166.452
TN303 2013-10-27T10:49:00.00Z -6.806927 -81.415768 6.52 169.743
TN303 2013-10-27T10:50:00.00Z -6.810295 -81.415053 6.41 167.048
TN303 2013-10-27T10:51:00.00Z -6.813678 -81.41436 6.44 168.117
TN303 2013-10-27T10:52:00.00Z -6.817072 -81.413647 5.58 172.034
TN303 2013-10-27T10:53:00.00Z -6.820423 -81.412975 6.44 168.117
TN303 2013-10-27T10:54:00.00Z -6.8238 -81.412305 6.01 167.248
TN303 2013-10-27T10:55:00.00Z -6.827147 -81.411605 6.47 169.175
TN303 2013-10-27T10:55:59.00Z -6.830438 -81.410943 6.32 168.401
TN303 2013-10-27T10:57:00.00Z -6.833868 -81.410263 6.35 167.423
TN303 2013-10-27T10:57:59.00Z -6.837173 -81.409595 6.54 166.323
TN303 2013-10-27T10:58:59.00Z -6.840553 -81.408915 6.37 166.453
TN303 2013-10-27T11:00:00.00Z -6.843987 -81.408218 6.56 167.844
TN303 2013-10-27T11:01:00.00Z -6.847355 -81.40752 6.59 168.884
TN303 2013-10-27T11:01:59.00Z -6.850662 -81.406833 6.41 167.049
TN303 2013-10-27T11:03:00.00Z -6.8541 -81.406127 6.33 167.912
TN303 2013-10-27T11:03:59.00Z -6.857432 -81.405425 6.54 166.323
TN303 2013-10-27T11:05:00.00Z -6.860875 -81.404712 6.51 167.742
TN303 2013-10-27T11:05:59.00Z -6.8642 -81.404 6.64 167.013
TN303 2013-10-27T11:07:00.00Z -6.867632 -81.403223 6.31 168.893
TN303 2013-10-27T11:07:59.00Z -6.870965 -81.402493 6.32 168.402
TN303 2013-10-27T11:08:59.00Z -6.87438 -81.401745 6.53 166.795
TN303 2013-10-27T11:09:59.00Z -6.877817 -81.401017 6.24 169.792
TN303 2013-10-27T11:11:00.00Z -6.881287 -81.4003 6.29 167.315
TN303 2013-10-27T11:11:59.00Z -6.884632 -81.399597 6.28 167.807
TN303 2013-10-27T11:13:00.00Z -6.888072 -81.39884 6.54 168.792
TN303 2013-10-27T11:14:00.00Z -6.891485 -81.398123 6.17 165.474
TN303 2013-10-27T11:14:59.00Z -6.894802 -81.397352 6.12 167.479
TN303 2013-10-27T11:16:00.00Z -6.898225 -81.39655 6.47 167.16
TN303 2013-10-27T11:17:00.00Z -6.901593 -81.395762 6.51 167.743
TN303 2013-10-27T11:17:59.00Z -6.9049 -81.395002 6.56 165.856
TN303 2013-10-27T11:18:59.00Z -6.90828 -81.394247 6.39 168.017
TN303 2013-10-27T11:19:59.00Z -6.911668 -81.393482 6.53 166.796
TN303 2013-10-27T11:21:00.00Z -6.9151 -81.392688 6.47 167.161
TN303 2013-10-27T11:21:59.00Z -6.918432 -81.391913 6.13 166.975
TN303 2013-10-27T11:23:00.00Z -6.921857 -81.39112 6.11 167.986
TN303 2013-10-27T11:24:00.00Z -6.925222 -81.390353 6.57 167.375
TN303 2013-10-27T11:24:59.00Z -6.928533 -81.389587 6.18 163.361
TN303 2013-10-27T11:26:00.00Z -6.931963 -81.388777 6.23 167.701
TN303 2013-10-27T11:27:00.00Z -6.935343 -81.388005 6.7 169.069
TN303 2013-10-27T11:28:00.00Z -6.938715 -81.38723 6.37 166.456
TN303 2013-10-27T11:28:59.00Z -6.942027 -81.386472 6.26 168.797
TN303 2013-10-27T11:29:59.00Z -6.945413 -81.385717 6.23 167.701
TN303 2013-10-27T11:30:59.00Z -6.948803 -81.384945 6.38 165.974
TN303 2013-10-27T11:31:59.00Z -6.952153 -81.384173 6.53 164.798
TN303 2013-10-27T11:33:00.00Z -6.955553 -81.383368 6.57 165.39
TN303 2013-10-27T11:34:00.00Z -6.958927 -81.382565 6.42 166.572
TN303 2013-10-27T11:35:00.00Z -6.962295 -81.38174 6.47 167.162
TN303 2013-10-27T11:36:00.00Z -6.965693 -81.380943 6.22 165.604
TN303 2013-10-27T11:37:00.00Z -6.969063 -81.380132 6.48 166.686
TN303 2013-10-27T11:38:00.00Z -6.972443 -81.379347 6.71 166.662
TN303 2013-10-27T11:38:59.00Z -6.975778 -81.378565 6.37 166.457
TN303 2013-10-27T11:39:59.00Z -6.979163 -81.377787 6.4 165.495
TN303 2013-10-27T11:41:00.00Z -6.982588 -81.376985 6.3 164.757
TN303 2013-10-27T11:41:59.00Z -6.985902 -81.376213 6.3 166.828
TN303 2013-10-27T11:42:59.00Z -6.989292 -81.375488 6.38 168.505
TN303 2013-10-27T11:44:00.00Z -6.992753 -81.374737 6.42 169.086
TN303 2013-10-27T11:45:00.00Z -6.996158 -81.373985 6.23 167.702
TN303 2013-10-27T11:46:00.00Z -6.999548 -81.373243 6.47 167.163
TN303 2013-10-27T11:46:59.00Z -7.002868 -81.372503 6.24 167.207
TN303 2013-10-27T11:48:00.00Z -7.00627 -81.37172 6.37 166.458
TN303 2013-10-27T11:49:01.00Z -7.009692 -81.370923 6.25 166.713
TN303 2013-10-27T11:49:59.00Z -7.012947 -81.370178 6.29 167.318
TN303 2013-10-27T11:51:00.00Z -7.016377 -81.369408 6.18 169.704
TN303 2013-10-27T11:52:00.00Z -7.019753 -81.36866 6.54 166.328
TN303 2013-10-27T11:52:59.00Z -7.023072 -81.367928 5.95 170.371
TN303 2013-10-27T11:54:00.00Z -7.026487 -81.367153 6.41 167.054
TN303 2013-10-27T11:55:00.00Z -7.029838 -81.366407 6.06 167.369
TN303 2013-10-27T11:55:59.00Z -7.033107 -81.365675 6.4 167.536
TN303 2013-10-27T11:56:59.00Z -7.036432 -81.364945 6.2 168.7
TN303 2013-10-27T11:57:59.00Z -7.039775 -81.364245 6.31 168.897
TN303 2013-10-27T11:59:00.00Z -7.04319 -81.363567 6.49 166.213
TN303 2013-10-27T12:00:00.00Z -7.046553 -81.362875 6.18 169.705
TN303 2013-10-27T12:00:59.00Z -7.049863 -81.362215 5.94 165.46
TN303 2013-10-27T12:02:00.00Z -7.053277 -81.361503 5.91 169.226
TN303 2013-10-27T12:02:59.00Z -7.056582 -81.360847 6.45 170.144
TN303 2013-10-27T12:04:00.00Z -7.059997 -81.360188 6.52 169.749
TN303 2013-10-27T12:04:59.00Z -7.063305 -81.359548 6.63 169.919
TN303 2013-10-27T12:06:00.00Z -7.066755 -81.358865 6.24 167.208
TN303 2013-10-27T12:07:00.00Z -7.07018 -81.3582 6.67 168.05
TN303 2013-10-27T12:08:00.00Z -7.073592 -81.357547 6.56 165.861
TN303 2013-10-27T12:09:00.00Z -7.07702 -81.356893 6.2 168.701
TN303 2013-10-27T12:10:00.00Z -7.08043 -81.35623 6.45 170.144
TN303 2013-10-27T12:11:00.00Z -7.083853 -81.355578 6.43 168.605
TN303 2013-10-27T12:11:59.00Z -7.087212 -81.35493 6.16 170.716
TN303 2013-10-27T12:12:59.00Z -7.090653 -81.354313 6.38 171.037
TN303 2013-10-27T12:14:00.00Z -7.094157 -81.353673 6.62 170.39
TN303 2013-10-27T12:15:00.00Z -7.097578 -81.35305 6.38 171.037
TN303 2013-10-27T12:16:00.00Z -7.10101 -81.352408 6.63 169.92
TN303 2013-10-27T12:17:00.00Z -7.104453 -81.351792 6.45 170.145
TN303 2013-10-27T12:17:59.00Z -7.10781 -81.351173 6.92 169.42
TN303 2013-10-27T12:19:00.00Z -7.111308 -81.35051 6.21 168.203
TN303 2013-10-27T12:20:00.00Z -7.114722 -81.349867 6.07 169.52
TN303 2013-10-27T12:21:00.00Z -7.118142 -81.349243 6.31 168.899
TN303 2013-10-27T12:21:59.00Z -7.121508 -81.348583 6.7 169.073
TN303 2013-10-27T12:23:00.00Z -7.125023 -81.347937 6.56 170.31
TN303 2013-10-27T12:23:59.00Z -7.12842 -81.347323 6.42 172.088
TN303 2013-10-27T12:24:59.00Z -7.131857 -81.346728 6.36 169.484
TN303 2013-10-27T12:25:59.00Z -7.135262 -81.346122 6.72 171.013
TN303 2013-10-27T12:27:00.00Z -7.138715 -81.345505 5.93 168.18
TN303 2013-10-27T12:27:59.00Z -7.142033 -81.344895 6.45 167.645
TN303 2013-10-27T12:29:00.00Z -7.145505 -81.344265 6.4 170.061
TN303 2013-10-27T12:29:59.00Z -7.148863 -81.34367 6.0 170.462
TN303 2013-10-27T12:31:00.00Z -7.152322 -81.343073 6.35 169.975
TN303 2013-10-27T12:32:00.00Z -7.155718 -81.342478 6.45 170.146
TN303 2013-10-27T12:33:00.00Z -7.159095 -81.34189 6.4 170.061
TN303 2013-10-27T12:34:00.00Z -7.162463 -81.341307 6.67 170.471
TN303 2013-10-27T12:34:59.00Z -7.165782 -81.340733 6.18 169.708
TN303 2013-10-27T12:36:00.00Z -7.169202 -81.340157 5.94 170.9
TN303 2013-10-27T12:37:00.00Z -7.172572 -81.339583 6.18 169.708
TN303 2013-10-27T12:37:59.00Z -7.175898 -81.339015 6.31 168.901
TN303 2013-10-27T12:39:00.00Z -7.179347 -81.338413 6.42 172.089
TN303 2013-10-27T12:40:00.00Z -7.182757 -81.337818 6.33 170.961
TN303 2013-10-27T12:41:00.00Z -7.186127 -81.337222 6.34 170.467
TN303 2013-10-27T12:42:00.00Z -7.189518 -81.336635 6.42 169.091
TN303 2013-10-27T12:43:00.00Z -7.192918 -81.336057 6.39 170.55
TN303 2013-10-27T12:44:00.00Z -7.19632 -81.3355 6.44 171.115
TN303 2013-10-27T12:45:00.00Z -7.199715 -81.33493 6.27 170.882
TN303 2013-10-27T12:46:00.00Z -7.203068 -81.334368 6.62 167.954
TN303 2013-10-27T12:46:59.00Z -7.206382 -81.333788 6.45 170.147
TN303 2013-10-27T12:48:00.00Z -7.209805 -81.333205 5.89 170.285
TN303 2013-10-27T12:49:00.00Z -7.21319 -81.33263 6.33 170.961
TN303 2013-10-27T12:49:59.00Z -7.216523 -81.332065 6.37 171.53
TN303 2013-10-27T12:50:59.00Z -7.219918 -81.331477 6.45 170.147
TN303 2013-10-27T12:52:00.00Z -7.22336 -81.33085 6.29 169.889
TN303 2013-10-27T12:52:59.00Z -7.226682 -81.330283 6.36 169.486
TN303 2013-10-27T12:54:00.00Z -7.230078 -81.329678 6.0 170.464
TN303 2013-10-27T12:55:00.00Z -7.233415 -81.329078 6.19 169.206
TN303 2013-10-27T12:56:00.00Z -7.236757 -81.328477 6.51 170.231
TN303 2013-10-27T12:57:00.00Z -7.240097 -81.327862 6.06 165.223
TN303 2013-10-27T12:57:59.00Z -7.243343 -81.327143 6.52 167.278
TN303 2013-10-27T12:58:59.00Z -7.246668 -81.3264 6.18 167.1
TN303 2013-10-27T13:00:00.00Z -7.250065 -81.325645 6.37 166.465
TN303 2013-10-27T13:01:00.00Z -7.253367 -81.324895 6.26 166.228
TN303 2013-10-27T13:01:59.00Z -7.256618 -81.324168 6.32 168.411
TN303 2013-10-27T13:02:59.00Z -7.259935 -81.323448 6.14 166.483
TN303 2013-10-27T13:03:59.00Z -7.263218 -81.32273 6.37 166.465
TN303 2013-10-27T13:04:59.00Z -7.266503 -81.321997 6.33 167.922
TN303 2013-10-27T13:06:00.00Z -7.269867 -81.321245 6.29 167.325
TN303 2013-10-27T13:07:00.00Z -7.273183 -81.3205 6.2 168.706
TN303 2013-10-27T13:08:00.00Z -7.276478 -81.319765 6.05 167.886
TN303 2013-10-27T13:08:59.00Z -7.279728 -81.319023 5.62 166.94
TN303 2013-10-27T13:09:59.00Z -7.28305 -81.318268 6.14 166.484
TN303 2013-10-27T13:10:59.00Z -7.286378 -81.31752 6.35 167.435
TN303 2013-10-27T13:12:00.00Z -7.289775 -81.316757 6.44 168.129
TN303 2013-10-27T13:13:00.00Z -7.293117 -81.316015 6.03 166.238
TN303 2013-10-27T13:13:59.00Z -7.296403 -81.31526 6.53 166.807
TN303 2013-10-27T13:15:00.00Z -7.299805 -81.314485 6.42 166.582
TN303 2013-10-27T13:16:00.00Z -7.303128 -81.31373 6.43 168.611
TN303 2013-10-27T13:16:59.00Z -7.306397 -81.312982 6.2 164.499
TN303 2013-10-27T13:18:00.00Z -7.309768 -81.312197 6.4 165.505
TN303 2013-10-27T13:19:00.00Z -7.313082 -81.311413 6.02 166.749
TN303 2013-10-27T13:19:59.00Z -7.316353 -81.310622 6.15 168.606
TN303 2013-10-27T13:20:59.00Z -7.319687 -81.309813 6.52 167.28
TN303 2013-10-27T13:22:00.00Z -7.323073 -81.308992 6.2 168.707
TN303 2013-10-27T13:23:00.00Z -7.326392 -81.308208 6.11 167.996
TN303 2013-10-27T13:24:00.00Z -7.329728 -81.307407 6.41 165.028
TN303 2013-10-27T13:24:59.00Z -7.333025 -81.306603 6.24 167.216
TN303 2013-10-27T13:25:59.00Z -7.336368 -81.305787 6.3 164.768
TN303 2013-10-27T13:26:59.00Z -7.3397 -81.304967 6.1 165.86
TN303 2013-10-27T13:28:00.00Z -7.34308 -81.30414 6.57 165.402
TN303 2013-10-27T13:29:00.00Z -7.346398 -81.303365 6.49 166.222
TN303 2013-10-27T13:29:59.00Z -7.349677 -81.302573 6.33 165.865
TN303 2013-10-27T13:30:59.00Z -7.352987 -81.301765 6.28 165.741
TN303 2013-10-27T13:31:59.00Z -7.356302 -81.300937 6.32 166.35
TN303 2013-10-27T13:32:59.00Z -7.359625 -81.300158 6.05 167.888
TN303 2013-10-27T13:33:59.00Z -7.362933 -81.299383 6.24 167.216
TN303 2013-10-27T13:35:00.00Z -7.366282 -81.298568 6.03 166.241
TN303 2013-10-27T13:35:59.00Z -7.369528 -81.2978 6.31 168.905
TN303 2013-10-27T13:36:59.00Z -7.372862 -81.297093 6.19 169.21
TN303 2013-10-27T13:37:59.00Z -7.376188 -81.29638 6.31 168.905
TN303 2013-10-27T13:39:00.00Z -7.379597 -81.29564 6.29 167.328
TN303 2013-10-27T13:40:00.00Z -7.382958 -81.294905 6.44 168.131
TN303 2013-10-27T13:41:00.00Z -7.38632 -81.294175 6.11 167.998
TN303 2013-10-27T13:41:59.00Z -7.389635 -81.293453 6.18 169.713
TN303 2013-10-27T13:43:00.00Z -7.393055 -81.292703 6.28 165.743
TN303 2013-10-27T13:44:00.00Z -7.396407 -81.29197 6.33 167.926
TN303 2013-10-27T13:45:00.00Z -7.399788 -81.291238 6.2 168.709
TN303 2013-10-27T13:46:00.00Z -7.403173 -81.29053 6.44 168.132
TN303 2013-10-27T13:46:59.00Z -7.406482 -81.289847 5.92 171.96
TN303 2013-10-27T13:47:59.00Z -7.409827 -81.289152 6.02 166.752
TN303 2013-10-27T13:48:59.00Z -7.413172 -81.288448 6.11 167.999
TN303 2013-10-27T13:50:00.00Z -7.416552 -81.287722 6.13 166.989
TN303 2013-10-27T13:51:00.00Z -7.419877 -81.287025 6.0 167.779
TN303 2013-10-27T13:52:00.00Z -7.423197 -81.286307 6.28 167.821
TN303 2013-10-27T13:52:59.00Z -7.426508 -81.285633 6.51 167.757
TN303 2013-10-27T13:54:00.00Z -7.429942 -81.284915 6.59 166.92
TN303 2013-10-27T13:54:59.00Z -7.433268 -81.284213 6.45 167.653
TN303 2013-10-27T13:55:59.00Z -7.436657 -81.283483 5.8 169.031
TN303 2013-10-27T13:56:59.00Z -7.440017 -81.282802 6.37 169.003
TN303 2013-10-27T13:57:59.00Z -7.44337 -81.282112 6.2 168.711
TN303 2013-10-27T13:58:59.00Z -7.446725 -81.281432 6.37 169.003
TN303 2013-10-27T14:00:00.00Z -7.450137 -81.280653 6.31 168.907
TN303 2013-10-27T14:01:00.00Z -7.453485 -81.279898 6.36 169.492
TN303 2013-10-27T14:02:00.00Z -7.456848 -81.27917 6.53 166.811
TN303 2013-10-27T14:03:00.00Z -7.460182 -81.27842 5.69 168.82
TN303 2013-10-27T14:03:59.00Z -7.463425 -81.27771 6.54 166.341
TN303 2013-10-27T14:04:59.00Z -7.46677 -81.276973 6.41 167.066
TN303 2013-10-27T14:05:59.00Z -7.470143 -81.276243 6.43 168.615
TN303 2013-10-27T14:07:00.00Z -7.47355 -81.275505 5.94 167.668
TN303 2013-10-27T14:07:59.00Z -7.476838 -81.274815 6.45 167.654
TN303 2013-10-27T14:08:59.00Z -7.48016 -81.274127 6.24 167.22
TN303 2013-10-27T14:10:00.00Z -7.48352 -81.273407 6.18 169.715
TN303 2013-10-27T14:11:00.00Z -7.486832 -81.272707 6.24 167.22
TN303 2013-10-27T14:12:00.00Z -7.490137 -81.27201 6.17 165.493
TN303 2013-10-27T14:13:00.00Z -7.49344 -81.271313 6.14 166.49
TN303 2013-10-27T14:14:00.00Z -7.496725 -81.27062 5.91 169.237
TN303 2013-10-27T14:15:00.00Z -7.500002 -81.269932 5.96 167.15
TN303 2013-10-27T14:16:00.00Z -7.5033 -81.269223 6.36 169.493
TN303 2013-10-27T14:17:00.00Z -7.506582 -81.26854 6.24 167.221
TN303 2013-10-27T14:18:00.00Z -7.50989 -81.267862 6.51 167.759
TN303 2013-10-27T14:18:59.00Z -7.513137 -81.267197 6.47 169.191
TN303 2013-10-27T14:20:00.00Z -7.516495 -81.266513 6.19 169.213
TN303 2013-10-27T14:20:59.00Z -7.519743 -81.265823 6.19 169.213
TN303 2013-10-27T14:22:00.00Z -7.523102 -81.265125 6.33 165.87
TN303 2013-10-27T14:22:59.00Z -7.526385 -81.26444 6.32 168.418
TN303 2013-10-27T14:23:59.00Z -7.529703 -81.263748 6.51 167.76
TN303 2013-10-27T14:24:59.00Z -7.533045 -81.263047 6.06 167.383
TN303 2013-10-27T14:25:59.00Z -7.536382 -81.262352 6.2 168.713
TN303 2013-10-27T14:26:59.00Z -7.539723 -81.261672 6.31 168.91
TN303 2013-10-27T14:27:59.00Z -7.54307 -81.26097 6.05 170.557
TN303 2013-10-27T14:28:59.00Z -7.546438 -81.260272 6.5 165.756
TN303 2013-10-27T14:29:59.00Z -7.5498 -81.259565 6.38 168.519
TN303 2013-10-27T14:31:00.00Z -7.5532 -81.258868 6.08 169.019
TN303 2013-10-27T14:31:59.00Z -7.556482 -81.258173 6.24 167.222
TN303 2013-10-27T14:32:59.00Z -7.55986 -81.25744 6.28 165.748
TN303 2013-10-27T14:33:59.00Z -7.563235 -81.256717 6.33 167.93
TN303 2013-10-27T14:35:00.00Z -7.566647 -81.255992 6.83 166.442
TN303 2013-10-27T14:36:00.00Z -7.570037 -81.25526 6.26 168.813
TN303 2013-10-27T14:37:00.00Z -7.573402 -81.254535 6.42 166.59
TN303 2013-10-27T14:38:00.00Z -7.57677 -81.253788 6.62 167.964
TN303 2013-10-27T14:39:00.00Z -7.580138 -81.253048 6.54 166.345
TN303 2013-10-27T14:39:59.00Z -7.58346 -81.252305 6.42 166.59
TN303 2013-10-27T14:40:59.00Z -7.586853 -81.251548 6.05 167.894
TN303 2013-10-27T14:41:59.00Z -7.590217 -81.250807 6.26 166.238
TN303 2013-10-27T14:43:00.00Z -7.593643 -81.25003 6.48 166.704
TN303 2013-10-27T14:43:59.00Z -7.596935 -81.249263 6.34 167.444
TN303 2013-10-27T14:45:00.00Z -7.600377 -81.248498 6.79 167.801
TN303 2013-10-27T14:46:00.00Z -7.603767 -81.247732 6.23 167.719
TN303 2013-10-27T14:46:59.00Z -7.607068 -81.246988 6.8 165.43
TN303 2013-10-27T14:47:59.00Z -7.61043 -81.246238 5.84 167.44
TN303 2013-10-27T14:48:59.00Z -7.613758 -81.245497 6.42 169.101
TN303 2013-10-27T14:49:59.00Z -7.617113 -81.244738 6.34 167.445
TN303 2013-10-27T14:51:00.00Z -7.620528 -81.243985 6.48 168.715
TN303 2013-10-27T14:51:59.00Z -7.623845 -81.243253 6.52 167.288
TN303 2013-10-27T14:52:59.00Z -7.627205 -81.242487 6.76 164.86
TN303 2013-10-27T14:54:00.00Z -7.630655 -81.241725 6.51 167.763
TN303 2013-10-27T14:55:00.00Z -7.634048 -81.240983 6.49 166.231
TN303 2013-10-27T14:56:00.00Z -7.637427 -81.240243 6.84 167.9
TN303 2013-10-27T14:57:00.00Z -7.640792 -81.239488 6.38 168.521
TN303 2013-10-27T14:58:00.00Z -7.644157 -81.238737 6.29 165.264
TN303 2013-10-27T14:59:00.00Z -7.647477 -81.23799 6.59 166.927
TN303 2013-10-27T15:00:00.00Z -7.650832 -81.23725 6.55 168.337
TN303 2013-10-27T15:00:59.00Z -7.654127 -81.236515 6.27 168.32
TN303 2013-10-27T15:01:59.00Z -7.657487 -81.235752 6.37 169.008
TN303 2013-10-27T15:02:59.00Z -7.660847 -81.235008 6.08 169.022
TN303 2013-10-27T15:03:59.00Z -7.664188 -81.234268 6.43 168.62
TN303 2013-10-27T15:05:00.00Z -7.667587 -81.233527 6.18 169.719
TN303 2013-10-27T15:06:00.00Z -7.670898 -81.232805 6.15 168.616
TN303 2013-10-27T15:06:59.00Z -7.674163 -81.232108 5.75 168.932
TN303 2013-10-27T15:08:00.00Z -7.677515 -81.231395 6.21 168.218
TN303 2013-10-27T15:08:59.00Z -7.68079 -81.230673 6.36 169.497
TN303 2013-10-27T15:09:59.00Z -7.68413 -81.229937 6.4 167.554
TN303 2013-10-27T15:10:59.00Z -7.687425 -81.229207 6.29 165.265
TN303 2013-10-27T15:11:59.00Z -7.690745 -81.228477 6.4 167.554
TN303 2013-10-27T15:12:59.00Z -7.694047 -81.22774 6.56 167.867
TN303 2013-10-27T15:13:59.00Z -7.697333 -81.227018 5.48 168.377
TN303 2013-10-27T15:14:59.00Z -7.7006 -81.226283 6.19 169.218
TN303 2013-10-27T15:15:59.00Z -7.703917 -81.22555 6.54 168.812
TN303 2013-10-27T15:16:59.00Z -7.707222 -81.224843 6.54 168.812
TN303 2013-10-27T15:18:00.00Z -7.710608 -81.22411 5.89 167.56
TN303 2013-10-27T15:19:00.00Z -7.713938 -81.223385 6.42 169.104
TN303 2013-10-27T15:20:00.00Z -7.717272 -81.22268 6.18 169.72
TN303 2013-10-27T15:20:59.00Z -7.720512 -81.22197 5.8 169.038
TN303 2013-10-27T15:22:00.00Z -7.723877 -81.221238 6.0 167.788
TN303 2013-10-27T15:23:00.00Z -7.72718 -81.22054 6.37 166.479
TN303 2013-10-27T15:24:00.00Z -7.730443 -81.219833 6.46 167.184
TN303 2013-10-27T15:24:59.00Z -7.73366 -81.219133 6.52 167.292
TN303 2013-10-27T15:26:00.00Z -7.737015 -81.218412 6.34 167.448
TN303 2013-10-27T15:26:59.00Z -7.740257 -81.217702 6.59 166.93
TN303 2013-10-27T15:27:59.00Z -7.743553 -81.217 6.15 168.617
TN303 2013-10-27T15:28:59.00Z -7.746833 -81.21629 6.37 166.48
TN303 2013-10-27T15:30:00.00Z -7.75015 -81.21556 5.8 169.039
TN303 2013-10-27T15:31:00.00Z -7.753403 -81.214855 6.05 167.899
TN303 2013-10-27T15:32:00.00Z -7.75666 -81.214137 6.23 167.723
TN303 2013-10-27T15:32:59.00Z -7.759877 -81.21345 6.51 167.766
TN303 2013-10-27T15:34:00.00Z -7.763205 -81.212725 6.34 167.449
TN303 2013-10-27T15:35:00.00Z -7.766443 -81.212033 5.86 169.142
TN303 2013-10-27T15:36:00.00Z -7.769655 -81.211352 6.06 167.39
TN303 2013-10-27T15:36:59.00Z -7.772817 -81.21067 6.09 168.516
TN303 2013-10-27T15:38:00.00Z -7.7761 -81.209987 6.44 168.142
TN303 2013-10-27T15:39:00.00Z -7.77933 -81.209302 5.69 166.539
TN303 2013-10-27T15:39:59.00Z -7.782478 -81.208618 5.67 167.08
TN303 2013-10-27T15:41:00.00Z -7.785728 -81.207925 6.04 168.412
TN303 2013-10-27T15:41:59.00Z -7.788915 -81.207237 6.06 170.048
TN303 2013-10-27T15:42:59.00Z -7.792152 -81.20655 5.45 167.126
TN303 2013-10-27T15:43:59.00Z -7.795368 -81.205863 5.71 171.109
TN303 2013-10-27T15:45:00.00Z -7.798632 -81.205147 6.23 167.724
TN303 2013-10-27T15:46:00.00Z -7.801877 -81.204453 5.33 170.465
TN303 2013-10-27T15:47:00.00Z -7.805107 -81.203752 6.09 168.517
TN303 2013-10-27T15:47:59.00Z -7.808303 -81.20308 6.15 168.619
TN303 2013-10-27T15:49:00.00Z -7.811548 -81.202412 6.18 167.116
TN303 2013-10-27T15:50:00.00Z -7.814813 -81.201675 6.04 168.412
TN303 2013-10-27T15:51:00.00Z -7.818118 -81.200955 6.45 167.664
TN303 2013-10-27T15:52:00.00Z -7.82141 -81.200232 6.44 168.143
TN303 2013-10-27T15:53:00.00Z -7.824697 -81.199512 6.01 167.277
TN303 2013-10-27T15:54:01.00Z -7.828047 -81.198778 6.24 167.23
TN303 2013-10-27T15:54:59.00Z -7.83124 -81.198075 5.94 167.678
TN303 2013-10-27T15:55:59.00Z -7.83455 -81.197352 7.27 165.052
TN303 2013-10-27T15:56:59.00Z -7.837785 -81.196635 6.64 167.04
TN303 2013-10-27T15:58:00.00Z -7.841152 -81.19589 6.09 168.518
TN303 2013-10-27T15:58:59.00Z -7.844412 -81.195152 6.4 167.559
TN303 2013-10-27T15:59:59.00Z -7.847695 -81.194405 6.42 166.598
TN303 2013-10-27T16:01:00.00Z -7.851038 -81.193672 5.96 167.16
TN303 2013-10-27T16:01:59.00Z -7.854265 -81.192958 6.24 167.231
TN303 2013-10-27T16:02:59.00Z -7.857577 -81.192223 5.94 167.679
TN303 2013-10-27T16:04:00.00Z -7.86091 -81.191505 6.24 167.231
TN303 2013-10-27T16:04:59.00Z -7.864172 -81.190798 6.21 168.223
TN303 2013-10-27T16:06:00.00Z -7.867548 -81.190072 6.57 165.419
TN303 2013-10-27T16:06:59.00Z -7.870802 -81.189357 6.37 169.014
TN303 2013-10-27T16:07:59.00Z -7.874118 -81.188635 5.89 167.564
TN303 2013-10-27T16:08:59.00Z -7.87746 -81.187888 6.03 168.927
TN303 2013-10-27T16:09:59.00Z -7.880782 -81.187183 5.75 166.136
TN303 2013-10-27T16:11:00.00Z -7.884162 -81.186453 6.84 166.003
TN303 2013-10-27T16:11:59.00Z -7.887463 -81.185755 6.32 168.428
TN303 2013-10-27T16:13:00.00Z -7.890865 -81.185043 6.19 169.223
TN303 2013-10-27T16:14:00.00Z -7.894188 -81.184342 6.18 169.725
TN303 2013-10-27T16:15:00.00Z -7.897505 -81.183658 6.11 168.012
TN303 2013-10-27T16:16:00.00Z -7.900815 -81.182972 6.42 166.6
TN303 2013-10-27T16:16:59.00Z -7.904088 -81.182297 6.04 168.415
TN303 2013-10-27T16:18:00.00Z -7.907453 -81.181615 6.15 168.622
TN303 2013-10-27T16:18:59.00Z -7.910718 -81.180947 6.17 167.618
TN303 2013-10-27T16:20:00.00Z -7.914088 -81.180257 6.33 167.94
TN303 2013-10-27T16:20:59.00Z -7.917373 -81.179585 5.91 169.247
TN303 2013-10-27T16:22:00.00Z -7.920767 -81.178877 5.96 169.346
TN303 2013-10-27T16:22:59.00Z -7.924048 -81.178202 6.22 167.728
TN303 2013-10-27T16:24:00.00Z -7.927417 -81.177525 6.24 169.816
TN303 2013-10-27T16:24:59.00Z -7.930693 -81.176867 5.74 169.479
TN303 2013-10-27T16:25:59.00Z -7.934007 -81.176188 6.54 168.818
TN303 2013-10-27T16:26:59.00Z -7.9373 -81.175542 6.07 169.54
TN303 2013-10-27T16:27:59.00Z -7.940607 -81.174885 6.21 168.225
TN303 2013-10-27T16:29:00.00Z -7.943993 -81.174202 6.33 167.941
TN303 2013-10-27T16:29:59.00Z -7.947268 -81.173548 6.24 167.234
TN303 2013-10-27T16:31:00.00Z -7.95063 -81.172862 6.4 167.562
TN303 2013-10-27T16:31:59.00Z -7.953873 -81.172195 5.93 168.202
TN303 2013-10-27T16:32:59.00Z -7.957143 -81.171533 6.25 166.741
TN303 2013-10-27T16:34:00.00Z -7.960522 -81.170843 6.52 167.298
TN303 2013-10-27T16:35:00.00Z -7.963862 -81.170157 6.05 165.752
TN303 2013-10-27T16:36:00.00Z -7.967168 -81.16948 6.34 167.455
TN303 2013-10-27T16:37:00.00Z -7.970493 -81.168815 6.18 169.727
TN303 2013-10-27T16:38:00.00Z -7.973815 -81.168163 6.63 167.509
TN303 2013-10-27T16:39:00.00Z -7.977148 -81.167492 6.83 166.455
TN303 2013-10-27T16:40:00.00Z -7.980462 -81.166815 6.48 168.725
TN303 2013-10-27T16:40:59.00Z -7.983702 -81.166168 6.35 169.505
TN303 2013-10-27T16:41:59.00Z -7.986992 -81.165522 6.28 167.837
TN303 2013-10-27T16:42:58.00Z -7.990203 -81.164877 6.23 167.482
TN303 2013-10-27T16:44:00.00Z -7.993603 -81.16419 5.73 170.023
TN303 2013-10-27T16:45:00.00Z -7.996872 -81.16354 6.07 169.541
TN303 2013-10-27T16:46:00.00Z -8.000173 -81.162862 6.22 167.73
TN303 2013-10-27T16:47:00.00Z -8.003475 -81.162187 6.04 168.418
TN303 2013-10-27T16:48:00.00Z -8.00676 -81.161515 5.94 167.683
TN303 2013-10-27T16:48:59.00Z -8.009987 -81.160842 6.13 167.007
TN303 2013-10-27T16:49:59.00Z -8.013265 -81.160135 6.34 167.456
TN303 2013-10-27T16:51:00.00Z -8.016658 -81.159437 6.72 168.173
TN303 2013-10-27T16:52:00.00Z -8.01999 -81.158763 6.78 168.269
TN303 2013-10-27T16:52:59.00Z -8.023268 -81.158092 6.18 169.728
TN303 2013-10-27T16:53:59.00Z -8.026598 -81.157408 6.24 167.236
TN303 2013-10-27T16:54:59.00Z -8.029933 -81.156703 6.03 168.931
TN303 2013-10-27T16:56:00.00Z -8.033283 -81.156015 6.75 167.257
TN303 2013-10-27T16:56:59.00Z -8.03654 -81.155327 6.51 167.774
TN303 2013-10-27T16:57:59.00Z -8.039892 -81.154642 6.05 171.084
TN303 2013-10-27T16:59:00.00Z -8.04328 -81.153953 6.32 168.432
TN303 2013-10-27T17:00:00.00Z -8.046588 -81.15328 6.86 169.358
TN303 2013-10-27T17:01:00.00Z -8.049863 -81.152623 6.81 166.908
TN303 2013-10-27T17:01:59.00Z -8.053088 -81.151987 6.24 167.237
TN303 2013-10-27T17:03:00.00Z -8.056445 -81.151298 5.81 168.514
TN303 2013-10-27T17:04:00.00Z -8.059755 -81.150617 6.28 165.765
TN303 2013-10-27T17:04:59.00Z -8.062998 -81.149958 6.3 169.415
TN303 2013-10-27T17:06:00.00Z -8.06635 -81.14926 6.15 171.244
TN303 2013-10-27T17:07:00.00Z -8.069648 -81.148575 6.15 168.626
TN303 2013-10-27T17:07:59.00Z -8.07286 -81.147917 6.45 170.167
TN303 2013-10-27T17:09:00.00Z -8.076243 -81.147227 6.4 170.082
TN303 2013-10-27T17:10:00.00Z -8.079578 -81.146538 5.86 169.15
TN303 2013-10-27T17:11:00.00Z -8.082895 -81.145838 6.46 169.686
TN303 2013-10-27T17:11:59.00Z -8.086167 -81.14514 6.05 170.569
TN303 2013-10-27T17:13:00.00Z -8.089595 -81.144418 6.03 168.933
TN303 2013-10-27T17:14:00.00Z -8.092882 -81.143768 5.37 171.149
TN303 2013-10-27T17:15:00.00Z -8.096193 -81.143077 5.66 167.634
TN303 2013-10-27T17:15:59.00Z -8.09945 -81.142347 6.33 167.946
TN303 2013-10-27T17:17:00.00Z -8.102838 -81.141617 5.53 168.504
TN303 2013-10-27T17:18:00.00Z -8.106118 -81.14093 6.21 168.23
TN303 2013-10-27T17:19:00.00Z -8.109428 -81.140215 6.22 167.733
TN303 2013-10-27T17:20:00.00Z -8.112733 -81.139503 6.32 168.434
TN303 2013-10-27T17:20:59.00Z -8.116017 -81.138823 5.62 169.831
TN303 2013-10-27T17:22:00.00Z -8.119377 -81.138092 6.13 167.011
TN303 2013-10-27T17:22:59.00Z -8.12263 -81.137388 6.35 169.508
TN303 2013-10-27T17:24:00.00Z -8.126008 -81.136695 6.34 167.46
TN303 2013-10-27T17:25:00.00Z -8.129292 -81.135993 5.75 168.944
TN303 2013-10-27T17:26:00.00Z -8.132605 -81.135273 6.21 168.231
TN303 2013-10-27T17:26:59.00Z -8.135845 -81.134577 6.07 169.545
TN303 2013-10-27T17:27:59.00Z -8.139132 -81.133863 6.4 167.568
TN303 2013-10-27T17:29:00.00Z -8.142498 -81.133138 6.2 166.63
TN303 2013-10-27T17:29:59.00Z -8.145753 -81.132408 6.08 166.894
TN303 2013-10-27T17:31:00.00Z -8.149132 -81.131663 5.97 168.833
TN303 2013-10-27T17:31:59.00Z -8.152367 -81.130953 6.38 168.535
TN303 2013-10-27T17:33:00.00Z -8.15571 -81.13022 5.97 166.654
TN303 2013-10-27T17:34:00.00Z -8.158993 -81.129478 6.08 166.895
TN303 2013-10-27T17:34:59.00Z -8.162205 -81.128767 6.2 164.529
TN303 2013-10-27T17:36:00.00Z -8.165543 -81.12801 6.51 167.778
TN303 2013-10-27T17:37:00.00Z -8.16886 -81.127263 6.09 166.39
TN303 2013-10-27T17:37:59.00Z -8.172115 -81.126522 5.53 168.506
TN303 2013-10-27T17:39:00.00Z -8.175437 -81.12574 6.02 166.776
TN303 2013-10-27T17:40:00.00Z -8.178715 -81.124968 6.41 165.057
TN303 2013-10-27T17:40:59.00Z -8.181953 -81.124227 6.57 165.43
TN303 2013-10-27T17:42:00.00Z -8.185278 -81.123442 6.84 166.013
TN303 2013-10-27T17:43:00.00Z -8.188565 -81.122692 5.66 167.637
TN303 2013-10-27T17:44:00.00Z -8.19181 -81.121958 6.32 168.437
TN303 2013-10-27T17:44:59.00Z -8.19504 -81.121222 5.8 169.051
TN303 2013-10-27T17:45:59.00Z -8.198327 -81.120487 5.55 167.393
TN303 2013-10-27T17:46:59.00Z -8.201567 -81.119767 6.39 163.975
TN303 2013-10-27T17:47:59.00Z -8.204845 -81.11903 6.38 168.537
TN303 2013-10-27T17:48:59.00Z -8.208118 -81.118303 6.25 166.749
TN303 2013-10-27T17:49:59.00Z -8.211387 -81.11757 5.94 167.689
TN303 2013-10-27T17:50:59.00Z -8.21466 -81.116843 6.25 166.749
TN303 2013-10-27T17:52:00.00Z -8.21797 -81.116113 5.94 167.689
TN303 2013-10-27T17:53:00.00Z -8.221207 -81.115363 6.44 166.133
TN303 2013-10-27T17:54:00.00Z -8.224482 -81.11462 6.0 167.802
TN303 2013-10-27T17:55:00.00Z -8.22775 -81.113888 6.41 167.09
TN303 2013-10-27T17:55:59.00Z -8.230965 -81.113147 5.93 168.21
TN303 2013-10-27T17:57:00.00Z -8.234265 -81.112407 6.22 167.737
TN303 2013-10-27T17:58:00.00Z -8.237488 -81.111667 5.94 165.499
TN303 2013-10-27T17:59:00.00Z -8.240722 -81.110922 5.66 167.638
TN303 2013-10-27T17:59:59.00Z -8.243908 -81.110202 6.74 163.855
TN303 2013-10-27T18:01:00.00Z -8.247215 -81.109425 6.09 168.529
TN303 2013-10-27T18:01:59.00Z -8.250422 -81.10868 6.26 166.26
TN303 2013-10-27T18:03:00.00Z -8.253712 -81.107922 6.32 166.379
TN303 2013-10-27T18:03:59.00Z -8.256878 -81.107177 6.04 168.425
TN303 2013-10-27T18:04:59.00Z -8.260077 -81.106437 6.13 167.015
TN303 2013-10-27T18:05:59.00Z -8.263288 -81.105692 6.24 165.156
TN303 2013-10-27T18:06:59.00Z -8.266517 -81.104957 5.82 167.988
TN303 2013-10-27T18:08:00.00Z -8.269777 -81.104207 6.62 165.554
TN303 2013-10-27T18:09:00.00Z -8.273005 -81.103458 5.66 167.639
TN303 2013-10-27T18:09:59.00Z -8.276147 -81.102723 6.38 168.539
TN303 2013-10-27T18:11:00.00Z -8.279437 -81.10196 6.13 167.016
TN303 2013-10-27T18:12:00.00Z -8.28265 -81.101182 5.39 167.01
TN303 2013-10-27T18:13:00.00Z -8.285822 -81.100465 6.6 166.481
TN303 2013-10-27T18:14:00.00Z -8.288985 -81.099757 5.95 164.988
TN303 2013-10-27T18:15:00.00Z -8.2922 -81.099013 5.71 165.481
TN303 2013-10-27T18:16:00.00Z -8.295428 -81.098267 6.18 167.131
TN303 2013-10-27T18:16:59.00Z -8.298615 -81.097493 6.14 166.516
TN303 2013-10-27T18:18:00.00Z -8.301945 -81.096663 6.3 164.802
TN303 2013-10-27T18:18:59.00Z -8.305155 -81.095883 6.41 167.092
TN303 2013-10-27T18:20:00.00Z -8.308478 -81.095078 6.68 165.673
TN303 2013-10-27T18:20:59.00Z -8.311678 -81.094308 6.51 167.783
TN303 2013-10-27T18:21:59.00Z -8.314935 -81.093533 6.8 163.541
TN303 2013-10-27T18:23:00.00Z -8.31824 -81.092737 6.24 167.245
TN303 2013-10-27T18:23:59.00Z -8.32144 -81.091977 6.72 166.246
TN303 2013-10-27T18:25:00.00Z -8.324772 -81.091212 5.69 166.556
TN303 2013-10-27T18:26:00.00Z -8.327995 -81.09047 6.26 166.262
TN303 2013-10-27T18:26:59.00Z -8.33118 -81.089727 5.86 166.41
TN303 2013-10-27T18:27:59.00Z -8.334432 -81.088973 6.13 167.017
TN303 2013-10-27T18:28:59.00Z -8.337655 -81.088227 6.06 167.407
TN303 2013-10-27T18:29:59.00Z -8.340883 -81.087465 5.91 166.536
TN303 2013-10-27T18:30:59.00Z -8.344112 -81.086687 6.46 165.189
TN303 2013-10-27T18:31:59.00Z -8.34736 -81.08591 6.71 166.704
TN303 2013-10-27T18:33:00.00Z -8.350627 -81.08514 5.72 167.76
TN303 2013-10-27T18:33:59.00Z -8.353798 -81.08438 6.41 165.063
TN303 2013-10-27T18:35:00.00Z -8.357088 -81.083598 6.3 164.804
TN303 2013-10-27T18:36:00.00Z -8.360317 -81.082827 7.05 164.608
TN303 2013-10-27T18:37:00.00Z -8.363573 -81.082045 6.08 166.901
TN303 2013-10-27T18:38:00.00Z -8.366845 -81.081262 6.13 167.018
TN303 2013-10-27T18:39:00.00Z -8.370088 -81.08051 6.55 164.382
TN303 2013-10-27T18:39:59.00Z -8.373308 -81.079748 5.76 168.413
TN303 2013-10-27T18:41:00.00Z -8.376603 -81.078968 5.75 168.951
TN303 2013-10-27T18:42:00.00Z -8.379837 -81.078192 5.92 164.337
TN303 2013-10-27T18:42:59.00Z -8.383053 -81.077392 5.95 167.177
TN303 2013-10-27T18:44:00.00Z -8.386377 -81.076582 5.99 165.637
TN303 2013-10-27T18:45:00.00Z -8.389648 -81.075797 6.21 166.143
TN303 2013-10-27T18:45:59.00Z -8.392848 -81.074997 6.1 165.895
TN303 2013-10-27T18:46:59.00Z -8.396107 -81.074202 5.82 167.992
TN303 2013-10-27T18:48:00.00Z -8.399395 -81.073403 5.86 166.412
TN303 2013-10-27T18:48:59.00Z -8.402567 -81.072663 5.8 169.056
TN303 2013-10-27T18:49:59.00Z -8.405768 -81.071912 5.97 166.662
TN303 2013-10-27T18:50:59.00Z -8.40899 -81.071143 6.44 166.14
TN303 2013-10-27T18:52:00.00Z -8.41226 -81.070353 6.01 165.129
TN303 2013-10-27T18:53:00.00Z -8.415487 -81.06958 6.01 165.129
TN303 2013-10-27T18:54:00.00Z -8.418725 -81.068783 6.11 168.027
TN303 2013-10-27T18:55:00.00Z -8.421983 -81.068003 6.32 168.443
TN303 2013-10-27T18:56:00.00Z -8.425258 -81.067365 6.18 169.738
TN303 2013-10-27T18:57:00.00Z -8.428487 -81.066727 6.22 167.743
TN303 2013-10-27T18:57:59.00Z -8.431693 -81.06608 5.93 168.216
TN303 2013-10-27T18:58:59.00Z -8.434953 -81.065427 5.17 169.575
TN303 2013-10-27T18:59:59.00Z -8.438158 -81.064777 6.29 169.918
TN303 2013-10-27T19:01:00.00Z -8.441468 -81.064085 5.65 165.886
TN303 2013-10-27T19:02:00.00Z -8.444687 -81.063395 5.94 170.403
TN303 2013-10-27T19:03:00.00Z -8.447883 -81.062743 6.27 170.909
TN303 2013-10-27T19:03:59.00Z -8.451052 -81.062078 6.35 169.517
TN303 2013-10-27T19:04:59.00Z -8.454262 -81.061433 6.27 168.343
TN303 2013-10-27T19:05:59.00Z -8.457513 -81.060773 6.46 167.206
TN303 2013-10-27T19:07:00.00Z -8.460823 -81.060097 5.75 168.953
TN303 2013-10-27T19:08:00.00Z -8.464087 -81.059415 6.11 168.029
TN303 2013-10-27T19:08:59.00Z -8.467278 -81.058747 6.34 167.47
TN303 2013-10-27T19:09:59.00Z -8.470533 -81.058043 6.09 166.4
TN303 2013-10-27T19:10:59.00Z -8.473763 -81.057347 5.64 165.887
TN303 2013-10-27T19:12:00.00Z -8.477028 -81.056617 6.07 166.905
TN303 2013-10-27T19:13:00.00Z -8.480275 -81.055883 6.32 168.445
TN303 2013-10-27T19:14:00.00Z -8.483528 -81.055185 6.04 168.431
TN303 2013-10-27T19:15:00.00Z -8.486757 -81.054487 6.26 166.268
TN303 2013-10-27T19:16:00.00Z -8.48998 -81.053763 5.86 166.415
TN303 2013-10-27T19:16:59.00Z -8.493068 -81.053115 6.18 169.74
TN303 2013-10-27T19:17:59.00Z -8.49625 -81.052428 5.53 168.515
TN303 2013-10-27T19:18:59.00Z -8.499423 -81.05174 6.18 167.138
TN303 2013-10-27T19:19:59.00Z -8.502652 -81.051028 5.94 167.698
TN303 2013-10-27T19:20:59.00Z -8.505897 -81.050305 6.18 169.74
TN303 2013-10-27T19:21:59.00Z -8.509137 -81.049602 5.47 166.024
TN303 2013-10-27T19:22:59.00Z -8.51236 -81.048922 6.66 166.139
TN303 2013-10-27T19:24:00.00Z -8.51568 -81.048198 6.21 168.242
TN303 2013-10-27T19:24:59.00Z -8.518878 -81.047497 6.24 167.252
TN303 2013-10-27T19:25:59.00Z -8.522123 -81.046803 6.07 166.906
TN303 2013-10-27T19:27:00.00Z -8.525435 -81.046093 6.08 169.045
TN303 2013-10-27T19:28:00.00Z -8.528702 -81.045387 6.09 168.537
TN303 2013-10-27T19:29:00.00Z -8.531948 -81.044685 5.89 170.316
TN303 2013-10-27T19:30:00.00Z -8.535188 -81.043962 5.93 168.219
TN303 2013-10-27T19:30:59.00Z -8.538387 -81.04325 5.86 166.417
TN303 2013-10-27T19:31:59.00Z -8.541633 -81.042542 6.17 167.638
TN303 2013-10-27T19:33:00.00Z -8.544917 -81.041815 6.11 168.031
TN303 2013-10-27T19:34:00.00Z -8.548138 -81.041072 6.24 167.253
TN303 2013-10-27T19:34:59.00Z -8.551317 -81.04034 6.13 167.025
TN303 2013-10-27T19:36:00.00Z -8.554623 -81.039573 6.25 166.761
TN303 2013-10-27T19:36:59.00Z -8.557837 -81.038828 6.44 166.145
TN303 2013-10-27T19:38:00.00Z -8.56117 -81.038063 6.25 166.761
TN303 2013-10-27T19:39:00.00Z -8.564413 -81.037367 6.15 168.641
TN303 2013-10-27T19:40:00.00Z -8.567668 -81.036762 6.7 166.711
TN303 2013-10-27T19:41:00.00Z -8.570947 -81.036128 5.67 174.427
TN303 2013-10-27T19:41:59.00Z -8.574187 -81.035505 6.22 170.831
TN303 2013-10-27T19:42:59.00Z -8.577507 -81.034863 6.25 169.336
TN303 2013-10-27T19:44:00.00Z -8.580878 -81.034203 6.19 169.241
TN303 2013-10-27T19:45:00.00Z -8.58417 -81.033538 6.21 168.244
TN303 2013-10-27T19:45:59.00Z -8.587388 -81.032882 5.9 169.79
TN303 2013-10-27T19:46:59.00Z -8.59068 -81.032252 5.9 169.79
TN303 2013-10-27T19:47:59.00Z -8.593953 -81.03163 6.31 168.938
TN303 2013-10-27T19:49:00.00Z -8.59728 -81.030992 6.24 167.254
TN303 2013-10-27T19:49:59.00Z -8.600435 -81.030393 6.21 168.244
TN303 2013-10-27T19:50:59.00Z -8.60369 -81.029747 6.06 170.069
TN303 2013-10-27T19:51:59.00Z -8.606978 -81.029112 5.3 168.626
TN303 2013-10-27T19:52:59.00Z -8.610205 -81.028508 6.04 171.613
TN303 2013-10-27T19:53:59.00Z -8.613458 -81.02788 6.0 170.496
TN303 2013-10-27T19:55:00.00Z -8.616767 -81.02728 6.26 171.908
TN303 2013-10-27T19:55:59.00Z -8.619982 -81.02671 5.91 169.266
TN303 2013-10-27T19:57:00.00Z -8.623277 -81.026135 6.11 168.034
TN303 2013-10-27T19:57:59.00Z -8.626458 -81.025565 6.18 169.744
TN303 2013-10-27T19:58:59.00Z -8.629725 -81.024988 6.29 169.923
TN303 2013-10-27T20:00:00.00Z -8.633043 -81.024413 5.6 170.953
TN303 2013-10-27T20:01:00.00Z -8.636293 -81.023833 5.82 171.295
TN303 2013-10-27T20:01:59.00Z -8.63951 -81.023282 5.64 168.743
TN303 2013-10-27T20:02:59.00Z -8.642747 -81.02272 6.65 169.023
TN303 2013-10-27T20:03:59.00Z -8.646033 -81.022108 6.07 166.911
TN303 2013-10-27T20:04:59.00Z -8.649283 -81.021518 6.02 169.463
TN303 2013-10-27T20:06:00.00Z -8.652595 -81.020912 6.31 168.94
TN303 2013-10-27T20:06:59.00Z -8.655803 -81.020323 5.75 168.959
TN303 2013-10-27T20:07:59.00Z -8.659092 -81.019727 6.06 170.07
TN303 2013-10-27T20:09:00.00Z -8.66243 -81.019128 6.29 169.924
TN303 2013-10-27T20:10:00.00Z -8.665747 -81.018535 6.33 170.993
TN303 2013-10-27T20:10:59.00Z -8.66901 -81.017983 6.33 170.993
TN303 2013-10-27T20:12:00.00Z -8.67238 -81.0174 6.35 170.012
TN303 2013-10-27T20:13:00.00Z -8.675708 -81.016783 6.15 169.348
TN303 2013-10-27T20:14:00.00Z -8.679008 -81.016187 6.56 170.347
TN303 2013-10-27T20:15:00.00Z -8.682345 -81.015595 6.05 170.584
TN303 2013-10-27T20:16:00.00Z -8.685678 -81.015003 5.91 169.268
TN303 2013-10-27T20:17:00.00Z -8.688957 -81.014413 5.89 170.32
TN303 2013-10-27T20:17:59.00Z -8.692193 -81.013823 6.34 167.478
TN303 2013-10-27T20:19:00.00Z -8.695443 -81.013125 6.16 168.143
TN303 2013-10-27T20:20:00.00Z -8.698688 -81.012372 6.34 167.478
TN303 2013-10-27T20:21:00.00Z -8.70197 -81.011595 6.38 166.031
TN303 2013-10-27T20:22:00.00Z -8.7052 -81.010813 5.99 168.332
TN303 2013-10-27T20:23:00.00Z -8.708472 -81.010015 5.86 166.423
TN303 2013-10-27T20:23:59.00Z -8.71166 -81.009258 6.41 167.105
TN303 2013-10-27T20:25:00.00Z -8.714988 -81.008465 5.94 167.705
TN303 2013-10-27T20:26:00.00Z -8.718282 -81.007687 6.28 165.788
TN303 2013-10-27T20:27:00.00Z -8.721555 -81.006895 6.2 164.551
TN303 2013-10-27T20:27:59.00Z -8.724768 -81.006123 6.24 167.258
TN303 2013-10-27T20:28:59.00Z -8.728043 -81.00532 6.26 166.276
TN303 2013-10-27T20:29:59.00Z -8.731353 -81.004498 6.2 166.65
TN303 2013-10-27T20:30:59.00Z -8.734645 -81.003713 5.81 166.296
TN303 2013-10-27T20:32:00.00Z -8.737712 -81.002993 5.42 168.29
TN303 2013-10-27T20:33:00.00Z -8.74027 -81.00237 4.34 169.031
TN303 2013-10-27T20:34:00.00Z -8.742342 -81.001837 3.68 167.905
TN303 2013-10-27T20:34:59.00Z -8.744087 -81.001422 3.47 157.624
TN303 2013-10-27T20:35:59.00Z -8.745533 -81.001022 2.37 167.965
TN303 2013-10-27T20:36:59.00Z -8.746772 -81.000812 2.21 177.152
TN303 2013-10-27T20:38:00.00Z -8.74779 -81.000763 1.56 188.089
TN303 2013-10-27T20:39:00.00Z -8.748538 -81.000682 1.38 180.0
TN303 2013-10-27T20:40:00.00Z -8.74908 -81.000613 1.11 180.0
TN303 2013-10-27T20:41:00.00Z -8.749422 -81.000608 0.08 135.148
TN303 2013-10-27T20:41:59.00Z -8.749557 -81.000612 0.23 224.852
TN303 2013-10-27T20:42:59.00Z -8.749603 -81.00064 0.0 0.0
TN303 2013-10-27T20:44:00.00Z -8.749557 -81.000653 0.4 56.173
TN303 2013-10-27T20:44:59.00Z -8.749497 -81.000652 0.31 44.852
TN303 2013-10-27T20:45:59.00Z -8.74943 -81.000667 0.42 336.908
TN303 2013-10-27T20:47:00.00Z -8.749345 -81.000697 0.2 236.174
TN303 2013-10-27T20:47:59.00Z -8.749315 -81.000733 0.11 0.0
TN303 2013-10-27T20:49:00.00Z -8.749258 -81.00076 0.28 78.633
TN303 2013-10-27T20:50:00.00Z -8.749282 -81.000752 0.28 127.012
TN303 2013-10-27T20:50:59.00Z -8.749337 -81.000717 0.23 224.852
TN303 2013-10-27T20:52:00.00Z -8.749347 -81.000705 0.28 270.0
TN303 2013-10-27T20:52:59.00Z -8.749323 -81.00072 0.17 0.0
TN303 2013-10-27T20:54:00.00Z -8.749297 -81.000733 0.2 213.554
TN303 2013-10-27T20:54:59.00Z -8.749307 -81.000723 0.17 161.653
TN303 2013-10-27T20:56:00.00Z -8.749328 -81.000713 0.11 270.0
TN303 2013-10-27T20:56:59.00Z -8.749338 -81.000713 0.2 326.446
TN303 2013-10-27T20:57:59.00Z -8.749322 -81.000722 0.06 270.0
TN303 2013-10-27T20:59:00.00Z -8.749313 -81.000718 0.16 224.852
TN303 2013-10-27T20:59:59.00Z -8.749332 -81.00072 0.4 15.868
TN303 2013-10-27T21:01:00.00Z -8.749333 -81.000723 0.31 224.852
TN303 2013-10-27T21:02:00.00Z -8.749333 -81.000728 0.23 284.106
TN303 2013-10-27T21:03:00.00Z -8.749333 -81.000727 0.3 21.7
TN303 2013-10-27T21:04:00.00Z -8.74933 -81.000722 0.12 206.447
TN303 2013-10-27T21:05:00.00Z -8.749302 -81.00073 0.2 213.554
TN303 2013-10-27T21:05:59.00Z -8.749317 -81.000725 0.11 270.0
TN303 2013-10-27T21:06:59.00Z -8.749353 -81.000713 0.23 284.106
TN303 2013-10-27T21:07:59.00Z -8.749352 -81.000715 0.17 180.0
TN303 2013-10-27T21:08:59.00Z -8.749318 -81.00072 0.16 224.852
TN303 2013-10-27T21:10:00.00Z -8.749315 -81.000723 0.11 270.0
TN303 2013-10-27T21:10:59.00Z -8.749332 -81.000718 0.08 135.148
TN303 2013-10-27T21:12:00.00Z -8.74934 -81.00072 0.3 158.3
TN303 2013-10-27T21:13:00.00Z -8.749335 -81.000718 0.22 270.0
TN303 2013-10-27T21:14:00.00Z -8.749323 -81.00072 0.06 0.0
TN303 2013-10-27T21:14:59.00Z -8.749328 -81.000718 0.17 18.347
TN303 2013-10-27T21:16:00.00Z -8.749332 -81.000715 0.17 270.0
TN303 2013-10-27T21:16:59.00Z -8.749337 -81.000723 0.23 255.894
TN303 2013-10-27T21:18:00.00Z -8.749327 -81.00073 0.22 90.0
TN303 2013-10-27T21:19:00.00Z -8.749323 -81.000725 0.31 135.148
TN303 2013-10-27T21:20:00.00Z -8.749332 -81.000725 0.17 90.0
TN303 2013-10-27T21:20:59.00Z -8.749327 -81.000713 0.16 315.148
TN303 2013-10-27T21:21:59.00Z -8.74932 -81.00072 0.17 270.0
TN303 2013-10-27T21:22:59.00Z -8.749327 -81.000723 0.3 291.903
TN303 2013-10-27T21:23:59.00Z -8.749338 -81.000725 0.2 326.446
TN303 2013-10-27T21:25:00.00Z -8.749342 -81.000715 0.25 116.683
TN303 2013-10-27T21:25:59.00Z -8.749315 -81.00073 0.32 149.166
TN303 2013-10-27T21:26:59.00Z -8.7493 -81.000733 0.3 111.903
TN303 2013-10-27T21:28:00.00Z -8.749343 -81.000727 0.28 180.0
TN303 2013-10-27T21:28:59.00Z -8.749365 -81.000722 0.4 73.977
TN303 2013-10-27T21:29:59.00Z -8.749338 -81.000725 0.28 143.272
TN303 2013-10-27T21:31:00.00Z -8.7493 -81.000733 0.22 180.0
TN303 2013-10-27T21:32:00.00Z -8.749325 -81.000717 0.23 224.852
TN303 2013-10-27T21:32:59.00Z -8.74935 -81.000727 0.11 0.0
TN303 2013-10-27T21:33:59.00Z -8.749345 -81.000728 0.23 44.852
TN303 2013-10-27T21:34:59.00Z -8.749333 -81.000723 0.0 0.0
TN303 2013-10-27T21:35:59.00Z -8.74934 -81.000718 0.28 270.0
TN303 2013-10-27T21:37:00.00Z -8.749328 -81.000722 0.23 193.967
TN303 2013-10-27T21:38:00.00Z -8.74931 -81.000733 0.2 123.826
TN303 2013-10-27T21:39:00.00Z -8.749318 -81.000718 0.28 180.0
TN303 2013-10-27T21:39:59.00Z -8.749358 -81.000708 0.08 44.852
TN303 2013-10-27T21:41:00.00Z -8.749338 -81.000708 0.06 0.0
TN303 2013-10-27T21:41:59.00Z -8.749323 -81.000713 0.23 284.106
TN303 2013-10-27T21:42:59.00Z -8.749313 -81.000723 0.12 296.683
TN303 2013-10-27T21:44:00.00Z -8.74932 -81.000728 0.17 161.653
TN303 2013-10-27T21:45:00.00Z -8.749342 -81.000717 0.44 90.0
TN303 2013-10-27T21:45:59.00Z -8.749352 -81.00072 0.16 315.148
TN303 2013-10-27T21:46:59.00Z -8.749337 -81.00072 0.09 251.476
TN303 2013-10-27T21:48:00.00Z -8.749305 -81.000737 0.32 121.094
TN303 2013-10-27T21:49:00.00Z -8.749315 -81.000728 0.55 224.853
TN303 2013-10-27T21:49:59.00Z -8.749345 -81.000785 0.2 123.826
TN303 2013-10-27T21:50:59.00Z -8.749347 -81.00071 0.16 315.148
TN303 2013-10-27T21:51:59.00Z -8.749328 -81.000715 0.17 90.0
TN303 2013-10-27T21:53:00.00Z -8.749323 -81.00071 0.16 135.148
TN303 2013-10-27T21:53:59.00Z -8.749333 -81.000725 0.2 326.446
TN303 2013-10-27T21:54:59.00Z -8.749332 -81.000733 0.1 56.174
TN303 2013-10-27T21:55:59.00Z -8.749332 -81.000718 0.0 0.0
TN303 2013-10-27T21:57:00.00Z -8.749342 -81.00071 0.39 270.0
TN303 2013-10-27T21:57:59.00Z -8.749332 -81.000715 0.06 180.0
TN303 2013-10-27T21:59:00.00Z -8.749312 -81.000727 0.08 224.852
TN303 2013-10-27T21:59:59.00Z -8.749317 -81.00073 0.17 108.524
TN303 2013-10-27T22:01:00.00Z -8.749347 -81.000717 0.06 180.0
TN303 2013-10-27T22:02:00.00Z -8.749352 -81.00072 0.16 315.148
TN303 2013-10-27T22:03:00.00Z -8.749262 -81.000805 0.62 116.683
TN303 2013-10-27T22:03:59.00Z -8.74932 -81.00073 0.58 343.382
TN303 2013-10-27T22:04:59.00Z -8.74931 -81.000738 0.28 0.0
TN303 2013-10-27T22:05:59.00Z -8.74934 -81.000727 0.2 146.446
TN303 2013-10-27T22:07:00.00Z -8.749362 -81.00073 0.25 26.447
TN303 2013-10-27T22:07:59.00Z -8.74934 -81.000725 0.11 0.0
TN303 2013-10-27T22:08:59.00Z -8.74933 -81.000727 0.25 63.317
TN303 2013-10-27T22:09:59.00Z -8.749333 -81.000727 0.22 90.0
TN303 2013-10-27T22:10:59.00Z -8.749335 -81.000728 0.12 153.553
TN303 2013-10-27T22:11:59.00Z -8.749345 -81.00073 0.2 123.826
TN303 2013-10-27T22:13:00.00Z -8.749335 -81.000718 0.32 301.094
TN303 2013-10-27T22:13:59.00Z -8.749325 -81.000723 0.2 326.446
TN303 2013-10-27T22:15:00.00Z -8.749327 -81.000713 0.28 258.633
TN303 2013-10-27T22:16:00.00Z -8.74935 -81.000725 0.45 34.854
TN303 2013-10-27T22:16:59.00Z -8.749342 -81.00072 0.16 44.852
TN303 2013-10-27T22:18:00.00Z -8.749348 -81.000715 0.32 329.166
TN303 2013-10-27T22:19:00.00Z -8.749315 -81.000707 0.44 90.0
TN303 2013-10-27T22:19:59.00Z -8.749333 -81.000703 0.17 90.0
TN303 2013-10-27T22:20:59.00Z -8.749342 -81.000712 0.11 90.0
TN303 2013-10-27T22:21:59.00Z -8.749335 -81.000718 0.17 90.0
TN303 2013-10-27T22:22:59.00Z -8.74933 -81.000717 0.47 54.323
TN303 2013-10-27T22:24:00.00Z -8.749323 -81.00071 0.26 237.862
TN303 2013-10-27T22:25:00.00Z -8.749333 -81.000722 0.56 78.633
TN303 2013-10-27T22:26:00.00Z -8.749337 -81.000715 0.17 270.0
TN303 2013-10-27T22:26:59.00Z -8.749328 -81.000723 0.08 44.852
TN303 2013-10-27T22:28:00.00Z -8.749318 -81.000728 0.17 90.0
TN303 2013-10-27T22:29:00.00Z -8.749323 -81.000723 0.11 270.0
TN303 2013-10-27T22:30:00.00Z -8.749338 -81.000722 0.0 0.0
TN303 2013-10-27T22:30:59.00Z -8.74933 -81.000728 0.57 240.82
TN303 2013-10-27T22:32:00.00Z -8.74932 -81.000735 0.32 30.834
TN303 2013-10-27T22:33:00.00Z -8.749313 -81.000728 0.44 270.0
TN303 2013-10-27T22:33:59.00Z -8.749328 -81.000722 0.28 90.0
TN303 2013-10-27T22:34:59.00Z -8.749333 -81.000723 0.33 90.0
TN303 2013-10-27T22:35:59.00Z -8.749333 -81.000723 0.12 153.553
TN303 2013-10-27T22:36:59.00Z -8.749337 -81.00073 0.06 180.0
TN303 2013-10-27T22:38:00.00Z -8.749327 -81.000725 0.2 213.554
TN303 2013-10-27T22:38:59.00Z -8.749332 -81.000738 0.17 90.0
TN303 2013-10-27T22:39:59.00Z -8.749333 -81.000747 0.35 128.804
TN303 2013-10-27T22:41:00.00Z -8.749325 -81.000732 0.22 90.0
TN303 2013-10-27T22:42:00.00Z -8.749342 -81.000727 0.2 303.826
TN303 2013-10-27T22:43:00.00Z -8.749338 -81.000717 0.06 0.0
TN303 2013-10-27T22:44:00.00Z -8.74933 -81.000725 0.4 253.977
TN303 2013-10-27T22:44:59.00Z -8.749333 -81.000732 0.11 180.0
TN303 2013-10-27T22:46:00.00Z -8.749343 -81.000728 0.2 326.446
TN303 2013-10-27T22:47:00.00Z -8.749338 -81.000718 0.16 224.852
TN303 2013-10-27T22:48:00.00Z -8.74934 -81.000708 0.39 270.0
TN303 2013-10-27T22:49:00.00Z -8.749332 -81.000715 0.17 251.476
TN303 2013-10-27T22:49:59.00Z -8.749327 -81.00072 0.12 243.317
TN303 2013-10-27T22:51:00.00Z -8.74933 -81.000723 0.3 248.097
TN303 2013-10-27T22:52:00.00Z -8.749337 -81.000722 0.22 90.0
TN303 2013-10-27T22:52:59.00Z -8.749333 -81.000738 0.06 90.0
TN303 2013-10-27T22:53:59.00Z -8.749335 -81.000727 0.06 270.0
TN303 2013-10-27T22:55:00.00Z -8.749343 -81.000718 0.23 284.106
TN303 2013-10-27T22:55:59.00Z -8.749332 -81.000727 0.4 73.977
TN303 2013-10-27T22:57:00.00Z -8.749325 -81.00073 0.11 180.0
TN303 2013-10-27T22:57:59.00Z -8.749338 -81.000718 0.22 270.0
TN303 2013-10-27T22:59:00.00Z -8.749345 -81.000715 0.32 58.906
TN303 2013-10-27T23:00:00.00Z -8.74933 -81.000725 0.11 90.0
TN303 2013-10-27T23:00:59.00Z -8.749332 -81.000728 0.17 90.0
TN303 2013-10-27T23:02:00.00Z -8.749338 -81.000718 0.16 224.852
TN303 2013-10-27T23:02:59.00Z -8.749342 -81.000723 0.28 36.728
TN303 2013-10-27T23:03:59.00Z -8.749332 -81.000722 0.35 308.804
TN303 2013-10-27T23:05:00.00Z -8.74932 -81.000728 0.2 326.446
TN303 2013-10-27T23:06:00.00Z -8.749323 -81.000733 0.2 326.446
TN303 2013-10-27T23:06:59.00Z -8.74934 -81.000733 0.28 0.0
TN303 2013-10-27T23:07:59.00Z -8.749327 -81.000732 0.22 90.0
TN303 2013-10-27T23:08:59.00Z -8.749333 -81.000727 0.28 180.0
TN303 2013-10-27T23:09:59.00Z -8.749352 -81.00072 0.17 270.0
TN303 2013-10-27T23:10:59.00Z -8.749345 -81.00072 0.4 253.977
TN303 2013-10-27T23:12:00.00Z -8.74933 -81.000728 0.33 180.0
TN303 2013-10-27T23:12:59.00Z -8.749307 -81.000738 0.16 315.148
TN303 2013-10-27T23:13:59.00Z -8.74933 -81.000732 0.42 203.092
TN303 2013-10-27T23:15:00.00Z -8.749352 -81.00073 0.0 0.0
TN303 2013-10-27T23:15:59.00Z -8.74934 -81.000722 0.17 0.0
TN303 2013-10-27T23:17:00.00Z -8.749332 -81.000738 0.12 243.317
TN303 2013-10-27T23:18:00.00Z -8.749618 -81.000642 1.09 135.147
TN303 2013-10-27T23:19:00.00Z -8.750232 -81.000363 1.64 147.514
TN303 2013-10-27T23:20:00.00Z -8.75111 -80.999997 2.22 153.553
TN303 2013-10-27T23:21:00.00Z -8.752298 -80.999505 2.62 161.653
TN303 2013-10-27T23:21:59.00Z -8.753892 -80.99884 3.64 157.818
TN303 2013-10-27T23:22:59.00Z -8.756013 -80.99794 4.01 157.424
TN303 2013-10-27T23:23:59.00Z -8.757958 -80.997107 3.27 156.147
TN303 2013-10-27T23:24:59.00Z -8.759367 -80.9965 2.38 162.493
TN303 2013-10-27T23:26:00.00Z -8.760317 -80.996147 1.85 153.553
TN303 2013-10-27T23:27:00.00Z -8.760952 -80.995932 0.96 156.479
TN303 2013-10-27T23:28:00.00Z -8.761397 -80.995808 0.44 180.0
TN303 2013-10-27T23:29:00.00Z -8.761693 -80.995748 0.25 206.446
TN303 2013-10-27T23:29:59.00Z -8.76188 -80.995742 0.42 113.306
TN303 2013-10-27T23:30:59.00Z -8.761993 -80.995755 0.44 240.127
TN303 2013-10-27T23:32:00.00Z -8.762063 -80.995808 0.11 0.0
TN303 2013-10-27T23:33:00.00Z -8.762072 -80.995867 0.08 224.851
TN303 2013-10-27T23:34:00.00Z -8.762028 -80.995957 0.11 90.0
TN303 2013-10-27T23:35:00.00Z -8.761932 -80.996075 0.2 303.827
TN303 2013-10-27T23:36:00.00Z -8.761785 -80.996207 0.4 15.867
TN303 2013-10-27T23:36:59.00Z -8.761627 -80.996323 0.47 324.603
TN303 2013-10-27T23:38:00.00Z -8.761457 -80.996462 0.44 0.0
TN303 2013-10-27T23:38:59.00Z -8.761277 -80.996608 0.31 315.149
TN303 2013-10-27T23:40:00.00Z -8.76107 -80.996762 0.39 315.149
TN303 2013-10-27T23:40:59.00Z -8.760865 -80.996957 0.47 324.603
TN303 2013-10-27T23:41:59.00Z -8.760655 -80.997142 0.32 329.167
TN303 2013-10-27T23:43:00.00Z -8.760437 -80.997332 0.6 326.447
TN303 2013-10-27T23:44:00.00Z -8.760213 -80.997517 0.35 341.654
TN303 2013-10-27T23:45:00.00Z -8.759987 -80.997702 0.78 351.911
TN303 2013-10-27T23:45:59.00Z -8.759745 -80.997872 0.58 343.382
TN303 2013-10-27T23:46:59.00Z -8.7595 -80.998035 0.44 0.0
TN303 2013-10-27T23:47:59.00Z -8.759257 -80.998203 0.47 324.603
TN303 2013-10-27T23:49:00.00Z -8.759002 -80.998377 0.39 0.0
TN303 2013-10-27T23:50:00.00Z -8.758753 -80.99855 0.59 318.961
TN303 2013-10-27T23:51:00.00Z -8.758795 -80.998608 0.89 158.301
TN303 2013-10-27T23:51:59.00Z -8.759432 -80.998403 1.61 149.167
TN303 2013-10-27T23:52:59.00Z -8.760403 -80.998028 2.7 149.367
TN303 2013-10-27T23:53:59.00Z -8.761577 -80.997545 2.36 159.541
TN303 2013-10-27T23:55:00.00Z -8.762915 -80.99698 2.87 157.485
TN303 2013-10-27T23:56:00.00Z -8.76459 -80.996258 4.53 156.36
TN303 2013-10-27T23:57:00.00Z -8.766542 -80.99544 3.96 157.118
TN303 2013-10-27T23:58:00.00Z -8.76864 -80.994535 4.18 154.23
TN303 2013-10-27T23:59:00.00Z -8.770795 -80.993493 5.57 149.751
TN303 2013-10-27T23:59:59.00Z -8.773342 -80.992202 6.23 152.648
TN303 2013-10-28T00:01:00.00Z -8.776372 -80.990725 6.26 155.585
TN303 2013-10-28T00:01:59.00Z -8.77938 -80.989235 6.17 157.447
TN303 2013-10-28T00:02:59.00Z -8.782423 -80.987647 6.44 149.168
TN303 2013-10-28T00:03:59.00Z -8.785443 -80.985995 6.5 153.338
TN303 2013-10-28T00:04:59.00Z -8.788415 -80.984365 6.01 150.971
TN303 2013-10-28T00:06:00.00Z -8.791453 -80.982682 6.3 151.316
TN303 2013-10-28T00:06:59.00Z -8.794415 -80.981042 5.49 155.099
TN303 2013-10-28T00:07:59.00Z -8.797412 -80.979392 6.35 151.556
TN303 2013-10-28T00:08:59.00Z -8.800372 -80.977762 6.52 152.907
TN303 2013-10-28T00:10:00.00Z -8.80342 -80.97608 6.45 150.931
TN303 2013-10-28T00:11:00.00Z -8.8064 -80.974447 5.98 151.433
TN303 2013-10-28T00:11:59.00Z -8.80932 -80.972863 6.33 150.881
TN303 2013-10-28T00:12:59.00Z -8.812313 -80.971225 5.73 152.572
TN303 2013-10-28T00:14:00.00Z -8.815313 -80.969592 5.89 149.722
TN303 2013-10-28T00:15:00.00Z -8.818275 -80.967992 6.21 149.694
TN303 2013-10-28T00:15:59.00Z -8.821182 -80.96643 5.41 151.471
TN303 2013-10-28T00:17:00.00Z -8.82418 -80.964797 6.79 148.773
TN303 2013-10-28T00:18:00.00Z -8.827175 -80.96316 6.48 150.508
TN303 2013-10-28T00:18:59.00Z -8.83011 -80.961578 6.35 152.669
TN303 2013-10-28T00:20:00.00Z -8.833183 -80.959933 6.55 152.48
TN303 2013-10-28T00:20:59.00Z -8.836188 -80.958402 6.08 140.679
TN303 2013-10-28T00:22:00.00Z -8.839215 -80.956643 6.47 148.754
TN303 2013-10-28T00:23:00.00Z -8.842222 -80.955003 6.68 150.388
TN303 2013-10-28T00:23:59.00Z -8.845178 -80.953392 6.78 150.851
TN303 2013-10-28T00:24:59.00Z -8.848207 -80.951755 6.13 152.177
TN303 2013-10-28T00:25:59.00Z -8.851215 -80.950127 6.4 151.795
TN303 2013-10-28T00:27:00.00Z -8.854265 -80.94842 6.12 149.173
TN303 2013-10-28T00:28:00.00Z -8.857232 -80.946718 6.57 152.057
TN303 2013-10-28T00:29:00.00Z -8.86023 -80.945043 6.53 150.749
TN303 2013-10-28T00:30:00.00Z -8.8632 -80.943365 6.36 150.451
TN303 2013-10-28T00:31:00.00Z -8.866183 -80.941677 6.0 153.325
TN303 2013-10-28T00:32:00.00Z -8.869173 -80.940003 6.28 150.639
TN303 2013-10-28T00:33:00.00Z -8.872163 -80.93831 6.25 151.078
TN303 2013-10-28T00:34:00.00Z -8.875083 -80.936582 6.17 148.298
TN303 2013-10-28T00:35:00.00Z -8.877965 -80.934895 5.88 153.321
TN303 2013-10-28T00:35:59.00Z -8.88085 -80.933223 6.63 151.218
TN303 2013-10-28T00:37:00.00Z -8.88387 -80.931507 6.08 153.097
TN303 2013-10-28T00:38:00.00Z -8.886825 -80.92982 6.35 152.672
TN303 2013-10-28T00:39:00.00Z -8.889747 -80.928127 5.69 151.08
TN303 2013-10-28T00:40:00.00Z -8.892658 -80.926458 6.56 149.258
TN303 2013-10-28T00:40:59.00Z -8.895468 -80.92474 6.2 147.868
TN303 2013-10-28T00:42:00.00Z -8.898395 -80.922978 6.06 147.034
TN303 2013-10-28T00:43:00.00Z -8.901277 -80.92125 6.56 147.525
TN303 2013-10-28T00:44:00.00Z -8.904153 -80.919535 6.68 147.637
TN303 2013-10-28T00:45:00.00Z -8.907013 -80.917813 6.68 147.637
TN303 2013-10-28T00:45:59.00Z -8.909792 -80.916145 6.19 149.002
TN303 2013-10-28T00:46:59.00Z -8.912612 -80.914417 5.98 151.44
TN303 2013-10-28T00:48:00.00Z -8.91555 -80.91265 5.41 152.781
TN303 2013-10-28T00:48:59.00Z -8.918372 -80.910965 6.31 147.291
TN303 2013-10-28T00:50:00.00Z -8.921302 -80.909233 5.84 150.662
TN303 2013-10-28T00:51:00.00Z -8.924212 -80.907548 6.05 148.195
TN303 2013-10-28T00:51:59.00Z -8.92708 -80.905888 6.24 149.265
TN303 2013-10-28T00:52:59.00Z -8.929982 -80.904198 6.19 149.004
TN303 2013-10-28T00:53:59.00Z -8.932865 -80.902532 6.4 151.801
TN303 2013-10-28T00:55:00.00Z -8.935807 -80.90082 6.35 151.565
TN303 2013-10-28T00:56:00.00Z -8.938695 -80.899137 6.21 149.702
TN303 2013-10-28T00:56:59.00Z -8.941527 -80.897508 6.29 149.524
TN303 2013-10-28T00:58:00.00Z -8.944432 -80.895815 6.29 149.524
TN303 2013-10-28T00:59:00.00Z -8.947275 -80.894137 6.06 150.073
TN303 2013-10-28T00:59:59.00Z -8.950088 -80.892493 6.53 149.677
TN303 2013-10-28T01:00:59.00Z -8.952953 -80.890847 5.66 151.571
TN303 2013-10-28T01:02:00.00Z -8.955883 -80.889162 6.23 152.659
TN303 2013-10-28T01:03:00.00Z -8.95878 -80.887512 6.21 150.837
TN303 2013-10-28T01:03:59.00Z -8.961607 -80.885912 6.37 146.461
TN303 2013-10-28T01:05:00.00Z -8.964515 -80.884235 6.1 151.486
TN303 2013-10-28T01:05:59.00Z -8.967345 -80.882625 6.43 147.414
TN303 2013-10-28T01:07:00.00Z -8.970295 -80.88094 6.35 152.678
TN303 2013-10-28T01:08:00.00Z -8.973187 -80.879307 5.8 149.182
TN303 2013-10-28T01:09:00.00Z -8.976087 -80.877668 6.03 154.035
TN303 2013-10-28T01:10:00.00Z -8.979013 -80.876022 6.37 152.239
TN303 2013-10-28T01:11:00.00Z -8.981945 -80.874387 6.45 150.943
TN303 2013-10-28T01:11:59.00Z -8.984815 -80.872777 6.32 149.097
TN303 2013-10-28T01:12:59.00Z -8.987733 -80.871135 6.55 151.414
TN303 2013-10-28T01:14:00.00Z -8.990718 -80.86947 5.96 150.727
TN303 2013-10-28T01:14:59.00Z -8.993617 -80.867862 5.93 152.379
TN303 2013-10-28T01:16:00.00Z -8.996572 -80.866213 5.98 152.625
TN303 2013-10-28T01:17:00.00Z -8.999475 -80.864592 6.74 146.854
TN303 2013-10-28T01:18:00.00Z -9.002408 -80.862953 6.44 149.184
TN303 2013-10-28T01:18:59.00Z -9.005292 -80.861348 5.61 159.357
TN303 2013-10-28T01:20:00.00Z -9.008283 -80.859705 6.09 147.999
TN303 2013-10-28T01:21:00.00Z -9.011245 -80.85807 5.69 151.088
TN303 2013-10-28T01:22:00.00Z -9.01412 -80.856277 6.17 142.064
TN303 2013-10-28T01:22:59.00Z -9.016923 -80.854473 6.15 145.754
TN303 2013-10-28T01:24:00.00Z -9.019833 -80.852605 6.15 148.745
TN303 2013-10-28T01:24:59.00Z -9.022653 -80.850805 6.3 151.332
TN303 2013-10-28T01:26:00.00Z -9.025525 -80.848975 6.24 149.272
TN303 2013-10-28T01:26:59.00Z -9.028348 -80.847183 6.15 148.745
TN303 2013-10-28T01:28:00.00Z -9.031252 -80.845335 6.25 148.147
TN303 2013-10-28T01:29:00.00Z -9.034113 -80.843522 6.32 146.19
TN303 2013-10-28T01:29:59.00Z -9.036907 -80.84172 5.51 154.595
TN303 2013-10-28T01:30:59.00Z -9.03976 -80.839937 5.61 152.565
TN303 2013-10-28T01:32:00.00Z -9.042647 -80.838165 6.27 152.897
TN303 2013-10-28T01:33:00.00Z -9.045495 -80.836433 6.49 146.602
TN303 2013-10-28T01:34:00.00Z -9.048338 -80.834697 5.92 146.172
TN303 2013-10-28T01:35:00.00Z -9.051182 -80.832935 5.93 153.572
TN303 2013-10-28T01:35:59.00Z -9.053968 -80.831218 6.1 148.478
TN303 2013-10-28T01:36:59.00Z -9.056843 -80.82952 6.1 148.478
TN303 2013-10-28T01:38:00.00Z -9.059795 -80.827778 5.59 150.543
TN303 2013-10-28T01:39:00.00Z -9.062688 -80.826093 6.3 151.334
TN303 2013-10-28T01:39:59.00Z -9.06557 -80.824452 6.36 147.571
TN303 2013-10-28T01:41:00.00Z -9.068495 -80.822755 5.98 151.45
TN303 2013-10-28T01:42:00.00Z -9.071378 -80.821118 5.71 150.609
TN303 2013-10-28T01:43:00.00Z -9.074262 -80.819455 5.83 151.88
TN303 2013-10-28T01:43:59.00Z -9.077103 -80.817822 6.31 150.218
TN303 2013-10-28T01:44:59.00Z -9.080015 -80.816143 6.52 147.945
TN303 2013-10-28T01:46:00.00Z -9.082918 -80.81448 6.74 145.171
TN303 2013-10-28T01:46:59.00Z -9.085767 -80.812877 6.08 150.791
TN303 2013-10-28T01:47:59.00Z -9.088718 -80.811263 6.01 155.687
TN303 2013-10-28T01:49:00.00Z -9.091735 -80.809592 6.16 150.596
TN303 2013-10-28T01:50:00.00Z -9.094697 -80.807945 6.31 147.303
TN303 2013-10-28T01:50:59.00Z -9.097598 -80.806305 6.01 149.82
TN303 2013-10-28T01:52:00.00Z -9.100602 -80.804647 6.37 146.472
TN303 2013-10-28T01:52:59.00Z -9.103528 -80.803007 5.82 148.726
TN303 2013-10-28T01:54:00.00Z -9.106552 -80.801317 6.02 148.652
TN303 2013-10-28T01:54:59.00Z -9.10949 -80.799687 6.2 147.883
TN303 2013-10-28T01:56:00.00Z -9.112493 -80.79801 6.39 148.938
TN303 2013-10-28T01:56:59.00Z -9.115392 -80.796395 6.13 152.195
TN303 2013-10-28T01:57:59.00Z -9.118305 -80.794775 6.15 151.742
TN303 2013-10-28T01:59:00.00Z -9.121298 -80.793128 6.12 148.809
TN303 2013-10-28T01:59:59.00Z -9.124095 -80.791573 5.91 150.474
TN303 2013-10-28T02:01:00.00Z -9.127037 -80.789945 6.06 150.085
TN303 2013-10-28T02:01:59.00Z -9.129915 -80.788363 6.25 152.223
TN303 2013-10-28T02:03:00.00Z -9.132925 -80.786712 6.26 149.971
TN303 2013-10-28T02:04:00.00Z -9.135835 -80.785113 6.14 149.898
TN303 2013-10-28T02:04:59.00Z -9.138647 -80.783562 6.03 150.538
TN303 2013-10-28T02:05:59.00Z -9.141555 -80.781963 6.44 149.194
TN303 2013-10-28T02:07:00.00Z -9.144538 -80.780318 6.62 151.236
TN303 2013-10-28T02:07:59.00Z -9.1474 -80.778738 6.03 154.046
TN303 2013-10-28T02:08:59.00Z -9.15032 -80.77714 6.08 151.954
TN303 2013-10-28T02:09:59.00Z -9.15322 -80.775532 6.5 151.192
TN303 2013-10-28T02:11:00.00Z -9.156195 -80.773892 6.64 149.113
TN303 2013-10-28T02:12:00.00Z -9.159148 -80.772245 6.71 148.953
TN303 2013-10-28T02:13:00.00Z -9.162085 -80.770598 6.85 148.01
TN303 2013-10-28T02:14:00.00Z -9.16502 -80.768967 6.45 150.956
TN303 2013-10-28T02:14:59.00Z -9.167932 -80.767332 6.22 152.673
TN303 2013-10-28T02:16:00.00Z -9.170928 -80.765642 5.91 155.251
TN303 2013-10-28T02:17:00.00Z -9.173847 -80.763998 6.06 151.251
TN303 2013-10-28T02:18:00.00Z -9.176793 -80.762325 5.69 151.099
TN303 2013-10-28T02:18:59.00Z -9.179655 -80.760707 6.45 152.049
TN303 2013-10-28T02:20:00.00Z -9.1826 -80.759033 6.23 150.412
TN303 2013-10-28T02:21:00.00Z -9.185527 -80.75735 6.29 149.541
TN303 2013-10-28T02:22:00.00Z -9.188477 -80.755653 5.49 149.985
TN303 2013-10-28T02:22:59.00Z -9.191372 -80.753977 5.66 151.587
TN303 2013-10-28T02:24:00.00Z -9.194353 -80.752248 6.56 149.28
TN303 2013-10-28T02:25:00.00Z -9.197258 -80.750542 5.75 148.915
TN303 2013-10-28T02:26:00.00Z -9.200137 -80.748857 6.08 153.117
TN303 2013-10-28T02:26:59.00Z -9.203037 -80.747187 6.08 150.799
TN303 2013-10-28T02:27:59.00Z -9.205988 -80.745485 6.16 150.604
TN303 2013-10-28T02:29:00.00Z -9.208982 -80.74374 5.77 149.667
TN303 2013-10-28T02:30:00.00Z -9.21191 -80.742048 6.52 151.853
TN303 2013-10-28T02:31:00.00Z -9.21488 -80.740335 6.53 149.696
TN303 2013-10-28T02:32:00.00Z -9.217823 -80.738635 6.8 147.767
TN303 2013-10-28T02:33:00.00Z -9.220772 -80.736932 6.11 150.35
TN303 2013-10-28T02:34:00.00Z -9.223747 -80.735212 6.58 149.939
TN303 2013-10-28T02:35:00.00Z -9.226713 -80.7335 6.1 151.504
TN303 2013-10-28T02:35:59.00Z -9.229622 -80.73181 6.36 150.476
TN303 2013-10-28T02:36:59.00Z -9.232582 -80.730135 6.26 147.04
TN303 2013-10-28T02:38:00.00Z -9.235608 -80.728442 6.35 147.583
TN303 2013-10-28T02:38:59.00Z -9.238523 -80.726795 5.88 152.145
TN303 2013-10-28T02:40:00.00Z -9.241547 -80.725108 6.43 150.294
TN303 2013-10-28T02:41:00.00Z -9.244528 -80.723448 6.53 149.698
TN303 2013-10-28T02:42:00.00Z -9.247522 -80.721762 6.67 151.471
TN303 2013-10-28T02:42:59.00Z -9.250448 -80.720118 5.81 154.799
TN303 2013-10-28T02:44:00.00Z -9.25346 -80.718422 6.36 150.478
TN303 2013-10-28T02:44:59.00Z -9.256415 -80.716773 6.2 147.894
TN303 2013-10-28T02:45:59.00Z -9.25942 -80.715063 6.35 153.807
TN303 2013-10-28T02:47:00.00Z -9.262473 -80.713348 6.38 150.05
TN303 2013-10-28T02:48:00.00Z -9.26549 -80.711693 5.92 149.294
TN303 2013-10-28T02:49:00.00Z -9.268488 -80.71006 6.22 152.68
TN303 2013-10-28T02:50:00.00Z -9.271473 -80.708445 6.52 151.857
TN303 2013-10-28T02:51:00.00Z -9.274487 -80.706837 5.85 153.827
TN303 2013-10-28T02:51:59.00Z -9.277412 -80.705247 6.13 152.206
TN303 2013-10-28T02:52:59.00Z -9.280387 -80.703642 6.03 151.716
TN303 2013-10-28T02:53:59.00Z -9.283362 -80.702035 6.47 154.893
TN303 2013-10-28T02:55:00.00Z -9.286368 -80.70043 6.72 152.748
TN303 2013-10-28T02:55:59.00Z -9.289313 -80.698837 5.81 154.801
TN303 2013-10-28T02:57:00.00Z -9.292308 -80.697202 5.42 150.203
TN303 2013-10-28T02:57:59.00Z -9.295192 -80.695638 6.3 152.469
TN303 2013-10-28T02:59:00.00Z -9.298233 -80.694 6.72 152.749
TN303 2013-10-28T02:59:59.00Z -9.301185 -80.692422 6.13 151.058
TN303 2013-10-28T03:01:00.00Z -9.304217 -80.690777 5.95 153.115
TN303 2013-10-28T03:01:59.00Z -9.30716 -80.689177 6.31 149.12
TN303 2013-10-28T03:02:59.00Z -9.310173 -80.687552 6.32 153.143
TN303 2013-10-28T03:04:00.00Z -9.3132 -80.685917 5.98 151.467
TN303 2013-10-28T03:04:59.00Z -9.316143 -80.684333 6.2 153.134
TN303 2013-10-28T03:05:59.00Z -9.319162 -80.682687 6.64 149.125
TN303 2013-10-28T03:07:00.00Z -9.322237 -80.681018 6.2 150.863
TN303 2013-10-28T03:07:59.00Z -9.325207 -80.679435 5.78 152.858
TN303 2013-10-28T03:09:00.00Z -9.328258 -80.677792 6.49 148.375
TN303 2013-10-28T03:10:00.00Z -9.33129 -80.676143 6.47 148.789
TN303 2013-10-28T03:11:00.00Z -9.334332 -80.674478 6.17 153.59
TN303 2013-10-28T03:11:59.00Z -9.337308 -80.672853 6.97 152.781
TN303 2013-10-28T03:12:59.00Z -9.340345 -80.671217 6.4 151.828
TN303 2013-10-28T03:13:59.00Z -9.343372 -80.669578 6.14 149.913
TN303 2013-10-28T03:14:59.00Z -9.346387 -80.66792 6.58 149.948
TN303 2013-10-28T03:16:00.00Z -9.349462 -80.666215 5.78 152.86
TN303 2013-10-28T03:16:59.00Z -9.352395 -80.664582 6.18 151.31
TN303 2013-10-28T03:18:00.00Z -9.355442 -80.662897 6.45 152.061
TN303 2013-10-28T03:19:00.00Z -9.358488 -80.661218 5.91 151.682
TN303 2013-10-28T03:19:59.00Z -9.361458 -80.65958 6.1 151.513
TN303 2013-10-28T03:21:00.00Z -9.364537 -80.657898 6.92 153.592
TN303 2013-10-28T03:22:00.00Z -9.367533 -80.656268 5.58 151.825
TN303 2013-10-28T03:23:00.00Z -9.370507 -80.654638 7.1 149.819
TN303 2013-10-28T03:24:00.00Z -9.373487 -80.653012 6.2 150.866
TN303 2013-10-28T03:24:59.00Z -9.376438 -80.651402 6.3 151.356
TN303 2013-10-28T03:26:00.00Z -9.379507 -80.649723 6.33 150.92
TN303 2013-10-28T03:27:00.00Z -9.38254 -80.648067 6.5 151.208
TN303 2013-10-28T03:28:00.00Z -9.385542 -80.646427 5.88 150.958
TN303 2013-10-28T03:29:00.00Z -9.38856 -80.644783 6.22 152.688
TN303 2013-10-28T03:29:59.00Z -9.391533 -80.643157 6.55 151.442
TN303 2013-10-28T03:31:00.00Z -9.394602 -80.641478 6.25 152.241
TN303 2013-10-28T03:31:59.00Z -9.397563 -80.639867 5.66 151.602
TN303 2013-10-28T03:32:59.00Z -9.400588 -80.638233 6.48 155.988
TN303 2013-10-28T03:34:00.00Z -9.403687 -80.636557 6.77 154.011
TN303 2013-10-28T03:35:00.00Z -9.406727 -80.634913 6.35 153.817
TN303 2013-10-28T03:35:59.00Z -9.409722 -80.633288 6.17 153.595
TN303 2013-10-28T03:36:59.00Z -9.412752 -80.631642 6.41 149.635
TN303 2013-10-28T03:37:59.00Z -9.415758 -80.630013 5.94 148.85
TN303 2013-10-28T03:39:00.00Z -9.418832 -80.628333 6.47 151.636
TN303 2013-10-28T03:40:00.00Z -9.421867 -80.626688 6.53 149.711
TN303 2013-10-28T03:41:00.00Z -9.424902 -80.625043 5.68 151.117
TN303 2013-10-28T03:42:00.00Z -9.427933 -80.623375 6.5 152.295
TN303 2013-10-28T03:42:59.00Z -9.430937 -80.621757 5.36 151.231
TN303 2013-10-28T03:43:59.00Z -9.433958 -80.620117 6.5 152.295
TN303 2013-10-28T03:45:00.00Z -9.437067 -80.618432 6.59 152.742
TN303 2013-10-28T03:46:00.00Z -9.440095 -80.616775 6.27 154.046
TN303 2013-10-28T03:47:00.00Z -9.44318 -80.615102 6.67 145.973
TN303 2013-10-28T03:47:59.00Z -9.446197 -80.613435 6.87 152.366
TN303 2013-10-28T03:48:59.00Z -9.449248 -80.611778 6.77 148.178
TN303 2013-10-28T03:49:59.00Z -9.45227 -80.610112 6.31 149.131
TN303 2013-10-28T03:51:00.00Z -9.455358 -80.608393 6.63 150.195
TN303 2013-10-28T03:52:00.00Z -9.458405 -80.606703 6.48 150.552
TN303 2013-10-28T03:53:00.00Z -9.461497 -80.60501 6.53 150.791
TN303 2013-10-28T03:54:00.00Z -9.464525 -80.603303 6.56 149.3
TN303 2013-10-28T03:54:59.00Z -9.467518 -80.601617 6.73 149.619
TN303 2013-10-28T03:55:59.00Z -9.470575 -80.599902 6.05 153.599
TN303 2013-10-28T03:57:00.00Z -9.473687 -80.59818 6.43 150.311
TN303 2013-10-28T03:58:00.00Z -9.476775 -80.596492 7.34 148.408
TN303 2013-10-28T03:59:00.00Z -9.479808 -80.594823 6.42 153.6
TN303 2013-10-28T03:59:59.00Z -9.482807 -80.593167 5.8 152.386
TN303 2013-10-28T04:00:59.00Z -9.485842 -80.591502 6.65 151.904
TN303 2013-10-28T04:01:59.00Z -9.48891 -80.589847 6.59 148.891
TN303 2013-10-28T04:02:59.00Z -9.491992 -80.588168 6.82 151.121
TN303 2013-10-28T04:04:00.00Z -9.495112 -80.586453 5.98 152.658
TN303 2013-10-28T04:05:00.00Z -9.498157 -80.584777 6.27 151.805
TN303 2013-10-28T04:06:00.00Z -9.501222 -80.583095 6.42 151.408
TN303 2013-10-28T04:06:59.00Z -9.504227 -80.58146 6.62 151.261
TN303 2013-10-28T04:08:00.00Z -9.507375 -80.579752 6.57 151.029
TN303 2013-10-28T04:09:00.00Z -9.51045 -80.578065 6.1 154.987
TN303 2013-10-28T04:09:59.00Z -9.513445 -80.576443 6.42 151.409
TN303 2013-10-28T04:11:00.00Z -9.516553 -80.574765 6.2 152.012
TN303 2013-10-28T04:11:59.00Z -9.519533 -80.573128 6.5 152.301
TN303 2013-10-28T04:12:59.00Z -9.522602 -80.571458 6.47 151.644
TN303 2013-10-28T04:14:00.00Z -9.52567 -80.569752 6.57 154.246
TN303 2013-10-28T04:15:00.00Z -9.528705 -80.568087 6.5 151.218
TN303 2013-10-28T04:15:59.00Z -9.531697 -80.566427 6.03 151.734
TN303 2013-10-28T04:17:00.00Z -9.53478 -80.564725 5.83 150.705
TN303 2013-10-28T04:17:59.00Z -9.537755 -80.56307 6.15 151.771
TN303 2013-10-28T04:19:00.00Z -9.540807 -80.561363 6.2 150.878
TN303 2013-10-28T04:20:00.00Z -9.543823 -80.559702 6.3 151.368
TN303 2013-10-28T04:21:00.00Z -9.546843 -80.558045 6.62 151.264
TN303 2013-10-28T04:21:59.00Z -9.549842 -80.556413 6.03 154.072
TN303 2013-10-28T04:22:59.00Z -9.552872 -80.554757 6.5 151.22
TN303 2013-10-28T04:23:59.00Z -9.555887 -80.553095 6.43 150.317
TN303 2013-10-28T04:25:00.00Z -9.558985 -80.5514 5.6 148.067
TN303 2013-10-28T04:26:00.00Z -9.562005 -80.54976 5.88 150.97
TN303 2013-10-28T04:27:00.00Z -9.565028 -80.548102 5.51 153.35
TN303 2013-10-28T04:28:00.00Z -9.568012 -80.54644 6.3 151.37
TN303 2013-10-28T04:29:00.00Z -9.571033 -80.544763 6.12 153.376
TN303 2013-10-28T04:30:00.00Z -9.574063 -80.543103 6.53 149.722
TN303 2013-10-28T04:30:59.00Z -9.577042 -80.541493 6.57 148.238
TN303 2013-10-28T04:32:00.00Z -9.580125 -80.539803 5.95 151.95
TN303 2013-10-28T04:33:00.00Z -9.583132 -80.538142 6.35 151.61
TN303 2013-10-28T04:34:00.00Z -9.58617 -80.536497 5.68 151.128
TN303 2013-10-28T04:35:00.00Z -9.58917 -80.534862 5.8 152.394
TN303 2013-10-28T04:35:59.00Z -9.592117 -80.53325 6.35 150.503
TN303 2013-10-28T04:37:00.00Z -9.595177 -80.531577 6.13 152.228
TN303 2013-10-28T04:38:00.00Z -9.598192 -80.5299 6.19 149.053
TN303 2013-10-28T04:39:00.00Z -9.601217 -80.528243 6.32 153.163
TN303 2013-10-28T04:40:00.00Z -9.604205 -80.52659 6.4 151.847
TN303 2013-10-28T04:40:59.00Z -9.607118 -80.524973 6.25 152.256
TN303 2013-10-28T04:42:00.00Z -9.61012 -80.523323 6.48 150.563
TN303 2013-10-28T04:42:59.00Z -9.613027 -80.521722 6.46 149.898
TN303 2013-10-28T04:44:00.00Z -9.616035 -80.520053 6.16 150.633
TN303 2013-10-28T04:45:00.00Z -9.619007 -80.518413 6.52 154.041
TN303 2013-10-28T04:46:00.00Z -9.621975 -80.516783 6.22 152.704
TN303 2013-10-28T04:46:59.00Z -9.624897 -80.515178 6.17 153.61
TN303 2013-10-28T04:47:59.00Z -9.627867 -80.513543 6.15 151.778
TN303 2013-10-28T04:48:59.00Z -9.630823 -80.511915 6.79 152.573
TN303 2013-10-28T04:50:00.00Z -9.633848 -80.510262 5.7 153.117
TN303 2013-10-28T04:51:00.00Z -9.636843 -80.508618 6.33 150.938
TN303 2013-10-28T04:52:00.00Z -9.639845 -80.506977 5.9 152.895
TN303 2013-10-28T04:52:59.00Z -9.642782 -80.50539 6.78 149.868
TN303 2013-10-28T04:54:00.00Z -9.645825 -80.50373 6.13 149.935
TN303 2013-10-28T04:55:00.00Z -9.648802 -80.502087 6.3 151.376
TN303 2013-10-28T04:55:59.00Z -9.651712 -80.500472 6.03 150.575
TN303 2013-10-28T04:56:59.00Z -9.654695 -80.498848 6.68 150.446
TN303 2013-10-28T04:57:59.00Z -9.657663 -80.497207 5.7 153.118
TN303 2013-10-28T04:59:00.00Z -9.660665 -80.495552 6.4 147.881
TN303 2013-10-28T04:59:59.00Z -9.66357 -80.49393 6.45 150.992
TN303 2013-10-28T05:01:00.00Z -9.666582 -80.492228 6.37 148.299
TN303 2013-10-28T05:02:00.00Z -9.669562 -80.490548 6.07 153.149
TN303 2013-10-28T05:03:00.00Z -9.672528 -80.488887 6.18 151.333
TN303 2013-10-28T05:03:59.00Z -9.67544 -80.487265 6.35 150.509
TN303 2013-10-28T05:04:59.00Z -9.678422 -80.4856 6.72 147.947
TN303 2013-10-28T05:05:59.00Z -9.681417 -80.48395 6.05 151.287
TN303 2013-10-28T05:06:59.00Z -9.684432 -80.482297 6.41 149.655
TN303 2013-10-28T05:07:59.00Z -9.687403 -80.480637 6.41 149.655
TN303 2013-10-28T05:08:59.00Z -9.690402 -80.478995 6.06 150.126
TN303 2013-10-28T05:09:59.00Z -9.693383 -80.47734 6.44 153.178
TN303 2013-10-28T05:11:00.00Z -9.696417 -80.475665 5.68 153.615
TN303 2013-10-28T05:12:00.00Z -9.699383 -80.474015 5.81 154.828
TN303 2013-10-28T05:13:00.00Z -9.702345 -80.4724 6.82 151.137
TN303 2013-10-28T05:13:59.00Z -9.705252 -80.470778 5.95 151.959
TN303 2013-10-28T05:14:59.00Z -9.70819 -80.469135 6.48 150.57
TN303 2013-10-28T05:15:59.00Z -9.711152 -80.467492 6.6 151.694
TN303 2013-10-28T05:16:59.00Z -9.71414 -80.465848 5.95 151.96
TN303 2013-10-28T05:18:00.00Z -9.717172 -80.464175 5.61 152.611
TN303 2013-10-28T05:19:00.00Z -9.720165 -80.46255 6.07 153.153
TN303 2013-10-28T05:20:00.00Z -9.723165 -80.460915 6.44 149.237
TN303 2013-10-28T05:20:59.00Z -9.726115 -80.459297 6.12 152.237
TN303 2013-10-28T05:21:59.00Z -9.729087 -80.457667 6.3 151.381
TN303 2013-10-28T05:23:00.00Z -9.732055 -80.455985 6.48 150.572
TN303 2013-10-28T05:24:00.00Z -9.735038 -80.45436 5.86 150.252
TN303 2013-10-28T05:25:00.00Z -9.737967 -80.452762 6.6 151.696
TN303 2013-10-28T05:26:00.00Z -9.74092 -80.451147 6.03 152.917
TN303 2013-10-28T05:27:00.00Z -9.74389 -80.44952 6.2 150.893
TN303 2013-10-28T05:28:00.00Z -9.746818 -80.447917 6.63 150.217
TN303 2013-10-28T05:29:00.00Z -9.749767 -80.44629 5.78 150.453
TN303 2013-10-28T05:30:00.00Z -9.752717 -80.444662 6.11 150.389
TN303 2013-10-28T05:30:59.00Z -9.755623 -80.443072 6.08 151.996
TN303 2013-10-28T05:32:00.00Z -9.758633 -80.441413 6.06 155.944
TN303 2013-10-28T05:32:59.00Z -9.761535 -80.439798 6.25 152.267
TN303 2013-10-28T05:33:59.00Z -9.764472 -80.438168 5.91 150.52
TN303 2013-10-28T05:34:59.00Z -9.767407 -80.436533 6.3 151.384
TN303 2013-10-28T05:36:00.00Z -9.770412 -80.434853 6.0 151.04
TN303 2013-10-28T05:37:00.00Z -9.77336 -80.433187 6.5 150.154
TN303 2013-10-28T05:38:00.00Z -9.776282 -80.431545 5.93 152.432
TN303 2013-10-28T05:39:00.00Z -9.779215 -80.42989 6.38 150.088
TN303 2013-10-28T05:39:59.00Z -9.78209 -80.428258 6.28 149.585
TN303 2013-10-28T05:40:59.00Z -9.785012 -80.426592 6.3 151.386
TN303 2013-10-28T05:42:00.00Z -9.787998 -80.424912 6.1 153.852
TN303 2013-10-28T05:43:00.00Z -9.790942 -80.423263 6.1 152.698
TN303 2013-10-28T05:44:00.00Z -9.79389 -80.421623 5.83 154.346
TN303 2013-10-28T05:45:00.00Z -9.796823 -80.419965 6.37 154.505
TN303 2013-10-28T05:46:00.00Z -9.799788 -80.41831 6.02 152.921
TN303 2013-10-28T05:47:00.00Z -9.802735 -80.416655 6.48 150.577
TN303 2013-10-28T05:48:00.00Z -9.805692 -80.415007 5.9 152.907
TN303 2013-10-28T05:49:00.00Z -9.80866 -80.413357 6.08 152.0
TN303 2013-10-28T05:50:00.00Z -9.811635 -80.411702 6.42 152.526
TN303 2013-10-28T05:50:59.00Z -9.814562 -80.410068 6.37 151.193
TN303 2013-10-28T05:51:59.00Z -9.81755 -80.408413 6.47 151.665
TN303 2013-10-28T05:53:00.00Z -9.820588 -80.406738 6.01 149.873
TN303 2013-10-28T05:53:59.00Z -9.823505 -80.405078 6.28 155.194
TN303 2013-10-28T05:55:00.00Z -9.82652 -80.403393 5.81 151.198
TN303 2013-10-28T05:56:00.00Z -9.82949 -80.401715 6.4 152.964
TN303 2013-10-28T05:57:00.00Z -9.83248 -80.400018 5.49 150.032
TN303 2013-10-28T05:57:59.00Z -9.835395 -80.398382 7.16 148.114
TN303 2013-10-28T05:59:00.00Z -9.83842 -80.39666 6.13 149.95
TN303 2013-10-28T06:00:00.00Z -9.841402 -80.394983 6.0 152.217
TN303 2013-10-28T06:01:00.00Z -9.84436 -80.393312 6.26 150.023
TN303 2013-10-28T06:02:00.00Z -9.847327 -80.391655 6.38 150.093
TN303 2013-10-28T06:02:59.00Z -9.850275 -80.390018 6.56 149.329
TN303 2013-10-28T06:04:00.00Z -9.85327 -80.388312 6.31 149.161
TN303 2013-10-28T06:05:00.00Z -9.856268 -80.386643 6.15 150.651
TN303 2013-10-28T06:06:00.00Z -9.859265 -80.384965 6.74 148.606
TN303 2013-10-28T06:06:59.00Z -9.862197 -80.38331 6.03 154.093
TN303 2013-10-28T06:07:59.00Z -9.865147 -80.381642 6.17 148.372
TN303 2013-10-28T06:09:00.00Z -9.868172 -80.379925 5.63 152.127
TN303 2013-10-28T06:10:00.00Z -9.87115 -80.378243 5.83 154.351
TN303 2013-10-28T06:10:59.00Z -9.874067 -80.376613 6.35 151.631
TN303 2013-10-28T06:11:59.00Z -9.877072 -80.374935 6.25 152.275
TN303 2013-10-28T06:13:00.00Z -9.880125 -80.373238 6.1 152.704
TN303 2013-10-28T06:14:00.00Z -9.883143 -80.371567 5.56 153.628
TN303 2013-10-28T06:14:59.00Z -9.886093 -80.369948 6.42 151.436
TN303 2013-10-28T06:15:59.00Z -9.889095 -80.368298 6.45 152.099
TN303 2013-10-28T06:17:00.00Z -9.89216 -80.366628 6.35 152.741
TN303 2013-10-28T06:18:00.00Z -9.895178 -80.36498 6.3 151.394
TN303 2013-10-28T06:18:59.00Z -9.898132 -80.363342 6.32 152.07
TN303 2013-10-28T06:20:00.00Z -9.901163 -80.361672 6.25 154.53
TN303 2013-10-28T06:21:00.00Z -9.904153 -80.360017 6.42 153.629
TN303 2013-10-28T06:22:00.00Z -9.907145 -80.358373 6.42 153.629
TN303 2013-10-28T06:23:00.00Z -9.910132 -80.356718 5.63 153.38
TN303 2013-10-28T06:24:00.00Z -9.913103 -80.355088 6.06 150.143
TN303 2013-10-28T06:25:00.00Z -9.916102 -80.35343 7.17 149.703
TN303 2013-10-28T06:25:59.00Z -9.919027 -80.351793 6.0 152.223
TN303 2013-10-28T06:26:59.00Z -9.92203 -80.350137 6.32 154.298
TN303 2013-10-28T06:27:59.00Z -9.925058 -80.34847 6.32 153.185
TN303 2013-10-28T06:29:00.00Z -9.928085 -80.346793 6.45 152.102
TN303 2013-10-28T06:30:00.00Z -9.931075 -80.345133 5.66 155.373
TN303 2013-10-28T06:31:00.00Z -9.934058 -80.343507 6.78 148.855
TN303 2013-10-28T06:32:00.00Z -9.937067 -80.341847 6.12 152.253
TN303 2013-10-28T06:32:59.00Z -9.940012 -80.340218 6.17 153.632
TN303 2013-10-28T06:34:00.00Z -9.943048 -80.338545 6.2 152.042
TN303 2013-10-28T06:34:59.00Z -9.945967 -80.336925 6.67 150.468
TN303 2013-10-28T06:35:59.00Z -9.948943 -80.335285 6.45 151.013
TN303 2013-10-28T06:37:00.00Z -9.951952 -80.333625 6.16 149.517
TN303 2013-10-28T06:37:59.00Z -9.954887 -80.33201 6.05 148.272
TN303 2013-10-28T06:38:59.00Z -9.957857 -80.330347 6.26 150.032
TN303 2013-10-28T06:39:59.00Z -9.960847 -80.328707 6.06 150.146
TN303 2013-10-28T06:41:00.00Z -9.96389 -80.327017 6.26 150.032
TN303 2013-10-28T06:42:00.00Z -9.966853 -80.325347 6.69 152.161
TN303 2013-10-28T06:43:00.00Z -9.96981 -80.323693 6.25 152.282
TN303 2013-10-28T06:43:59.00Z -9.972738 -80.322073 6.33 149.853
TN303 2013-10-28T06:44:59.00Z -9.975693 -80.320393 6.49 152.334
TN303 2013-10-28T06:46:00.00Z -9.978728 -80.318737 6.37 152.309
TN303 2013-10-28T06:47:00.00Z -9.981715 -80.317088 5.93 152.447
TN303 2013-10-28T06:47:59.00Z -9.98463 -80.315493 6.07 153.171
TN303 2013-10-28T06:49:00.00Z -9.98764 -80.313837 6.37 152.31
TN303 2013-10-28T06:49:59.00Z -9.990592 -80.312212 6.27 151.84
TN303 2013-10-28T06:51:00.00Z -9.993623 -80.310545 6.4 151.875
TN303 2013-10-28T06:51:59.00Z -9.996553 -80.308925 6.3 151.401
TN303 2013-10-28T06:53:00.00Z -9.99958 -80.307275 6.37 153.415
TN303 2013-10-28T06:53:59.00Z -10.002473 -80.305688 6.05 152.473
TN303 2013-10-28T06:55:00.00Z -10.005473 -80.304037 6.38 150.105
TN303 2013-10-28T06:55:59.00Z -10.008365 -80.302415 5.75 153.392
TN303 2013-10-28T06:57:00.00Z -10.011337 -80.300762 6.08 150.858
TN303 2013-10-28T06:58:00.00Z -10.014292 -80.299112 6.69 148.371
TN303 2013-10-28T06:58:59.00Z -10.017193 -80.297478 6.18 150.22
TN303 2013-10-28T06:59:59.00Z -10.020167 -80.295837 6.12 152.259
TN303 2013-10-28T07:01:00.00Z -10.02316 -80.294182 6.65 150.885
TN303 2013-10-28T07:01:59.00Z -10.026088 -80.292558 5.91 149.351
TN303 2013-10-28T07:03:00.00Z -10.029098 -80.290888 6.3 151.404
TN303 2013-10-28T07:04:00.00Z -10.032052 -80.289233 6.59 148.933
TN303 2013-10-28T07:05:00.00Z -10.03502 -80.287583 6.62 152.363
TN303 2013-10-28T07:05:59.00Z -10.037935 -80.285965 6.15 151.808
TN303 2013-10-28T07:07:00.00Z -10.040963 -80.284288 6.42 151.447
TN303 2013-10-28T07:07:59.00Z -10.043897 -80.282653 6.51 149.096
TN303 2013-10-28T07:09:00.00Z -10.046923 -80.280948 6.02 152.939
TN303 2013-10-28T07:10:00.00Z -10.04987 -80.279308 6.17 153.64
TN303 2013-10-28T07:11:00.00Z -10.052833 -80.27766 6.17 153.64
TN303 2013-10-28T07:12:00.00Z -10.055808 -80.275988 5.76 149.731
TN303 2013-10-28T07:12:59.00Z -10.058737 -80.274348 6.3 151.406
TN303 2013-10-28T07:14:00.00Z -10.061787 -80.272648 6.43 149.263
TN303 2013-10-28T07:15:00.00Z -10.064802 -80.270953 6.2 153.186
TN303 2013-10-28T07:16:00.00Z -10.067798 -80.269268 6.35 152.754
TN303 2013-10-28T07:16:59.00Z -10.070752 -80.267615 6.28 149.607
TN303 2013-10-28T07:17:59.00Z -10.073757 -80.265932 5.54 149.069
TN303 2013-10-28T07:18:59.00Z -10.076762 -80.26425 6.77 151.978
TN303 2013-10-28T07:20:00.00Z -10.07985 -80.26253 6.34 152.755
TN303 2013-10-28T07:20:59.00Z -10.08281 -80.26088 6.1 151.566
TN303 2013-10-28T07:21:59.00Z -10.08583 -80.259192 6.59 151.722
TN303 2013-10-28T07:23:00.00Z -10.088902 -80.257465 6.67 150.479
TN303 2013-10-28T07:23:59.00Z -10.091877 -80.255782 6.06 150.157
TN303 2013-10-28T07:24:59.00Z -10.094843 -80.254095 6.59 148.938
TN303 2013-10-28T07:26:00.00Z -10.097893 -80.252358 6.47 150.6
TN303 2013-10-28T07:26:59.00Z -10.100837 -80.250707 6.69 151.121
TN303 2013-10-28T07:28:00.00Z -10.103907 -80.24897 6.43 150.358
TN303 2013-10-28T07:28:59.00Z -10.10688 -80.247285 6.35 150.541
TN303 2013-10-28T07:29:59.00Z -10.109903 -80.245587 6.47 152.774
TN303 2013-10-28T07:30:59.00Z -10.112953 -80.243888 6.17 153.644
TN303 2013-10-28T07:32:00.00Z -10.116002 -80.24219 6.48 149.517
TN303 2013-10-28T07:33:00.00Z -10.119013 -80.240482 6.43 149.267
TN303 2013-10-28T07:33:59.00Z -10.121977 -80.238785 6.35 151.65
TN303 2013-10-28T07:34:59.00Z -10.124997 -80.237095 6.0 151.066
TN303 2013-10-28T07:35:59.00Z -10.127998 -80.235403 6.42 151.454
TN303 2013-10-28T07:37:00.00Z -10.131058 -80.233645 6.45 151.027
TN303 2013-10-28T07:37:59.00Z -10.134018 -80.231962 6.53 149.765
TN303 2013-10-28T07:38:59.00Z -10.137032 -80.230235 6.5 151.263
TN303 2013-10-28T07:40:00.00Z -10.140093 -80.2285 6.43 149.269
TN303 2013-10-28T07:40:59.00Z -10.143063 -80.226818 6.28 150.731
TN303 2013-10-28T07:42:00.00Z -10.146117 -80.2251 6.35 151.651
TN303 2013-10-28T07:43:00.00Z -10.14913 -80.223412 5.89 149.82
TN303 2013-10-28T07:44:00.00Z -10.152128 -80.221717 5.98 156.234
TN303 2013-10-28T07:45:00.00Z -10.155123 -80.22003 6.14 148.831
TN303 2013-10-28T07:46:00.00Z -10.158142 -80.218315 6.38 150.117
TN303 2013-10-28T07:46:59.00Z -10.161115 -80.216617 6.5 151.265
TN303 2013-10-28T07:48:00.00Z -10.164208 -80.214847 6.4 151.888
TN303 2013-10-28T07:49:00.00Z -10.167235 -80.213127 6.4 151.888
TN303 2013-10-28T07:49:59.00Z -10.170185 -80.211455 6.44 152.12
TN303 2013-10-28T07:50:59.00Z -10.173175 -80.209772 6.2 150.926
TN303 2013-10-28T07:51:59.00Z -10.176177 -80.208082 6.35 151.654
TN303 2013-10-28T07:53:00.00Z -10.179222 -80.206355 6.43 149.272
TN303 2013-10-28T07:53:59.00Z -10.182177 -80.204663 6.25 152.298
TN303 2013-10-28T07:55:00.00Z -10.185252 -80.202917 6.24 148.236
TN303 2013-10-28T07:55:59.00Z -10.18819 -80.20121 6.52 150.845
TN303 2013-10-28T07:57:00.00Z -10.191223 -80.199463 6.22 152.745
TN303 2013-10-28T07:58:00.00Z -10.194232 -80.197735 6.2 150.927
TN303 2013-10-28T07:59:00.00Z -10.197232 -80.19601 6.05 151.325
TN303 2013-10-28T07:59:59.00Z -10.200165 -80.194317 6.13 151.124
TN303 2013-10-28T08:00:59.00Z -10.203147 -80.192602 6.32 146.282
TN303 2013-10-28T08:01:59.00Z -10.206107 -80.190885 6.17 153.651
TN303 2013-10-28T08:02:59.00Z -10.20906 -80.189145 6.15 150.678
TN303 2013-10-28T08:04:00.00Z -10.21208 -80.187382 6.44 152.123
TN303 2013-10-28T08:05:00.00Z -10.21503 -80.18567 6.2 150.929
TN303 2013-10-28T08:05:59.00Z -10.217928 -80.184012 6.11 149.275
TN303 2013-10-28T08:07:00.00Z -10.220917 -80.182258 5.95 151.997
TN303 2013-10-28T08:07:59.00Z -10.223777 -80.180605 6.1 150.425
TN303 2013-10-28T08:09:00.00Z -10.226738 -80.178882 6.07 152.031
TN303 2013-10-28T08:09:59.00Z -10.229618 -80.177208 6.2 152.064
TN303 2013-10-28T08:11:00.00Z -10.232592 -80.175488 6.14 148.837
TN303 2013-10-28T08:12:00.00Z -10.235473 -80.173797 6.11 149.277
TN303 2013-10-28T08:12:59.00Z -10.238302 -80.17214 6.12 152.275
TN303 2013-10-28T08:14:00.00Z -10.241225 -80.170423 6.15 147.698
TN303 2013-10-28T08:15:00.00Z -10.244107 -80.16871 6.25 152.303
TN303 2013-10-28T08:16:00.00Z -10.247005 -80.167007 6.15 150.681
TN303 2013-10-28T08:17:00.00Z -10.2499 -80.165318 6.23 147.544
TN303 2013-10-28T08:17:59.00Z -10.252738 -80.163653 6.06 147.14
TN303 2013-10-28T08:19:00.00Z -10.255697 -80.161913 5.68 151.178
TN303 2013-10-28T08:20:00.00Z -10.258573 -80.160218 6.23 149.365
TN303 2013-10-28T08:20:59.00Z -10.261418 -80.158557 5.89 149.829
TN303 2013-10-28T08:21:59.00Z -10.264307 -80.156858 6.61 146.828
TN303 2013-10-28T08:22:59.00Z -10.267188 -80.155162 6.21 149.801
TN303 2013-10-28T08:24:00.00Z -10.270112 -80.153435 5.73 151.446
TN303 2013-10-28T08:24:59.00Z -10.272922 -80.151777 6.17 151.378
TN303 2013-10-28T08:26:00.00Z -10.27584 -80.150075 6.48 146.7
TN303 2013-10-28T08:27:00.00Z -10.278707 -80.148398 5.83 151.967
TN303 2013-10-28T08:28:00.00Z -10.281578 -80.146733 6.43 149.28
TN303 2013-10-28T08:29:00.00Z -10.284438 -80.145055 5.91 149.372
TN303 2013-10-28T08:30:00.00Z -10.287312 -80.14337 5.96 149.643
TN303 2013-10-28T08:30:59.00Z -10.290135 -80.141702 6.67 147.744
TN303 2013-10-28T08:31:59.00Z -10.293012 -80.140002 6.11 149.281
TN303 2013-10-28T08:32:59.00Z -10.295897 -80.138312 5.87 149.098
TN303 2013-10-28T08:33:59.00Z -10.298773 -80.136593 6.46 148.864
TN303 2013-10-28T08:34:59.00Z -10.301647 -80.134885 6.24 148.245
TN303 2013-10-28T08:35:59.00Z -10.304527 -80.133173 5.58 153.154
TN303 2013-10-28T08:36:59.00Z -10.307397 -80.131447 5.73 151.449
TN303 2013-10-28T08:38:00.00Z -10.31032 -80.129715 6.13 149.987
TN303 2013-10-28T08:39:00.00Z -10.313195 -80.128002 5.79 149.283
TN303 2013-10-28T08:40:00.00Z -10.316083 -80.12631 6.33 149.88
TN303 2013-10-28T08:40:59.00Z -10.318935 -80.124635 6.23 149.37
TN303 2013-10-28T08:41:59.00Z -10.321825 -80.122942 6.03 147.583
TN303 2013-10-28T08:43:00.00Z -10.324775 -80.121212 6.13 151.134
TN303 2013-10-28T08:44:00.00Z -10.32769 -80.119542 5.88 152.224
TN303 2013-10-28T08:44:59.00Z -10.330533 -80.117883 5.95 152.006
TN303 2013-10-28T08:46:00.00Z -10.33349 -80.116147 6.02 152.96
TN303 2013-10-28T08:46:59.00Z -10.336325 -80.114457 6.07 153.197
TN303 2013-10-28T08:48:00.00Z -10.339272 -80.112722 6.34 148.774
TN303 2013-10-28T08:48:59.00Z -10.34212 -80.111025 6.1 147.429
TN303 2013-10-28T08:50:00.00Z -10.345072 -80.109282 6.24 148.249
TN303 2013-10-28T08:50:59.00Z -10.347923 -80.1076 5.95 150.826
TN303 2013-10-28T08:51:59.00Z -10.350812 -80.10589 6.0 151.084
TN303 2013-10-28T08:52:59.00Z -10.353703 -80.104188 6.52 148.045
TN303 2013-10-28T08:53:59.00Z -10.3566 -80.102473 6.29 148.515
TN303 2013-10-28T08:54:59.00Z -10.359495 -80.100763 6.1 151.587
TN303 2013-10-28T08:56:00.00Z -10.362458 -80.099008 6.62 150.264
TN303 2013-10-28T08:56:59.00Z -10.365335 -80.097328 6.15 150.69
TN303 2013-10-28T08:58:00.00Z -10.368302 -80.095598 6.28 149.631
TN303 2013-10-28T08:58:59.00Z -10.37116 -80.093917 6.17 148.413
TN303 2013-10-28T09:00:00.00Z -10.37412 -80.092193 6.23 149.375
TN303 2013-10-28T09:01:00.00Z -10.377052 -80.090485 6.28 149.632
TN303 2013-10-28T09:02:00.00Z -10.379983 -80.088768 6.29 148.517
TN303 2013-10-28T09:03:00.00Z -10.382928 -80.087045 6.35 150.563
TN303 2013-10-28T09:04:00.00Z -10.385843 -80.085325 5.73 150.23
TN303 2013-10-28T09:05:00.00Z -10.388765 -80.083613 6.91 151.63
TN303 2013-10-28T09:05:59.00Z -10.391667 -80.081925 5.64 149.672
TN303 2013-10-28T09:06:59.00Z -10.394603 -80.080222 6.17 148.415
TN303 2013-10-28T09:08:00.00Z -10.39759 -80.078477 6.44 146.44
TN303 2013-10-28T09:08:59.00Z -10.400463 -80.0768 6.3 151.432
TN303 2013-10-28T09:09:59.00Z -10.403397 -80.075102 5.96 149.652
TN303 2013-10-28T09:11:00.00Z -10.406385 -80.073372 6.06 150.181
TN303 2013-10-28T09:12:00.00Z -10.409303 -80.071655 6.33 149.887
TN303 2013-10-28T09:13:00.00Z -10.412257 -80.069963 5.76 150.978
TN303 2013-10-28T09:14:00.00Z -10.415237 -80.068352 6.43 149.291
TN303 2013-10-28T09:15:00.00Z -10.418247 -80.06674 5.97 152.725
TN303 2013-10-28T09:16:00.00Z -10.421245 -80.065115 6.59 151.747
TN303 2013-10-28T09:16:59.00Z -10.424193 -80.06351 6.38 150.138
TN303 2013-10-28T09:18:00.00Z -10.42724 -80.061852 6.21 149.814
TN303 2013-10-28T09:18:59.00Z -10.430193 -80.060237 5.88 152.232
TN303 2013-10-28T09:20:00.00Z -10.433228 -80.058552 6.59 151.748
TN303 2013-10-28T09:20:59.00Z -10.436222 -80.056923 6.38 150.139
TN303 2013-10-28T09:21:59.00Z -10.439245 -80.055253 6.38 150.139
TN303 2013-10-28T09:22:59.00Z -10.442255 -80.053602 6.3 151.435
TN303 2013-10-28T09:24:00.00Z -10.445323 -80.051917 6.09 148.585
TN303 2013-10-28T09:24:59.00Z -10.448295 -80.050273 6.1 152.746
TN303 2013-10-28T09:26:00.00Z -10.45136 -80.048597 6.45 151.052
TN303 2013-10-28T09:27:00.00Z -10.454373 -80.046933 6.2 153.215
TN303 2013-10-28T09:27:59.00Z -10.457313 -80.045322 6.13 151.144
TN303 2013-10-28T09:29:00.00Z -10.460398 -80.043643 6.22 152.766
TN303 2013-10-28T09:29:59.00Z -10.463383 -80.042005 6.76 148.259
TN303 2013-10-28T09:30:59.00Z -10.466418 -80.040325 6.58 148.968
TN303 2013-10-28T09:32:00.00Z -10.46949 -80.038627 6.02 152.97
TN303 2013-10-28T09:33:00.00Z -10.472477 -80.036977 6.55 150.449
TN303 2013-10-28T09:34:00.00Z -10.475485 -80.035318 5.66 155.41
TN303 2013-10-28T09:34:59.00Z -10.478418 -80.033693 6.52 151.945
TN303 2013-10-28T09:35:59.00Z -10.481415 -80.032047 6.44 152.144
TN303 2013-10-28T09:37:00.00Z -10.484443 -80.030378 6.34 152.785
TN303 2013-10-28T09:38:00.00Z -10.487437 -80.02873 6.1 155.054
TN303 2013-10-28T09:39:00.00Z -10.490422 -80.02708 6.58 150.036
TN303 2013-10-28T09:40:00.00Z -10.493422 -80.025433 6.14 148.858
TN303 2013-10-28T09:41:00.00Z -10.496393 -80.02377 6.67 150.511
TN303 2013-10-28T09:41:59.00Z -10.499345 -80.022145 6.07 152.052
TN303 2013-10-28T09:43:00.00Z -10.502388 -80.020465 5.78 154.159
TN303 2013-10-28T09:43:59.00Z -10.505327 -80.018855 6.48 149.548
TN303 2013-10-28T09:45:00.00Z -10.508382 -80.01715 5.66 155.412
TN303 2013-10-28T09:46:00.00Z -10.511367 -80.01549 6.25 152.323
TN303 2013-10-28T09:46:59.00Z -10.514305 -80.01385 6.15 150.702
TN303 2013-10-28T09:48:00.00Z -10.517353 -80.012138 6.22 155.029
TN303 2013-10-28T09:48:59.00Z -10.52029 -80.010488 6.32 151.006
TN303 2013-10-28T09:50:00.00Z -10.523338 -80.008758 6.2 153.22
TN303 2013-10-28T09:50:59.00Z -10.526278 -80.0071 6.58 147.25
TN303 2013-10-28T09:52:00.00Z -10.529333 -80.00539 6.54 151.526
TN303 2013-10-28T09:52:59.00Z -10.532282 -80.003723 5.92 153.675
TN303 2013-10-28T09:53:59.00Z -10.535293 -80.00205 6.45 151.058
TN303 2013-10-28T09:54:59.00Z -10.538287 -80.000377 6.2 150.954
TN303 2013-10-28T09:55:59.00Z -10.541287 -79.99869 5.75 153.431
TN303 2013-10-28T09:57:00.00Z -10.544345 -79.997005 6.13 150.006
TN303 2013-10-28T09:58:00.00Z -10.547338 -79.995325 6.34 152.79
TN303 2013-10-28T09:59:00.00Z -10.550355 -79.993657 6.27 151.883
TN303 2013-10-28T09:59:59.00Z -10.553305 -79.992032 6.32 154.343
TN303 2013-10-28T10:01:00.00Z -10.556397 -79.990407 5.88 151.046
TN303 2013-10-28T10:01:59.00Z -10.559397 -79.988838 6.58 150.041
TN303 2013-10-28T10:02:59.00Z -10.562448 -79.987232 6.52 153.03
TN303 2013-10-28T10:04:00.00Z -10.565538 -79.985602 6.49 152.378
TN303 2013-10-28T10:05:00.00Z -10.568567 -79.983985 6.4 150.821
TN303 2013-10-28T10:05:59.00Z -10.57153 -79.98241 6.32 153.233
TN303 2013-10-28T10:06:59.00Z -10.574548 -79.980793 6.19 153.224
TN303 2013-10-28T10:08:00.00Z -10.577625 -79.979162 7.01 152.075
TN303 2013-10-28T10:08:59.00Z -10.580587 -79.977595 6.39 153.019
TN303 2013-10-28T10:10:00.00Z -10.58366 -79.975953 6.02 152.979
TN303 2013-10-28T10:11:00.00Z -10.586657 -79.974367 5.83 155.607
TN303 2013-10-28T10:11:59.00Z -10.589597 -79.972815 5.9 154.155
TN303 2013-10-28T10:12:59.00Z -10.592582 -79.971245 6.35 150.58
TN303 2013-10-28T10:13:59.00Z -10.595563 -79.969647 6.05 156.001
TN303 2013-10-28T10:14:59.00Z -10.598548 -79.968072 6.37 154.562
TN303 2013-10-28T10:16:00.00Z -10.60162 -79.966475 6.12 152.303
TN303 2013-10-28T10:17:00.00Z -10.604627 -79.964898 6.19 153.227
TN303 2013-10-28T10:17:59.00Z -10.6076 -79.963332 6.22 152.777
TN303 2013-10-28T10:19:00.00Z -10.61066 -79.961732 6.39 147.958
TN303 2013-10-28T10:20:00.00Z -10.613645 -79.960157 6.11 149.308
TN303 2013-10-28T10:21:00.00Z -10.616652 -79.95858 5.88 151.051
TN303 2013-10-28T10:21:59.00Z -10.619575 -79.956997 6.15 154.139
TN303 2013-10-28T10:23:00.00Z -10.622613 -79.955367 6.15 150.711
TN303 2013-10-28T10:24:00.00Z -10.62558 -79.953765 6.22 152.778
TN303 2013-10-28T10:25:00.00Z -10.628558 -79.952165 6.22 152.778
TN303 2013-10-28T10:25:59.00Z -10.631492 -79.95059 5.75 153.438
TN303 2013-10-28T10:27:00.00Z -10.634512 -79.94896 6.15 151.854
TN303 2013-10-28T10:28:00.00Z -10.637488 -79.947353 6.25 151.208
TN303 2013-10-28T10:28:59.00Z -10.640415 -79.945765 6.24 152.333
TN303 2013-10-28T10:30:00.00Z -10.64345 -79.944112 6.12 152.306
TN303 2013-10-28T10:31:00.00Z -10.646418 -79.942502 5.8 154.894
TN303 2013-10-28T10:31:59.00Z -10.649343 -79.94092 5.87 153.444
TN303 2013-10-28T10:32:59.00Z -10.65232 -79.939317 5.53 154.192
TN303 2013-10-28T10:34:00.00Z -10.655303 -79.937602 5.9 152.97
TN303 2013-10-28T10:34:59.00Z -10.658197 -79.935957 6.07 153.221
TN303 2013-10-28T10:36:00.00Z -10.661208 -79.934258 6.1 151.611
TN303 2013-10-28T10:37:00.00Z -10.664167 -79.932588 6.19 149.138
TN303 2013-10-28T10:38:00.00Z -10.667102 -79.930873 5.92 153.685
TN303 2013-10-28T10:38:59.00Z -10.669982 -79.929213 6.2 150.965
TN303 2013-10-28T10:39:59.00Z -10.67291 -79.927533 6.47 150.645
TN303 2013-10-28T10:40:59.00Z -10.675805 -79.92583 6.0 151.11
TN303 2013-10-28T10:42:00.00Z -10.678782 -79.924113 6.48 149.563
TN303 2013-10-28T10:42:59.00Z -10.68167 -79.922432 6.17 151.41
TN303 2013-10-28T10:44:00.00Z -10.684645 -79.920707 5.73 150.254
TN303 2013-10-28T10:44:59.00Z -10.687492 -79.91903 6.17 153.687
TN303 2013-10-28T10:46:00.00Z -10.690433 -79.917307 5.87 152.252
TN303 2013-10-28T10:46:59.00Z -10.693273 -79.915623 6.08 149.758
TN303 2013-10-28T10:47:59.00Z -10.696198 -79.913903 5.94 148.952
TN303 2013-10-28T10:49:00.00Z -10.699123 -79.912173 6.27 150.776
TN303 2013-10-28T10:50:00.00Z -10.702018 -79.910455 6.5 145.662
TN303 2013-10-28T10:50:59.00Z -10.704867 -79.90875 6.22 152.784
TN303 2013-10-28T10:52:00.00Z -10.707858 -79.907053 5.9 151.783
TN303 2013-10-28T10:52:59.00Z -10.710747 -79.905415 6.16 149.578
TN303 2013-10-28T10:53:59.00Z -10.713678 -79.903722 5.87 152.254
TN303 2013-10-28T10:55:00.00Z -10.716645 -79.902018 6.18 150.276
TN303 2013-10-28T10:56:00.00Z -10.719568 -79.900318 6.19 148.011
TN303 2013-10-28T10:57:00.00Z -10.72251 -79.898617 6.08 150.914
TN303 2013-10-28T10:58:00.00Z -10.72546 -79.8969 6.15 151.861
TN303 2013-10-28T10:59:00.00Z -10.728392 -79.895188 6.14 148.878
TN303 2013-10-28T11:00:00.00Z -10.731335 -79.893462 6.26 148.973
TN303 2013-10-28T11:01:00.00Z -10.734285 -79.891712 6.49 148.487
TN303 2013-10-28T11:02:00.00Z -10.73724 -79.889973 6.6 146.869
TN303 2013-10-28T11:03:00.00Z -10.74017 -79.888247 6.5 150.231
TN303 2013-10-28T11:04:00.00Z -10.7431 -79.886535 6.13 150.022
TN303 2013-10-28T11:05:00.00Z -10.746033 -79.884818 6.0 151.116
TN303 2013-10-28T11:06:00.00Z -10.748952 -79.883107 6.11 149.319
TN303 2013-10-28T11:07:00.00Z -10.751885 -79.881413 6.2 150.972
TN303 2013-10-28T11:07:59.00Z -10.754763 -79.879728 6.05 152.53
TN303 2013-10-28T11:09:00.00Z -10.757737 -79.877987 6.25 150.096
TN303 2013-10-28T11:09:59.00Z -10.760603 -79.876322 5.85 152.732
TN303 2013-10-28T11:11:00.00Z -10.763568 -79.874592 6.49 148.489
TN303 2013-10-28T11:11:59.00Z -10.766447 -79.87292 6.57 150.058
TN303 2013-10-28T11:12:59.00Z -10.769392 -79.871267 6.4 149.742
TN303 2013-10-28T11:14:00.00Z -10.772383 -79.869583 6.57 151.126
TN303 2013-10-28T11:14:59.00Z -10.77528 -79.867955 6.39 151.936
TN303 2013-10-28T11:16:00.00Z -10.778277 -79.86628 6.43 149.322
TN303 2013-10-28T11:16:59.00Z -10.781153 -79.864645 6.43 149.322
TN303 2013-10-28T11:18:00.00Z -10.78412 -79.86295 5.55 158.001
TN303 2013-10-28T11:19:00.00Z -10.786995 -79.861303 6.1 151.621
TN303 2013-10-28T11:19:59.00Z -10.789845 -79.859672 6.39 151.937
TN303 2013-10-28T11:20:59.00Z -10.792793 -79.85807 6.0 151.119
TN303 2013-10-28T11:22:00.00Z -10.795773 -79.856472 6.03 150.664
TN303 2013-10-28T11:23:00.00Z -10.798697 -79.85487 6.53 148.746
TN303 2013-10-28T11:23:59.00Z -10.801588 -79.853278 6.34 152.81
TN303 2013-10-28T11:25:00.00Z -10.804588 -79.851657 5.92 152.51
TN303 2013-10-28T11:26:00.00Z -10.807535 -79.85003 5.66 155.434
TN303 2013-10-28T11:27:00.00Z -10.810455 -79.848437 6.27 151.904
TN303 2013-10-28T11:27:59.00Z -10.813378 -79.846863 6.02 152.996
TN303 2013-10-28T11:29:00.00Z -10.816403 -79.845233 6.12 152.32
TN303 2013-10-28T11:30:00.00Z -10.819365 -79.843622 6.22 152.793
TN303 2013-10-28T11:30:59.00Z -10.822268 -79.842052 6.17 152.559
TN303 2013-10-28T11:32:00.00Z -10.825292 -79.840422 5.95 155.585
TN303 2013-10-28T11:33:00.00Z -10.828272 -79.838808 6.17 153.697
TN303 2013-10-28T11:33:59.00Z -10.831207 -79.837237 6.19 148.021
TN303 2013-10-28T11:35:00.00Z -10.834248 -79.835583 6.27 154.146
TN303 2013-10-28T11:36:00.00Z -10.837245 -79.833963 6.32 151.032
TN303 2013-10-28T11:37:00.00Z -10.840252 -79.832337 6.22 152.795
TN303 2013-10-28T11:37:59.00Z -10.843203 -79.830747 5.92 152.513
TN303 2013-10-28T11:39:00.00Z -10.84625 -79.829098 6.07 153.236
TN303 2013-10-28T11:39:59.00Z -10.849207 -79.827515 5.97 151.583
TN303 2013-10-28T11:40:59.00Z -10.852202 -79.825902 6.79 151.63
TN303 2013-10-28T11:42:00.00Z -10.85525 -79.824268 6.02 154.166
TN303 2013-10-28T11:43:00.00Z -10.858242 -79.822672 6.02 151.834
TN303 2013-10-28T11:43:59.00Z -10.861187 -79.821085 6.07 153.237
TN303 2013-10-28T11:45:00.00Z -10.864242 -79.819462 6.84 152.878
TN303 2013-10-28T11:45:59.00Z -10.867202 -79.817878 6.44 152.174
TN303 2013-10-28T11:47:00.00Z -10.870277 -79.816245 6.32 154.367
TN303 2013-10-28T11:48:00.00Z -10.873258 -79.814657 6.39 151.943
TN303 2013-10-28T11:48:59.00Z -10.87618 -79.813082 6.74 152.45
TN303 2013-10-28T11:50:00.00Z -10.879237 -79.811457 6.3 151.47
TN303 2013-10-28T11:51:00.00Z -10.882268 -79.809832 6.62 150.307
TN303 2013-10-28T11:52:00.00Z -10.885292 -79.808197 6.83 149.173
TN303 2013-10-28T11:53:00.00Z -10.888333 -79.806568 6.22 152.799
TN303 2013-10-28T11:54:00.00Z -10.891355 -79.804945 6.32 154.369
TN303 2013-10-28T11:54:59.00Z -10.894317 -79.803352 6.25 150.107
TN303 2013-10-28T11:56:00.00Z -10.897383 -79.801698 6.12 153.473
TN303 2013-10-28T11:57:00.00Z -10.9004 -79.800088 6.02 153.003
TN303 2013-10-28T11:58:00.00Z -10.903405 -79.79848 6.37 153.483
TN303 2013-10-28T11:59:00.00Z -10.906417 -79.796878 6.48 149.582
TN303 2013-10-28T12:00:00.00Z -10.909423 -79.795253 6.62 150.309
TN303 2013-10-28T12:01:00.00Z -10.912422 -79.79363 6.29 151.473
TN303 2013-10-28T12:02:00.00Z -10.915435 -79.792005 6.12 152.328
TN303 2013-10-28T12:03:00.00Z -10.918437 -79.790398 6.1 147.478
TN303 2013-10-28T12:04:00.00Z -10.921413 -79.7888 6.77 151.006
TN303 2013-10-28T12:05:00.00Z -10.924403 -79.787198 6.05 152.544
TN303 2013-10-28T12:05:59.00Z -10.927342 -79.785617 6.25 150.11
TN303 2013-10-28T12:06:59.00Z -10.930335 -79.78401 6.1 151.633
TN303 2013-10-28T12:08:00.00Z -10.933407 -79.782365 5.63 155.949
TN303 2013-10-28T12:08:59.00Z -10.93636 -79.780792 6.37 152.383
TN303 2013-10-28T12:09:59.00Z -10.939365 -79.779183 6.22 150.547
TN303 2013-10-28T12:10:59.00Z -10.942375 -79.777557 6.69 153.286
TN303 2013-10-28T12:12:00.00Z -10.945463 -79.775937 6.05 150.226
TN303 2013-10-28T12:12:59.00Z -10.94844 -79.774388 6.49 153.49
TN303 2013-10-28T12:13:59.00Z -10.951455 -79.772807 5.64 149.719
TN303 2013-10-28T12:15:00.00Z -10.954488 -79.771167 6.37 152.384
TN303 2013-10-28T12:16:00.00Z -10.957498 -79.769513 5.75 158.838
TN303 2013-10-28T12:17:00.00Z -10.960502 -79.767878 6.24 153.483
TN303 2013-10-28T12:18:00.00Z -10.963498 -79.766255 6.47 150.669
TN303 2013-10-28T12:18:59.00Z -10.966467 -79.764655 6.29 152.593
TN303 2013-10-28T12:19:59.00Z -10.969473 -79.763035 6.53 149.833
TN303 2013-10-28T12:21:00.00Z -10.972522 -79.761395 6.4 150.854
TN303 2013-10-28T12:22:00.00Z -10.975528 -79.75978 6.25 151.236
TN303 2013-10-28T12:22:59.00Z -10.978485 -79.758193 6.07 153.246
TN303 2013-10-28T12:24:00.00Z -10.981527 -79.756568 6.72 150.783
TN303 2013-10-28T12:25:00.00Z -10.984495 -79.754933 6.02 153.01
TN303 2013-10-28T12:25:59.00Z -10.987412 -79.753307 6.22 152.807
TN303 2013-10-28T12:26:59.00Z -10.990382 -79.751617 5.93 147.068
TN303 2013-10-28T12:28:00.00Z -10.993413 -79.749933 5.82 154.433
TN303 2013-10-28T12:28:59.00Z -10.996315 -79.748317 6.37 152.387
TN303 2013-10-28T12:30:00.00Z -10.999315 -79.746648 6.2 150.992
TN303 2013-10-28T12:30:59.00Z -11.002212 -79.74502 6.16 149.603
TN303 2013-10-28T12:31:59.00Z -11.005163 -79.743372 6.39 151.954
TN303 2013-10-28T12:33:00.00Z -11.00818 -79.741707 6.34 147.728
TN303 2013-10-28T12:34:00.00Z -11.01116 -79.740038 5.98 149.251
TN303 2013-10-28T12:35:00.00Z -11.014143 -79.738355 6.25 151.239
TN303 2013-10-28T12:36:00.00Z -11.017105 -79.736707 6.44 152.186
TN303 2013-10-28T12:37:00.00Z -11.020085 -79.735027 6.05 153.712
TN303 2013-10-28T12:37:59.00Z -11.023017 -79.733397 6.17 153.712
TN303 2013-10-28T12:39:00.00Z -11.026053 -79.731742 5.95 154.421
TN303 2013-10-28T12:40:00.00Z -11.029013 -79.73011 6.43 149.343
TN303 2013-10-28T12:41:00.00Z -11.031982 -79.728475 5.94 148.98
TN303 2013-10-28T12:41:59.00Z -11.0349 -79.726863 6.34 153.935
TN303 2013-10-28T12:42:59.00Z -11.037898 -79.725225 6.27 154.161
TN303 2013-10-28T12:43:59.00Z -11.040908 -79.723575 6.07 152.095
TN303 2013-10-28T12:44:59.00Z -11.043928 -79.721918 5.78 151.77
TN303 2013-10-28T12:46:00.00Z -11.046983 -79.720243 6.29 151.484
TN303 2013-10-28T12:46:59.00Z -11.049947 -79.718637 6.03 150.686
TN303 2013-10-28T12:47:59.00Z -11.052928 -79.717 6.38 149.092
TN303 2013-10-28T12:49:00.00Z -11.055963 -79.715353 6.14 153.03
TN303 2013-10-28T12:49:59.00Z -11.05889 -79.713753 6.24 152.366
TN303 2013-10-28T12:50:59.00Z -11.061865 -79.712127 6.35 150.619
TN303 2013-10-28T12:51:59.00Z -11.064833 -79.71049 6.07 154.409
TN303 2013-10-28T12:52:59.00Z -11.067805 -79.708877 6.55 150.498
TN303 2013-10-28T12:54:00.00Z -11.070855 -79.707207 5.83 150.825
TN303 2013-10-28T12:54:59.00Z -11.07381 -79.705582 6.49 148.516
TN303 2013-10-28T12:56:00.00Z -11.076865 -79.703933 6.0 151.143
TN303 2013-10-28T12:57:00.00Z -11.07986 -79.702277 6.07 150.944
TN303 2013-10-28T12:58:00.00Z -11.082883 -79.700637 6.32 153.273
TN303 2013-10-28T12:59:00.00Z -11.085887 -79.699027 6.34 151.726
TN303 2013-10-28T12:59:59.00Z -11.08882 -79.69746 6.39 151.961
TN303 2013-10-28T13:00:59.00Z -11.091822 -79.695853 6.12 154.635
TN303 2013-10-28T13:02:00.00Z -11.094888 -79.694247 6.39 151.962
TN303 2013-10-28T13:03:00.00Z -11.097883 -79.692672 6.56 154.36
TN303 2013-10-28T13:04:00.00Z -11.10091 -79.691067 6.37 153.498
TN303 2013-10-28T13:05:00.00Z -11.103948 -79.68946 5.8 154.928
TN303 2013-10-28T13:06:00.00Z -11.106977 -79.687873 6.22 152.816
TN303 2013-10-28T13:07:00.00Z -11.110008 -79.686285 5.87 152.286
TN303 2013-10-28T13:08:00.00Z -11.113025 -79.6847 6.29 151.49
TN303 2013-10-28T13:09:00.00Z -11.116045 -79.683122 5.85 153.96
TN303 2013-10-28T13:09:59.00Z -11.11902 -79.681573 6.44 154.373
TN303 2013-10-28T13:11:00.00Z -11.1221 -79.679972 6.4 149.772
TN303 2013-10-28T13:12:00.00Z -11.125095 -79.678382 5.97 152.78
TN303 2013-10-28T13:12:59.00Z -11.128073 -79.67682 6.0 151.147
TN303 2013-10-28T13:14:00.00Z -11.13116 -79.675217 6.27 151.93
TN303 2013-10-28T13:14:59.00Z -11.134142 -79.673672 6.07 153.259
TN303 2013-10-28T13:16:00.00Z -11.13723 -79.672065 6.27 154.169
TN303 2013-10-28T13:16:59.00Z -11.140213 -79.67052 6.39 151.965
TN303 2013-10-28T13:17:59.00Z -11.14324 -79.66895 6.62 151.388
TN303 2013-10-28T13:19:00.00Z -11.146328 -79.667365 6.0 151.149
TN303 2013-10-28T13:20:00.00Z -11.149318 -79.665802 6.35 150.626
TN303 2013-10-28T13:21:00.00Z -11.152332 -79.664237 6.34 151.731
TN303 2013-10-28T13:22:00.00Z -11.155345 -79.662675 6.59 153.936
TN303 2013-10-28T13:22:59.00Z -11.158325 -79.661138 5.81 157.345
TN303 2013-10-28T13:23:59.00Z -11.161338 -79.659572 6.1 155.104
TN303 2013-10-28T13:24:59.00Z -11.164372 -79.658003 6.22 153.949
TN303 2013-10-28T13:26:00.00Z -11.167458 -79.65642 5.77 154.21
TN303 2013-10-28T13:27:00.00Z -11.1704 -79.654738 5.92 152.539
TN303 2013-10-28T13:28:00.00Z -11.173332 -79.653005 6.62 147.566
TN303 2013-10-28T13:29:00.00Z -11.17628 -79.65126 6.19 148.052
TN303 2013-10-28T13:30:00.00Z -11.17923 -79.649542 6.2 149.877
TN303 2013-10-28T13:30:59.00Z -11.182138 -79.64784 6.27 154.173
TN303 2013-10-28T13:32:00.00Z -11.185162 -79.646077 6.37 150.201
TN303 2013-10-28T13:32:59.00Z -11.188072 -79.64436 6.1 150.504
TN303 2013-10-28T13:34:00.00Z -11.19109 -79.642592 6.03 150.698
TN303 2013-10-28T13:35:00.00Z -11.194028 -79.640883 6.51 152.003
TN303 2013-10-28T13:35:59.00Z -11.196943 -79.63918 6.0 151.153
TN303 2013-10-28T13:37:00.00Z -11.199925 -79.637423 6.13 147.073
TN303 2013-10-28T13:37:59.00Z -11.202812 -79.635725 6.14 151.9
TN303 2013-10-28T13:39:00.00Z -11.205803 -79.633987 6.62 150.334
TN303 2013-10-28T13:40:00.00Z -11.208737 -79.632275 6.3 147.478
TN303 2013-10-28T13:41:00.00Z -11.211683 -79.630578 6.52 149.854
TN303 2013-10-28T13:41:59.00Z -11.214602 -79.628895 6.28 146.787
TN303 2013-10-28T13:42:59.00Z -11.217535 -79.627177 6.17 151.454
TN303 2013-10-28T13:43:59.00Z -11.220475 -79.625448 6.52 149.855
TN303 2013-10-28T13:45:00.00Z -11.223483 -79.623672 6.03 150.7
TN303 2013-10-28T13:45:59.00Z -11.226403 -79.621982 6.15 150.761
TN303 2013-10-28T13:47:00.00Z -11.22941 -79.620233 5.9 150.638
TN303 2013-10-28T13:48:00.00Z -11.232327 -79.618517 6.21 148.754
TN303 2013-10-28T13:49:00.00Z -11.23526 -79.616802 6.4 149.782
TN303 2013-10-28T13:50:00.00Z -11.23819 -79.615047 6.39 148.013
TN303 2013-10-28T13:51:00.00Z -11.241103 -79.613302 6.26 149.017
TN303 2013-10-28T13:51:59.00Z -11.244 -79.611602 6.29 151.501
TN303 2013-10-28T13:53:00.00Z -11.247005 -79.609838 5.82 152.044
TN303 2013-10-28T13:54:00.00Z -11.249965 -79.608093 6.36 148.432
TN303 2013-10-28T13:55:00.00Z -11.252907 -79.606357 6.74 146.005
TN303 2013-10-28T13:56:00.00Z -11.255858 -79.604613 6.65 149.93
TN303 2013-10-28T13:57:00.00Z -11.258818 -79.602862 6.24 151.26
TN303 2013-10-28T13:57:59.00Z -11.261697 -79.601162 6.01 148.826
TN303 2013-10-28T13:58:59.00Z -11.264628 -79.59943 6.47 150.695
TN303 2013-10-28T14:00:00.00Z -11.26763 -79.597677 6.54 147.718
TN303 2013-10-28T14:00:59.00Z -11.27052 -79.595965 6.04 148.384
TN303 2013-10-28T14:02:00.00Z -11.273508 -79.594185 5.92 151.364
TN303 2013-10-28T14:03:00.00Z -11.276453 -79.59245 6.35 150.637
TN303 2013-10-28T14:03:59.00Z -11.279413 -79.590785 6.57 147.317
TN303 2013-10-28T14:05:00.00Z -11.28244 -79.589038 6.13 150.068
TN303 2013-10-28T14:06:00.00Z -11.285422 -79.587342 6.64 150.987
TN303 2013-10-28T14:07:00.00Z -11.288425 -79.585637 6.39 151.978
TN303 2013-10-28T14:07:59.00Z -11.291375 -79.583983 6.46 148.949
TN303 2013-10-28T14:09:00.00Z -11.294415 -79.582268 6.37 147.339
TN303 2013-10-28T14:10:00.00Z -11.297395 -79.580553 6.02 154.2
TN303 2013-10-28T14:11:00.00Z -11.300382 -79.578872 6.45 150.035
TN303 2013-10-28T14:12:00.00Z -11.303388 -79.577217 6.07 153.272
TN303 2013-10-28T14:13:00.00Z -11.306352 -79.575563 6.08 149.81
TN303 2013-10-28T14:14:00.00Z -11.309325 -79.573878 6.02 154.201
TN303 2013-10-28T14:15:00.00Z -11.312277 -79.572232 6.3 149.282
TN303 2013-10-28T14:15:59.00Z -11.315202 -79.570595 6.61 151.403
TN303 2013-10-28T14:17:00.00Z -11.31823 -79.568888 5.92 154.92
TN303 2013-10-28T14:18:00.00Z -11.32121 -79.567217 6.2 151.019
TN303 2013-10-28T14:19:00.00Z -11.32418 -79.565555 5.75 153.492
TN303 2013-10-28T14:20:00.00Z -11.327123 -79.56391 6.19 148.065
TN303 2013-10-28T14:21:00.00Z -11.33004 -79.562272 6.18 149.195
TN303 2013-10-28T14:22:00.00Z -11.332965 -79.560615 6.02 153.038
TN303 2013-10-28T14:22:59.00Z -11.335828 -79.558982 6.22 151.707
TN303 2013-10-28T14:24:00.00Z -11.338795 -79.557307 6.71 148.087
TN303 2013-10-28T14:25:00.00Z -11.341727 -79.55562 5.7 154.476
TN303 2013-10-28T14:26:00.00Z -11.344637 -79.553962 6.1 150.518
TN303 2013-10-28T14:27:00.00Z -11.34759 -79.552287 5.87 152.305
TN303 2013-10-28T14:28:00.00Z -11.350525 -79.550627 6.54 150.523
TN303 2013-10-28T14:28:59.00Z -11.353418 -79.549 6.3 150.397
TN303 2013-10-28T14:30:00.00Z -11.356418 -79.547307 6.14 154.195
TN303 2013-10-28T14:31:00.00Z -11.35937 -79.545637 6.43 149.372
TN303 2013-10-28T14:32:00.00Z -11.362328 -79.543963 6.1 151.669
TN303 2013-10-28T14:32:59.00Z -11.365208 -79.54232 6.47 150.704
TN303 2013-10-28T14:33:59.00Z -11.368182 -79.54065 6.37 150.217
TN303 2013-10-28T14:35:00.00Z -11.371187 -79.538957 6.35 150.645
TN303 2013-10-28T14:35:59.00Z -11.37408 -79.537302 5.82 152.055
TN303 2013-10-28T14:37:00.00Z -11.3771 -79.535597 6.09 148.666
TN303 2013-10-28T14:38:00.00Z -11.380057 -79.533923 6.48 149.623
TN303 2013-10-28T14:38:59.00Z -11.382955 -79.53226 6.13 148.936
TN303 2013-10-28T14:40:00.00Z -11.385948 -79.530525 6.37 150.219
TN303 2013-10-28T14:40:59.00Z -11.38888 -79.528885 6.34 152.857
TN303 2013-10-28T14:41:59.00Z -11.39185 -79.527207 6.2 151.025
TN303 2013-10-28T14:42:59.00Z -11.39481 -79.525523 6.33 148.865
TN303 2013-10-28T14:43:59.00Z -11.39778 -79.523817 6.07 153.28
TN303 2013-10-28T14:45:00.00Z -11.400812 -79.522118 6.37 151.32
TN303 2013-10-28T14:46:00.00Z -11.403755 -79.520455 5.97 152.803
TN303 2013-10-28T14:46:59.00Z -11.406657 -79.51882 6.57 150.113
TN303 2013-10-28T14:47:59.00Z -11.409625 -79.517128 6.02 153.044
TN303 2013-10-28T14:48:59.00Z -11.41258 -79.51544 5.96 149.738
TN303 2013-10-28T14:50:00.00Z -11.415593 -79.513728 6.03 149.556
TN303 2013-10-28T14:51:00.00Z -11.418573 -79.512073 6.23 149.464
TN303 2013-10-28T14:51:59.00Z -11.421488 -79.510417 6.5 150.289
TN303 2013-10-28T14:52:59.00Z -11.424452 -79.508732 6.1 150.525
TN303 2013-10-28T14:54:00.00Z -11.427485 -79.507057 6.48 148.548
TN303 2013-10-28T14:55:00.00Z -11.430465 -79.505372 6.64 150.999
TN303 2013-10-28T14:55:59.00Z -11.433412 -79.503708 6.2 151.029
TN303 2013-10-28T14:56:59.00Z -11.436407 -79.502015 6.89 147.427
TN303 2013-10-28T14:58:00.00Z -11.439427 -79.500303 6.32 151.082
TN303 2013-10-28T14:59:00.00Z -11.442377 -79.498618 6.24 152.398
TN303 2013-10-28T14:59:59.00Z -11.445287 -79.496988 6.09 152.826
TN303 2013-10-28T15:01:00.00Z -11.448295 -79.495308 6.6 149.706
TN303 2013-10-28T15:02:00.00Z -11.451242 -79.493627 6.43 149.38
TN303 2013-10-28T15:02:59.00Z -11.454168 -79.491967 6.19 148.077
TN303 2013-10-28T15:04:00.00Z -11.457198 -79.490267 6.29 151.519
TN303 2013-10-28T15:05:00.00Z -11.460148 -79.488603 6.17 150.34
TN303 2013-10-28T15:05:59.00Z -11.463075 -79.486965 6.39 151.992
TN303 2013-10-28T15:07:00.00Z -11.466075 -79.485285 6.72 147.06
TN303 2013-10-28T15:08:00.00Z -11.469033 -79.483622 6.4 149.802
TN303 2013-10-28T15:09:00.00Z -11.471982 -79.481965 6.2 151.032
TN303 2013-10-28T15:10:00.00Z -11.474952 -79.480305 5.85 153.988
TN303 2013-10-28T15:11:00.00Z -11.47792 -79.47865 6.43 149.383
TN303 2013-10-28T15:11:59.00Z -11.48086 -79.477013 6.04 152.589
TN303 2013-10-28T15:13:00.00Z -11.483887 -79.47532 6.71 150.826
TN303 2013-10-28T15:14:00.00Z -11.486842 -79.47368 5.97 151.636
TN303 2013-10-28T15:15:00.00Z -11.489777 -79.472018 5.77 153.021
TN303 2013-10-28T15:15:59.00Z -11.492662 -79.470428 5.99 152.347
TN303 2013-10-28T15:16:59.00Z -11.495608 -79.46879 6.17 153.75
TN303 2013-10-28T15:17:59.00Z -11.498565 -79.46719 6.43 146.539
TN303 2013-10-28T15:18:59.00Z -11.501508 -79.465525 6.2 149.905
TN303 2013-10-28T15:20:00.00Z -11.504468 -79.463803 5.92 151.384
TN303 2013-10-28T15:21:00.00Z -11.507383 -79.462133 6.55 146.675
TN303 2013-10-28T15:21:59.00Z -11.510237 -79.460465 5.95 149.747
TN303 2013-10-28T15:23:00.00Z -11.513187 -79.458728 6.33 148.876
TN303 2013-10-28T15:24:00.00Z -11.516093 -79.457007 6.29 145.708
TN303 2013-10-28T15:24:59.00Z -11.518953 -79.455327 6.28 148.616
TN303 2013-10-28T15:25:59.00Z -11.521878 -79.453602 6.3 150.412
TN303 2013-10-28T15:27:00.00Z -11.524855 -79.451873 5.48 155.287
TN303 2013-10-28T15:27:59.00Z -11.527702 -79.450238 6.45 148.97
TN303 2013-10-28T15:28:59.00Z -11.530607 -79.44857 6.05 151.434
TN303 2013-10-28T15:30:00.00Z -11.533578 -79.446842 5.74 149.106
TN303 2013-10-28T15:30:59.00Z -11.53643 -79.445177 6.63 146.547
TN303 2013-10-28T15:31:59.00Z -11.53932 -79.443442 6.28 148.618
TN303 2013-10-28T15:33:00.00Z -11.542272 -79.441687 5.93 150.205
TN303 2013-10-28T15:33:59.00Z -11.545122 -79.439992 6.3 149.303
TN303 2013-10-28T15:35:00.00Z -11.548058 -79.438248 6.32 151.092
TN303 2013-10-28T15:36:00.00Z -11.550967 -79.436505 6.13 150.092
TN303 2013-10-28T15:37:00.00Z -11.553872 -79.434762 6.05 147.255
TN303 2013-10-28T15:37:59.00Z -11.556752 -79.433035 5.81 148.927
TN303 2013-10-28T15:38:59.00Z -11.559655 -79.431305 6.44 152.232
TN303 2013-10-28T15:39:59.00Z -11.562595 -79.429587 6.12 152.381
TN303 2013-10-28T15:41:00.00Z -11.565552 -79.427827 5.88 149.94
TN303 2013-10-28T15:41:59.00Z -11.568408 -79.426113 6.76 151.061
TN303 2013-10-28T15:43:00.00Z -11.571398 -79.424367 5.88 149.94
TN303 2013-10-28T15:44:00.00Z -11.574322 -79.422638 6.13 150.094
TN303 2013-10-28T15:44:59.00Z -11.577182 -79.420957 6.11 149.392
TN303 2013-10-28T15:45:59.00Z -11.580113 -79.419227 6.19 148.088
TN303 2013-10-28T15:47:00.00Z -11.58311 -79.417477 6.49 151.382
TN303 2013-10-28T15:48:00.00Z -11.586068 -79.415747 6.0 150.02
TN303 2013-10-28T15:48:59.00Z -11.588963 -79.414025 6.23 149.479
TN303 2013-10-28T15:50:00.00Z -11.591962 -79.412238 6.24 148.358
TN303 2013-10-28T15:50:59.00Z -11.594857 -79.410518 6.32 151.096
TN303 2013-10-28T15:52:00.00Z -11.5979 -79.408828 6.08 149.836
TN303 2013-10-28T15:52:59.00Z -11.60083 -79.407177 6.2 149.914
TN303 2013-10-28T15:54:00.00Z -11.60386 -79.40547 6.49 151.383
TN303 2013-10-28T15:55:00.00Z -11.606835 -79.403762 6.4 149.815
TN303 2013-10-28T15:56:00.00Z -11.60982 -79.402088 6.04 152.6
TN303 2013-10-28T15:57:00.00Z -11.612785 -79.400417 6.33 148.885
TN303 2013-10-28T15:57:59.00Z -11.615705 -79.398775 6.48 148.566
TN303 2013-10-28T15:59:00.00Z -11.618725 -79.397087 6.56 151.198
TN303 2013-10-28T16:00:00.00Z -11.621703 -79.395413 6.27 154.208
TN303 2013-10-28T16:01:00.00Z -11.624658 -79.39375 6.43 149.396
TN303 2013-10-28T16:01:59.00Z -11.627565 -79.392102 6.25 150.171
TN303 2013-10-28T16:03:00.00Z -11.630572 -79.390398 6.13 150.099
TN303 2013-10-28T16:03:59.00Z -11.633487 -79.388742 5.8 152.553
TN303 2013-10-28T16:05:00.00Z -11.63649 -79.387025 6.15 150.797
TN303 2013-10-28T16:05:59.00Z -11.63939 -79.385363 6.27 154.209
TN303 2013-10-28T16:07:00.00Z -11.642412 -79.383657 5.92 153.762
TN303 2013-10-28T16:08:00.00Z -11.645352 -79.381995 6.47 149.647
TN303 2013-10-28T16:09:00.00Z -11.648312 -79.380288 6.05 151.445
TN303 2013-10-28T16:09:59.00Z -11.651228 -79.378632 6.58 149.071
TN303 2013-10-28T16:10:59.00Z -11.65424 -79.376957 6.39 152.009
TN303 2013-10-28T16:12:00.00Z -11.657273 -79.375247 6.43 148.313
TN303 2013-10-28T16:13:00.00Z -11.660242 -79.373577 6.07 150.994
TN303 2013-10-28T16:13:59.00Z -11.663185 -79.371938 6.34 152.88
TN303 2013-10-28T16:15:00.00Z -11.666213 -79.370245 6.44 153.329
TN303 2013-10-28T16:15:59.00Z -11.669118 -79.368623 6.34 152.88
TN303 2013-10-28T16:16:59.00Z -11.672075 -79.366987 6.29 151.538
TN303 2013-10-28T16:18:00.00Z -11.675075 -79.365298 6.34 152.881
TN303 2013-10-28T16:19:00.00Z -11.678038 -79.363668 6.12 152.391
TN303 2013-10-28T16:19:59.00Z -11.680957 -79.362058 6.29 152.652
TN303 2013-10-28T16:20:59.00Z -11.683943 -79.360443 6.19 152.182
TN303 2013-10-28T16:22:00.00Z -11.687005 -79.358825 6.13 148.963
TN303 2013-10-28T16:23:00.00Z -11.689963 -79.35722 6.17 151.495
TN303 2013-10-28T16:24:00.00Z -11.692922 -79.355612 6.07 153.305
TN303 2013-10-28T16:25:00.00Z -11.695895 -79.35402 6.47 150.733
TN303 2013-10-28T16:26:00.00Z -11.698845 -79.35242 6.02 153.069
TN303 2013-10-28T16:26:59.00Z -11.70175 -79.350855 6.37 150.247
TN303 2013-10-28T16:27:59.00Z -11.70471 -79.349255 6.42 154.859
TN303 2013-10-28T16:28:59.00Z -11.707653 -79.347668 6.19 152.184
TN303 2013-10-28T16:29:59.00Z -11.710617 -79.346073 6.09 152.848
TN303 2013-10-28T16:30:59.00Z -11.71354 -79.344407 6.34 150.676
TN303 2013-10-28T16:31:59.00Z -11.716492 -79.342762 6.4 149.825
TN303 2013-10-28T16:33:00.00Z -11.719503 -79.341078 6.67 149.566
TN303 2013-10-28T16:34:00.00Z -11.722437 -79.339397 6.27 151.98
TN303 2013-10-28T16:34:59.00Z -11.725382 -79.337765 6.12 152.395
TN303 2013-10-28T16:36:00.00Z -11.728403 -79.336075 6.34 152.885
TN303 2013-10-28T16:37:00.00Z -11.731388 -79.334412 6.09 154.0
TN303 2013-10-28T16:38:00.00Z -11.73435 -79.332732 6.17 151.498
TN303 2013-10-28T16:38:59.00Z -11.737265 -79.33105 6.57 150.143
TN303 2013-10-28T16:40:00.00Z -11.740303 -79.329327 6.81 147.591
TN303 2013-10-28T16:41:00.00Z -11.743315 -79.327632 6.59 151.856
TN303 2013-10-28T16:42:00.00Z -11.746295 -79.325928 6.46 151.82
TN303 2013-10-28T16:43:00.00Z -11.749278 -79.324232 6.35 149.577
TN303 2013-10-28T16:43:59.00Z -11.752218 -79.322553 6.24 152.425
TN303 2013-10-28T16:44:59.00Z -11.75522 -79.320828 6.32 151.11
TN303 2013-10-28T16:45:59.00Z -11.758233 -79.319095 6.76 151.078
TN303 2013-10-28T16:46:59.00Z -11.761255 -79.317375 6.47 150.739
TN303 2013-10-28T16:48:00.00Z -11.764328 -79.315615 5.8 153.772
TN303 2013-10-28T16:49:00.00Z -11.767338 -79.31391 6.24 152.426
TN303 2013-10-28T16:50:00.00Z -11.77038 -79.312213 5.77 153.045
TN303 2013-10-28T16:51:00.00Z -11.773383 -79.310495 5.97 150.489
TN303 2013-10-28T16:51:59.00Z -11.776315 -79.308808 6.14 151.949
TN303 2013-10-28T16:53:00.00Z -11.779365 -79.30708 6.43 149.41
TN303 2013-10-28T16:54:00.00Z -11.782353 -79.305353 6.19 152.19
TN303 2013-10-28T16:54:59.00Z -11.78529 -79.303683 6.14 151.95
TN303 2013-10-28T16:55:59.00Z -11.788283 -79.301988 6.27 154.221
TN303 2013-10-28T16:56:59.00Z -11.79127 -79.300275 6.04 148.432
TN303 2013-10-28T16:57:59.00Z -11.794242 -79.298547 6.39 148.065
TN303 2013-10-28T16:58:59.00Z -11.797205 -79.296808 6.47 150.742
TN303 2013-10-28T17:00:00.00Z -11.800223 -79.295038 6.32 151.114
TN303 2013-10-28T17:01:00.00Z -11.803193 -79.293283 6.29 151.549
TN303 2013-10-28T17:01:59.00Z -11.80613 -79.291585 6.52 149.907
TN303 2013-10-28T17:02:59.00Z -11.809107 -79.2898 6.27 149.756
TN303 2013-10-28T17:03:59.00Z -11.812083 -79.288032 6.49 150.324
TN303 2013-10-28T17:04:59.00Z -11.815043 -79.286277 6.54 147.769
TN303 2013-10-28T17:05:59.00Z -11.818022 -79.28452 6.37 150.258
TN303 2013-10-28T17:06:59.00Z -11.82098 -79.28278 6.25 147.262
TN303 2013-10-28T17:08:00.00Z -11.823973 -79.28098 6.52 149.909
TN303 2013-10-28T17:09:00.00Z -11.82694 -79.279217 6.54 147.77
TN303 2013-10-28T17:09:59.00Z -11.82986 -79.277452 6.63 148.28
TN303 2013-10-28T17:11:00.00Z -11.83286 -79.275647 6.34 150.686
TN303 2013-10-28T17:12:00.00Z -11.83583 -79.273867 6.68 148.53
TN303 2013-10-28T17:12:59.00Z -11.838767 -79.272148 6.29 152.665
TN303 2013-10-28T17:14:00.00Z -11.841783 -79.270372 6.42 149.416
TN303 2013-10-28T17:14:59.00Z -11.844702 -79.268663 6.5 146.44
TN303 2013-10-28T17:15:59.00Z -11.84766 -79.2669 6.27 149.759
TN303 2013-10-28T17:16:59.00Z -11.850603 -79.26513 6.0 150.044
TN303 2013-10-28T17:18:00.00Z -11.853595 -79.263352 6.15 150.817
TN303 2013-10-28T17:18:59.00Z -11.856483 -79.261613 6.37 150.261
TN303 2013-10-28T17:20:00.00Z -11.85946 -79.259832 5.93 150.234
TN303 2013-10-28T17:21:00.00Z -11.862372 -79.258077 6.29 151.554
TN303 2013-10-28T17:22:00.00Z -11.8653 -79.25632 6.34 150.689
TN303 2013-10-28T17:22:59.00Z -11.868187 -79.254603 6.38 146.301
TN303 2013-10-28T17:23:59.00Z -11.871112 -79.252848 6.22 147.69
TN303 2013-10-28T17:24:59.00Z -11.874033 -79.251107 6.2 149.939
TN303 2013-10-28T17:25:59.00Z -11.876953 -79.249342 6.12 151.264
TN303 2013-10-28T17:26:59.00Z -11.879875 -79.247565 5.9 150.695
TN303 2013-10-28T17:27:59.00Z -11.882807 -79.245785 6.42 147.66
TN303 2013-10-28T17:29:00.00Z -11.885785 -79.243982 6.54 147.776
TN303 2013-10-28T17:30:00.00Z -11.888725 -79.2422 5.95 149.781
TN303 2013-10-28T17:31:00.00Z -11.891653 -79.240438 6.38 149.168
TN303 2013-10-28T17:32:00.00Z -11.894593 -79.23868 6.23 149.507
TN303 2013-10-28T17:32:59.00Z -11.8975 -79.236953 5.95 149.782
TN303 2013-10-28T17:34:00.00Z -11.9005 -79.23517 6.01 148.885
TN303 2013-10-28T17:35:00.00Z -11.903443 -79.233427 6.56 151.223
TN303 2013-10-28T17:36:00.00Z -11.906395 -79.231685 6.25 150.196
TN303 2013-10-28T17:37:00.00Z -11.909348 -79.229965 6.29 151.559
TN303 2013-10-28T17:38:00.00Z -11.91228 -79.228227 5.97 152.846
TN303 2013-10-28T17:39:00.00Z -11.915193 -79.226463 6.27 150.88
TN303 2013-10-28T17:39:59.00Z -11.918062 -79.224748 6.18 149.249
TN303 2013-10-28T17:40:59.00Z -11.921 -79.223003 6.28 146.854
TN303 2013-10-28T17:41:59.00Z -11.924025 -79.221448 6.17 156.054
TN303 2013-10-28T17:43:00.00Z -11.927153 -79.219948 6.51 155.29
TN303 2013-10-28T17:43:59.00Z -11.93017 -79.218463 6.44 154.439
TN303 2013-10-28T17:45:00.00Z -11.933287 -79.216942 6.17 153.787
TN303 2013-10-28T17:45:59.00Z -11.936292 -79.215492 5.99 157.532
TN303 2013-10-28T17:47:00.00Z -11.939377 -79.213985 6.49 153.571
TN303 2013-10-28T17:47:59.00Z -11.942362 -79.212495 6.12 154.703
TN303 2013-10-28T17:48:59.00Z -11.945517 -79.21124 6.41 161.675
TN303 2013-10-28T17:49:59.00Z -11.948853 -79.210528 6.37 172.132
TN303 2013-10-28T17:51:00.00Z -11.952223 -79.209785 6.08 161.179
TN303 2013-10-28T17:52:00.00Z -11.955298 -79.208432 6.07 152.173
TN303 2013-10-28T17:52:59.00Z -11.958043 -79.206915 5.57 152.031
TN303 2013-10-28T17:54:00.00Z -11.960633 -79.205492 5.21 150.562
TN303 2013-10-28T17:54:59.00Z -11.963073 -79.204173 4.96 151.812
TN303 2013-10-28T17:55:59.00Z -11.965275 -79.202918 4.7 147.829
TN303 2013-10-28T17:57:00.00Z -11.967315 -79.201742 3.95 152.016
TN303 2013-10-28T17:58:00.00Z -11.969027 -79.200762 3.51 150.194
TN303 2013-10-28T17:58:59.00Z -11.970412 -79.199988 2.67 148.021
TN303 2013-10-28T18:00:00.00Z -11.971648 -79.199287 2.52 151.564
TN303 2013-10-28T18:01:00.00Z -11.972782 -79.198672 2.34 153.79
TN303 2013-10-28T18:02:00.00Z -11.97384 -79.198075 2.25 155.66
TN303 2013-10-28T18:02:59.00Z -11.974862 -79.197515 2.17 153.145
TN303 2013-10-28T18:03:59.00Z -11.97572 -79.19699 1.76 148.205
TN303 2013-10-28T18:05:00.00Z -11.976292 -79.196578 0.74 153.791
TN303 2013-10-28T18:05:59.00Z -11.976632 -79.196342 0.67 155.891
TN303 2013-10-28T18:07:00.00Z -11.976868 -79.196183 0.55 143.558
TN303 2013-10-28T18:07:59.00Z -11.977078 -79.19602 0.52 161.831
TN303 2013-10-28T18:08:59.00Z -11.977388 -79.19568 1.08 120.857
TN303 2013-10-28T18:09:59.00Z -11.977892 -79.195105 1.69 126.178
TN303 2013-10-28T18:10:59.00Z -11.978685 -79.19452 1.78 158.505
TN303 2013-10-28T18:11:59.00Z -11.979788 -79.194037 2.67 155.891
TN303 2013-10-28T18:12:59.00Z -11.981183 -79.193388 2.92 158.107
TN303 2013-10-28T18:13:59.00Z -11.98274 -79.192658 3.09 161.512
TN303 2013-10-28T18:14:59.00Z -11.984277 -79.191878 3.11 152.89
TN303 2013-10-28T18:16:00.00Z -11.985813 -79.190995 3.31 150.404
TN303 2013-10-28T18:17:00.00Z -11.987338 -79.190143 3.53 149.43
TN303 2013-10-28T18:17:59.00Z -11.988888 -79.189265 3.26 152.071
TN303 2013-10-28T18:19:00.00Z -11.990652 -79.188272 3.31 156.752
TN303 2013-10-28T18:20:00.00Z -11.992425 -79.18728 3.75 152.298
TN303 2013-10-28T18:21:00.00Z -11.99416 -79.186338 3.87 152.346
TN303 2013-10-28T18:21:59.00Z -11.99579 -79.185352 3.58 143.56
TN303 2013-10-28T18:22:59.00Z -11.997178 -79.184545 2.52 151.566
TN303 2013-10-28T18:23:59.00Z -11.998195 -79.18396 1.75 152.193
TN303 2013-10-28T18:25:00.00Z -11.998935 -79.18354 1.51 147.298
TN303 2013-10-28T18:25:59.00Z -11.99949 -79.183237 1.17 160.988
TN303 2013-10-28T18:26:59.00Z -12.000023 -79.182987 1.09 165.476
TN303 2013-10-28T18:27:59.00Z -12.000655 -79.18299 1.3 192.08
TN303 2013-10-28T18:28:59.00Z -12.001255 -79.183467 1.57 233.101
TN303 2013-10-28T18:30:00.00Z -12.00161 -79.184308 1.57 249.383
TN303 2013-10-28T18:31:00.00Z -12.001697 -79.185335 2.29 272.769
TN303 2013-10-28T18:32:00.00Z -12.001628 -79.186578 2.47 284.249
TN303 2013-10-28T18:33:00.00Z -12.001695 -79.187815 2.34 270.0
TN303 2013-10-28T18:33:59.00Z -12.001822 -79.189005 2.1 260.888
TN303 2013-10-28T18:35:00.00Z -12.001857 -79.190252 2.23 270.0
TN303 2013-10-28T18:35:59.00Z -12.001807 -79.191472 2.34 270.0
TN303 2013-10-28T18:36:59.00Z -12.00211 -79.19271 2.55 253.646
TN303 2013-10-28T18:37:59.00Z -12.002768 -79.193765 2.41 226.399
TN303 2013-10-28T18:39:00.00Z -12.0037 -79.194432 2.22 209.359
TN303 2013-10-28T18:40:00.00Z -12.004582 -79.19486 1.54 200.738
TN303 2013-10-28T18:41:00.00Z -12.005167 -79.19495 0.73 171.388
TN303 2013-10-28T18:41:59.00Z -12.005485 -79.194965 0.56 191.138
TN303 2013-10-28T18:42:59.00Z -12.005685 -79.195022 0.44 180.0
TN303 2013-10-28T18:43:59.00Z -12.005797 -79.195107 0.08 224.55
TN303 2013-10-28T18:44:59.00Z -12.005835 -79.195188 0.0 0.0
TN303 2013-10-28T18:46:00.00Z -12.00579 -79.195213 0.22 180.0
TN303 2013-10-28T18:47:00.00Z -12.005695 -79.195212 0.17 0.0
TN303 2013-10-28T18:48:00.00Z -12.005625 -79.195212 0.4 73.816
TN303 2013-10-28T18:48:59.00Z -12.005642 -79.195193 0.08 135.45
TN303 2013-10-28T18:50:00.00Z -12.0057 -79.195168 0.27 270.0
TN303 2013-10-28T18:51:00.00Z -12.005722 -79.19517 0.11 0.0
TN303 2013-10-28T18:51:59.00Z -12.005702 -79.195182 0.05 270.0
TN303 2013-10-28T18:53:00.00Z -12.005675 -79.195197 0.16 270.0
TN303 2013-10-28T18:53:59.00Z -12.005682 -79.195193 0.11 0.0
TN303 2013-10-28T18:55:00.00Z -12.005708 -79.195178 0.16 90.0
TN303 2013-10-28T18:55:59.00Z -12.005715 -79.195177 0.12 333.793
TN303 2013-10-28T18:56:59.00Z -12.005705 -79.195188 0.24 296.927
TN303 2013-10-28T18:58:00.00Z -12.0057 -79.1952 0.28 0.0
TN303 2013-10-28T18:59:00.00Z -12.005697 -79.19519 0.32 210.568
TN303 2013-10-28T18:59:59.00Z -12.00571 -79.195182 0.22 90.0
TN303 2013-10-28T19:00:59.00Z -12.005712 -79.195177 0.05 270.0
TN303 2013-10-28T19:02:00.00Z -12.005707 -79.195178 0.12 243.073
TN303 2013-10-28T19:03:00.00Z -12.005697 -79.195178 0.22 270.0
TN303 2013-10-28T19:04:00.00Z -12.005685 -79.195183 0.22 180.0
TN303 2013-10-28T19:05:00.00Z -12.005698 -79.19519 0.28 143.561
TN303 2013-10-28T19:05:59.00Z -12.00571 -79.195185 0.16 90.0
TN303 2013-10-28T19:07:00.00Z -12.005717 -79.195185 0.28 36.439
TN303 2013-10-28T19:08:00.00Z -12.005713 -79.19519 0.33 90.0
TN303 2013-10-28T19:09:00.00Z -12.005702 -79.19519 0.11 0.0
TN303 2013-10-28T19:10:00.00Z -12.005705 -79.195183 0.22 270.0
TN303 2013-10-28T19:10:59.00Z -12.005712 -79.195185 0.11 0.0
TN303 2013-10-28T19:12:00.00Z -12.005717 -79.195185 0.0 0.0
TN303 2013-10-28T19:12:59.00Z -12.005717 -79.195188 0.12 243.073
TN303 2013-10-28T19:13:59.00Z -12.00571 -79.19519 0.0 0.0
TN303 2013-10-28T19:14:59.00Z -12.005708 -79.195187 0.2 235.894
TN303 2013-10-28T19:16:00.00Z -12.005713 -79.195188 0.17 71.294
TN303 2013-10-28T19:16:59.00Z -12.005713 -79.195188 0.17 71.294
TN303 2013-10-28T19:18:00.00Z -12.005717 -79.195193 0.29 67.887
TN303 2013-10-28T19:18:59.00Z -12.005718 -79.19519 0.16 224.55
TN303 2013-10-28T19:20:00.00Z -12.005713 -79.195193 0.11 0.0
TN303 2013-10-28T19:21:00.00Z -12.005705 -79.195195 0.2 213.276
TN303 2013-10-28T19:22:00.00Z -12.005705 -79.195188 0.33 90.0
TN303 2013-10-28T19:22:59.00Z -12.005708 -79.195178 0.24 243.073
TN303 2013-10-28T19:24:00.00Z -12.005713 -79.195187 0.32 58.638
TN303 2013-10-28T19:24:59.00Z -12.005707 -79.195185 0.25 26.207
TN303 2013-10-28T19:25:59.00Z -12.005698 -79.19518 0.17 288.706
TN303 2013-10-28T19:27:00.00Z -12.005695 -79.195173 0.11 270.0
TN303 2013-10-28T19:27:59.00Z -12.00571 -79.195177 0.05 270.0
TN303 2013-10-28T19:29:00.00Z -12.005712 -79.195185 0.31 44.55
TN303 2013-10-28T19:30:00.00Z -12.005712 -79.195188 0.44 270.0
TN303 2013-10-28T19:30:59.00Z -12.005708 -79.195182 0.23 193.826
TN303 2013-10-28T19:31:59.00Z -12.00571 -79.195175 0.16 44.55
TN303 2013-10-28T19:33:00.00Z -12.005698 -79.195178 0.06 0.0
TN303 2013-10-28T19:33:59.00Z -12.005702 -79.195187 0.27 270.0
TN303 2013-10-28T19:34:59.00Z -12.005715 -79.195187 0.17 180.0
TN303 2013-10-28T19:36:00.00Z -12.00571 -79.195187 0.44 29.359
TN303 2013-10-28T19:36:59.00Z -12.005703 -79.195185 0.16 90.0
TN303 2013-10-28T19:38:00.00Z -12.005708 -79.195182 0.3 21.493
TN303 2013-10-28T19:39:00.00Z -12.005702 -79.19518 0.49 63.074
TN303 2013-10-28T19:40:00.00Z -12.005695 -79.195175 0.2 213.276
TN303 2013-10-28T19:41:00.00Z -12.005703 -79.195178 0.11 270.0
TN303 2013-10-28T19:41:59.00Z -12.005703 -79.19518 0.16 224.55
TN303 2013-10-28T19:43:00.00Z -12.005712 -79.195188 0.25 26.207
TN303 2013-10-28T19:44:00.00Z -12.00571 -79.19519 0.16 135.45
TN303 2013-10-28T19:44:59.00Z -12.005713 -79.195192 0.12 63.073
TN303 2013-10-28T19:46:00.00Z -12.005707 -79.19519 0.06 180.0
TN303 2013-10-28T19:46:59.00Z -12.005712 -79.195182 0.08 224.55
TN303 2013-10-28T19:48:00.00Z -12.0057 -79.195182 0.17 198.167
TN303 2013-10-28T19:48:59.00Z -12.005707 -79.195183 0.28 101.484
TN303 2013-10-28T19:50:00.00Z -12.005712 -79.195183 0.11 180.0
TN303 2013-10-28T19:50:59.00Z -12.005717 -79.195192 0.44 59.866
TN303 2013-10-28T19:52:00.00Z -12.005717 -79.195188 0.12 26.207
TN303 2013-10-28T19:53:00.00Z -12.00571 -79.195188 0.2 124.106
TN303 2013-10-28T19:53:59.00Z -12.005712 -79.195187 0.08 224.55
TN303 2013-10-28T19:55:00.00Z -12.00572 -79.195193 0.0 0.0
TN303 2013-10-28T19:56:00.00Z -12.005723 -79.195188 0.45 284.249
TN303 2013-10-28T19:56:59.00Z -12.005718 -79.195183 0.31 224.55
TN303 2013-10-28T19:58:00.00Z -12.00572 -79.195188 0.12 26.207
TN303 2013-10-28T19:59:00.00Z -12.00571 -79.19519 0.0 0.0
TN303 2013-10-28T20:00:00.00Z -12.005705 -79.195195 0.11 90.0
TN303 2013-10-28T20:00:59.00Z -12.005708 -79.195188 0.12 153.793
TN303 2013-10-28T20:02:00.00Z -12.005717 -79.19519 0.11 180.0
TN303 2013-10-28T20:03:00.00Z -12.005723 -79.195192 0.28 0.0
TN303 2013-10-28T20:04:00.00Z -12.005715 -79.19519 0.2 124.106
TN303 2013-10-28T20:05:00.00Z -12.005713 -79.195195 0.28 281.484
TN303 2013-10-28T20:06:00.00Z -12.005703 -79.195198 0.31 224.55
TN303 2013-10-28T20:07:00.00Z -12.005722 -79.195193 0.06 180.0
TN303 2013-10-28T20:08:00.00Z -12.005725 -79.195192 0.16 44.55
TN303 2013-10-28T20:08:59.00Z -12.00572 -79.195193 0.37 116.926
TN303 2013-10-28T20:09:59.00Z -12.005722 -79.195193 0.05 90.0
TN303 2013-10-28T20:11:00.00Z -12.005725 -79.195198 0.24 296.927
TN303 2013-10-28T20:12:00.00Z -12.005718 -79.195192 0.39 235.894
TN303 2013-10-28T20:13:00.00Z -12.005722 -79.195187 0.12 333.793
TN303 2013-10-28T20:14:00.00Z -12.00572 -79.19518 0.11 0.0
TN303 2013-10-28T20:14:59.00Z -12.005718 -79.195183 0.11 270.0
TN303 2013-10-28T20:16:00.00Z -12.005717 -79.195193 0.05 90.0
TN303 2013-10-28T20:16:59.00Z -12.005712 -79.195195 0.16 315.45
TN303 2013-10-28T20:17:59.00Z -12.005718 -79.195193 0.06 0.0
TN303 2013-10-28T20:19:00.00Z -12.005723 -79.195187 0.28 78.516
TN303 2013-10-28T20:19:59.00Z -12.005722 -79.19519 0.11 90.0
TN303 2013-10-28T20:20:59.00Z -12.005715 -79.195188 0.23 44.55
TN303 2013-10-28T20:21:59.00Z -12.005707 -79.195192 0.4 73.816
TN303 2013-10-28T20:23:00.00Z -12.005698 -79.195193 0.0 0.0
TN303 2013-10-28T20:24:00.00Z -12.00571 -79.195197 0.11 0.0
TN303 2013-10-28T20:24:59.00Z -12.005718 -79.195182 0.22 90.0
TN303 2013-10-28T20:25:59.00Z -12.00571 -79.195188 0.37 63.074
TN303 2013-10-28T20:26:59.00Z -12.005707 -79.195183 0.11 0.0
TN303 2013-10-28T20:27:59.00Z -12.005715 -79.19518 0.16 135.45
TN303 2013-10-28T20:28:59.00Z -12.0057 -79.195175 0.17 180.0
TN303 2013-10-28T20:29:59.00Z -12.005695 -79.195178 0.16 224.55
TN303 2013-10-28T20:30:59.00Z -12.005703 -79.195177 0.06 0.0
TN303 2013-10-28T20:32:00.00Z -12.005713 -79.195177 0.16 270.0
TN303 2013-10-28T20:33:00.00Z -12.005703 -79.195178 0.28 78.516
TN303 2013-10-28T20:34:00.00Z -12.005698 -79.19518 0.12 296.927
TN303 2013-10-28T20:35:00.00Z -12.005695 -79.195183 0.16 224.55
TN303 2013-10-28T20:36:00.00Z -12.005703 -79.195178 0.22 270.0
TN303 2013-10-28T20:37:00.00Z -12.005715 -79.195178 0.11 0.0
TN303 2013-10-28T20:37:59.00Z -12.00571 -79.195187 0.11 0.0
TN303 2013-10-28T20:39:00.00Z -12.005693 -79.195188 0.29 247.887
TN303 2013-10-28T20:40:00.00Z -12.005703 -79.195187 0.22 180.0
TN303 2013-10-28T20:41:00.00Z -12.005717 -79.195185 0.17 251.294
TN303 2013-10-28T20:42:00.00Z -12.005715 -79.19519 0.16 270.0
TN303 2013-10-28T20:43:00.00Z -12.005712 -79.195195 0.17 251.294
TN303 2013-10-28T20:43:59.00Z -12.005717 -79.195203 0.52 57.589
TN303 2013-10-28T20:44:59.00Z -12.005708 -79.195195 0.35 230.901
TN303 2013-10-28T20:45:59.00Z -12.005718 -79.1952 0.16 90.0
TN303 2013-10-28T20:46:59.00Z -12.005725 -79.195198 0.11 270.0
TN303 2013-10-28T20:47:59.00Z -12.005725 -79.195192 0.16 44.55
TN303 2013-10-28T20:48:59.00Z -12.005718 -79.19519 0.11 90.0
TN303 2013-10-28T20:49:59.00Z -12.005708 -79.1952 0.11 90.0
TN303 2013-10-28T20:50:59.00Z -12.005707 -79.195197 0.28 180.0
TN303 2013-10-28T20:52:00.00Z -12.005718 -79.19519 0.29 247.887
TN303 2013-10-28T20:52:59.00Z -12.005718 -79.19518 0.11 270.0
TN303 2013-10-28T20:54:00.00Z -12.005708 -79.195193 0.44 0.0
TN303 2013-10-28T20:54:59.00Z -12.005695 -79.195185 0.79 235.894
TN303 2013-10-28T20:56:00.00Z -12.005715 -79.19518 0.11 180.0
TN303 2013-10-28T20:57:00.00Z -12.005717 -79.195183 0.29 67.887
TN303 2013-10-28T20:57:59.00Z -12.005705 -79.19518 0.11 270.0
TN303 2013-10-28T20:58:59.00Z -12.005697 -79.195182 0.16 270.0
TN303 2013-10-28T21:00:00.00Z -12.005702 -79.195183 0.16 135.45
TN303 2013-10-28T21:01:00.00Z -12.005713 -79.195177 0.16 135.45
TN303 2013-10-28T21:02:00.00Z -12.005715 -79.195178 0.22 270.0
TN303 2013-10-28T21:03:00.00Z -12.005703 -79.195187 0.23 193.826
TN303 2013-10-28T21:03:59.00Z -12.005698 -79.195195 0.11 270.0
TN303 2013-10-28T21:04:59.00Z -12.005703 -79.19519 0.16 90.0
TN303 2013-10-28T21:06:00.00Z -12.00571 -79.195182 0.27 270.0
TN303 2013-10-28T21:07:00.00Z -12.005715 -79.19518 0.32 238.638
TN303 2013-10-28T21:08:00.00Z -12.005715 -79.195182 0.12 333.793
TN303 2013-10-28T21:09:00.00Z -12.005707 -79.19519 0.11 0.0
TN303 2013-10-28T21:10:00.00Z -12.005705 -79.195193 0.29 67.887
TN303 2013-10-28T21:11:00.00Z -12.005703 -79.195188 0.06 0.0
TN303 2013-10-28T21:12:00.00Z -12.005703 -79.19518 0.0 0.0
TN303 2013-10-28T21:12:59.00Z -12.005708 -79.195183 0.11 180.0
TN303 2013-10-28T21:14:00.00Z -12.005715 -79.19519 0.39 44.55
TN303 2013-10-28T21:14:59.00Z -12.005713 -79.19519 0.12 63.073
TN303 2013-10-28T21:16:00.00Z -12.005703 -79.195192 0.25 153.793
TN303 2013-10-28T21:16:59.00Z -12.005707 -79.19519 0.11 90.0
TN303 2013-10-28T21:17:59.00Z -12.005712 -79.195177 0.44 59.866
TN303 2013-10-28T21:19:00.00Z -12.005713 -79.195175 0.16 90.0
TN303 2013-10-28T21:19:59.00Z -12.005708 -79.195178 0.08 44.55
TN303 2013-10-28T21:20:59.00Z -12.005705 -79.195183 0.12 26.207
TN303 2013-10-28T21:22:00.00Z -12.005707 -79.195182 0.28 323.561
TN303 2013-10-28T21:23:00.00Z -12.005705 -79.195177 0.16 270.0
TN303 2013-10-28T21:24:00.00Z -12.005718 -79.195177 0.05 270.0
TN303 2013-10-28T21:25:00.00Z -12.005718 -79.195187 0.17 0.0
TN303 2013-10-28T21:26:00.00Z -12.005705 -79.19519 0.11 0.0
TN303 2013-10-28T21:27:00.00Z -12.0057 -79.195187 0.12 206.207
TN303 2013-10-28T21:28:00.00Z -12.005717 -79.195182 0.24 63.073
TN303 2013-10-28T21:28:59.00Z -12.005718 -79.195177 0.08 315.45
TN303 2013-10-28T21:29:59.00Z -12.005705 -79.195178 0.11 270.0
TN303 2013-10-28T21:31:00.00Z -12.005705 -79.195183 0.35 161.833
TN303 2013-10-28T21:32:00.00Z -12.00571 -79.195178 0.0 0.0
TN303 2013-10-28T21:33:00.00Z -12.005708 -79.195183 0.31 224.55
TN303 2013-10-28T21:34:00.00Z -12.005707 -79.195192 0.0 0.0
TN303 2013-10-28T21:35:00.00Z -12.005712 -79.195187 0.05 270.0
TN303 2013-10-28T21:36:00.00Z -12.005715 -79.195187 0.12 333.793
TN303 2013-10-28T21:36:59.00Z -12.005717 -79.195187 0.24 63.073
TN303 2013-10-28T21:37:59.00Z -12.005713 -79.195183 0.16 90.0
TN303 2013-10-28T21:38:59.00Z -12.005708 -79.195182 0.17 341.833
TN303 2013-10-28T21:39:59.00Z -12.005705 -79.195182 0.16 44.55
TN303 2013-10-28T21:41:00.00Z -12.005705 -79.195173 0.4 253.816
TN303 2013-10-28T21:42:00.00Z -12.005713 -79.195178 0.0 0.0
TN303 2013-10-28T21:43:00.00Z -12.005713 -79.195182 0.06 0.0
TN303 2013-10-28T21:43:59.00Z -12.005708 -79.19518 0.16 90.0
TN303 2013-10-28T21:44:59.00Z -12.005713 -79.195188 0.22 270.0
TN303 2013-10-28T21:45:59.00Z -12.005708 -79.195183 0.11 180.0
TN303 2013-10-28T21:47:00.00Z -12.005717 -79.195182 0.17 251.294
TN303 2013-10-28T21:47:59.00Z -12.005715 -79.195182 0.12 333.793
TN303 2013-10-28T21:49:00.00Z -12.005707 -79.19518 0.11 0.0
TN303 2013-10-28T21:49:59.00Z -12.005703 -79.195182 0.16 270.0
TN303 2013-10-28T21:51:00.00Z -12.005703 -79.195182 0.28 281.484
TN303 2013-10-28T21:52:00.00Z -12.005705 -79.19518 0.2 33.276
TN303 2013-10-28T21:53:00.00Z -12.005702 -79.195165 0.16 315.45
TN303 2013-10-28T21:53:59.00Z -12.005697 -79.195157 0.32 238.638
TN303 2013-10-28T21:55:00.00Z -12.005693 -79.19517 0.06 0.0
TN303 2013-10-28T21:56:00.00Z -12.00569 -79.19518 0.0 0.0
TN303 2013-10-28T21:56:59.00Z -12.005708 -79.195185 0.06 0.0
TN303 2013-10-28T21:57:59.00Z -12.005722 -79.195187 0.22 0.0
TN303 2013-10-28T21:59:00.00Z -12.005712 -79.19518 0.22 0.0
TN303 2013-10-28T21:59:59.00Z -12.005697 -79.19518 0.17 251.294
TN303 2013-10-28T22:01:00.00Z -12.005703 -79.195178 0.05 90.0
TN303 2013-10-28T22:01:59.00Z -12.005707 -79.195168 0.0 0.0
TN303 2013-10-28T22:03:00.00Z -12.005702 -79.195173 0.16 90.0
TN303 2013-10-28T22:04:00.00Z -12.0057 -79.195177 0.12 206.207
TN303 2013-10-28T22:04:59.00Z -12.005708 -79.195182 0.08 315.45
TN303 2013-10-28T22:06:00.00Z -12.005705 -79.195187 0.47 54.036
TN303 2013-10-28T22:07:00.00Z -12.005707 -79.195173 0.08 135.45
TN303 2013-10-28T22:08:00.00Z -12.005708 -79.195177 0.31 135.45
TN303 2013-10-28T22:08:59.00Z -12.005707 -79.195178 0.16 315.45
TN303 2013-10-28T22:09:59.00Z -12.005707 -79.195183 0.08 135.45
TN303 2013-10-28T22:10:59.00Z -12.005708 -79.195177 0.06 0.0
TN303 2013-10-28T22:11:59.00Z -12.005702 -79.195177 0.31 44.55
TN303 2013-10-28T22:12:59.00Z -12.005703 -79.195177 0.28 78.516
TN303 2013-10-28T22:13:59.00Z -12.005707 -79.19518 0.06 180.0
TN303 2013-10-28T22:15:00.00Z -12.00571 -79.19519 0.27 90.0
TN303 2013-10-28T22:15:59.00Z -12.005712 -79.195183 0.17 180.0
TN303 2013-10-28T22:17:00.00Z -12.005707 -79.195183 0.11 0.0
TN303 2013-10-28T22:18:00.00Z -12.005703 -79.195183 0.08 44.55
TN303 2013-10-28T22:18:59.00Z -12.005703 -79.195182 0.25 153.793
TN303 2013-10-28T22:20:00.00Z -12.005708 -79.19518 0.22 270.0
TN303 2013-10-28T22:21:00.00Z -12.005702 -79.195182 0.47 54.036
TN303 2013-10-28T22:21:59.00Z -12.005692 -79.195175 0.32 30.568
TN303 2013-10-28T22:22:59.00Z -12.005702 -79.195177 0.44 262.764
TN303 2013-10-28T22:24:00.00Z -12.005718 -79.195183 0.59 247.887
TN303 2013-10-28T22:24:59.00Z -12.005717 -79.19519 0.0 0.0
TN303 2013-10-28T22:26:00.00Z -12.005713 -79.195197 0.27 270.0
TN303 2013-10-28T22:26:59.00Z -12.005713 -79.195197 0.0 0.0
TN303 2013-10-28T22:27:59.00Z -12.005717 -79.19519 0.17 108.706
TN303 2013-10-28T22:29:00.00Z -12.005712 -79.195187 0.12 116.927
TN303 2013-10-28T22:29:59.00Z -12.005707 -79.195185 0.0 0.0
TN303 2013-10-28T22:31:00.00Z -12.005703 -79.195183 0.27 270.0
TN303 2013-10-28T22:31:58.00Z -12.005703 -79.195182 0.15 247.887
TN303 2013-10-28T22:33:00.00Z -12.005723 -79.19518 0.11 270.0
TN303 2013-10-28T22:34:00.00Z -12.005722 -79.195185 0.4 73.816
TN303 2013-10-28T22:34:59.00Z -12.00571 -79.195183 0.2 326.724
TN303 2013-10-28T22:36:00.00Z -12.00571 -79.195185 0.11 90.0
TN303 2013-10-28T22:37:00.00Z -12.005705 -79.195187 0.06 206.207
TN303 2013-10-28T22:37:59.00Z -12.005708 -79.19518 0.28 143.561
TN303 2013-10-28T22:38:59.00Z -12.00572 -79.195182 0.11 0.0
TN303 2013-10-28T22:39:59.00Z -12.005703 -79.195187 0.33 270.0
TN303 2013-10-28T22:41:00.00Z -12.005697 -79.195192 0.0 0.0
TN303 2013-10-28T22:41:59.00Z -12.00571 -79.195182 0.17 0.0
TN303 2013-10-28T22:43:00.00Z -12.00571 -79.195177 0.0 0.0
TN303 2013-10-28T22:44:00.00Z -12.00571 -79.195178 0.12 26.207
TN303 2013-10-28T22:45:00.00Z -12.005707 -79.195175 0.2 304.106
TN303 2013-10-28T22:45:59.00Z -12.005703 -79.195173 0.22 270.0
TN303 2013-10-28T22:47:00.00Z -12.005715 -79.195173 0.0 0.0
TN303 2013-10-28T22:48:00.00Z -12.005713 -79.195178 0.0 0.0
TN303 2013-10-28T22:48:59.00Z -12.005702 -79.195188 0.29 67.887
TN303 2013-10-28T22:50:00.00Z -12.005702 -79.19519 0.11 180.0
TN303 2013-10-28T22:51:00.00Z -12.00571 -79.195187 0.11 0.0
TN303 2013-10-28T22:52:00.00Z -12.005712 -79.195178 0.25 26.207
TN303 2013-10-28T22:53:00.00Z -12.005713 -79.195178 0.22 270.0
TN303 2013-10-28T22:54:00.00Z -12.005702 -79.195188 0.0 0.0
TN303 2013-10-28T22:55:00.00Z -12.005702 -79.195183 0.22 270.0
TN303 2013-10-28T22:56:00.00Z -12.005708 -79.195178 0.05 90.0
TN303 2013-10-28T22:56:59.00Z -12.005708 -79.195178 0.24 243.073
TN303 2013-10-28T22:58:00.00Z -12.005698 -79.195175 0.11 180.0
TN303 2013-10-28T22:59:00.00Z -12.005685 -79.195175 0.11 180.0
TN303 2013-10-28T22:59:59.00Z -12.005683 -79.195182 0.25 153.793
TN303 2013-10-28T23:00:59.00Z -12.00571 -79.195178 0.11 180.0
TN303 2013-10-28T23:02:00.00Z -12.005727 -79.195177 0.11 90.0
TN303 2013-10-28T23:02:59.00Z -12.005717 -79.195183 0.22 255.751
TN303 2013-10-28T23:03:59.00Z -12.005707 -79.19519 0.16 315.45
TN303 2013-10-28T23:05:00.00Z -12.005708 -79.19519 0.32 58.638
TN303 2013-10-28T23:06:00.00Z -12.005715 -79.195182 0.16 270.0
TN303 2013-10-28T23:07:00.00Z -12.0057 -79.195185 0.16 224.55
TN303 2013-10-28T23:07:59.00Z -12.005698 -79.195185 0.0 0.0
TN303 2013-10-28T23:09:00.00Z -12.005707 -79.19518 0.12 116.927
TN303 2013-10-28T23:10:00.00Z -12.005708 -79.195188 0.08 44.55
TN303 2013-10-28T23:10:59.00Z -12.005702 -79.19519 0.16 90.0
TN303 2013-10-28T23:11:59.00Z -12.00571 -79.195187 0.11 180.0
TN303 2013-10-28T23:12:59.00Z -12.005718 -79.195182 0.11 75.751
TN303 2013-10-28T23:14:00.00Z -12.00571 -79.195182 0.12 333.793
TN303 2013-10-28T23:14:59.00Z -12.005698 -79.19519 0.12 296.927
TN303 2013-10-28T23:16:00.00Z -12.0057 -79.195185 0.11 90.0
TN303 2013-10-28T23:17:00.00Z -12.005702 -79.19517 0.32 238.638
TN303 2013-10-28T23:17:59.00Z -12.005703 -79.195182 0.61 63.074
TN303 2013-10-28T23:18:59.00Z -12.005693 -79.195178 0.25 206.207
TN303 2013-10-28T23:19:59.00Z -12.005705 -79.195187 0.11 180.0
TN303 2013-10-28T23:21:00.00Z -12.005713 -79.195188 0.17 71.294
TN303 2013-10-28T23:22:00.00Z -12.005703 -79.195182 0.11 90.0
TN303 2013-10-28T23:23:00.00Z -12.005697 -79.195175 0.24 116.927
TN303 2013-10-28T23:23:59.00Z -12.005688 -79.195172 0.2 235.894
TN303 2013-10-28T23:24:59.00Z -12.0057 -79.19518 0.0 0.0
TN303 2013-10-28T23:26:00.00Z -12.005707 -79.195177 0.08 224.55
TN303 2013-10-28T23:26:59.00Z -12.005712 -79.195185 0.11 0.0
TN303 2013-10-28T23:27:59.00Z -12.005693 -79.19519 0.47 69.147
TN303 2013-10-28T23:29:00.00Z -12.005683 -79.195178 0.22 284.249
TN303 2013-10-28T23:30:00.00Z -12.005705 -79.195178 0.11 90.0
TN303 2013-10-28T23:31:00.00Z -12.005728 -79.195177 0.16 270.0
TN303 2013-10-28T23:31:59.00Z -12.005705 -79.195183 0.27 90.0
TN303 2013-10-28T23:32:59.00Z -12.005678 -79.195185 0.06 0.0
TN303 2013-10-28T23:33:59.00Z -12.00569 -79.195173 0.2 124.106
TN303 2013-10-28T23:34:59.00Z -12.005718 -79.195163 0.39 224.55
TN303 2013-10-28T23:35:59.00Z -12.005712 -79.195178 0.06 180.0
TN303 2013-10-28T23:36:59.00Z -12.0057 -79.195187 0.11 90.0
TN303 2013-10-28T23:37:59.00Z -12.00571 -79.195185 0.16 44.55
TN303 2013-10-28T23:38:59.00Z -12.005718 -79.195178 0.06 0.0
TN303 2013-10-28T23:40:00.00Z -12.005717 -79.19518 0.25 26.207
TN303 2013-10-28T23:40:59.00Z -12.0057 -79.19518 0.16 270.0
TN303 2013-10-28T23:41:59.00Z -12.005705 -79.195193 0.0 0.0
TN303 2013-10-28T23:42:59.00Z -12.005713 -79.195202 0.2 235.894
TN303 2013-10-28T23:44:00.00Z -12.00572 -79.195203 0.11 270.0
TN303 2013-10-28T23:45:00.00Z -12.005728 -79.195195 0.11 180.0
TN303 2013-10-28T23:45:59.00Z -12.005723 -79.195198 0.22 180.0
TN303 2013-10-28T23:47:00.00Z -12.005708 -79.195207 0.22 90.0
TN303 2013-10-28T23:47:59.00Z -12.005703 -79.195213 0.2 326.724
TN303 2013-10-28T23:49:00.00Z -12.005708 -79.195197 0.05 270.0
TN303 2013-10-28T23:50:00.00Z -12.00572 -79.195185 0.0 0.0
TN303 2013-10-28T23:50:59.00Z -12.005712 -79.195182 0.23 346.174
TN303 2013-10-28T23:52:00.00Z -12.005703 -79.195183 0.39 315.45
TN303 2013-10-28T23:53:00.00Z -12.005715 -79.195183 0.29 112.113
TN303 2013-10-28T23:53:59.00Z -12.00572 -79.195182 0.2 304.106
TN303 2013-10-28T23:54:59.00Z -12.005702 -79.195192 0.12 333.793
TN303 2013-10-28T23:55:59.00Z -12.005685 -79.195198 0.12 153.793
TN303 2013-10-28T23:56:59.00Z -12.005703 -79.19519 0.16 90.0
TN303 2013-10-28T23:57:59.00Z -12.00572 -79.195168 0.22 270.0
TN303 2013-10-28T23:59:00.00Z -12.00571 -79.195173 0.16 224.55
TN303 2013-10-29T00:00:00.00Z -12.005693 -79.19517 0.12 296.927
TN303 2013-10-29T00:01:00.00Z -12.005687 -79.195177 0.22 90.0
TN303 2013-10-29T00:02:00.00Z -12.005703 -79.195178 0.06 0.0
TN303 2013-10-29T00:03:00.00Z -12.005707 -79.195182 0.29 67.887
TN303 2013-10-29T00:03:59.00Z -12.005708 -79.195185 0.17 71.294
TN303 2013-10-29T00:05:00.00Z -12.005717 -79.19519 0.17 108.706
TN303 2013-10-29T00:06:00.00Z -12.00571 -79.19518 0.23 315.45
TN303 2013-10-29T00:06:59.00Z -12.005697 -79.195185 0.11 90.0
TN303 2013-10-29T00:07:59.00Z -12.005707 -79.195187 0.23 346.174
TN303 2013-10-29T00:09:00.00Z -12.00571 -79.195173 0.27 270.0
TN303 2013-10-29T00:09:59.00Z -12.005702 -79.195178 0.27 270.0
TN303 2013-10-29T00:10:59.00Z -12.005702 -79.19519 0.27 90.0
TN303 2013-10-29T00:11:59.00Z -12.00571 -79.195185 0.29 67.887
TN303 2013-10-29T00:13:00.00Z -12.00571 -79.195183 0.2 124.106
TN303 2013-10-29T00:14:00.00Z -12.005703 -79.195183 0.0 0.0
TN303 2013-10-29T00:15:00.00Z -12.005705 -79.195182 0.16 44.55
TN303 2013-10-29T00:15:59.00Z -12.005717 -79.195177 0.06 180.0
TN303 2013-10-29T00:17:00.00Z -12.005712 -79.19518 0.23 224.55
TN303 2013-10-29T00:17:59.00Z -12.005708 -79.195187 0.17 0.0
TN303 2013-10-29T00:18:59.00Z -12.00571 -79.19519 0.2 55.894
TN303 2013-10-29T00:19:59.00Z -12.005715 -79.195183 0.16 315.45
TN303 2013-10-29T00:20:59.00Z -12.005715 -79.195183 0.2 326.724
TN303 2013-10-29T00:21:59.00Z -12.005708 -79.195182 0.33 270.0
TN303 2013-10-29T00:23:00.00Z -12.005693 -79.195178 0.08 44.55
TN303 2013-10-29T00:23:59.00Z -12.005698 -79.195177 0.05 270.0
TN303 2013-10-29T00:25:00.00Z -12.0057 -79.19517 0.32 149.432
TN303 2013-10-29T00:25:59.00Z -12.005702 -79.195165 0.11 0.0
TN303 2013-10-29T00:26:59.00Z -12.005698 -79.195175 0.11 90.0
TN303 2013-10-29T00:28:00.00Z -12.0057 -79.195173 0.11 0.0
TN303 2013-10-29T00:28:59.00Z -12.005693 -79.195173 0.16 224.55
TN303 2013-10-29T00:30:00.00Z -12.00568 -79.195168 0.27 270.0
TN303 2013-10-29T00:31:00.00Z -12.005695 -79.195172 0.23 224.55
TN303 2013-10-29T00:32:00.00Z -12.005723 -79.19517 0.16 90.0
TN303 2013-10-29T00:32:59.00Z -12.005707 -79.195175 0.25 26.207
TN303 2013-10-29T00:34:00.00Z -12.00569 -79.195183 0.17 18.167
TN303 2013-10-29T00:35:00.00Z -12.005693 -79.195178 0.11 270.0
TN303 2013-10-29T00:35:59.00Z -12.00571 -79.195172 0.27 90.0
TN303 2013-10-29T00:36:59.00Z -12.005712 -79.195172 0.12 116.927
TN303 2013-10-29T00:37:59.00Z -12.005707 -79.195198 0.35 50.901
TN303 2013-10-29T00:39:00.00Z -12.00571 -79.195198 0.29 67.887
TN303 2013-10-29T00:40:00.00Z -12.005723 -79.19519 0.16 224.55
TN303 2013-10-29T00:40:59.00Z -12.005732 -79.195192 0.24 63.073
TN303 2013-10-29T00:42:00.00Z -12.005717 -79.195195 0.11 90.0
TN303 2013-10-29T00:42:59.00Z -12.005707 -79.195193 0.39 55.894
TN303 2013-10-29T00:43:59.00Z -12.005697 -79.195178 0.11 270.0
TN303 2013-10-29T00:44:59.00Z -12.005702 -79.195178 0.08 135.45
TN303 2013-10-29T00:46:00.00Z -12.005715 -79.195177 0.11 90.0
TN303 2013-10-29T00:47:00.00Z -12.005705 -79.195173 0.0 0.0
TN303 2013-10-29T00:48:00.00Z -12.005698 -79.195183 0.08 44.55
TN303 2013-10-29T00:49:01.00Z -12.005695 -79.195185 0.0 0.0
TN303 2013-10-29T00:49:59.00Z -12.005702 -79.195175 0.08 44.55
TN303 2013-10-29T00:50:59.00Z -12.005697 -79.195167 0.23 224.55
TN303 2013-10-29T00:51:59.00Z -12.005703 -79.195173 0.06 0.0
TN303 2013-10-29T00:53:00.00Z -12.005713 -79.195175 0.0 0.0
TN303 2013-10-29T00:54:00.00Z -12.005705 -79.19518 0.31 224.55
TN303 2013-10-29T00:54:59.00Z -12.005703 -79.195188 0.11 180.0
TN303 2013-10-29T00:56:00.00Z -12.005688 -79.195188 0.0 0.0
TN303 2013-10-29T00:57:00.00Z -12.005703 -79.195178 0.12 153.793
TN303 2013-10-29T00:58:00.00Z -12.005717 -79.195172 0.11 90.0
TN303 2013-10-29T00:59:00.00Z -12.005712 -79.195182 0.11 0.0
TN303 2013-10-29T01:00:00.00Z -12.005697 -79.195188 0.11 270.0
TN303 2013-10-29T01:00:59.00Z -12.005698 -79.195188 0.11 180.0
TN303 2013-10-29T01:02:00.00Z -12.005705 -79.195182 0.16 270.0
TN303 2013-10-29T01:03:00.00Z -12.005703 -79.195177 0.17 341.833
TN303 2013-10-29T01:04:00.00Z -12.005702 -79.195172 0.2 304.106
TN303 2013-10-29T01:05:00.00Z -12.005687 -79.195168 0.35 218.222
TN303 2013-10-29T01:06:00.00Z -12.005702 -79.195168 0.05 90.0
TN303 2013-10-29T01:07:00.00Z -12.005712 -79.195167 0.06 180.0
TN303 2013-10-29T01:07:59.00Z -12.005712 -79.19517 0.11 0.0
TN303 2013-10-29T01:09:00.00Z -12.005705 -79.195178 0.2 55.894
TN303 2013-10-29T01:10:00.00Z -12.005702 -79.195188 0.11 0.0
TN303 2013-10-29T01:11:00.00Z -12.005702 -79.195185 0.25 26.207
TN303 2013-10-29T01:12:00.00Z -12.005715 -79.195183 0.16 224.55
TN303 2013-10-29T01:12:59.00Z -12.00572 -79.195187 0.11 0.0
TN303 2013-10-29T01:13:59.00Z -12.005715 -79.195197 0.29 247.887
TN303 2013-10-29T01:15:00.00Z -12.00571 -79.195188 0.42 246.474
TN303 2013-10-29T01:16:00.00Z -12.005717 -79.195187 0.2 146.724
TN303 2013-10-29T01:17:00.00Z -12.005708 -79.195185 0.17 0.0
TN303 2013-10-29T01:18:00.00Z -12.005702 -79.195183 0.24 296.927
TN303 2013-10-29T01:19:00.00Z -12.005703 -79.195183 0.0 0.0
TN303 2013-10-29T01:20:00.00Z -12.00571 -79.195183 0.17 161.833
TN303 2013-10-29T01:21:00.00Z -12.005708 -79.195182 0.34 251.294
TN303 2013-10-29T01:21:59.00Z -12.005715 -79.195182 0.22 90.0
TN303 2013-10-29T01:23:00.00Z -12.005712 -79.195178 0.22 0.0
TN303 2013-10-29T01:24:00.00Z -12.005698 -79.195177 0.05 270.0
TN303 2013-10-29T01:24:59.00Z -12.005693 -79.195165 0.06 0.0
TN303 2013-10-29T01:26:00.00Z -12.005698 -79.195173 0.22 270.0
TN303 2013-10-29T01:26:59.00Z -12.005697 -79.195183 0.28 0.0
TN303 2013-10-29T01:28:00.00Z -12.005707 -79.195183 0.28 36.439
TN303 2013-10-29T01:28:59.00Z -12.005712 -79.195183 0.08 135.45
TN303 2013-10-29T01:30:00.00Z -12.0057 -79.195183 0.17 180.0
TN303 2013-10-29T01:30:59.00Z -12.005695 -79.195178 0.0 0.0
TN303 2013-10-29T01:32:00.00Z -12.005695 -79.19517 0.0 0.0
TN303 2013-10-29T01:33:00.00Z -12.005688 -79.195172 0.22 75.751
TN303 2013-10-29T01:33:59.00Z -12.005702 -79.195172 0.23 224.55
TN303 2013-10-29T01:35:00.00Z -12.005713 -79.195178 0.05 90.0
TN303 2013-10-29T01:36:00.00Z -12.005718 -79.195192 0.22 90.0
TN303 2013-10-29T01:37:00.00Z -12.005722 -79.195207 0.29 67.887
TN303 2013-10-29T01:38:00.00Z -12.00573 -79.195197 0.27 52.697
TN303 2013-10-29T01:38:59.00Z -12.005717 -79.1952 0.11 90.0
TN303 2013-10-29T01:39:59.00Z -12.005705 -79.195195 0.2 55.894
TN303 2013-10-29T01:41:00.00Z -12.005697 -79.195182 0.27 127.303
TN303 2013-10-29T01:42:00.00Z -12.005697 -79.195165 0.16 315.45
TN303 2013-10-29T01:43:00.00Z -12.005702 -79.19516 0.16 270.0
TN303 2013-10-29T01:44:00.00Z -12.005702 -79.195173 0.22 255.751
TN303 2013-10-29T01:45:00.00Z -12.005708 -79.195187 0.54 270.0
TN303 2013-10-29T01:45:59.00Z -12.005703 -79.195183 0.0 0.0
TN303 2013-10-29T01:46:59.00Z -12.005705 -79.195183 0.05 90.0
TN303 2013-10-29T01:48:00.00Z -12.005718 -79.195182 0.11 180.0
TN303 2013-10-29T01:49:00.00Z -12.005713 -79.195188 0.17 0.0
TN303 2013-10-29T01:50:00.00Z -12.0057 -79.195185 0.2 235.894
TN303 2013-10-29T01:51:00.00Z -12.005707 -79.195185 0.4 73.816
TN303 2013-10-29T01:51:59.00Z -12.00572 -79.19518 0.2 55.894
TN303 2013-10-29T01:52:59.00Z -12.005705 -79.195183 0.27 307.303
TN303 2013-10-29T01:54:00.00Z -12.005705 -79.19519 0.11 0.0
TN303 2013-10-29T01:55:00.00Z -12.005712 -79.195177 0.35 38.222
TN303 2013-10-29T01:55:59.00Z -12.0057 -79.195183 0.22 270.0
TN303 2013-10-29T01:57:00.00Z -12.005703 -79.195177 0.16 135.45
TN303 2013-10-29T01:58:00.00Z -12.005715 -79.195173 0.11 180.0
TN303 2013-10-29T01:58:59.00Z -12.005707 -79.195182 0.22 90.0
TN303 2013-10-29T02:00:00.00Z -12.0057 -79.195183 0.0 0.0
TN303 2013-10-29T02:01:00.00Z -12.0057 -79.195183 0.24 243.073
TN303 2013-10-29T02:02:00.00Z -12.005712 -79.195182 0.22 90.0
TN303 2013-10-29T02:03:00.00Z -12.005695 -79.195172 0.11 270.0
TN303 2013-10-29T02:04:00.00Z -12.005703 -79.195175 0.25 153.793
TN303 2013-10-29T02:04:59.00Z -12.005695 -79.195182 0.3 158.507
TN303 2013-10-29T02:06:00.00Z -12.005687 -79.19518 0.1 146.724
TN303 2013-10-29T02:07:00.00Z -12.005705 -79.195172 0.16 270.0
TN303 2013-10-29T02:08:00.00Z -12.005717 -79.195175 0.16 44.55
TN303 2013-10-29T02:08:59.00Z -12.005703 -79.195182 0.22 90.0
TN303 2013-10-29T02:09:59.00Z -12.005683 -79.195182 0.22 180.0
TN303 2013-10-29T02:10:59.00Z -12.005698 -79.195168 0.16 224.55
TN303 2013-10-29T02:12:00.00Z -12.005712 -79.19516 0.39 224.55
TN303 2013-10-29T02:12:59.00Z -12.005712 -79.195185 0.35 309.099
TN303 2013-10-29T02:13:59.00Z -12.005703 -79.195198 0.2 124.106
TN303 2013-10-29T02:15:00.00Z -12.005703 -79.195198 0.16 44.55
TN303 2013-10-29T02:15:59.00Z -12.005708 -79.195198 0.23 166.174
TN303 2013-10-29T02:16:59.00Z -12.005718 -79.195192 0.11 90.0
TN303 2013-10-29T02:18:00.00Z -12.005717 -79.195205 0.17 180.0
TN303 2013-10-29T02:18:59.00Z -12.005708 -79.1952 0.12 63.073
TN303 2013-10-29T02:20:00.00Z -12.005713 -79.195197 0.2 235.894
TN303 2013-10-29T02:21:00.00Z -12.005733 -79.1952 0.12 63.073
TN303 2013-10-29T02:21:59.00Z -12.005725 -79.195203 0.29 292.113
TN303 2013-10-29T02:23:00.00Z -12.005708 -79.195197 0.2 235.894
TN303 2013-10-29T02:23:59.00Z -12.00572 -79.195187 0.11 180.0
TN303 2013-10-29T02:24:59.00Z -12.005725 -79.19519 0.16 90.0
TN303 2013-10-29T02:25:59.00Z -12.005712 -79.195188 0.11 270.0
TN303 2013-10-29T02:26:59.00Z -12.005707 -79.195192 0.32 238.638
TN303 2013-10-29T02:28:00.00Z -12.005717 -79.195183 0.0 0.0
TN303 2013-10-29T02:28:59.00Z -12.00571 -79.195178 0.16 90.0
TN303 2013-10-29T02:30:00.00Z -12.005697 -79.195185 0.0 0.0
TN303 2013-10-29T02:31:00.00Z -12.005688 -79.195182 0.25 153.793
TN303 2013-10-29T02:32:00.00Z -12.0057 -79.195183 0.23 44.55
TN303 2013-10-29T02:32:59.00Z -12.005713 -79.195178 0.17 71.294
TN303 2013-10-29T02:34:00.00Z -12.005712 -79.195182 0.11 90.0
TN303 2013-10-29T02:35:00.00Z -12.005702 -79.195172 0.17 251.294
TN303 2013-10-29T02:36:00.00Z -12.005697 -79.195178 0.22 255.751
TN303 2013-10-29T02:37:00.00Z -12.005712 -79.195188 0.11 0.0
TN303 2013-10-29T02:37:59.00Z -12.005722 -79.195187 0.31 44.55
TN303 2013-10-29T02:38:59.00Z -12.005715 -79.195185 0.23 315.45
TN303 2013-10-29T02:39:59.00Z -12.005717 -79.195193 0.12 243.073
TN303 2013-10-29T02:41:00.00Z -12.005718 -79.195195 0.11 90.0
TN303 2013-10-29T02:42:00.00Z -12.005725 -79.195193 0.11 270.0
TN303 2013-10-29T02:42:59.00Z -12.005717 -79.195195 0.13 213.276
TN303 2013-10-29T02:44:00.00Z -12.005697 -79.195202 0.08 224.55
TN303 2013-10-29T02:45:00.00Z -12.005712 -79.195193 0.06 180.0
TN303 2013-10-29T02:45:59.00Z -12.005727 -79.19518 0.28 323.561
TN303 2013-10-29T02:47:00.00Z -12.005703 -79.195187 0.22 180.0
TN303 2013-10-29T02:47:59.00Z -12.005712 -79.195192 0.27 127.303
TN303 2013-10-29T02:49:00.00Z -12.005715 -79.195192 0.11 0.0
TN303 2013-10-29T02:49:59.00Z -12.005712 -79.195192 0.05 270.0
TN303 2013-10-29T02:51:00.00Z -12.00571 -79.19519 0.16 90.0
TN303 2013-10-29T02:52:00.00Z -12.005707 -79.195193 0.12 243.073
TN303 2013-10-29T02:52:58.00Z -12.005713 -79.195188 0.16 224.55
TN303 2013-10-29T02:53:59.00Z -12.005728 -79.195183 0.16 224.55
TN303 2013-10-29T02:54:59.00Z -12.005722 -79.195187 0.12 333.793
TN303 2013-10-29T02:55:59.00Z -12.0057 -79.195192 0.2 33.276
TN303 2013-10-29T02:56:59.00Z -12.00569 -79.195197 0.12 333.793
TN303 2013-10-29T02:58:00.00Z -12.005703 -79.195182 0.16 135.45
TN303 2013-10-29T02:59:00.00Z -12.005728 -79.195177 0.12 206.207
TN303 2013-10-29T03:00:00.00Z -12.005723 -79.195192 0.27 270.0
TN303 2013-10-29T03:00:59.00Z -12.0057 -79.195202 0.4 106.184
TN303 2013-10-29T03:02:00.00Z -12.0057 -79.195185 0.11 180.0
TN303 2013-10-29T03:02:59.00Z -12.005712 -79.195168 0.31 315.45
TN303 2013-10-29T03:03:59.00Z -12.005705 -79.195168 0.17 0.0
TN303 2013-10-29T03:04:59.00Z -12.005688 -79.195177 0.27 90.0
TN303 2013-10-29T03:05:59.00Z -12.005698 -79.195177 0.17 0.0
TN303 2013-10-29T03:06:59.00Z -12.005713 -79.195172 0.12 63.073
TN303 2013-10-29T03:07:59.00Z -12.005717 -79.19518 0.12 116.927
TN303 2013-10-29T03:08:59.00Z -12.00571 -79.195183 0.17 180.0
TN303 2013-10-29T03:09:59.00Z -12.005705 -79.195178 0.2 124.106
TN303 2013-10-29T03:10:59.00Z -12.005692 -79.19517 0.12 243.073
TN303 2013-10-29T03:11:59.00Z -12.005695 -79.195173 0.0 0.0
TN303 2013-10-29T03:13:00.00Z -12.005722 -79.195175 0.28 323.561
TN303 2013-10-29T03:14:00.00Z -12.005718 -79.195183 0.12 153.793
TN303 2013-10-29T03:15:00.00Z -12.005717 -79.195192 0.16 44.55
TN303 2013-10-29T03:16:00.00Z -12.005712 -79.195195 0.11 90.0
TN303 2013-10-29T03:17:00.00Z -12.005717 -79.195188 0.22 270.0
TN303 2013-10-29T03:17:59.00Z -12.00571 -79.19519 0.16 44.55
TN303 2013-10-29T03:19:00.00Z -12.005715 -79.19519 0.16 135.45
TN303 2013-10-29T03:20:00.00Z -12.005707 -79.195205 0.31 315.45
TN303 2013-10-29T03:20:59.00Z -12.005707 -79.1952 0.16 90.0
TN303 2013-10-29T03:21:59.00Z -12.005725 -79.195187 0.35 38.222
TN303 2013-10-29T03:23:00.00Z -12.005717 -79.195202 0.08 224.55
TN303 2013-10-29T03:24:00.00Z -12.005708 -79.195197 0.05 270.0
TN303 2013-10-29T03:25:00.00Z -12.005712 -79.1952 0.22 270.0
TN303 2013-10-29T03:26:00.00Z -12.005707 -79.195182 0.17 180.0
TN303 2013-10-29T03:27:00.00Z -12.005713 -79.195177 0.2 235.894
TN303 2013-10-29T03:28:00.00Z -12.005713 -79.195188 0.0 0.0
TN303 2013-10-29T03:28:59.00Z -12.005703 -79.195188 0.11 180.0
TN303 2013-10-29T03:30:00.00Z -12.00571 -79.19518 0.0 0.0
TN303 2013-10-29T03:30:59.00Z -12.005707 -79.19518 0.12 116.927
TN303 2013-10-29T03:32:00.00Z -12.005717 -79.195178 0.0 0.0
TN303 2013-10-29T03:33:00.00Z -12.00571 -79.195173 0.17 0.0
TN303 2013-10-29T03:33:59.00Z -12.005685 -79.195173 0.29 112.113
TN303 2013-10-29T03:35:00.00Z -12.005698 -79.195155 0.32 30.568
TN303 2013-10-29T03:36:00.00Z -12.005705 -79.195163 0.2 55.894
TN303 2013-10-29T03:36:59.00Z -12.005683 -79.195162 0.12 63.073
TN303 2013-10-29T03:37:59.00Z -12.00569 -79.195175 0.27 90.0
TN303 2013-10-29T03:39:00.00Z -12.005708 -79.195172 0.11 180.0
TN303 2013-10-29T03:40:00.00Z -12.005712 -79.195177 0.06 180.0
TN303 2013-10-29T03:41:00.00Z -12.005697 -79.195172 0.06 180.0
TN303 2013-10-29T03:41:59.00Z -12.005688 -79.19517 0.11 90.0
TN303 2013-10-29T03:43:01.00Z -12.005697 -79.195173 0.22 255.751
TN303 2013-10-29T03:43:59.00Z -12.005717 -79.195175 0.2 304.106
TN303 2013-10-29T03:44:59.00Z -12.005717 -79.19519 0.16 315.45
TN303 2013-10-29T03:45:59.00Z -12.005708 -79.195198 0.17 80.391
TN303 2013-10-29T03:46:59.00Z -12.005722 -79.19519 0.17 180.0
TN303 2013-10-29T03:48:00.00Z -12.005718 -79.195197 0.25 206.207
TN303 2013-10-29T03:49:00.00Z -12.005695 -79.195207 0.31 44.55
TN303 2013-10-29T03:50:00.00Z -12.005705 -79.195188 0.11 270.0
TN303 2013-10-29T03:50:59.00Z -12.00572 -79.195183 0.16 224.55
TN303 2013-10-29T03:52:00.00Z -12.005708 -79.195185 0.16 224.55
TN303 2013-10-29T03:52:59.00Z -12.005693 -79.195175 0.25 206.207
TN303 2013-10-29T03:53:59.00Z -12.005715 -79.195178 0.05 90.0
TN303 2013-10-29T03:55:00.00Z -12.005717 -79.19518 0.0 0.0
TN303 2013-10-29T03:56:00.00Z -12.005703 -79.195188 0.22 270.0
TN303 2013-10-29T03:57:00.00Z -12.005713 -79.195195 0.25 206.207
TN303 2013-10-29T03:57:59.00Z -12.005732 -79.195187 0.11 0.0
TN303 2013-10-29T03:59:00.00Z -12.005708 -79.195177 0.32 329.432
TN303 2013-10-29T03:59:59.00Z -12.005697 -79.195178 0.17 180.0
TN303 2013-10-29T04:01:00.00Z -12.005722 -79.195183 0.08 135.45
TN303 2013-10-29T04:01:59.00Z -12.005722 -79.195185 0.16 90.0
TN303 2013-10-29T04:02:59.00Z -12.00571 -79.195182 0.37 296.926
TN303 2013-10-29T04:04:00.00Z -12.005697 -79.195192 0.29 67.887
TN303 2013-10-29T04:05:00.00Z -12.005698 -79.195192 0.31 135.45
TN303 2013-10-29T04:05:59.00Z -12.005723 -79.195185 0.28 143.561
TN303 2013-10-29T04:06:59.00Z -12.005733 -79.19517 0.08 0.0
TN303 2013-10-29T04:08:00.00Z -12.005703 -79.19517 0.22 270.0
TN303 2013-10-29T04:08:59.00Z -12.005678 -79.19518 0.11 180.0
TN303 2013-10-29T04:10:00.00Z -12.005697 -79.19517 0.11 270.0
TN303 2013-10-29T04:10:59.00Z -12.005717 -79.195162 0.0 0.0
TN303 2013-10-29T04:12:00.00Z -12.005703 -79.19517 0.17 71.294
TN303 2013-10-29T04:12:59.00Z -12.005675 -79.19519 0.16 315.45
TN303 2013-10-29T04:14:00.00Z -12.005703 -79.195177 0.11 90.0
TN303 2013-10-29T04:14:59.00Z -12.005715 -79.195155 0.2 55.894
TN303 2013-10-29T04:16:00.00Z -12.005698 -79.195162 0.0 0.0
TN303 2013-10-29T04:17:00.00Z -12.005693 -79.19518 0.25 153.793
TN303 2013-10-29T04:17:59.00Z -12.005717 -79.195187 0.11 90.0
TN303 2013-10-29T04:18:59.00Z -12.005725 -79.195177 0.5 77.279
TN303 2013-10-29T04:19:59.00Z -12.005703 -79.195183 0.12 296.927
TN303 2013-10-29T04:20:59.00Z -12.005693 -79.195185 0.17 0.0
TN303 2013-10-29T04:21:59.00Z -12.005717 -79.195178 0.16 315.45
TN303 2013-10-29T04:23:00.00Z -12.005728 -79.195187 0.28 281.484
TN303 2013-10-29T04:23:59.00Z -12.005715 -79.195197 0.11 90.0
TN303 2013-10-29T04:24:59.00Z -12.005708 -79.19519 0.22 180.0
TN303 2013-10-29T04:25:59.00Z -12.005713 -79.195187 0.12 63.073
TN303 2013-10-29T04:26:59.00Z -12.005715 -79.195192 0.11 180.0
TN303 2013-10-29T04:27:59.00Z -12.005718 -79.195192 0.11 180.0
TN303 2013-10-29T04:28:59.00Z -12.005715 -79.195192 0.16 135.45
TN303 2013-10-29T04:30:00.00Z -12.005733 -79.195185 0.17 288.706
TN303 2013-10-29T04:31:00.00Z -12.005728 -79.195197 0.11 90.0
TN303 2013-10-29T04:32:00.00Z -12.005717 -79.195198 0.33 180.0
TN303 2013-10-29T04:33:00.00Z -12.005707 -79.195188 0.11 270.0
TN303 2013-10-29T04:34:00.00Z -12.005705 -79.19518 0.16 90.0
TN303 2013-10-29T04:34:59.00Z -12.0057 -79.195182 0.11 90.0
TN303 2013-10-29T04:35:59.00Z -12.005708 -79.195182 0.17 0.0
TN303 2013-10-29T04:36:59.00Z -12.00571 -79.19519 0.11 180.0
TN303 2013-10-29T04:38:00.00Z -12.005703 -79.1952 0.11 270.0
TN303 2013-10-29T04:39:00.00Z -12.005715 -79.195193 0.22 270.0
TN303 2013-10-29T04:40:00.00Z -12.005727 -79.195195 0.17 108.706
TN303 2013-10-29T04:41:00.00Z -12.005722 -79.195182 0.16 44.55
TN303 2013-10-29T04:41:59.00Z -12.005702 -79.195175 0.33 180.0
TN303 2013-10-29T04:42:59.00Z -12.0057 -79.195188 0.24 296.927
TN303 2013-10-29T04:44:00.00Z -12.005722 -79.195187 0.22 90.0
TN303 2013-10-29T04:44:59.00Z -12.005733 -79.195193 0.28 78.516
TN303 2013-10-29T04:45:59.00Z -12.005703 -79.195187 0.0 0.0
TN303 2013-10-29T04:47:00.00Z -12.005695 -79.195185 0.31 135.45
TN303 2013-10-29T04:48:00.00Z -12.005705 -79.195168 0.11 180.0
TN303 2013-10-29T04:48:59.00Z -12.005722 -79.195178 0.17 108.706
TN303 2013-10-29T04:50:00.00Z -12.005707 -79.195178 0.61 243.074
TN303 2013-10-29T04:50:59.00Z -12.00569 -79.195172 0.0 0.0
TN303 2013-10-29T04:51:59.00Z -12.00569 -79.195168 0.11 0.0
TN303 2013-10-29T04:53:00.00Z -12.005692 -79.195157 0.23 224.55
TN303 2013-10-29T04:54:00.00Z -12.005692 -79.195162 0.0 0.0
TN303 2013-10-29T04:55:00.00Z -12.00571 -79.195172 0.24 63.073
TN303 2013-10-29T04:55:59.00Z -12.005713 -79.195173 0.08 44.55
TN303 2013-10-29T04:56:59.00Z -12.005703 -79.195178 0.05 90.0
TN303 2013-10-29T04:58:00.00Z -12.005718 -79.19518 0.33 270.0
TN303 2013-10-29T04:58:59.00Z -12.005708 -79.19518 0.28 78.516
TN303 2013-10-29T04:59:59.00Z -12.005695 -79.195182 0.27 270.0
TN303 2013-10-29T05:01:00.00Z -12.005698 -79.195187 0.27 270.0
TN303 2013-10-29T05:02:00.00Z -12.005722 -79.195192 0.16 270.0
TN303 2013-10-29T05:02:59.00Z -12.005735 -79.1952 0.11 270.0
TN303 2013-10-29T05:04:00.00Z -12.005733 -79.195198 0.11 180.0
TN303 2013-10-29T05:05:00.00Z -12.005723 -79.195187 0.23 193.826
TN303 2013-10-29T05:06:00.00Z -12.00571 -79.195187 0.17 0.0
TN303 2013-10-29T05:07:00.00Z -12.005707 -79.195198 0.17 180.0
TN303 2013-10-29T05:07:59.00Z -12.005722 -79.195178 0.22 255.751
TN303 2013-10-29T05:08:59.00Z -12.005727 -79.195183 0.35 321.778
TN303 2013-10-29T05:10:00.00Z -12.005707 -79.195195 0.0 0.0
TN303 2013-10-29T05:11:00.00Z -12.00571 -79.195207 0.44 90.0
TN303 2013-10-29T05:12:00.00Z -12.00573 -79.19519 0.42 22.875
TN303 2013-10-29T05:13:00.00Z -12.005717 -79.195178 0.2 55.894
TN303 2013-10-29T05:13:59.00Z -12.005698 -79.195173 0.22 270.0
TN303 2013-10-29T05:14:59.00Z -12.005708 -79.195177 0.16 270.0
TN303 2013-10-29T05:16:00.00Z -12.005715 -79.195175 0.11 270.0
TN303 2013-10-29T05:17:00.00Z -12.005715 -79.19518 0.22 180.0
TN303 2013-10-29T05:17:59.00Z -12.00571 -79.195173 0.61 243.074
TN303 2013-10-29T05:18:59.00Z -12.005697 -79.195187 0.2 146.724
TN303 2013-10-29T05:20:00.00Z -12.005693 -79.195192 0.24 116.927
TN303 2013-10-29T05:21:00.00Z -12.005703 -79.195178 0.24 243.073
TN303 2013-10-29T05:22:00.00Z -12.00571 -79.195178 0.17 180.0
TN303 2013-10-29T05:23:00.00Z -12.005712 -79.195175 0.31 315.45
TN303 2013-10-29T05:24:00.00Z -12.005697 -79.195183 0.4 213.276
TN303 2013-10-29T05:25:00.00Z -12.00571 -79.195185 0.17 180.0
TN303 2013-10-29T05:26:00.00Z -12.005733 -79.195183 0.28 78.516
TN303 2013-10-29T05:26:59.00Z -12.005715 -79.195182 0.4 106.184
TN303 2013-10-29T05:27:59.00Z -12.0057 -79.195178 0.11 270.0
TN303 2013-10-29T05:29:00.00Z -12.005705 -79.195188 0.11 180.0
TN303 2013-10-29T05:30:00.00Z -12.00573 -79.195197 0.11 180.0
TN303 2013-10-29T05:31:00.00Z -12.005722 -79.195202 0.22 90.0
TN303 2013-10-29T05:32:00.00Z -12.005702 -79.195198 0.25 26.207
TN303 2013-10-29T05:32:59.00Z -12.005715 -79.195188 0.0 0.0
TN303 2013-10-29T05:34:00.00Z -12.005717 -79.195187 0.11 90.0
TN303 2013-10-29T05:35:00.00Z -12.005712 -79.195182 0.23 346.174
TN303 2013-10-29T05:36:00.00Z -12.005715 -79.195188 0.11 270.0
TN303 2013-10-29T05:37:00.00Z -12.005728 -79.195188 0.55 275.8
TN303 2013-10-29T05:37:59.00Z -12.005723 -79.19519 0.25 206.207
TN303 2013-10-29T05:38:59.00Z -12.005727 -79.195188 0.08 135.45
TN303 2013-10-29T05:39:59.00Z -12.00573 -79.1952 0.11 180.0
TN303 2013-10-29T05:40:59.00Z -12.005725 -79.195202 0.27 90.0
TN303 2013-10-29T05:42:00.00Z -12.005702 -79.195195 0.22 0.0
TN303 2013-10-29T05:43:00.00Z -12.005718 -79.195178 0.05 90.0
TN303 2013-10-29T05:43:59.00Z -12.005718 -79.195165 0.06 0.0
TN303 2013-10-29T05:45:00.00Z -12.005688 -79.195175 0.11 270.0
TN303 2013-10-29T05:46:00.00Z -12.005683 -79.195185 0.22 180.0
TN303 2013-10-29T05:47:00.00Z -12.005715 -79.195182 0.27 270.0
TN303 2013-10-29T05:48:00.00Z -12.00572 -79.195183 0.3 338.507
TN303 2013-10-29T05:48:59.00Z -12.005713 -79.195195 0.11 180.0
TN303 2013-10-29T05:50:00.00Z -12.005712 -79.195198 0.43 130.248
TN303 2013-10-29T05:50:59.00Z -12.00571 -79.1952 0.2 124.106
TN303 2013-10-29T05:52:00.00Z -12.00572 -79.195197 0.29 67.887
TN303 2013-10-29T05:53:00.00Z -12.005732 -79.195188 0.22 0.0
TN303 2013-10-29T05:54:00.00Z -12.005725 -79.195195 0.23 315.45
TN303 2013-10-29T05:55:00.00Z -12.005713 -79.195202 0.2 235.894
TN303 2013-10-29T05:55:59.00Z -12.005727 -79.195183 0.08 135.45
TN303 2013-10-29T05:56:59.00Z -12.005728 -79.195185 0.0 0.0
TN303 2013-10-29T05:57:59.00Z -12.005705 -79.195187 0.11 0.0
TN303 2013-10-29T05:58:58.00Z -12.005695 -79.195198 0.08 180.0
TN303 2013-10-29T06:00:00.00Z -12.005717 -79.195197 0.08 224.55
TN303 2013-10-29T06:01:00.00Z -12.005723 -79.195183 0.28 168.862
TN303 2013-10-29T06:02:00.00Z -12.005708 -79.195178 0.22 180.0
TN303 2013-10-29T06:02:59.00Z -12.005713 -79.19518 0.2 326.724
TN303 2013-10-29T06:03:59.00Z -12.005712 -79.19519 0.16 44.55
TN303 2013-10-29T06:05:00.00Z -12.005697 -79.195185 0.28 258.516
TN303 2013-10-29T06:06:00.00Z -12.00571 -79.19518 0.11 270.0
TN303 2013-10-29T06:07:00.00Z -12.005732 -79.195188 0.28 36.439
TN303 2013-10-29T06:07:59.00Z -12.005717 -79.195197 0.17 180.0
TN303 2013-10-29T06:09:00.00Z -12.005695 -79.195202 0.38 90.0
TN303 2013-10-29T06:10:00.00Z -12.005698 -79.195185 0.27 90.0
TN303 2013-10-29T06:10:59.00Z -12.005702 -79.195175 0.35 198.167
TN303 2013-10-29T06:11:59.00Z -12.005717 -79.195173 0.47 234.036
TN303 2013-10-29T06:12:59.00Z -12.005727 -79.195183 0.08 135.45
TN303 2013-10-29T06:13:59.00Z -12.005717 -79.195198 0.22 0.0
TN303 2013-10-29T06:14:59.00Z -12.005702 -79.19519 0.2 146.724
TN303 2013-10-29T06:15:59.00Z -12.005695 -79.19518 0.11 0.0
TN303 2013-10-29T06:17:00.00Z -12.005685 -79.195182 0.16 270.0
TN303 2013-10-29T06:17:59.00Z -12.00572 -79.195175 0.07 0.0
TN303 2013-10-29T06:18:59.00Z -12.005737 -79.195185 0.05 270.0
TN303 2013-10-29T06:20:00.00Z -12.005722 -79.195207 0.12 333.793
TN303 2013-10-29T06:21:00.00Z -12.005713 -79.19521 0.11 180.0
TN303 2013-10-29T06:21:59.00Z -12.005728 -79.195187 0.23 193.826
TN303 2013-10-29T06:23:00.00Z -12.005735 -79.195182 0.11 0.0
TN303 2013-10-29T06:24:00.00Z -12.005713 -79.195192 0.11 90.0
TN303 2013-10-29T06:25:00.00Z -12.005703 -79.195202 0.39 81.743
TN303 2013-10-29T06:25:59.00Z -12.005702 -79.195197 0.22 104.249
TN303 2013-10-29T06:26:59.00Z -12.00571 -79.195195 0.16 315.45
TN303 2013-10-29T06:27:59.00Z -12.005742 -79.195173 0.22 270.0
TN303 2013-10-29T06:28:59.00Z -12.00573 -79.19519 0.2 55.894
TN303 2013-10-29T06:29:59.00Z -12.005708 -79.195203 0.33 90.0
TN303 2013-10-29T06:30:59.00Z -12.005707 -79.195185 0.16 90.0
TN303 2013-10-29T06:31:59.00Z -12.00571 -79.195185 0.0 0.0
TN303 2013-10-29T06:32:59.00Z -12.005708 -79.195183 0.44 209.359
TN303 2013-10-29T06:34:00.00Z -12.005715 -79.195188 0.16 315.45
TN303 2013-10-29T06:34:59.00Z -12.005702 -79.195198 0.11 0.0
TN303 2013-10-29T06:36:00.00Z -12.005712 -79.195195 0.0 0.0
TN303 2013-10-29T06:36:59.00Z -12.005725 -79.195178 0.16 224.55
TN303 2013-10-29T06:38:00.00Z -12.005727 -79.195193 0.45 75.751
TN303 2013-10-29T06:38:59.00Z -12.00572 -79.195192 0.05 270.0
TN303 2013-10-29T06:39:59.00Z -12.005722 -79.195185 0.11 0.0
TN303 2013-10-29T06:41:00.00Z -12.005702 -79.195182 0.17 251.294
TN303 2013-10-29T06:42:00.00Z -12.005683 -79.195183 0.11 180.0
TN303 2013-10-29T06:42:59.00Z -12.0057 -79.195178 0.06 180.0
TN303 2013-10-29T06:43:59.00Z -12.005705 -79.195182 0.0 0.0
TN303 2013-10-29T06:45:00.00Z -12.005727 -79.195195 0.22 0.0
TN303 2013-10-29T06:46:00.00Z -12.005718 -79.195183 0.28 78.516
TN303 2013-10-29T06:47:00.00Z -12.005715 -79.195182 0.05 270.0
TN303 2013-10-29T06:47:59.00Z -12.005708 -79.195192 0.17 0.0
TN303 2013-10-29T06:49:00.00Z -12.005712 -79.195182 0.16 224.55
TN303 2013-10-29T06:50:00.00Z -12.005707 -79.195183 0.3 338.507
TN303 2013-10-29T06:50:59.00Z -12.005712 -79.195193 0.25 333.793
TN303 2013-10-29T06:51:59.00Z -12.005727 -79.195182 0.08 224.55
TN303 2013-10-29T06:52:59.00Z -12.005722 -79.195192 0.16 44.55
TN303 2013-10-29T06:54:00.00Z -12.005698 -79.195193 0.11 180.0
TN303 2013-10-29T06:54:59.00Z -12.005685 -79.195187 0.05 270.0
TN303 2013-10-29T06:56:00.00Z -12.005725 -79.195175 0.16 44.55
TN303 2013-10-29T06:57:00.00Z -12.005732 -79.195183 0.44 90.0
TN303 2013-10-29T06:57:59.00Z -12.005685 -79.195202 0.11 90.0
TN303 2013-10-29T06:58:59.00Z -12.005705 -79.195197 0.16 135.45
TN303 2013-10-29T06:59:59.00Z -12.005732 -79.195185 0.16 90.0
TN303 2013-10-29T07:00:59.00Z -12.005717 -79.195188 0.33 90.0
TN303 2013-10-29T07:01:59.00Z -12.005707 -79.195205 0.0 0.0
TN303 2013-10-29T07:03:00.00Z -12.005723 -79.195195 0.06 0.0
TN303 2013-10-29T07:03:59.00Z -12.005722 -79.19518 0.16 315.45
TN303 2013-10-29T07:05:00.00Z -12.005717 -79.195188 0.31 315.45
TN303 2013-10-29T07:06:00.00Z -12.005723 -79.195205 0.22 180.0
TN303 2013-10-29T07:07:00.00Z -12.005702 -79.195197 0.28 348.862
TN303 2013-10-29T07:07:59.00Z -12.005705 -79.195185 0.29 247.887
TN303 2013-10-29T07:09:00.00Z -12.005722 -79.195172 0.17 251.294
TN303 2013-10-29T07:10:00.00Z -12.00571 -79.195175 0.2 235.894
TN303 2013-10-29T07:10:59.00Z -12.005692 -79.195195 0.16 90.0
TN303 2013-10-29T07:12:00.00Z -12.005705 -79.195178 0.28 180.0
TN303 2013-10-29T07:12:59.00Z -12.005738 -79.195168 0.32 58.638
TN303 2013-10-29T07:13:59.00Z -12.005715 -79.195168 0.16 243.073
TN303 2013-10-29T07:14:59.00Z -12.005685 -79.195185 0.57 253.052
TN303 2013-10-29T07:16:00.00Z -12.00569 -79.195187 0.3 158.507
TN303 2013-10-29T07:16:59.00Z -12.005718 -79.195165 0.17 288.706
TN303 2013-10-29T07:17:59.00Z -12.005713 -79.195178 0.0 0.0
TN303 2013-10-29T07:18:59.00Z -12.005707 -79.195202 0.23 346.174
TN303 2013-10-29T07:19:59.00Z -12.005715 -79.195205 0.11 270.0
TN303 2013-10-29T07:21:00.00Z -12.00572 -79.195195 0.23 135.45
TN303 2013-10-29T07:21:59.00Z -12.005725 -79.19518 0.54 224.551
TN303 2013-10-29T07:23:01.00Z -12.005713 -79.195197 0.08 63.073
TN303 2013-10-29T07:24:00.00Z -12.005717 -79.195193 0.39 261.743
TN303 2013-10-29T07:24:59.00Z -12.00571 -79.195192 0.24 116.927
TN303 2013-10-29T07:25:59.00Z -12.005713 -79.195185 0.17 0.0
TN303 2013-10-29T07:27:00.00Z -12.005733 -79.195193 0.06 0.0
TN303 2013-10-29T07:27:59.00Z -12.005722 -79.195192 0.44 270.0
TN303 2013-10-29T07:28:59.00Z -12.005713 -79.195203 0.33 80.391
TN303 2013-10-29T07:29:59.00Z -12.005725 -79.195188 0.0 0.0
TN303 2013-10-29T07:31:00.00Z -12.005733 -79.19518 0.2 33.276
TN303 2013-10-29T07:31:59.00Z -12.005717 -79.195188 0.27 90.0
TN303 2013-10-29T07:32:59.00Z -12.005705 -79.195187 0.34 288.706
TN303 2013-10-29T07:34:00.00Z -12.005683 -79.195182 0.12 63.073
TN303 2013-10-29T07:34:59.00Z -12.005697 -79.195168 0.3 201.493
TN303 2013-10-29T07:36:00.00Z -12.005707 -79.195183 0.29 67.887
TN303 2013-10-29T07:37:00.00Z -12.005713 -79.195187 0.24 116.927
TN303 2013-10-29T07:37:59.00Z -12.005712 -79.19519 0.4 344.291
TN303 2013-10-29T07:39:00.00Z -12.005697 -79.195187 0.28 180.0
TN303 2013-10-29T07:40:00.00Z -12.00572 -79.195175 0.11 270.0
TN303 2013-10-29T07:41:00.00Z -12.005727 -79.195172 0.28 191.138
TN303 2013-10-29T07:42:00.00Z -12.005707 -79.195177 0.44 270.0
TN303 2013-10-29T07:43:00.00Z -12.00569 -79.195193 0.2 213.276
TN303 2013-10-29T07:44:00.00Z -12.005703 -79.1952 0.39 81.743
TN303 2013-10-29T07:44:59.00Z -12.005737 -79.19519 0.16 44.55
TN303 2013-10-29T07:46:00.00Z -12.005735 -79.195182 0.0 0.0
TN303 2013-10-29T07:47:00.00Z -12.005708 -79.195195 0.32 58.638
TN303 2013-10-29T07:47:59.00Z -12.0057 -79.195195 0.1 55.894
TN303 2013-10-29T07:49:00.00Z -12.0057 -79.195185 0.39 44.55
TN303 2013-10-29T07:50:00.00Z -12.005723 -79.19518 0.16 270.0
TN303 2013-10-29T07:51:00.00Z -12.00573 -79.195188 0.12 26.207
TN303 2013-10-29T07:52:00.00Z -12.00572 -79.195187 0.05 270.0
TN303 2013-10-29T07:52:59.00Z -12.005713 -79.195188 0.22 180.0
TN303 2013-10-29T07:53:59.00Z -12.005718 -79.195183 0.31 224.55
TN303 2013-10-29T07:54:59.00Z -12.005692 -79.195197 0.08 270.0
TN303 2013-10-29T07:55:59.00Z -12.00568 -79.195195 0.56 258.516
TN303 2013-10-29T07:56:59.00Z -12.0057 -79.195172 0.39 135.45
TN303 2013-10-29T07:57:59.00Z -12.005717 -79.195173 0.23 135.45
TN303 2013-10-29T07:59:01.00Z -12.005715 -79.195185 0.11 180.0
TN303 2013-10-29T08:00:00.00Z -12.005715 -79.195183 0.0 0.0
TN303 2013-10-29T08:01:00.00Z -12.00571 -79.195187 0.29 112.113
TN303 2013-10-29T08:01:59.00Z -12.00572 -79.195187 0.05 270.0
TN303 2013-10-29T08:02:59.00Z -12.005718 -79.195182 0.28 281.484
TN303 2013-10-29T08:04:00.00Z -12.00572 -79.195188 0.22 0.0
TN303 2013-10-29T08:05:00.00Z -12.005717 -79.195183 0.11 90.0
TN303 2013-10-29T08:06:00.00Z -12.005712 -79.195182 0.05 270.0
TN303 2013-10-29T08:07:00.00Z -12.005717 -79.195185 0.22 90.0
TN303 2013-10-29T08:08:00.00Z -12.005705 -79.195193 0.22 270.0
TN303 2013-10-29T08:08:59.00Z -12.005715 -79.195192 0.37 243.074
TN303 2013-10-29T08:10:00.00Z -12.005728 -79.195203 0.32 58.638
TN303 2013-10-29T08:11:00.00Z -12.005715 -79.195197 0.25 206.207
TN303 2013-10-29T08:11:59.00Z -12.005725 -79.195198 0.2 124.106
TN303 2013-10-29T08:12:59.00Z -12.005723 -79.195195 0.16 135.45
TN303 2013-10-29T08:14:00.00Z -12.005723 -79.195187 0.12 206.207
TN303 2013-10-29T08:14:59.00Z -12.005717 -79.195188 0.23 135.45
TN303 2013-10-29T08:16:00.00Z -12.005715 -79.195197 0.32 58.638
TN303 2013-10-29T08:17:00.00Z -12.005707 -79.195188 0.0 0.0
TN303 2013-10-29T08:18:00.00Z -12.00572 -79.195183 0.28 0.0
TN303 2013-10-29T08:18:59.00Z -12.0057 -79.195185 0.23 135.45
TN303 2013-10-29T08:19:59.00Z -12.005683 -79.195178 0.06 0.0
TN303 2013-10-29T08:21:00.00Z -12.0057 -79.19518 0.2 235.894
TN303 2013-10-29T08:22:00.00Z -12.005685 -79.195182 0.31 135.45
TN303 2013-10-29T08:22:59.00Z -12.005693 -79.195187 0.16 135.45
TN303 2013-10-29T08:24:00.00Z -12.005718 -79.195163 0.33 90.0
TN303 2013-10-29T08:25:00.00Z -12.00573 -79.195168 0.2 55.894
TN303 2013-10-29T08:26:00.00Z -12.0057 -79.195188 0.22 0.0
TN303 2013-10-29T08:26:59.00Z -12.005705 -79.195198 0.43 49.752
TN303 2013-10-29T08:27:59.00Z -12.005717 -79.19518 0.22 0.0
TN303 2013-10-29T08:28:59.00Z -12.005713 -79.195182 0.12 63.073
TN303 2013-10-29T08:30:00.00Z -12.00571 -79.195182 0.28 180.0
TN303 2013-10-29T08:31:00.00Z -12.00571 -79.195188 0.43 49.752
TN303 2013-10-29T08:31:59.00Z -12.005708 -79.195192 0.0 0.0
TN303 2013-10-29T08:32:59.00Z -12.00571 -79.195197 0.11 180.0
TN303 2013-10-29T08:33:59.00Z -12.005703 -79.195198 0.35 129.099
TN303 2013-10-29T08:35:00.00Z -12.005717 -79.195202 0.12 116.927
TN303 2013-10-29T08:35:59.00Z -12.005722 -79.1952 0.11 90.0
TN303 2013-10-29T08:36:59.00Z -12.005727 -79.195193 0.49 263.56
TN303 2013-10-29T08:38:00.00Z -12.005715 -79.195202 0.5 77.279
TN303 2013-10-29T08:38:59.00Z -12.005723 -79.195187 0.12 206.207
TN303 2013-10-29T08:40:00.00Z -12.005725 -79.195202 0.16 135.45
TN303 2013-10-29T08:41:00.00Z -12.005708 -79.195197 0.43 310.248
TN303 2013-10-29T08:41:59.00Z -12.005703 -79.195185 0.2 326.724
TN303 2013-10-29T08:43:00.00Z -12.005718 -79.19517 0.2 235.894
TN303 2013-10-29T08:44:00.00Z -12.005712 -79.195173 0.16 296.927
TN303 2013-10-29T08:44:59.00Z -12.005707 -79.195193 0.11 0.0
TN303 2013-10-29T08:46:00.00Z -12.005712 -79.19519 0.23 224.55
TN303 2013-10-29T08:47:00.00Z -12.005737 -79.195192 0.28 0.0
TN303 2013-10-29T08:48:00.00Z -12.005728 -79.195193 0.29 247.887
TN303 2013-10-29T08:48:59.00Z -12.00571 -79.195198 0.17 0.0
TN303 2013-10-29T08:49:59.00Z -12.005695 -79.195198 0.2 124.106
TN303 2013-10-29T08:51:00.00Z -12.00571 -79.195187 0.44 90.0
TN303 2013-10-29T08:51:59.00Z -12.0057 -79.195168 0.22 270.0
TN303 2013-10-29T08:53:00.00Z -12.005695 -79.19517 0.32 238.638
TN303 2013-10-29T08:53:59.00Z -12.005703 -79.195175 0.16 90.0
TN303 2013-10-29T08:55:00.00Z -12.005717 -79.195175 0.29 292.113
TN303 2013-10-29T08:56:00.00Z -12.005715 -79.195178 0.11 270.0
TN303 2013-10-29T08:57:00.00Z -12.005707 -79.19519 0.2 213.276
TN303 2013-10-29T08:58:00.00Z -12.00571 -79.19519 0.16 224.55
TN303 2013-10-29T08:58:59.00Z -12.00572 -79.195182 0.27 270.0
TN303 2013-10-29T08:59:59.00Z -12.00572 -79.19519 0.11 270.0
TN303 2013-10-29T09:00:59.00Z -12.00571 -79.195185 0.42 246.474
TN303 2013-10-29T09:02:00.00Z -12.005712 -79.195187 0.11 180.0
TN303 2013-10-29T09:02:59.00Z -12.005707 -79.195192 0.17 251.294
TN303 2013-10-29T09:04:00.00Z -12.00571 -79.19519 0.17 180.0
TN303 2013-10-29T09:05:00.00Z -12.005727 -79.195182 0.17 198.167
TN303 2013-10-29T09:05:59.00Z -12.005722 -79.195188 0.12 26.207
TN303 2013-10-29T09:07:00.00Z -12.005687 -79.195197 0.12 116.927
TN303 2013-10-29T09:07:59.00Z -12.00569 -79.195183 0.2 213.276
TN303 2013-10-29T09:09:00.00Z -12.005718 -79.195163 0.08 44.55
TN303 2013-10-29T09:09:59.00Z -12.00572 -79.195165 0.16 44.55
TN303 2013-10-29T09:11:00.00Z -12.005703 -79.195185 0.06 0.0
TN303 2013-10-29T09:12:00.00Z -12.005693 -79.195193 0.05 90.0
TN303 2013-10-29T09:13:00.00Z -12.005693 -79.195182 0.11 180.0
TN303 2013-10-29T09:14:00.00Z -12.005712 -79.195177 0.12 116.927
TN303 2013-10-29T09:15:00.00Z -12.005715 -79.195178 0.24 243.073
TN303 2013-10-29T09:15:59.00Z -12.005705 -79.195207 0.32 58.638
TN303 2013-10-29T09:17:00.00Z -12.005705 -79.195187 0.16 238.638
TN303 2013-10-29T09:17:59.00Z -12.005712 -79.195183 0.12 26.207
TN303 2013-10-29T09:18:59.00Z -12.005713 -79.195183 0.37 26.207
TN303 2013-10-29T09:20:00.00Z -12.005705 -79.195188 0.17 0.0
TN303 2013-10-29T09:21:00.00Z -12.005708 -79.195202 0.2 33.276
TN303 2013-10-29T09:22:00.00Z -12.005725 -79.19519 0.2 124.106
TN303 2013-10-29T09:23:00.00Z -12.005732 -79.195178 0.32 238.638
TN303 2013-10-29T09:23:59.00Z -12.005708 -79.195192 0.05 270.0
TN303 2013-10-29T09:24:59.00Z -12.005698 -79.195208 0.16 90.0
TN303 2013-10-29T09:26:00.00Z -12.005718 -79.195202 0.22 180.0
TN303 2013-10-29T09:27:00.00Z -12.005753 -79.195192 0.27 90.0
TN303 2013-10-29T09:27:59.00Z -12.005735 -79.195187 0.11 0.0
TN303 2013-10-29T09:28:59.00Z -12.005707 -79.195185 0.42 246.474
TN303 2013-10-29T09:29:59.00Z -12.005702 -79.195207 0.43 310.248
TN303 2013-10-29T09:31:00.00Z -12.0057 -79.195212 0.22 90.0
TN303 2013-10-29T09:32:00.00Z -12.005732 -79.195182 0.05 270.0
TN303 2013-10-29T09:33:00.00Z -12.005735 -79.19518 0.3 338.507
TN303 2013-10-29T09:33:59.00Z -12.005687 -79.195198 0.12 26.207
TN303 2013-10-29T09:35:00.00Z -12.00566 -79.195207 0.22 90.0
TN303 2013-10-29T09:36:00.00Z -12.005712 -79.195183 0.33 90.0
TN303 2013-10-29T09:37:00.00Z -12.005752 -79.19517 0.11 270.0
TN303 2013-10-29T09:38:00.00Z -12.005723 -79.19519 0.35 341.833
TN303 2013-10-29T09:38:59.00Z -12.00569 -79.19521 0.11 180.0
TN303 2013-10-29T09:40:00.00Z -12.005707 -79.195188 0.33 90.0
TN303 2013-10-29T09:41:00.00Z -12.005697 -79.19516 0.33 270.0
TN303 2013-10-29T09:41:59.00Z -12.005688 -79.195173 0.2 124.106
TN303 2013-10-29T09:43:00.00Z -12.005702 -79.195187 0.22 90.0
TN303 2013-10-29T09:44:00.00Z -12.005727 -79.195192 0.22 104.249
TN303 2013-10-29T09:44:59.00Z -12.005735 -79.195183 0.2 124.106
TN303 2013-10-29T09:46:00.00Z -12.005732 -79.195182 0.16 270.0
TN303 2013-10-29T09:46:59.00Z -12.005705 -79.195192 0.05 270.0
TN303 2013-10-29T09:47:59.00Z -12.005705 -79.195197 0.21 238.638
TN303 2013-10-29T09:49:00.00Z -12.00572 -79.195188 0.34 108.706
TN303 2013-10-29T09:50:00.00Z -12.005707 -79.195178 0.22 0.0
TN303 2013-10-29T09:51:00.00Z -12.005712 -79.195185 0.35 50.901
TN303 2013-10-29T09:52:00.00Z -12.005717 -79.195188 0.11 0.0
TN303 2013-10-29T09:53:00.00Z -12.005725 -79.195193 0.28 168.862
TN303 2013-10-29T09:54:00.00Z -12.005705 -79.195193 0.27 270.0
TN303 2013-10-29T09:55:00.00Z -12.005695 -79.195203 0.16 90.0
TN303 2013-10-29T09:56:00.00Z -12.005707 -79.195183 0.28 180.0
TN303 2013-10-29T09:56:59.00Z -12.005707 -79.195172 0.22 104.249
TN303 2013-10-29T09:58:00.00Z -12.005692 -79.195175 0.16 270.0
TN303 2013-10-29T09:58:59.00Z -12.005697 -79.19517 0.17 180.0
TN303 2013-10-29T09:59:59.00Z -12.005697 -79.19516 0.39 261.743
TN303 2013-10-29T10:00:59.00Z -12.005673 -79.195168 0.11 180.0
TN303 2013-10-29T10:02:00.00Z -12.00562 -79.195213 0.4 344.291
TN303 2013-10-29T10:02:59.00Z -12.005477 -79.195312 0.35 309.099
TN303 2013-10-29T10:03:59.00Z -12.005272 -79.195447 0.47 324.887
TN303 2013-10-29T10:05:00.00Z -12.005038 -79.195617 0.64 329.432
TN303 2013-10-29T10:05:59.00Z -12.004785 -79.195813 0.45 7.015
TN303 2013-10-29T10:07:00.00Z -12.004493 -79.196012 0.67 350.682
TN303 2013-10-29T10:08:00.00Z -12.004192 -79.196202 1.03 302.411
TN303 2013-10-29T10:09:00.00Z -12.003883 -79.196418 0.87 325.724
TN303 2013-10-29T10:10:00.00Z -12.003563 -79.196637 0.64 329.431
TN303 2013-10-29T10:11:00.00Z -12.003252 -79.196893 1.05 309.099
TN303 2013-10-29T10:12:00.00Z -12.002952 -79.197155 0.74 312.434
TN303 2013-10-29T10:12:59.00Z -12.002652 -79.197418 0.7 341.833
TN303 2013-10-29T10:14:00.00Z -12.002337 -79.197692 0.95 324.886
TN303 2013-10-29T10:15:00.00Z -12.002005 -79.197972 0.71 302.879
TN303 2013-10-29T10:16:00.00Z -12.00168 -79.198255 0.91 335.326
TN303 2013-10-29T10:17:00.00Z -12.001358 -79.198522 0.63 344.971
TN303 2013-10-29T10:17:59.00Z -12.001122 -79.198733 0.17 161.833
TN303 2013-10-29T10:19:00.00Z -12.001283 -79.198868 0.92 212.328
TN303 2013-10-29T10:19:59.00Z -12.001735 -79.199223 1.51 223.083
TN303 2013-10-29T10:21:00.00Z -12.00226 -79.199972 1.73 234.883
TN303 2013-10-29T10:22:00.00Z -12.002607 -79.200848 1.31 265.161
TN303 2013-10-29T10:22:59.00Z -12.002708 -79.20157 1.53 265.85
TN303 2013-10-29T10:24:00.00Z -12.002685 -79.202298 1.57 290.617
TN303 2013-10-29T10:24:59.00Z -12.002518 -79.20313 1.69 285.157
TN303 2013-10-29T10:25:59.00Z -12.001918 -79.204073 2.24 324.399
TN303 2013-10-29T10:27:00.00Z -12.00101 -79.204997 2.31 322.202
TN303 2013-10-29T10:28:00.00Z -11.999942 -79.2059 2.49 319.021
TN303 2013-10-29T10:29:00.00Z -11.998802 -79.206845 3.04 325.006
TN303 2013-10-29T10:29:59.00Z -11.997438 -79.208008 3.81 317.784
TN303 2013-10-29T10:31:00.00Z -11.995732 -79.209403 4.14 320.829
TN303 2013-10-29T10:32:00.00Z -11.993938 -79.210853 4.23 322.819
TN303 2013-10-29T10:32:59.00Z -11.99212 -79.212282 4.29 320.634
TN303 2013-10-29T10:33:59.00Z -11.990268 -79.21375 4.29 320.634
TN303 2013-10-29T10:35:00.00Z -11.98837 -79.215265 4.41 324.554
TN303 2013-10-29T10:35:59.00Z -11.986505 -79.21669 4.28 323.265
TN303 2013-10-29T10:36:59.00Z -11.984623 -79.21813 4.42 321.997
TN303 2013-10-29T10:38:00.00Z -11.982715 -79.219585 4.21 324.452
TN303 2013-10-29T10:38:59.00Z -11.980853 -79.220982 4.34 327.323
TN303 2013-10-29T10:39:59.00Z -11.978973 -79.222403 4.35 325.722
TN303 2013-10-29T10:40:59.00Z -11.97709 -79.22383 4.15 325.674
TN303 2013-10-29T10:42:00.00Z -11.975165 -79.225265 4.27 316.487
TN303 2013-10-29T10:43:00.00Z -11.973282 -79.226672 4.38 325.133
TN303 2013-10-29T10:44:00.00Z -11.971402 -79.228067 4.35 325.721
TN303 2013-10-29T10:45:00.00Z -11.969523 -79.229442 4.29 326.923
TN303 2013-10-29T10:45:59.00Z -11.967683 -79.230797 4.16 322.953
TN303 2013-10-29T10:46:59.00Z -11.965802 -79.232168 4.41 327.114
TN303 2013-10-29T10:48:00.00Z -11.963872 -79.233565 4.24 330.82
TN303 2013-10-29T10:48:59.00Z -11.96201 -79.23494 4.41 324.551
TN303 2013-10-29T10:50:00.00Z -11.960082 -79.236337 4.34 324.714
TN303 2013-10-29T10:50:59.00Z -11.95822 -79.237685 4.26 327.535
TN303 2013-10-29T10:52:00.00Z -11.956327 -79.239078 4.21 324.449
TN303 2013-10-29T10:53:00.00Z -11.954443 -79.240433 4.26 327.535
TN303 2013-10-29T10:53:59.00Z -11.952575 -79.24177 4.17 326.718
TN303 2013-10-29T10:54:59.00Z -11.950703 -79.24312 4.24 322.814
TN303 2013-10-29T10:56:00.00Z -11.948773 -79.244503 4.02 327.151
TN303 2013-10-29T10:57:00.00Z -11.946862 -79.24585 4.22 321.772
TN303 2013-10-29T10:58:00.00Z -11.944958 -79.247217 4.25 329.173
TN303 2013-10-29T10:59:00.00Z -11.943037 -79.248582 4.34 324.712
TN303 2013-10-29T10:59:59.00Z -11.941155 -79.249947 4.35 325.718
TN303 2013-10-29T11:00:59.00Z -11.939242 -79.251325 4.29 320.629
TN303 2013-10-29T11:02:00.00Z -11.93727 -79.252732 4.26 324.879
TN303 2013-10-29T11:03:00.00Z -11.935335 -79.254137 4.11 327.986
TN303 2013-10-29T11:04:00.00Z -11.93341 -79.255518 4.44 326.521
TN303 2013-10-29T11:04:59.00Z -11.931488 -79.256873 4.3 321.656
TN303 2013-10-29T11:06:00.00Z -11.929507 -79.258282 4.4 328.692
TN303 2013-10-29T11:06:59.00Z -11.927583 -79.259648 4.48 323.412
TN303 2013-10-29T11:07:59.00Z -11.925625 -79.261012 4.38 325.128
TN303 2013-10-29T11:08:59.00Z -11.92369 -79.262382 4.38 327.707
TN303 2013-10-29T11:09:59.00Z -11.921747 -79.263742 4.35 325.716
TN303 2013-10-29T11:10:59.00Z -11.919808 -79.265128 4.32 323.697
TN303 2013-10-29T11:12:00.00Z -11.917813 -79.266545 4.36 323.119
TN303 2013-10-29T11:12:59.00Z -11.915887 -79.267918 4.35 325.715
TN303 2013-10-29T11:14:00.00Z -11.913897 -79.269328 4.47 322.427
TN303 2013-10-29T11:15:00.00Z -11.911945 -79.270722 4.36 323.119
TN303 2013-10-29T11:15:59.00Z -11.910025 -79.272105 4.31 322.678
TN303 2013-10-29T11:16:59.00Z -11.908097 -79.273512 4.29 326.917
TN303 2013-10-29T11:17:59.00Z -11.906175 -79.274913 4.35 329.917
TN303 2013-10-29T11:18:59.00Z -11.904242 -79.276303 4.38 321.543
TN303 2013-10-29T11:20:00.00Z -11.902278 -79.277723 4.35 325.714
TN303 2013-10-29T11:21:00.00Z -11.900353 -79.27915 4.31 327.924
TN303 2013-10-29T11:21:59.00Z -11.898435 -79.280535 4.48 319.907
TN303 2013-10-29T11:22:59.00Z -11.896492 -79.281965 4.37 324.124
TN303 2013-10-29T11:24:00.00Z -11.894518 -79.283398 4.32 326.31
TN303 2013-10-29T11:25:00.00Z -11.892602 -79.284803 4.37 324.124
TN303 2013-10-29T11:25:59.00Z -11.890715 -79.286197 4.41 320.988
TN303 2013-10-29T11:26:59.00Z -11.888788 -79.28761 4.34 327.314
TN303 2013-10-29T11:27:59.00Z -11.886848 -79.289033 4.35 325.712
TN303 2013-10-29T11:29:00.00Z -11.884897 -79.290508 4.32 326.309
TN303 2013-10-29T11:29:59.00Z -11.883 -79.291915 4.31 322.675
TN303 2013-10-29T11:30:59.00Z -11.881065 -79.293337 4.4 318.977
TN303 2013-10-29T11:31:59.00Z -11.879133 -79.294768 4.34 321.086
TN303 2013-10-29T11:33:00.00Z -11.877185 -79.296235 4.36 323.115
TN303 2013-10-29T11:33:59.00Z -11.875277 -79.29762 4.38 327.703
TN303 2013-10-29T11:35:00.00Z -11.87315 -79.29873 4.4 328.686
TN303 2013-10-29T11:36:00.00Z -11.871042 -79.29984 4.39 331.868
TN303 2013-10-29T11:36:59.00Z -11.868952 -79.300925 4.38 327.702
TN303 2013-10-29T11:38:00.00Z -11.866722 -79.301785 4.45 345.826
TN303 2013-10-29T11:38:59.00Z -11.8645 -79.302082 4.15 1.505
TN303 2013-10-29T11:39:59.00Z -11.862382 -79.301613 4.12 25.879
TN303 2013-10-29T11:40:59.00Z -11.86045 -79.300642 3.88 34.188
TN303 2013-10-29T11:41:59.00Z -11.858875 -79.299213 3.83 51.559
TN303 2013-10-29T11:42:59.00Z -11.857628 -79.297482 3.89 57.259
TN303 2013-10-29T11:43:59.00Z -11.856865 -79.295548 3.82 75.758
TN303 2013-10-29T11:44:59.00Z -11.856715 -79.293517 3.72 101.144
TN303 2013-10-29T11:46:00.00Z -11.857285 -79.291593 3.15 118.257
TN303 2013-10-29T11:47:00.00Z -11.858262 -79.289908 3.57 122.865
TN303 2013-10-29T11:47:59.00Z -11.859252 -79.288222 3.6 123.605
TN303 2013-10-29T11:49:00.00Z -11.860483 -79.286603 4.3 128.168
TN303 2013-10-29T11:50:00.00Z -11.861872 -79.28516 3.73 133.047
TN303 2013-10-29T11:51:00.00Z -11.863242 -79.283675 3.53 136.064
TN303 2013-10-29T11:51:59.00Z -11.864595 -79.282215 3.58 130.459
TN303 2013-10-29T11:53:00.00Z -11.865997 -79.28066 3.89 125.667
TN303 2013-10-29T11:54:00.00Z -11.867383 -79.279093 3.73 131.855
TN303 2013-10-29T11:55:00.00Z -11.868917 -79.277693 3.3 152.51
TN303 2013-10-29T11:55:59.00Z -11.870652 -79.276663 3.87 154.143
TN303 2013-10-29T11:56:59.00Z -11.872515 -79.275738 3.8 154.519
TN303 2013-10-29T11:57:59.00Z -11.874363 -79.274795 4.17 152.774
TN303 2013-10-29T11:59:00.00Z -11.876242 -79.273825 4.09 153.098
TN303 2013-10-29T11:59:59.00Z -11.87809 -79.272868 4.17 152.774
TN303 2013-10-29T12:01:00.00Z -11.879997 -79.271883 3.7 155.673
TN303 2013-10-29T12:02:00.00Z -11.881858 -79.270918 3.95 155.555
TN303 2013-10-29T12:03:00.00Z -11.883705 -79.269943 4.24 152.462
TN303 2013-10-29T12:04:00.00Z -11.885548 -79.268957 3.95 155.555
TN303 2013-10-29T12:05:00.00Z -11.88737 -79.267962 4.09 161.342
TN303 2013-10-29T12:06:00.00Z -11.889205 -79.266978 3.92 150.927
TN303 2013-10-29T12:06:59.00Z -11.890993 -79.266002 4.02 151.693
TN303 2013-10-29T12:07:59.00Z -11.892795 -79.265025 3.92 150.928
TN303 2013-10-29T12:09:00.00Z -11.89465 -79.264008 3.76 157.881
TN303 2013-10-29T12:09:59.00Z -11.89644 -79.26302 4.02 153.435
TN303 2013-10-29T12:11:00.00Z -11.8983 -79.262002 3.73 146.246
TN303 2013-10-29T12:12:00.00Z -11.900108 -79.260982 3.35 152.949
TN303 2013-10-29T12:12:59.00Z -11.901897 -79.25999 3.88 150.531
TN303 2013-10-29T12:13:59.00Z -11.903707 -79.258973 4.02 147.147
TN303 2013-10-29T12:15:00.00Z -11.905553 -79.257932 3.91 148.048
TN303 2013-10-29T12:16:00.00Z -11.907372 -79.256917 4.37 146.714
TN303 2013-10-29T12:17:00.00Z -11.90915 -79.255898 4.19 152.115
TN303 2013-10-29T12:18:00.00Z -11.910967 -79.254877 4.08 145.861
TN303 2013-10-29T12:18:59.00Z -11.912762 -79.25385 3.65 151.484
TN303 2013-10-29T12:20:00.00Z -11.914617 -79.252787 4.11 147.984
TN303 2013-10-29T12:21:00.00Z -11.91643 -79.251747 3.73 149.279
TN303 2013-10-29T12:22:00.00Z -11.918225 -79.250703 3.7 153.785
TN303 2013-10-29T12:22:59.00Z -11.92 -79.24969 3.53 149.423
TN303 2013-10-29T12:23:59.00Z -11.921793 -79.248665 3.4 151.318
TN303 2013-10-29T12:25:00.00Z -11.923605 -79.247635 3.61 149.126
TN303 2013-10-29T12:25:59.00Z -11.925342 -79.246652 3.83 150.126
TN303 2013-10-29T12:26:59.00Z -11.927088 -79.245627 3.83 150.126
TN303 2013-10-29T12:27:59.00Z -11.928852 -79.244595 3.5 152.187
TN303 2013-10-29T12:29:00.00Z -11.930657 -79.243527 3.93 149.151
TN303 2013-10-29T12:30:00.00Z -11.932395 -79.24241 3.79 144.879
TN303 2013-10-29T12:31:00.00Z -11.934143 -79.241278 4.52 146.332
TN303 2013-10-29T12:32:00.00Z -11.935902 -79.240152 3.79 147.864
TN303 2013-10-29T12:33:00.00Z -11.937662 -79.239035 3.55 150.635
TN303 2013-10-29T12:34:00.00Z -11.939403 -79.237918 3.83 150.127
TN303 2013-10-29T12:34:59.00Z -11.941113 -79.236825 4.06 144.79
TN303 2013-10-29T12:35:59.00Z -11.942845 -79.235727 4.19 142.356
TN303 2013-10-29T12:36:59.00Z -11.944585 -79.234618 4.06 147.574
TN303 2013-10-29T12:38:00.00Z -11.946352 -79.233492 3.91 148.052
TN303 2013-10-29T12:39:00.00Z -11.948112 -79.232385 3.85 149.426
TN303 2013-10-29T12:40:00.00Z -11.949887 -79.231288 4.17 144.006
TN303 2013-10-29T12:40:59.00Z -11.951597 -79.23021 3.82 151.957
TN303 2013-10-29T12:42:00.00Z -11.953393 -79.229105 3.77 151.562
TN303 2013-10-29T12:43:00.00Z -11.955175 -79.227993 4.0 146.066
TN303 2013-10-29T12:44:00.00Z -11.956943 -79.22691 3.97 146.719
TN303 2013-10-29T12:44:59.00Z -11.95868 -79.225848 3.91 148.053
TN303 2013-10-29T12:46:00.00Z -11.960488 -79.224725 3.88 148.735
TN303 2013-10-29T12:46:59.00Z -11.962242 -79.223648 3.76 148.57
TN303 2013-10-29T12:47:59.00Z -11.963997 -79.222577 3.7 146.955
TN303 2013-10-29T12:48:59.00Z -11.965748 -79.221505 4.06 147.576
TN303 2013-10-29T12:50:00.00Z -11.967497 -79.220365 3.7 146.955
TN303 2013-10-29T12:51:00.00Z -11.969258 -79.219237 3.97 146.72
TN303 2013-10-29T12:52:00.00Z -11.971012 -79.218113 3.67 147.669
TN303 2013-10-29T12:53:00.00Z -11.97275 -79.21699 3.98 149.563
TN303 2013-10-29T12:53:59.00Z -11.97446 -79.215868 3.77 151.564
TN303 2013-10-29T12:55:00.00Z -11.976248 -79.214707 3.92 146.277
TN303 2013-10-29T12:56:00.00Z -11.97801 -79.213558 4.03 145.426
TN303 2013-10-29T12:57:00.00Z -11.979758 -79.212412 3.98 149.564
TN303 2013-10-29T12:58:00.00Z -11.981517 -79.21129 3.85 149.429
TN303 2013-10-29T12:58:59.00Z -11.983238 -79.210173 4.47 142.434
TN303 2013-10-29T13:00:00.00Z -11.98501 -79.209013 3.97 143.874
TN303 2013-10-29T13:00:59.00Z -11.986728 -79.207888 3.77 146.722
TN303 2013-10-29T13:02:00.00Z -11.988515 -79.206718 3.85 149.43
TN303 2013-10-29T13:03:00.00Z -11.990283 -79.205562 3.84 148.309
TN303 2013-10-29T13:04:00.00Z -11.992032 -79.204412 4.01 148.893
TN303 2013-10-29T13:05:00.00Z -11.993787 -79.20327 3.65 146.484
TN303 2013-10-29T13:06:00.00Z -11.995533 -79.202127 3.94 147.385
TN303 2013-10-29T13:06:59.00Z -11.997268 -79.201008 3.63 150.319
TN303 2013-10-29T13:08:00.00Z -11.998882 -79.199995 2.74 150.215
TN303 2013-10-29T13:09:00.00Z -11.999827 -79.199348 1.98 136.572
TN303 2013-10-29T13:09:59.00Z -12.000388 -79.198888 1.18 143.027
TN303 2013-10-29T13:11:00.00Z -12.000922 -79.198517 1.01 151.024
TN303 2013-10-29T13:11:59.00Z -12.00157 -79.19814 1.69 144.671
TN303 2013-10-29T13:13:00.00Z -12.002408 -79.197577 2.0 152.391
TN303 2013-10-29T13:13:59.00Z -12.003343 -79.197037 1.82 145.287
TN303 2013-10-29T13:14:59.00Z -12.003988 -79.196582 1.32 135.449
TN303 2013-10-29T13:15:59.00Z -12.004412 -79.196282 0.51 131.046
TN303 2013-10-29T13:16:59.00Z -12.004557 -79.196155 0.23 135.45
TN303 2013-10-29T13:18:00.00Z -12.004648 -79.196072 0.44 90.0
TN303 2013-10-29T13:19:00.00Z -12.004663 -79.196025 0.22 90.0
TN303 2013-10-29T13:20:00.00Z -12.004725 -79.195975 0.52 122.411
TN303 2013-10-29T13:21:00.00Z -12.004848 -79.195895 0.44 120.134
TN303 2013-10-29T13:22:00.00Z -12.004933 -79.195815 0.31 224.55
TN303 2013-10-29T13:23:00.00Z -12.005023 -79.195755 0.27 90.0
TN303 2013-10-29T13:23:59.00Z -12.005122 -79.195675 0.3 158.507
TN303 2013-10-29T13:24:59.00Z -12.005223 -79.195583 0.32 149.432
TN303 2013-10-29T13:25:59.00Z -12.005292 -79.195512 0.12 116.926
TN303 2013-10-29T13:27:00.00Z -12.005358 -79.195453 0.39 135.45
TN303 2013-10-29T13:28:00.00Z -12.005448 -79.195367 0.5 102.721
TN303 2013-10-29T13:29:00.00Z -12.00554 -79.195277 0.3 158.507
TN303 2013-10-29T13:30:00.00Z -12.005597 -79.19524 0.0 0.0
TN303 2013-10-29T13:31:00.00Z -12.005627 -79.195232 0.12 333.793
TN303 2013-10-29T13:31:59.00Z -12.005638 -79.195215 0.25 153.793
TN303 2013-10-29T13:32:59.00Z -12.005682 -79.19517 0.11 90.0
TN303 2013-10-29T13:33:59.00Z -12.005685 -79.195165 0.2 146.724
TN303 2013-10-29T13:34:59.00Z -12.005668 -79.19518 0.12 63.073
TN303 2013-10-29T13:36:00.00Z -12.005673 -79.195173 0.22 180.0
TN303 2013-10-29T13:37:00.00Z -12.00568 -79.19517 0.33 90.0
TN303 2013-10-29T13:38:00.00Z -12.005667 -79.195165 0.4 286.184
TN303 2013-10-29T13:38:59.00Z -12.005662 -79.195167 0.11 0.0
TN303 2013-10-29T13:39:59.00Z -12.005675 -79.195165 0.4 106.184
TN303 2013-10-29T13:41:00.00Z -12.005682 -79.19517 0.16 44.55
TN303 2013-10-29T13:41:59.00Z -12.00567 -79.195173 0.11 0.0
TN303 2013-10-29T13:42:59.00Z -12.005667 -79.19518 0.25 333.793
TN303 2013-10-29T13:43:59.00Z -12.005682 -79.195178 0.08 135.45
TN303 2013-10-29T13:45:00.00Z -12.005677 -79.195173 0.12 243.073
TN303 2013-10-29T13:46:00.00Z -12.005672 -79.195172 0.17 251.294
TN303 2013-10-29T13:47:00.00Z -12.00568 -79.195173 0.35 218.222
TN303 2013-10-29T13:48:00.00Z -12.00568 -79.195163 0.17 18.167
TN303 2013-10-29T13:48:59.00Z -12.005665 -79.19515 0.2 304.106
TN303 2013-10-29T13:49:59.00Z -12.005662 -79.19516 0.16 315.45
TN303 2013-10-29T13:50:59.00Z -12.005667 -79.195173 0.31 315.45
TN303 2013-10-29T13:51:59.00Z -12.005683 -79.195168 0.28 143.561
TN303 2013-10-29T13:52:59.00Z -12.005688 -79.195167 0.28 281.484
TN303 2013-10-29T13:53:59.00Z -12.005668 -79.195175 0.0 0.0
TN303 2013-10-29T13:55:00.00Z -12.00565 -79.19517 0.2 55.894
TN303 2013-10-29T13:55:59.00Z -12.005668 -79.195158 0.11 180.0
TN303 2013-10-29T13:57:00.00Z -12.005678 -79.195158 0.12 296.927
TN303 2013-10-29T13:57:59.00Z -12.005672 -79.195167 0.08 224.55
TN303 2013-10-29T13:59:00.00Z -12.005662 -79.195165 0.16 44.55
TN303 2013-10-29T14:00:00.00Z -12.005668 -79.195152 0.24 116.927
TN303 2013-10-29T14:00:59.00Z -12.005682 -79.19516 0.2 55.894
TN303 2013-10-29T14:01:59.00Z -12.005682 -79.195173 0.11 270.0
TN303 2013-10-29T14:02:59.00Z -12.005678 -79.195172 0.06 0.0
TN303 2013-10-29T14:04:00.00Z -12.005678 -79.195173 0.11 180.0
TN303 2013-10-29T14:04:59.00Z -12.005683 -79.195167 0.0 0.0
TN303 2013-10-29T14:06:00.00Z -12.005672 -79.19516 0.2 304.106
TN303 2013-10-29T14:07:00.00Z -12.00567 -79.195165 0.16 270.0
TN303 2013-10-29T14:08:00.00Z -12.005677 -79.195175 0.11 270.0
TN303 2013-10-29T14:08:59.00Z -12.005687 -79.195177 0.28 0.0
TN303 2013-10-29T14:09:59.00Z -12.005675 -79.195175 0.11 0.0
TN303 2013-10-29T14:11:00.00Z -12.005675 -79.195168 0.25 153.793
TN303 2013-10-29T14:11:59.00Z -12.005675 -79.195158 0.12 26.207
TN303 2013-10-29T14:12:59.00Z -12.005672 -79.195155 0.11 0.0
TN303 2013-10-29T14:13:59.00Z -12.005673 -79.195165 0.38 270.0
TN303 2013-10-29T14:14:59.00Z -12.005672 -79.19518 0.11 90.0
TN303 2013-10-29T14:16:00.00Z -12.005688 -79.195173 0.28 78.516
TN303 2013-10-29T14:16:59.00Z -12.005682 -79.195173 0.16 315.45
TN303 2013-10-29T14:17:59.00Z -12.005672 -79.195175 0.17 251.294
TN303 2013-10-29T14:18:59.00Z -12.005675 -79.195175 0.11 180.0
TN303 2013-10-29T14:20:00.00Z -12.005677 -79.195175 0.17 108.706
TN303 2013-10-29T14:21:00.00Z -12.005665 -79.195182 0.27 127.303
TN303 2013-10-29T14:22:00.00Z -12.005665 -79.195173 0.0 0.0
TN303 2013-10-29T14:23:00.00Z -12.005667 -79.195172 0.39 224.55
TN303 2013-10-29T14:23:59.00Z -12.00566 -79.195172 0.29 112.113
TN303 2013-10-29T14:25:00.00Z -12.005667 -79.195167 0.16 44.55
TN303 2013-10-29T14:26:00.00Z -12.005675 -79.195157 0.12 333.793
TN303 2013-10-29T14:27:00.00Z -12.005677 -79.195152 0.11 90.0
TN303 2013-10-29T14:28:00.00Z -12.005655 -79.195152 0.4 73.816
TN303 2013-10-29T14:29:00.00Z -12.005648 -79.195153 0.11 180.0
TN303 2013-10-29T14:29:59.00Z -12.00567 -79.19516 0.16 90.0
TN303 2013-10-29T14:31:00.00Z -12.005677 -79.195157 0.31 44.55
TN303 2013-10-29T14:31:59.00Z -12.005667 -79.195155 0.0 0.0
TN303 2013-10-29T14:33:00.00Z -12.005672 -79.195162 0.16 44.55
TN303 2013-10-29T14:34:00.00Z -12.005663 -79.195165 0.0 0.0
TN303 2013-10-29T14:35:00.00Z -12.005663 -79.195167 0.16 135.45
TN303 2013-10-29T14:36:00.00Z -12.005677 -79.195167 0.22 104.249
TN303 2013-10-29T14:37:00.00Z -12.005667 -79.195172 0.4 73.816
TN303 2013-10-29T14:38:00.00Z -12.005657 -79.19517 0.11 90.0
TN303 2013-10-29T14:39:00.00Z -12.005672 -79.195163 0.31 315.45
TN303 2013-10-29T14:40:00.00Z -12.005672 -79.195158 0.29 67.887
TN303 2013-10-29T14:40:59.00Z -12.005657 -79.19516 0.2 55.894
TN303 2013-10-29T14:41:59.00Z -12.005662 -79.195168 0.24 296.927
TN303 2013-10-29T14:42:59.00Z -12.005693 -79.195172 0.05 270.0
TN303 2013-10-29T14:44:00.00Z -12.005685 -79.195188 0.64 121.362
TN303 2013-10-29T14:44:59.00Z -12.005675 -79.195175 0.32 58.638
TN303 2013-10-29T14:46:00.00Z -12.00567 -79.19517 0.22 270.0
TN303 2013-10-29T14:47:00.00Z -12.005675 -79.195177 0.2 304.106
TN303 2013-10-29T14:47:59.00Z -12.005678 -79.195183 0.11 180.0
TN303 2013-10-29T14:48:59.00Z -12.005678 -79.19518 0.12 296.927
TN303 2013-10-29T14:49:59.00Z -12.005678 -79.19518 0.28 78.516
TN303 2013-10-29T14:51:00.00Z -12.005665 -79.195178 0.11 270.0
TN303 2013-10-29T14:52:00.00Z -12.00567 -79.19517 0.16 315.45
TN303 2013-10-29T14:52:59.00Z -12.005677 -79.195158 0.38 270.0
TN303 2013-10-29T14:53:59.00Z -12.005675 -79.195167 0.16 270.0
TN303 2013-10-29T14:55:00.00Z -12.00567 -79.19517 0.11 0.0
TN303 2013-10-29T14:55:59.00Z -12.005683 -79.195167 0.28 348.862
TN303 2013-10-29T14:57:00.00Z -12.00566 -79.195162 0.11 0.0
TN303 2013-10-29T14:58:00.00Z -12.005658 -79.195162 0.33 270.0
TN303 2013-10-29T14:58:59.00Z -12.005682 -79.195152 0.12 116.927
TN303 2013-10-29T15:00:02.00Z -12.005678 -79.195153 0.1 224.55
TN303 2013-10-29T15:00:59.00Z -12.005663 -79.195163 0.33 80.391
TN303 2013-10-29T15:02:00.00Z -12.005657 -79.195157 0.17 180.0
TN303 2013-10-29T15:03:00.00Z -12.005667 -79.195163 0.17 180.0
TN303 2013-10-29T15:03:59.00Z -12.005668 -79.195167 0.27 270.0
TN303 2013-10-29T15:05:00.00Z -12.00567 -79.19517 0.17 0.0
TN303 2013-10-29T15:05:59.00Z -12.005673 -79.195172 0.12 206.207
TN303 2013-10-29T15:06:59.00Z -12.00568 -79.195173 0.17 0.0
TN303 2013-10-29T15:07:59.00Z -12.005675 -79.195173 0.16 90.0
TN303 2013-10-29T15:09:00.00Z -12.005668 -79.195175 0.16 224.55
TN303 2013-10-29T15:10:00.00Z -12.005683 -79.195173 0.2 326.724
TN303 2013-10-29T15:11:00.00Z -12.005677 -79.19517 0.29 292.113
TN303 2013-10-29T15:12:00.00Z -12.005672 -79.19518 0.17 108.706
TN303 2013-10-29T15:13:00.00Z -12.00567 -79.195178 0.05 90.0
TN303 2013-10-29T15:14:00.00Z -12.005677 -79.195177 0.06 180.0
TN303 2013-10-29T15:14:59.00Z -12.005678 -79.195178 0.27 90.0
TN303 2013-10-29T15:16:00.00Z -12.005673 -79.195178 0.11 180.0
TN303 2013-10-29T15:16:59.00Z -12.005673 -79.195177 0.11 180.0
TN303 2013-10-29T15:17:59.00Z -12.005685 -79.195165 0.11 270.0
TN303 2013-10-29T15:19:00.00Z -12.00568 -79.195168 0.22 180.0
TN303 2013-10-29T15:20:00.00Z -12.005665 -79.19517 0.11 270.0
TN303 2013-10-29T15:20:59.00Z -12.005673 -79.195173 0.08 44.55
TN303 2013-10-29T15:22:00.00Z -12.005688 -79.195162 0.0 0.0
TN303 2013-10-29T15:23:00.00Z -12.005677 -79.19516 0.16 315.45
TN303 2013-10-29T15:23:59.00Z -12.005662 -79.195163 0.27 232.697
TN303 2013-10-29T15:24:59.00Z -12.005665 -79.195167 0.3 21.493
TN303 2013-10-29T15:26:00.00Z -12.005673 -79.195163 0.16 224.55
TN303 2013-10-29T15:26:59.00Z -12.005673 -79.195168 0.27 90.0
TN303 2013-10-29T15:28:00.00Z -12.005673 -79.195165 0.06 0.0
TN303 2013-10-29T15:29:00.00Z -12.005673 -79.19516 0.12 296.927
TN303 2013-10-29T15:29:59.00Z -12.005673 -79.195162 0.05 270.0
TN303 2013-10-29T15:31:00.00Z -12.005668 -79.195172 0.11 90.0
TN303 2013-10-29T15:32:00.00Z -12.00567 -79.195177 0.22 90.0
TN303 2013-10-29T15:33:00.00Z -12.005677 -79.19518 0.23 224.55
TN303 2013-10-29T15:33:59.00Z -12.005688 -79.195172 0.2 235.894
TN303 2013-10-29T15:34:59.00Z -12.00567 -79.195167 0.11 90.0
TN303 2013-10-29T15:36:00.00Z -12.00566 -79.195168 0.4 253.816
TN303 2013-10-29T15:37:00.00Z -12.005663 -79.19516 0.2 235.894
TN303 2013-10-29T15:38:00.00Z -12.00566 -79.195162 0.23 315.45
TN303 2013-10-29T15:39:00.00Z -12.00565 -79.195162 0.0 0.0
TN303 2013-10-29T15:40:00.00Z -12.00566 -79.195158 0.27 270.0
TN303 2013-10-29T15:40:59.00Z -12.005675 -79.19516 0.16 224.55
TN303 2013-10-29T15:41:59.00Z -12.005682 -79.195162 0.22 90.0
TN303 2013-10-29T15:42:59.00Z -12.005672 -79.195167 0.22 0.0
TN303 2013-10-29T15:44:00.00Z -12.005663 -79.195165 0.2 124.106
TN303 2013-10-29T15:44:59.00Z -12.005665 -79.195162 0.16 135.45
TN303 2013-10-29T15:45:59.00Z -12.005667 -79.195157 0.2 146.724
TN303 2013-10-29T15:46:59.00Z -12.005663 -79.195163 0.33 90.0
TN303 2013-10-29T15:48:00.00Z -12.00566 -79.195167 0.11 0.0
TN303 2013-10-29T15:49:00.00Z -12.005678 -79.195177 0.23 315.45
TN303 2013-10-29T15:50:00.00Z -12.00569 -79.195172 0.0 0.0
TN303 2013-10-29T15:50:59.00Z -12.005682 -79.195172 0.25 26.207
TN303 2013-10-29T15:52:00.00Z -12.005672 -79.195177 0.11 0.0
TN303 2013-10-29T15:52:59.00Z -12.005682 -79.195172 0.0 0.0
TN303 2013-10-29T15:54:00.00Z -12.005688 -79.195168 0.12 153.793
TN303 2013-10-29T15:55:00.00Z -12.005683 -79.195177 0.22 90.0
TN303 2013-10-29T15:55:59.00Z -12.005665 -79.195177 0.05 270.0
TN303 2013-10-29T15:56:59.00Z -12.005672 -79.19518 0.2 146.724
TN303 2013-10-29T15:57:59.00Z -12.005687 -79.195177 0.11 0.0
TN303 2013-10-29T15:58:59.00Z -12.005683 -79.195175 0.12 63.073
TN303 2013-10-29T16:00:00.00Z -12.005662 -79.195172 0.28 180.0
TN303 2013-10-29T16:01:00.00Z -12.005667 -79.195172 0.17 198.167
TN303 2013-10-29T16:02:00.00Z -12.005673 -79.195168 0.22 270.0
TN303 2013-10-29T16:03:00.00Z -12.005658 -79.195163 0.12 296.927
TN303 2013-10-29T16:04:00.00Z -12.005658 -79.195167 0.0 0.0
TN303 2013-10-29T16:05:00.00Z -12.00568 -79.195158 0.11 90.0
TN303 2013-10-29T16:06:00.00Z -12.00568 -79.195167 0.0 0.0
TN303 2013-10-29T16:06:59.00Z -12.005665 -79.19517 0.32 301.362
TN303 2013-10-29T16:07:59.00Z -12.005658 -79.195178 0.11 270.0
TN303 2013-10-29T16:09:00.00Z -12.00568 -79.195178 0.24 296.927
TN303 2013-10-29T16:10:00.00Z -12.005672 -79.195173 0.22 270.0
TN303 2013-10-29T16:10:59.00Z -12.005675 -79.195168 0.05 90.0
TN303 2013-10-29T16:12:00.00Z -12.00567 -79.19516 0.2 235.894
TN303 2013-10-29T16:12:59.00Z -12.00567 -79.195155 0.2 304.106
TN303 2013-10-29T16:14:00.00Z -12.005667 -79.195168 0.11 0.0
TN303 2013-10-29T16:15:00.00Z -12.005665 -79.195178 0.16 90.0
TN303 2013-10-29T16:16:00.00Z -12.005672 -79.195172 0.34 288.706
TN303 2013-10-29T16:17:00.00Z -12.005683 -79.195167 0.0 0.0
TN303 2013-10-29T16:18:00.00Z -12.005685 -79.19516 0.29 292.113
TN303 2013-10-29T16:19:00.00Z -12.00568 -79.195168 0.32 30.568
TN303 2013-10-29T16:20:00.00Z -12.005653 -79.195165 0.0 0.0
TN303 2013-10-29T16:21:00.00Z -12.005655 -79.195167 0.31 135.45
TN303 2013-10-29T16:21:59.00Z -12.005677 -79.195165 0.16 90.0
TN303 2013-10-29T16:23:00.00Z -12.005677 -79.195162 0.23 224.55
TN303 2013-10-29T16:23:59.00Z -12.005667 -79.195173 0.05 90.0
TN303 2013-10-29T16:24:59.00Z -12.005667 -79.195178 0.22 255.751
TN303 2013-10-29T16:25:59.00Z -12.005672 -79.195175 0.25 333.793
TN303 2013-10-29T16:27:00.00Z -12.005673 -79.195167 0.17 0.0
TN303 2013-10-29T16:27:59.00Z -12.005657 -79.195172 0.11 90.0
TN303 2013-10-29T16:29:00.00Z -12.00566 -79.195173 0.16 315.45
TN303 2013-10-29T16:30:00.00Z -12.00567 -79.195172 0.28 0.0
TN303 2013-10-29T16:31:00.00Z -12.005675 -79.19517 0.33 0.0
TN303 2013-10-29T16:31:59.00Z -12.005673 -79.19517 0.06 0.0
TN303 2013-10-29T16:32:59.00Z -12.005672 -79.195157 0.17 251.294
TN303 2013-10-29T16:33:59.00Z -12.00567 -79.19516 0.28 0.0
TN303 2013-10-29T16:35:00.00Z -12.005652 -79.195168 0.25 333.793
TN303 2013-10-29T16:35:59.00Z -12.00567 -79.195168 0.24 243.073
TN303 2013-10-29T16:37:00.00Z -12.005693 -79.195167 0.11 270.0
TN303 2013-10-29T16:38:00.00Z -12.005673 -79.195178 0.23 44.55
TN303 2013-10-29T16:39:00.00Z -12.005647 -79.195177 0.05 270.0
TN303 2013-10-29T16:40:00.00Z -12.005668 -79.195163 0.29 112.113
TN303 2013-10-29T16:41:00.00Z -12.005682 -79.195163 0.08 135.45
TN303 2013-10-29T16:41:59.00Z -12.00567 -79.19517 0.16 270.0
TN303 2013-10-29T16:43:00.00Z -12.005667 -79.195178 0.12 26.207
TN303 2013-10-29T16:43:59.00Z -12.005665 -79.195185 0.38 90.0
TN303 2013-10-29T16:44:59.00Z -12.00567 -79.195178 0.05 90.0
TN303 2013-10-29T16:45:59.00Z -12.005685 -79.195167 0.2 146.724
TN303 2013-10-29T16:47:00.00Z -12.005667 -79.195167 0.11 0.0
TN303 2013-10-29T16:48:00.00Z -12.005653 -79.195168 0.11 270.0
TN303 2013-10-29T16:48:59.00Z -12.005673 -79.195155 0.12 296.927
TN303 2013-10-29T16:49:59.00Z -12.005682 -79.195163 0.2 55.894
TN303 2013-10-29T16:51:00.00Z -12.005677 -79.195175 0.06 180.0
TN303 2013-10-29T16:52:00.00Z -12.005667 -79.195162 0.22 104.249
TN303 2013-10-29T16:53:01.00Z -12.005783 -79.195203 0.22 270.0
TN303 2013-10-29T16:54:00.00Z -12.00571 -79.195193 0.12 26.207
TN303 2013-10-29T16:54:59.00Z -12.005665 -79.19515 0.17 180.0
TN303 2013-10-29T16:55:59.00Z -12.005667 -79.195153 0.12 26.207
TN303 2013-10-29T16:57:00.00Z -12.005672 -79.195157 0.22 0.0
TN303 2013-10-29T16:57:59.00Z -12.00566 -79.19517 0.11 0.0
TN303 2013-10-29T16:59:00.00Z -12.005657 -79.195172 0.11 90.0
TN303 2013-10-29T17:00:00.00Z -12.005678 -79.195163 0.11 90.0
TN303 2013-10-29T17:00:59.00Z -12.00567 -79.195147 0.2 235.894
TN303 2013-10-29T17:01:59.00Z -12.005662 -79.195152 0.25 26.207
TN303 2013-10-29T17:03:00.00Z -12.005665 -79.19519 0.22 180.0
TN303 2013-10-29T17:03:59.00Z -12.005667 -79.19516 0.16 315.45
TN303 2013-10-29T17:05:00.00Z -12.005675 -79.195167 0.11 180.0
TN303 2013-10-29T17:06:00.00Z -12.005675 -79.195172 0.22 90.0
TN303 2013-10-29T17:07:00.00Z -12.005673 -79.195168 0.0 0.0
TN303 2013-10-29T17:07:59.00Z -12.005668 -79.195172 0.11 90.0
TN303 2013-10-29T17:09:00.00Z -12.005663 -79.195163 0.11 90.0
TN303 2013-10-29T17:09:59.00Z -12.005673 -79.195162 0.27 90.0
TN303 2013-10-29T17:11:00.00Z -12.00568 -79.195158 0.5 257.279
TN303 2013-10-29T17:12:00.00Z -12.005672 -79.195183 0.08 135.45
TN303 2013-10-29T17:13:00.00Z -12.00567 -79.195172 0.16 135.45
TN303 2013-10-29T17:14:00.00Z -12.00568 -79.195165 0.11 90.0
TN303 2013-10-29T17:15:00.00Z -12.005675 -79.195162 0.23 315.45
TN303 2013-10-29T17:16:00.00Z -12.005665 -79.195165 0.16 44.55
TN303 2013-10-29T17:16:59.00Z -12.005665 -79.195162 0.05 270.0
TN303 2013-10-29T17:18:00.00Z -12.005677 -79.195157 0.22 90.0
TN303 2013-10-29T17:18:59.00Z -12.005667 -79.195162 0.0 0.0
TN303 2013-10-29T17:20:00.00Z -12.005665 -79.195162 0.42 66.474
TN303 2013-10-29T17:21:00.00Z -12.005663 -79.195157 0.24 63.073
TN303 2013-10-29T17:21:59.00Z -12.005663 -79.19516 0.25 153.793
TN303 2013-10-29T17:22:59.00Z -12.005658 -79.195155 0.06 0.0
TN303 2013-10-29T17:24:00.00Z -12.005662 -79.19516 0.11 270.0
TN303 2013-10-29T17:25:00.00Z -12.00568 -79.195158 0.24 243.073
TN303 2013-10-29T17:26:00.00Z -12.00569 -79.195163 0.24 296.927
TN303 2013-10-29T17:26:59.00Z -12.00567 -79.195165 0.11 180.0
TN303 2013-10-29T17:28:00.00Z -12.005657 -79.195165 0.11 270.0
TN303 2013-10-29T17:29:00.00Z -12.00567 -79.195158 0.11 270.0
TN303 2013-10-29T17:30:00.00Z -12.005683 -79.195167 0.0 0.0
TN303 2013-10-29T17:31:00.00Z -12.005673 -79.19517 0.11 90.0
TN303 2013-10-29T17:32:00.00Z -12.00567 -79.19518 0.11 0.0
TN303 2013-10-29T17:33:00.00Z -12.005672 -79.19518 0.12 116.927
TN303 2013-10-29T17:34:00.00Z -12.005685 -79.19518 0.27 270.0
TN303 2013-10-29T17:35:00.00Z -12.005688 -79.195175 0.23 315.45
TN303 2013-10-29T17:35:59.00Z -12.005675 -79.195178 0.0 0.0
TN303 2013-10-29T17:36:59.00Z -12.005668 -79.195175 0.11 180.0
TN303 2013-10-29T17:38:00.00Z -12.005663 -79.195172 0.16 270.0
TN303 2013-10-29T17:39:00.00Z -12.005682 -79.195178 0.29 67.887
TN303 2013-10-29T17:39:59.00Z -12.005685 -79.195178 0.17 161.833
TN303 2013-10-29T17:40:59.00Z -12.005655 -79.195178 0.12 26.207
TN303 2013-10-29T17:42:00.00Z -12.005663 -79.195178 0.11 180.0
TN303 2013-10-29T17:43:00.00Z -12.005685 -79.195172 0.11 180.0
TN303 2013-10-29T17:43:59.00Z -12.005685 -79.195168 0.17 0.0
TN303 2013-10-29T17:45:00.00Z -12.00567 -79.195167 0.42 66.474
TN303 2013-10-29T17:46:00.00Z -12.005673 -79.195158 0.11 180.0
TN303 2013-10-29T17:47:00.00Z -12.005673 -79.195162 0.2 33.276
TN303 2013-10-29T17:47:59.00Z -12.005652 -79.195163 0.11 0.0
TN303 2013-10-29T17:49:00.00Z -12.00567 -79.195163 0.22 270.0
TN303 2013-10-29T17:50:00.00Z -12.005688 -79.19516 0.06 0.0
TN303 2013-10-29T17:50:59.00Z -12.005678 -79.19515 0.12 296.927
TN303 2013-10-29T17:52:00.00Z -12.00566 -79.195155 0.11 0.0
TN303 2013-10-29T17:53:00.00Z -12.005655 -79.195157 0.05 270.0
TN303 2013-10-29T17:53:59.00Z -12.005662 -79.19516 0.11 270.0
TN303 2013-10-29T17:54:59.00Z -12.00568 -79.195155 0.0 0.0
TN303 2013-10-29T17:55:59.00Z -12.005683 -79.195153 0.11 180.0
TN303 2013-10-29T17:56:59.00Z -12.005665 -79.195158 0.11 180.0
TN303 2013-10-29T17:57:59.00Z -12.005658 -79.195155 0.2 235.894
TN303 2013-10-29T17:58:59.00Z -12.005668 -79.195155 0.28 0.0
TN303 2013-10-29T18:00:00.00Z -12.005673 -79.195163 0.24 296.927
TN303 2013-10-29T18:01:00.00Z -12.005673 -79.195165 0.16 270.0
TN303 2013-10-29T18:01:59.00Z -12.005658 -79.195167 0.0 0.0
TN303 2013-10-29T18:03:00.00Z -12.005667 -79.19516 0.11 90.0
TN303 2013-10-29T18:04:00.00Z -12.005667 -79.195172 0.11 90.0
TN303 2013-10-29T18:05:00.00Z -12.005667 -79.195168 0.11 0.0
TN303 2013-10-29T18:05:59.00Z -12.005685 -79.195162 0.16 135.45
TN303 2013-10-29T18:07:00.00Z -12.005683 -79.195165 0.16 135.45
TN303 2013-10-29T18:07:59.00Z -12.005675 -79.195163 0.24 243.073
TN303 2013-10-29T18:08:59.00Z -12.00566 -79.195163 0.2 124.106
TN303 2013-10-29T18:10:00.00Z -12.005657 -79.195162 0.2 146.724
TN303 2013-10-29T18:10:59.00Z -12.005678 -79.195152 0.23 193.826
TN303 2013-10-29T18:12:00.00Z -12.005687 -79.195153 0.05 90.0
TN303 2013-10-29T18:12:59.00Z -12.005667 -79.195153 0.11 0.0
TN303 2013-10-29T18:14:00.00Z -12.005647 -79.195158 0.22 255.751
TN303 2013-10-29T18:15:00.00Z -12.005667 -79.195167 0.11 180.0
TN303 2013-10-29T18:15:59.00Z -12.005695 -79.19516 0.2 304.106
TN303 2013-10-29T18:17:00.00Z -12.005678 -79.195167 0.11 180.0
TN303 2013-10-29T18:18:00.00Z -12.005652 -79.195178 0.23 135.45
TN303 2013-10-29T18:18:59.00Z -12.00566 -79.195177 0.16 135.45
TN303 2013-10-29T18:19:59.00Z -12.005687 -79.195175 0.17 108.706
TN303 2013-10-29T18:20:59.00Z -12.005678 -79.195172 0.12 63.073
TN303 2013-10-29T18:22:00.00Z -12.005672 -79.195168 0.27 232.697
TN303 2013-10-29T18:23:00.00Z -12.005675 -79.195165 0.3 338.507
TN303 2013-10-29T18:23:59.00Z -12.005677 -79.195162 0.28 191.138
TN303 2013-10-29T18:24:59.00Z -12.005672 -79.195163 0.11 270.0
TN303 2013-10-29T18:25:59.00Z -12.005667 -79.195168 0.08 135.45
TN303 2013-10-29T18:26:59.00Z -12.005667 -79.19517 0.3 158.507
TN303 2013-10-29T18:28:00.00Z -12.00567 -79.195163 0.22 270.0
TN303 2013-10-29T18:29:00.00Z -12.00568 -79.195168 0.11 180.0
TN303 2013-10-29T18:30:00.00Z -12.005685 -79.19516 0.11 270.0
TN303 2013-10-29T18:30:59.00Z -12.005677 -79.195165 0.12 243.073
TN303 2013-10-29T18:32:00.00Z -12.005667 -79.195167 0.11 90.0
TN303 2013-10-29T18:33:00.00Z -12.005668 -79.195168 0.08 44.55
TN303 2013-10-29T18:33:59.00Z -12.005675 -79.195158 0.2 55.894
TN303 2013-10-29T18:35:00.00Z -12.005673 -79.195158 0.11 270.0
TN303 2013-10-29T18:36:00.00Z -12.005663 -79.195172 0.05 270.0
TN303 2013-10-29T18:37:00.00Z -12.005668 -79.195168 0.12 296.927
TN303 2013-10-29T18:38:00.00Z -12.005672 -79.19517 0.17 180.0
TN303 2013-10-29T18:39:00.00Z -12.005662 -79.195167 0.05 270.0
TN303 2013-10-29T18:39:59.00Z -12.005662 -79.19517 0.2 213.276
TN303 2013-10-29T18:40:59.00Z -12.005675 -79.195168 0.12 153.793
TN303 2013-10-29T18:41:59.00Z -12.005672 -79.195172 0.11 90.0
TN303 2013-10-29T18:43:00.00Z -12.005677 -79.195168 0.44 300.134
TN303 2013-10-29T18:44:00.00Z -12.005673 -79.195168 0.06 0.0
TN303 2013-10-29T18:44:59.00Z -12.00567 -79.195168 0.22 270.0
TN303 2013-10-29T18:46:00.00Z -12.005673 -79.195175 0.11 270.0
TN303 2013-10-29T18:47:00.00Z -12.005675 -79.195172 0.31 135.45
TN303 2013-10-29T18:48:00.00Z -12.005673 -79.195163 0.06 0.0
TN303 2013-10-29T18:48:59.00Z -12.00566 -79.195173 0.24 243.073
TN303 2013-10-29T18:49:59.00Z -12.005663 -79.195172 0.12 63.073
TN303 2013-10-29T18:50:59.00Z -12.005672 -79.195163 0.06 26.207
TN303 2013-10-29T18:52:00.00Z -12.005675 -79.195163 0.24 243.073
TN303 2013-10-29T18:52:59.00Z -12.005677 -79.195167 0.28 348.862
TN303 2013-10-29T18:54:00.00Z -12.005667 -79.195165 0.11 270.0
TN303 2013-10-29T18:54:59.00Z -12.00567 -79.195165 0.2 55.894
TN303 2013-10-29T18:56:00.00Z -12.00568 -79.195165 0.22 0.0
TN303 2013-10-29T18:56:59.00Z -12.005675 -79.195157 0.11 90.0
TN303 2013-10-29T18:57:59.00Z -12.005667 -79.195158 0.06 180.0
TN303 2013-10-29T18:58:59.00Z -12.005668 -79.195157 0.08 315.45
TN303 2013-10-29T19:00:00.00Z -12.00567 -79.195155 0.2 304.106
TN303 2013-10-29T19:01:00.00Z -12.005672 -79.19516 0.28 101.484
TN303 2013-10-29T19:02:00.00Z -12.00568 -79.195162 0.25 333.793
TN303 2013-10-29T19:03:00.00Z -12.005672 -79.195155 0.28 258.516
TN303 2013-10-29T19:04:00.00Z -12.005665 -79.195162 0.17 0.0
TN303 2013-10-29T19:05:00.00Z -12.005663 -79.195163 0.2 124.106
TN303 2013-10-29T19:06:00.00Z -12.005675 -79.195162 0.16 270.0
TN303 2013-10-29T19:07:00.00Z -12.005675 -79.195167 0.0 0.0
TN303 2013-10-29T19:08:00.00Z -12.005678 -79.195162 0.06 0.0
TN303 2013-10-29T19:08:59.00Z -12.00567 -79.195158 0.24 296.927
TN303 2013-10-29T19:10:00.00Z -12.00566 -79.195163 0.0 0.0
TN303 2013-10-29T19:11:00.00Z -12.005663 -79.19516 0.16 224.55
TN303 2013-10-29T19:12:00.00Z -12.00567 -79.195163 0.0 0.0
TN303 2013-10-29T19:13:00.00Z -12.005673 -79.195167 0.31 135.45
TN303 2013-10-29T19:14:00.00Z -12.005678 -79.195168 0.17 71.294
TN303 2013-10-29T19:15:00.00Z -12.005677 -79.19517 0.22 90.0
TN303 2013-10-29T19:16:00.00Z -12.005672 -79.195155 0.11 90.0
TN303 2013-10-29T19:17:00.00Z -12.005667 -79.195158 0.22 270.0
TN303 2013-10-29T19:18:00.00Z -12.005655 -79.195168 0.44 209.359
TN303 2013-10-29T19:19:00.00Z -12.005662 -79.195182 0.33 180.0
TN303 2013-10-29T19:20:00.00Z -12.005675 -79.195168 0.12 26.207
TN303 2013-10-29T19:21:00.00Z -12.005677 -79.195163 0.11 0.0
TN303 2013-10-29T19:22:00.00Z -12.005665 -79.195168 0.29 67.887
TN303 2013-10-29T19:22:59.00Z -12.00567 -79.195152 0.11 0.0
TN303 2013-10-29T19:24:00.00Z -12.005687 -79.195152 0.2 146.724
TN303 2013-10-29T19:25:00.00Z -12.005685 -79.195153 0.24 296.927
TN303 2013-10-29T19:26:00.00Z -12.005668 -79.19516 0.31 135.45
TN303 2013-10-29T19:26:59.00Z -12.005662 -79.195155 0.11 270.0
TN303 2013-10-29T19:27:59.00Z -12.005663 -79.195155 0.2 124.106
TN303 2013-10-29T19:29:00.00Z -12.005677 -79.19515 0.35 309.099
TN303 2013-10-29T19:29:59.00Z -12.005683 -79.195155 0.11 180.0
TN303 2013-10-29T19:31:00.00Z -12.005672 -79.195162 0.28 323.561
TN303 2013-10-29T19:32:00.00Z -12.005662 -79.195167 0.24 63.073
TN303 2013-10-29T19:33:00.00Z -12.00567 -79.195157 0.16 44.55
TN303 2013-10-29T19:33:59.00Z -12.005677 -79.195153 0.16 315.45
TN303 2013-10-29T19:34:59.00Z -12.00568 -79.195167 0.11 90.0
TN303 2013-10-29T19:36:00.00Z -12.00567 -79.195178 0.2 124.106
TN303 2013-10-29T19:37:00.00Z -12.005657 -79.195175 0.31 315.45
TN303 2013-10-29T19:38:00.00Z -12.005665 -79.195173 0.12 26.207
TN303 2013-10-29T19:38:59.00Z -12.00567 -79.195178 0.28 180.0
TN303 2013-10-29T19:39:59.00Z -12.005685 -79.195168 0.16 315.45
TN303 2013-10-29T19:40:59.00Z -12.00568 -79.195168 0.16 315.45
TN303 2013-10-29T19:42:00.00Z -12.005668 -79.19517 0.27 90.0
TN303 2013-10-29T19:42:59.00Z -12.005668 -79.195172 0.11 90.0
TN303 2013-10-29T19:44:00.00Z -12.005667 -79.195158 0.12 243.073
TN303 2013-10-29T19:45:00.00Z -12.005668 -79.195158 0.24 243.073
TN303 2013-10-29T19:46:00.00Z -12.00567 -79.195163 0.17 18.167
TN303 2013-10-29T19:47:00.00Z -12.005668 -79.195165 0.25 206.207
TN303 2013-10-29T19:48:00.00Z -12.005673 -79.195157 0.12 63.073
TN303 2013-10-29T19:49:00.00Z -12.005677 -79.19516 0.06 180.0
TN303 2013-10-29T19:50:00.00Z -12.005668 -79.195162 0.12 206.207
TN303 2013-10-29T19:51:00.00Z -12.00567 -79.195157 0.22 90.0
TN303 2013-10-29T19:52:00.00Z -12.005672 -79.19515 0.11 180.0
TN303 2013-10-29T19:53:00.00Z -12.00567 -79.195157 0.27 270.0
TN303 2013-10-29T19:54:00.00Z -12.005657 -79.195158 0.05 90.0
TN303 2013-10-29T19:55:00.00Z -12.00566 -79.195157 0.2 235.894
TN303 2013-10-29T19:55:59.00Z -12.005663 -79.195152 0.16 135.45
TN303 2013-10-29T19:56:59.00Z -12.005672 -79.195158 0.06 180.0
TN303 2013-10-29T19:57:59.00Z -12.005677 -79.195158 0.11 0.0
TN303 2013-10-29T19:58:59.00Z -12.005677 -79.195163 0.08 135.45
TN303 2013-10-29T20:00:00.00Z -12.005665 -79.195163 0.05 90.0
TN303 2013-10-29T20:00:59.00Z -12.00566 -79.195167 0.2 33.276
TN303 2013-10-29T20:02:00.00Z -12.005662 -79.195162 0.17 251.294
TN303 2013-10-29T20:02:59.00Z -12.005678 -79.19516 0.25 153.793
TN303 2013-10-29T20:04:00.00Z -12.005665 -79.195148 0.0 0.0
TN303 2013-10-29T20:04:59.00Z -12.005655 -79.19515 0.11 90.0
TN303 2013-10-29T20:06:00.00Z -12.005663 -79.195157 0.16 315.45
TN303 2013-10-29T20:07:00.00Z -12.005668 -79.195157 0.22 180.0
TN303 2013-10-29T20:08:00.00Z -12.005668 -79.195155 0.11 90.0
TN303 2013-10-29T20:08:59.00Z -12.005668 -79.195162 0.11 90.0
TN303 2013-10-29T20:09:59.00Z -12.005665 -79.195163 0.17 161.833
TN303 2013-10-29T20:11:00.00Z -12.005675 -79.19516 0.16 315.45
TN303 2013-10-29T20:12:00.00Z -12.00567 -79.19515 0.27 270.0
TN303 2013-10-29T20:13:01.00Z -12.005665 -79.195152 0.33 0.0
TN303 2013-10-29T20:13:59.00Z -12.005643 -79.195157 0.0 0.0
TN303 2013-10-29T20:14:59.00Z -12.005665 -79.195157 0.17 198.167
TN303 2013-10-29T20:15:59.00Z -12.005685 -79.195162 0.27 90.0
TN303 2013-10-29T20:17:00.00Z -12.005673 -79.195158 0.22 270.0
TN303 2013-10-29T20:17:59.00Z -12.005665 -79.195158 0.12 26.207
TN303 2013-10-29T20:18:59.00Z -12.005672 -79.195153 0.11 270.0
TN303 2013-10-29T20:20:00.00Z -12.005663 -79.195158 0.22 270.0
TN303 2013-10-29T20:20:59.00Z -12.005662 -79.19516 0.16 315.45
TN303 2013-10-29T20:22:00.00Z -12.005665 -79.195157 0.05 270.0
TN303 2013-10-29T20:23:00.00Z -12.005668 -79.195152 0.16 135.45
TN303 2013-10-29T20:23:59.00Z -12.005667 -79.195155 0.29 292.113
TN303 2013-10-29T20:25:00.00Z -12.005665 -79.195158 0.22 180.0
TN303 2013-10-29T20:26:00.00Z -12.005672 -79.195158 0.28 258.516
TN303 2013-10-29T20:27:00.00Z -12.005667 -79.195168 0.11 0.0
TN303 2013-10-29T20:27:59.00Z -12.005662 -79.195167 0.17 251.294
TN303 2013-10-29T20:29:00.00Z -12.00567 -79.195153 0.0 0.0
TN303 2013-10-29T20:30:00.00Z -12.005672 -79.195155 0.11 0.0
TN303 2013-10-29T20:31:00.00Z -12.00567 -79.195158 0.11 270.0
TN303 2013-10-29T20:31:59.00Z -12.005665 -79.195162 0.16 270.0
TN303 2013-10-29T20:33:00.00Z -12.005665 -79.195167 0.16 135.45
TN303 2013-10-29T20:34:00.00Z -12.005678 -79.195162 0.0 0.0
TN303 2013-10-29T20:35:00.00Z -12.005675 -79.195163 0.17 180.0
TN303 2013-10-29T20:36:00.00Z -12.005668 -79.195158 0.3 338.507
TN303 2013-10-29T20:36:59.00Z -12.005647 -79.195165 0.17 251.294
TN303 2013-10-29T20:38:00.00Z -12.005668 -79.195168 0.11 180.0
TN303 2013-10-29T20:39:00.00Z -12.005687 -79.195167 0.27 90.0
TN303 2013-10-29T20:40:00.00Z -12.005665 -79.195168 0.22 270.0
TN303 2013-10-29T20:40:59.00Z -12.005672 -79.195163 0.11 0.0
TN303 2013-10-29T20:41:59.00Z -12.005678 -79.195167 0.0 0.0
TN303 2013-10-29T20:43:00.00Z -12.005678 -79.195172 0.11 270.0
TN303 2013-10-29T20:43:59.00Z -12.005668 -79.195178 0.11 180.0
TN303 2013-10-29T20:45:00.00Z -12.00565 -79.19517 0.16 224.55
TN303 2013-10-29T20:45:59.00Z -12.005657 -79.195162 0.17 180.0
TN303 2013-10-29T20:47:00.00Z -12.005687 -79.195168 0.11 270.0
TN303 2013-10-29T20:47:58.00Z -12.005675 -79.195175 0.05 90.0
TN303 2013-10-29T20:49:00.00Z -12.005673 -79.195168 0.11 270.0
TN303 2013-10-29T20:50:00.00Z -12.005683 -79.195168 0.12 153.793
TN303 2013-10-29T20:51:00.00Z -12.005672 -79.195162 0.23 224.55
TN303 2013-10-29T20:51:59.00Z -12.005662 -79.195162 0.12 333.793
TN303 2013-10-29T20:53:00.00Z -12.005665 -79.195165 0.16 224.55
TN303 2013-10-29T20:54:00.00Z -12.005677 -79.19516 0.17 251.294
TN303 2013-10-29T20:55:00.00Z -12.005678 -79.195162 0.39 315.45
TN303 2013-10-29T20:55:59.00Z -12.005662 -79.19517 0.16 90.0
TN303 2013-10-29T20:56:59.00Z -12.005668 -79.195162 0.16 270.0
TN303 2013-10-29T20:58:00.00Z -12.005677 -79.19516 0.35 309.099
TN303 2013-10-29T20:58:59.00Z -12.005662 -79.195157 0.0 0.0
TN303 2013-10-29T20:59:59.00Z -12.00567 -79.195152 0.2 304.106
TN303 2013-10-29T21:00:59.00Z -12.005665 -79.195162 0.16 44.55
TN303 2013-10-29T21:02:00.00Z -12.005675 -79.195165 0.32 329.432
TN303 2013-10-29T21:02:59.00Z -12.005665 -79.195172 0.27 127.303
TN303 2013-10-29T21:04:00.00Z -12.005677 -79.195163 0.29 67.887
TN303 2013-10-29T21:05:00.00Z -12.005675 -79.19515 0.0 0.0
TN303 2013-10-29T21:06:00.00Z -12.005665 -79.19516 0.11 270.0
TN303 2013-10-29T21:07:00.00Z -12.005675 -79.195165 0.16 90.0
TN303 2013-10-29T21:07:59.00Z -12.005682 -79.195163 0.12 26.207
TN303 2013-10-29T21:09:00.00Z -12.005663 -79.195167 0.0 0.0
TN303 2013-10-29T21:10:00.00Z -12.005665 -79.195165 0.31 135.45
TN303 2013-10-29T21:11:00.00Z -12.005678 -79.195163 0.22 180.0
TN303 2013-10-29T21:12:00.00Z -12.005675 -79.195165 0.31 315.45
TN303 2013-10-29T21:13:00.00Z -12.005668 -79.195168 0.16 90.0
TN303 2013-10-29T21:13:59.00Z -12.005665 -79.195163 0.11 270.0
TN303 2013-10-29T21:14:59.00Z -12.005665 -79.195167 0.05 270.0
TN303 2013-10-29T21:16:00.00Z -12.00567 -79.195165 0.31 135.45
TN303 2013-10-29T21:17:00.00Z -12.005672 -79.195158 0.25 333.793
TN303 2013-10-29T21:17:59.00Z -12.005668 -79.195168 0.32 30.568
TN303 2013-10-29T21:19:00.00Z -12.005672 -79.195163 0.11 270.0
TN303 2013-10-29T21:19:59.00Z -12.005678 -79.195172 0.06 0.0
TN303 2013-10-29T21:21:00.00Z -12.005682 -79.195172 0.2 146.724
TN303 2013-10-29T21:22:00.00Z -12.005682 -79.195165 0.0 0.0
TN303 2013-10-29T21:22:59.00Z -12.005668 -79.195167 0.27 90.0
TN303 2013-10-29T21:24:00.00Z -12.00567 -79.195168 0.25 153.793
TN303 2013-10-29T21:25:00.00Z -12.005682 -79.195157 0.0 0.0
TN303 2013-10-29T21:25:59.00Z -12.005673 -79.195155 0.27 270.0
TN303 2013-10-29T21:27:00.00Z -12.005673 -79.195172 0.17 288.706
TN303 2013-10-29T21:28:00.00Z -12.00568 -79.195175 0.29 112.113
TN303 2013-10-29T21:28:59.00Z -12.005682 -79.195162 0.22 104.249
TN303 2013-10-29T21:29:59.00Z -12.005683 -79.195153 0.2 326.724
TN303 2013-10-29T21:31:00.00Z -12.005662 -79.19516 0.16 90.0
TN303 2013-10-29T21:31:59.00Z -12.005655 -79.195157 0.11 180.0
TN303 2013-10-29T21:32:59.00Z -12.005678 -79.195152 0.0 0.0
TN303 2013-10-29T21:33:59.00Z -12.005675 -79.19515 0.11 270.0
TN303 2013-10-29T21:34:59.00Z -12.00567 -79.195155 0.11 180.0
TN303 2013-10-29T21:35:59.00Z -12.005678 -79.195158 0.22 284.249
TN303 2013-10-29T21:36:59.00Z -12.005672 -79.195168 0.16 90.0
TN303 2013-10-29T21:38:00.00Z -12.005668 -79.195178 0.33 90.0
TN303 2013-10-29T21:38:59.00Z -12.005675 -79.195165 0.11 90.0
TN303 2013-10-29T21:40:00.00Z -12.005675 -79.19516 0.22 270.0
TN303 2013-10-29T21:41:00.00Z -12.005667 -79.195167 0.11 90.0
TN303 2013-10-29T21:41:59.00Z -12.005677 -79.195168 0.17 108.706
TN303 2013-10-29T21:42:59.00Z -12.005682 -79.195172 0.12 116.927
TN303 2013-10-29T21:44:00.00Z -12.005685 -79.195177 0.11 90.0
TN303 2013-10-29T21:45:00.00Z -12.00567 -79.195162 0.05 270.0
TN303 2013-10-29T21:46:00.00Z -12.005668 -79.195155 0.28 78.516
TN303 2013-10-29T21:46:59.00Z -12.005668 -79.195153 0.11 180.0
TN303 2013-10-29T21:47:59.00Z -12.005672 -79.195158 0.17 161.833
TN303 2013-10-29T21:48:59.00Z -12.005665 -79.195162 0.39 224.55
TN303 2013-10-29T21:49:59.00Z -12.005672 -79.195163 0.12 26.207
TN303 2013-10-29T21:50:59.00Z -12.005673 -79.195157 0.22 90.0
TN303 2013-10-29T21:52:00.00Z -12.005662 -79.195145 0.33 270.0
TN303 2013-10-29T21:53:00.00Z -12.005663 -79.19515 0.16 224.55
TN303 2013-10-29T21:54:00.00Z -12.00568 -79.195155 0.11 0.0
TN303 2013-10-29T21:55:00.00Z -12.005675 -79.195167 0.44 29.359
TN303 2013-10-29T21:56:00.00Z -12.005653 -79.195165 0.16 135.45
TN303 2013-10-29T21:56:59.00Z -12.005663 -79.195157 0.08 315.45
TN303 2013-10-29T21:58:00.00Z -12.005675 -79.19516 0.2 235.894
TN303 2013-10-29T21:58:59.00Z -12.00568 -79.195167 0.16 135.45
TN303 2013-10-29T22:00:00.00Z -12.005678 -79.195168 0.08 44.55
TN303 2013-10-29T22:01:00.00Z -12.005675 -79.195165 0.32 238.638
TN303 2013-10-29T22:02:00.00Z -12.005682 -79.195163 0.12 26.207
TN303 2013-10-29T22:03:00.00Z -12.005673 -79.195168 0.0 0.0
TN303 2013-10-29T22:04:00.00Z -12.00567 -79.195167 0.11 270.0
TN303 2013-10-29T22:04:59.00Z -12.005675 -79.19515 0.3 338.507
TN303 2013-10-29T22:05:59.00Z -12.00567 -79.19515 0.27 270.0
TN303 2013-10-29T22:07:00.00Z -12.00566 -79.195157 0.32 58.638
TN303 2013-10-29T22:07:59.00Z -12.005652 -79.195158 0.08 135.45
TN303 2013-10-29T22:09:00.00Z -12.005662 -79.19516 0.25 333.793
TN303 2013-10-29T22:09:59.00Z -12.005672 -79.195155 0.12 243.073
TN303 2013-10-29T22:11:00.00Z -12.005682 -79.195158 0.17 161.833
TN303 2013-10-29T22:11:59.00Z -12.005682 -79.195165 0.0 0.0
TN303 2013-10-29T22:12:59.00Z -12.005675 -79.195162 0.29 292.113
TN303 2013-10-29T22:14:00.00Z -12.005673 -79.195163 0.0 0.0
TN303 2013-10-29T22:14:59.00Z -12.005665 -79.195173 0.24 296.927
TN303 2013-10-29T22:15:59.00Z -12.005662 -79.195182 0.11 90.0
TN303 2013-10-29T22:17:00.00Z -12.005688 -79.195172 0.29 247.887
TN303 2013-10-29T22:17:59.00Z -12.005703 -79.195163 0.27 270.0
TN303 2013-10-29T22:19:00.00Z -12.005678 -79.195172 0.3 21.493
TN303 2013-10-29T22:19:59.00Z -12.005643 -79.195177 0.1 33.276
TN303 2013-10-29T22:21:00.00Z -12.00566 -79.195168 0.11 180.0
TN303 2013-10-29T22:22:00.00Z -12.005702 -79.195157 0.08 224.55
TN303 2013-10-29T22:23:00.00Z -12.005678 -79.195162 0.0 0.0
TN303 2013-10-29T22:23:59.00Z -12.005662 -79.195173 0.11 0.0
TN303 2013-10-29T22:25:00.00Z -12.005672 -79.195158 0.2 213.276
TN303 2013-10-29T22:25:59.00Z -12.005688 -79.195155 0.0 0.0
TN303 2013-10-29T22:26:59.00Z -12.005678 -79.195163 0.17 18.167
TN303 2013-10-29T22:27:59.00Z -12.005655 -79.195175 0.0 0.0
TN303 2013-10-29T22:28:59.00Z -12.005658 -79.19517 0.27 90.0
TN303 2013-10-29T22:30:00.00Z -12.005667 -79.195158 0.05 90.0
TN303 2013-10-29T22:30:59.00Z -12.005675 -79.19515 0.16 224.55
TN303 2013-10-29T22:32:00.00Z -12.005682 -79.195155 0.24 116.927
TN303 2013-10-29T22:33:00.00Z -12.005672 -79.195168 0.16 90.0
TN303 2013-10-29T22:34:00.00Z -12.005663 -79.195165 0.4 253.816
TN303 2013-10-29T22:34:59.00Z -12.005673 -79.195163 0.05 90.0
TN303 2013-10-29T22:36:00.00Z -12.005678 -79.195162 0.05 270.0
TN303 2013-10-29T22:37:00.00Z -12.005675 -79.195167 0.28 0.0
TN303 2013-10-29T22:37:59.00Z -12.005675 -79.195178 0.17 18.167
TN303 2013-10-29T22:39:00.00Z -12.00568 -79.195175 0.2 55.894
TN303 2013-10-29T22:39:59.00Z -12.00568 -79.195172 0.11 90.0
TN303 2013-10-29T22:41:00.00Z -12.00567 -79.195168 0.11 180.0
TN303 2013-10-29T22:42:00.00Z -12.005675 -79.19516 0.31 224.55
TN303 2013-10-29T22:42:59.00Z -12.005677 -79.195167 0.17 180.0
TN303 2013-10-29T22:44:00.00Z -12.005663 -79.195173 0.11 270.0
TN303 2013-10-29T22:45:00.00Z -12.005672 -79.195175 0.0 0.0
TN303 2013-10-29T22:46:00.00Z -12.005683 -79.195165 0.28 216.439
TN303 2013-10-29T22:47:00.00Z -12.00568 -79.195167 0.11 180.0
TN303 2013-10-29T22:48:00.00Z -12.005672 -79.195167 0.0 0.0
TN303 2013-10-29T22:48:59.00Z -12.005678 -79.195168 0.11 270.0
TN303 2013-10-29T22:49:59.00Z -12.005673 -79.195158 0.28 281.484
TN303 2013-10-29T22:51:00.00Z -12.005665 -79.195167 0.0 0.0
TN303 2013-10-29T22:52:00.00Z -12.005677 -79.195163 0.06 180.0
TN303 2013-10-29T22:53:00.00Z -12.005678 -79.195153 0.06 0.0
TN303 2013-10-29T22:54:00.00Z -12.005672 -79.19517 0.16 44.55
TN303 2013-10-29T22:54:59.00Z -12.005673 -79.195177 0.16 135.45
TN303 2013-10-29T22:56:00.00Z -12.005683 -79.19516 0.16 224.55
TN303 2013-10-29T22:56:59.00Z -12.005668 -79.195163 0.11 270.0
TN303 2013-10-29T22:58:00.00Z -12.005663 -79.195165 0.2 124.106
TN303 2013-10-29T22:59:00.00Z -12.00567 -79.19516 0.11 0.0
TN303 2013-10-29T22:59:59.00Z -12.005665 -79.195163 0.0 0.0
TN303 2013-10-29T23:01:00.00Z -12.00567 -79.195158 0.11 270.0
TN303 2013-10-29T23:02:00.00Z -12.005683 -79.195162 0.17 0.0
TN303 2013-10-29T23:02:59.00Z -12.005685 -79.195168 0.22 270.0
TN303 2013-10-29T23:04:00.00Z -12.005665 -79.195173 0.17 18.167
TN303 2013-10-29T23:04:59.00Z -12.00565 -79.195162 0.23 315.45
TN303 2013-10-29T23:06:00.00Z -12.005655 -79.195157 0.12 206.207
TN303 2013-10-29T23:07:00.00Z -12.005673 -79.195147 0.22 90.0
TN303 2013-10-29T23:07:59.00Z -12.005657 -79.195148 0.24 296.927
TN303 2013-10-29T23:08:59.00Z -12.00565 -79.195155 0.16 224.55
TN303 2013-10-29T23:09:59.00Z -12.005663 -79.195143 0.27 270.0
TN303 2013-10-29T23:11:00.00Z -12.005657 -79.195157 0.08 224.55
TN303 2013-10-29T23:11:59.00Z -12.005662 -79.195167 0.16 270.0
TN303 2013-10-29T23:13:00.00Z -12.00567 -79.19517 0.2 146.724
TN303 2013-10-29T23:13:59.00Z -12.005683 -79.195162 0.17 0.0
TN303 2013-10-29T23:15:00.00Z -12.00568 -79.195153 0.29 292.113
TN303 2013-10-29T23:16:00.00Z -12.00566 -79.195152 0.16 44.55
TN303 2013-10-29T23:17:00.00Z -12.005675 -79.195158 0.16 90.0
TN303 2013-10-29T23:18:00.00Z -12.005688 -79.195167 0.05 270.0
TN303 2013-10-29T23:19:00.00Z -12.005687 -79.195175 0.0 0.0
TN303 2013-10-29T23:19:59.00Z -12.00568 -79.195173 0.11 270.0
TN303 2013-10-29T23:21:00.00Z -12.005675 -79.195158 0.0 0.0
TN303 2013-10-29T23:22:00.00Z -12.005662 -79.195162 0.0 0.0
TN303 2013-10-29T23:23:00.00Z -12.005653 -79.195172 0.05 270.0
TN303 2013-10-29T23:24:00.00Z -12.005667 -79.19517 0.17 251.294
TN303 2013-10-29T23:24:59.00Z -12.005688 -79.19517 0.27 270.0
TN303 2013-10-29T23:25:59.00Z -12.005675 -79.195175 0.16 135.45
TN303 2013-10-29T23:27:00.00Z -12.005652 -79.195172 0.0 0.0
TN303 2013-10-29T23:27:59.00Z -12.005663 -79.195172 0.22 90.0
TN303 2013-10-29T23:28:59.00Z -12.00568 -79.195167 0.24 63.073
TN303 2013-10-29T23:29:59.00Z -12.005685 -79.195165 0.27 270.0
TN303 2013-10-29T23:31:00.00Z -12.005682 -79.195175 0.4 73.816
TN303 2013-10-29T23:32:00.00Z -12.00567 -79.195185 0.16 44.55
TN303 2013-10-29T23:33:00.00Z -12.005662 -79.195182 0.22 90.0
TN303 2013-10-29T23:34:00.00Z -12.005682 -79.195172 0.11 180.0
TN303 2013-10-29T23:34:59.00Z -12.005683 -79.195173 0.16 224.55
TN303 2013-10-29T23:36:00.00Z -12.005677 -79.19519 0.39 98.257
TN303 2013-10-29T23:37:00.00Z -12.005675 -79.195172 0.2 33.276
TN303 2013-10-29T23:38:00.00Z -12.00567 -79.195163 0.12 153.793
TN303 2013-10-29T23:39:00.00Z -12.005668 -79.195167 0.27 90.0
TN303 2013-10-29T23:40:00.00Z -12.005657 -79.19516 0.2 213.276
TN303 2013-10-29T23:41:00.00Z -12.00566 -79.195172 0.27 90.0
TN303 2013-10-29T23:41:59.00Z -12.005668 -79.195163 0.39 278.257
TN303 2013-10-29T23:43:00.00Z -12.005675 -79.195165 0.2 55.894
TN303 2013-10-29T23:44:00.00Z -12.00567 -79.195165 0.28 0.0
TN303 2013-10-29T23:45:00.00Z -12.005663 -79.195163 0.16 224.55
TN303 2013-10-29T23:45:59.00Z -12.005672 -79.195165 0.29 292.113
TN303 2013-10-29T23:46:59.00Z -12.005663 -79.195173 0.28 78.516
TN303 2013-10-29T23:47:59.00Z -12.005663 -79.195173 0.05 90.0
TN303 2013-10-29T23:49:00.00Z -12.005673 -79.19517 0.2 124.106
TN303 2013-10-29T23:49:59.00Z -12.005687 -79.195168 0.0 0.0
TN303 2013-10-29T23:50:59.00Z -12.005685 -79.195165 0.28 0.0
TN303 2013-10-29T23:52:00.00Z -12.00567 -79.195175 0.11 90.0
TN303 2013-10-29T23:52:59.00Z -12.005668 -79.195177 0.25 153.793
TN303 2013-10-29T23:53:59.00Z -12.005685 -79.195177 0.12 206.207
TN303 2013-10-29T23:54:59.00Z -12.005695 -79.19518 0.2 55.894
TN303 2013-10-29T23:56:00.00Z -12.005668 -79.195177 0.11 270.0
TN303 2013-10-29T23:57:00.00Z -12.00567 -79.195175 0.16 44.55
TN303 2013-10-29T23:57:59.00Z -12.005667 -79.19516 0.25 333.793
TN303 2013-10-29T23:59:00.00Z -12.005673 -79.195167 0.06 0.0
TN303 2013-10-30T00:00:00.00Z -12.005667 -79.19517 0.11 90.0
TN303 2013-10-30T00:01:00.00Z -12.005673 -79.195177 0.22 180.0
TN303 2013-10-30T00:01:59.00Z -12.00568 -79.195178 0.12 153.793
TN303 2013-10-30T00:02:59.00Z -12.005672 -79.195163 0.12 243.073
TN303 2013-10-30T00:03:59.00Z -12.005673 -79.195158 0.33 90.0
TN303 2013-10-30T00:04:59.00Z -12.005675 -79.195163 0.05 90.0
TN303 2013-10-30T00:05:59.00Z -12.005673 -79.19516 0.12 296.927
TN303 2013-10-30T00:07:00.00Z -12.005667 -79.195168 0.16 90.0
TN303 2013-10-30T00:08:00.00Z -12.005678 -79.195173 0.0 0.0
TN303 2013-10-30T00:08:59.00Z -12.005682 -79.195167 0.16 270.0
TN303 2013-10-30T00:10:00.00Z -12.00568 -79.195167 0.16 270.0
TN303 2013-10-30T00:11:00.00Z -12.00567 -79.195163 0.22 270.0
TN303 2013-10-30T00:12:00.00Z -12.005658 -79.195168 0.0 0.0
TN303 2013-10-30T00:13:00.00Z -12.005663 -79.195167 0.11 90.0
TN303 2013-10-30T00:13:59.00Z -12.005673 -79.195158 0.12 296.927
TN303 2013-10-30T00:14:59.00Z -12.00566 -79.195163 0.24 296.927
TN303 2013-10-30T00:16:00.00Z -12.005675 -79.19517 0.16 270.0
TN303 2013-10-30T00:16:59.00Z -12.005688 -79.195173 0.05 90.0
TN303 2013-10-30T00:17:59.00Z -12.005697 -79.195175 0.25 26.207
TN303 2013-10-30T00:18:59.00Z -12.005687 -79.195175 0.11 0.0
TN303 2013-10-30T00:19:59.00Z -12.00568 -79.195183 0.28 11.138
TN303 2013-10-30T00:21:00.00Z -12.005682 -79.19518 0.16 90.0
TN303 2013-10-30T00:22:00.00Z -12.005683 -79.195182 0.0 0.0
TN303 2013-10-30T00:23:00.00Z -12.005682 -79.195172 0.0 0.0
TN303 2013-10-30T00:24:00.00Z -12.00567 -79.195165 0.2 33.276
TN303 2013-10-30T00:25:00.00Z -12.005647 -79.19517 0.0 0.0
TN303 2013-10-30T00:26:00.00Z -12.005652 -79.195162 0.33 180.0
TN303 2013-10-30T00:26:59.00Z -12.005688 -79.195153 0.06 0.0
TN303 2013-10-30T00:28:00.00Z -12.00569 -79.195168 0.17 0.0
TN303 2013-10-30T00:29:00.00Z -12.005673 -79.195188 0.11 90.0
TN303 2013-10-30T00:29:59.00Z -12.005673 -79.195185 0.16 90.0
TN303 2013-10-30T00:31:00.00Z -12.00569 -79.195172 0.11 90.0
TN303 2013-10-30T00:31:59.00Z -12.005693 -79.195177 0.35 38.222
TN303 2013-10-30T00:33:00.00Z -12.005678 -79.195177 0.05 270.0
TN303 2013-10-30T00:33:59.00Z -12.005675 -79.195162 0.23 224.55
TN303 2013-10-30T00:35:00.00Z -12.00567 -79.195158 0.2 124.106
TN303 2013-10-30T00:36:00.00Z -12.005663 -79.195162 0.31 135.45
TN303 2013-10-30T00:36:59.00Z -12.005667 -79.195163 0.11 270.0
TN303 2013-10-30T00:37:59.00Z -12.005678 -79.19517 0.11 270.0
TN303 2013-10-30T00:39:00.00Z -12.005677 -79.195178 0.11 90.0
TN303 2013-10-30T00:39:59.00Z -12.005665 -79.195172 0.16 135.45
TN303 2013-10-30T00:41:00.00Z -12.005675 -79.195162 0.11 0.0
TN303 2013-10-30T00:42:00.00Z -12.005673 -79.19515 0.2 326.724
TN303 2013-10-30T00:43:00.00Z -12.005662 -79.195158 0.05 90.0
TN303 2013-10-30T00:44:00.00Z -12.005667 -79.195162 0.22 90.0
TN303 2013-10-30T00:45:00.00Z -12.005675 -79.195162 0.05 270.0
TN303 2013-10-30T00:45:59.00Z -12.005673 -79.195178 0.0 0.0
TN303 2013-10-30T00:46:59.00Z -12.005668 -79.195177 0.27 270.0
TN303 2013-10-30T00:47:59.00Z -12.00567 -79.195173 0.05 90.0
TN303 2013-10-30T00:48:59.00Z -12.005685 -79.19517 0.2 33.276
TN303 2013-10-30T00:50:00.00Z -12.00567 -79.195162 0.2 235.894
TN303 2013-10-30T00:51:00.00Z -12.00566 -79.195173 0.27 270.0
TN303 2013-10-30T00:51:59.00Z -12.005668 -79.195175 0.16 270.0
TN303 2013-10-30T00:53:00.00Z -12.005673 -79.195165 0.16 90.0
TN303 2013-10-30T00:54:00.00Z -12.00566 -79.195162 0.27 90.0
TN303 2013-10-30T00:55:00.00Z -12.005663 -79.195155 0.25 153.793
TN303 2013-10-30T00:56:00.00Z -12.005682 -79.19516 0.12 116.927
TN303 2013-10-30T00:56:59.00Z -12.005682 -79.195177 0.11 0.0
TN303 2013-10-30T00:57:59.00Z -12.005672 -79.19518 0.16 315.45
TN303 2013-10-30T00:58:59.00Z -12.005675 -79.19517 0.2 33.276
TN303 2013-10-30T01:00:00.00Z -12.005672 -79.195155 0.23 224.55
TN303 2013-10-30T01:00:59.00Z -12.005668 -79.195158 0.0 0.0
TN303 2013-10-30T01:01:59.00Z -12.005668 -79.195157 0.12 63.073
TN303 2013-10-30T01:03:00.00Z -12.005672 -79.195155 0.11 90.0
TN303 2013-10-30T01:04:00.00Z -12.005668 -79.195163 0.55 307.303
TN303 2013-10-30T01:04:59.00Z -12.005663 -79.19517 0.2 33.276
TN303 2013-10-30T01:05:59.00Z -12.005678 -79.195178 0.12 296.927
TN303 2013-10-30T01:06:59.00Z -12.005675 -79.19518 0.2 33.276
TN303 2013-10-30T01:07:59.00Z -12.005682 -79.195178 0.16 315.45
TN303 2013-10-30T01:09:00.00Z -12.005682 -79.195173 0.05 90.0
TN303 2013-10-30T01:10:00.00Z -12.005673 -79.195177 0.0 0.0
TN303 2013-10-30T01:11:00.00Z -12.005667 -79.195168 0.11 180.0
TN303 2013-10-30T01:11:59.00Z -12.005678 -79.195168 0.16 90.0
TN303 2013-10-30T01:13:00.00Z -12.005675 -79.195177 0.22 90.0
TN303 2013-10-30T01:14:00.00Z -12.00567 -79.195177 0.24 63.073
TN303 2013-10-30T01:15:00.00Z -12.005673 -79.195173 0.24 243.073
TN303 2013-10-30T01:15:59.00Z -12.005685 -79.195177 0.11 90.0
TN303 2013-10-30T01:17:00.00Z -12.005677 -79.195177 0.05 270.0
TN303 2013-10-30T01:17:59.00Z -12.005673 -79.195175 0.12 296.927
TN303 2013-10-30T01:19:00.00Z -12.00567 -79.195172 0.11 0.0
TN303 2013-10-30T01:20:00.00Z -12.005677 -79.195167 0.0 0.0
TN303 2013-10-30T01:20:59.00Z -12.005667 -79.195157 0.17 198.167
TN303 2013-10-30T01:21:59.00Z -12.005667 -79.195155 0.16 315.45
TN303 2013-10-30T01:22:59.00Z -12.00567 -79.195152 0.32 301.362
TN303 2013-10-30T01:24:00.00Z -12.005668 -79.195157 0.0 0.0
TN303 2013-10-30T01:25:00.00Z -12.005657 -79.195153 0.08 135.45
TN303 2013-10-30T01:26:00.00Z -12.00566 -79.195165 0.22 270.0
TN303 2013-10-30T01:26:59.00Z -12.005675 -79.195163 0.0 0.0
TN303 2013-10-30T01:28:00.00Z -12.005673 -79.195162 0.22 90.0
TN303 2013-10-30T01:28:59.00Z -12.00567 -79.195168 0.27 307.303
TN303 2013-10-30T01:30:00.00Z -12.005662 -79.195178 0.22 0.0
TN303 2013-10-30T01:30:59.00Z -12.00565 -79.195178 0.2 213.276
TN303 2013-10-30T01:31:59.00Z -12.005665 -79.195175 0.11 90.0
TN303 2013-10-30T01:32:59.00Z -12.00568 -79.195162 0.11 90.0
TN303 2013-10-30T01:33:59.00Z -12.005665 -79.195152 0.16 135.45
TN303 2013-10-30T01:34:59.00Z -12.00566 -79.195155 0.11 0.0
TN303 2013-10-30T01:35:59.00Z -12.005657 -79.195165 0.2 304.106
TN303 2013-10-30T01:36:59.00Z -12.005662 -79.195173 0.33 90.0
TN303 2013-10-30T01:38:00.00Z -12.005667 -79.195165 0.17 180.0
TN303 2013-10-30T01:39:00.00Z -12.005672 -79.195162 0.22 90.0
TN303 2013-10-30T01:40:00.00Z -12.00568 -79.195163 0.17 0.0
TN303 2013-10-30T01:40:59.00Z -12.005677 -79.195162 0.11 90.0
TN303 2013-10-30T01:42:00.00Z -12.005667 -79.195162 0.08 224.55
TN303 2013-10-30T01:43:00.00Z -12.005668 -79.195165 0.22 90.0
TN303 2013-10-30T01:43:59.00Z -12.005668 -79.195167 0.2 235.894
TN303 2013-10-30T01:44:59.00Z -12.005673 -79.195175 0.25 206.207
TN303 2013-10-30T01:45:59.00Z -12.005663 -79.195172 0.12 63.073
TN303 2013-10-30T01:46:59.00Z -12.005662 -79.195155 0.16 270.0
TN303 2013-10-30T01:47:59.00Z -12.005653 -79.19515 0.16 224.55
TN303 2013-10-30T01:48:59.00Z -12.005667 -79.19516 0.2 304.106
TN303 2013-10-30T01:49:59.00Z -12.005677 -79.195163 0.11 270.0
TN303 2013-10-30T01:50:59.00Z -12.00568 -79.195162 0.24 63.073
TN303 2013-10-30T01:52:00.00Z -12.00567 -79.195157 0.16 44.55
TN303 2013-10-30T01:52:59.00Z -12.005652 -79.195163 0.06 180.0
TN303 2013-10-30T01:53:59.00Z -12.005665 -79.19516 0.11 180.0
TN303 2013-10-30T01:54:59.00Z -12.005673 -79.195162 0.0 0.0
TN303 2013-10-30T01:55:59.00Z -12.005668 -79.19517 0.11 270.0
TN303 2013-10-30T01:57:00.00Z -12.005678 -79.195168 0.27 270.0
TN303 2013-10-30T01:57:59.00Z -12.00569 -79.19517 0.17 0.0
TN303 2013-10-30T01:59:00.00Z -12.005687 -79.19518 0.16 44.55
TN303 2013-10-30T01:59:59.00Z -12.005675 -79.195183 0.17 0.0
TN303 2013-10-30T02:01:00.00Z -12.005662 -79.19517 0.28 258.516
TN303 2013-10-30T02:02:00.00Z -12.00568 -79.195173 0.05 90.0
TN303 2013-10-30T02:03:00.00Z -12.005683 -79.195178 0.11 270.0
TN303 2013-10-30T02:04:00.00Z -12.005675 -79.19517 0.22 270.0
TN303 2013-10-30T02:04:59.00Z -12.005678 -79.195168 0.08 44.55
TN303 2013-10-30T02:05:59.00Z -12.005675 -79.195167 0.17 198.167
TN303 2013-10-30T02:07:00.00Z -12.00567 -79.195172 0.11 90.0
TN303 2013-10-30T02:07:59.00Z -12.005678 -79.195177 0.05 270.0
TN303 2013-10-30T02:09:00.00Z -12.005672 -79.195182 0.16 44.55
TN303 2013-10-30T02:10:00.00Z -12.005657 -79.195185 0.0 0.0
TN303 2013-10-30T02:10:59.00Z -12.005663 -79.195173 0.11 270.0
TN303 2013-10-30T02:12:00.00Z -12.00568 -79.195163 0.05 90.0
TN303 2013-10-30T02:13:00.00Z -12.005682 -79.19516 0.28 323.561
TN303 2013-10-30T02:13:59.00Z -12.005668 -79.19518 0.23 44.55
TN303 2013-10-30T02:15:00.00Z -12.005667 -79.195183 0.11 0.0
TN303 2013-10-30T02:15:59.00Z -12.005673 -79.19517 0.16 224.55
TN303 2013-10-30T02:17:00.00Z -12.005668 -79.195155 0.33 90.0
TN303 2013-10-30T02:18:00.00Z -12.005663 -79.195157 0.12 63.073
TN303 2013-10-30T02:19:00.00Z -12.005648 -79.195152 0.0 0.0
TN303 2013-10-30T02:20:00.00Z -12.00565 -79.195153 0.2 326.724
TN303 2013-10-30T02:20:59.00Z -12.005662 -79.195162 0.22 104.249
TN303 2013-10-30T02:22:00.00Z -12.005665 -79.195157 0.0 0.0
TN303 2013-10-30T02:22:59.00Z -12.005667 -79.195167 0.35 38.222
TN303 2013-10-30T02:24:00.00Z -12.005652 -79.195167 0.0 0.0
TN303 2013-10-30T02:25:00.00Z -12.005663 -79.195157 0.24 116.927
TN303 2013-10-30T02:26:00.00Z -12.005677 -79.195153 0.17 161.833
TN303 2013-10-30T02:27:00.00Z -12.005675 -79.19515 0.16 90.0
TN303 2013-10-30T02:27:59.00Z -12.005668 -79.195155 0.16 224.55
TN303 2013-10-30T02:29:00.00Z -12.005657 -79.195155 0.32 238.638
TN303 2013-10-30T02:29:59.00Z -12.005663 -79.19516 0.2 33.276
TN303 2013-10-30T02:31:00.00Z -12.005673 -79.195157 0.12 63.073
TN303 2013-10-30T02:32:00.00Z -12.00566 -79.195155 0.2 304.106
TN303 2013-10-30T02:33:00.00Z -12.005672 -79.195162 0.23 346.174
TN303 2013-10-30T02:34:00.00Z -12.005677 -79.195168 0.2 55.894
TN303 2013-10-30T02:34:59.00Z -12.005678 -79.195177 0.11 180.0
TN303 2013-10-30T02:35:59.00Z -12.005673 -79.195167 0.12 206.207
TN303 2013-10-30T02:37:00.00Z -12.005685 -79.195172 0.11 180.0
TN303 2013-10-30T02:37:59.00Z -12.005678 -79.195172 0.2 235.894
TN303 2013-10-30T02:38:59.00Z -12.005682 -79.195177 0.35 309.099
TN303 2013-10-30T02:39:59.00Z -12.005677 -79.195185 0.11 0.0
TN303 2013-10-30T02:40:59.00Z -12.00568 -79.19518 0.16 315.45
TN303 2013-10-30T02:41:59.00Z -12.005682 -79.195173 0.08 135.45
TN303 2013-10-30T02:43:00.00Z -12.005675 -79.195178 0.05 90.0
TN303 2013-10-30T02:44:00.00Z -12.005673 -79.195188 0.17 71.294
TN303 2013-10-30T02:44:59.00Z -12.005683 -79.19517 0.16 90.0
TN303 2013-10-30T02:45:59.00Z -12.005683 -79.195162 0.08 315.45
TN303 2013-10-30T02:46:59.00Z -12.005673 -79.195165 0.12 63.073
TN303 2013-10-30T02:47:59.00Z -12.005668 -79.195163 0.11 270.0
TN303 2013-10-30T02:49:00.00Z -12.005672 -79.195165 0.11 90.0
TN303 2013-10-30T02:50:00.00Z -12.005677 -79.195178 0.11 0.0
TN303 2013-10-30T02:50:59.00Z -12.005667 -79.195158 0.2 55.894
TN303 2013-10-30T02:52:00.00Z -12.005655 -79.195142 0.16 44.55
TN303 2013-10-30T02:53:00.00Z -12.005663 -79.195153 0.0 0.0
TN303 2013-10-30T02:54:00.00Z -12.005668 -79.195148 0.12 153.793
TN303 2013-10-30T02:54:59.00Z -12.005663 -79.195142 0.28 281.484
TN303 2013-10-30T02:56:00.00Z -12.00566 -79.195147 0.17 341.833
TN303 2013-10-30T02:56:59.00Z -12.005655 -79.195157 0.22 90.0
TN303 2013-10-30T02:57:59.00Z -12.00568 -79.195167 0.16 135.45
TN303 2013-10-30T02:58:59.00Z -12.005687 -79.195162 0.08 224.55
TN303 2013-10-30T02:59:59.00Z -12.005672 -79.195165 0.2 213.276
TN303 2013-10-30T03:01:00.00Z -12.005667 -79.195167 0.16 44.55
TN303 2013-10-30T03:02:00.00Z -12.005662 -79.195157 0.4 73.816
TN303 2013-10-30T03:02:59.00Z -12.005677 -79.195163 0.0 0.0
TN303 2013-10-30T03:04:00.00Z -12.005683 -79.195172 0.24 116.927
TN303 2013-10-30T03:05:00.00Z -12.005678 -79.195175 0.0 0.0
TN303 2013-10-30T03:06:00.00Z -12.00566 -79.195177 0.22 90.0
TN303 2013-10-30T03:06:59.00Z -12.005668 -79.195175 0.12 63.073
TN303 2013-10-30T03:07:59.00Z -12.005685 -79.19517 0.11 270.0
TN303 2013-10-30T03:09:00.00Z -12.005687 -79.195173 0.16 315.45
TN303 2013-10-30T03:09:59.00Z -12.005677 -79.195167 0.2 304.106
TN303 2013-10-30T03:10:59.00Z -12.005677 -79.195175 0.16 315.45
TN303 2013-10-30T03:11:59.00Z -12.005685 -79.19518 0.11 180.0
TN303 2013-10-30T03:12:59.00Z -12.005685 -79.195183 0.23 44.55
TN303 2013-10-30T03:13:59.00Z -12.005668 -79.195177 0.12 206.207
TN303 2013-10-30T03:15:00.00Z -12.005668 -79.195173 0.25 206.207
TN303 2013-10-30T03:16:00.00Z -12.005672 -79.195177 0.28 180.0
TN303 2013-10-30T03:16:59.00Z -12.00568 -79.19518 0.16 90.0
TN303 2013-10-30T03:18:00.00Z -12.005675 -79.19517 0.32 58.638
TN303 2013-10-30T03:18:59.00Z -12.005667 -79.19517 0.12 116.927
TN303 2013-10-30T03:20:00.00Z -12.005672 -79.195165 0.17 251.294
TN303 2013-10-30T03:21:00.00Z -12.005683 -79.195162 0.11 90.0
TN303 2013-10-30T03:22:00.00Z -12.00567 -79.195163 0.16 90.0
TN303 2013-10-30T03:23:00.00Z -12.005662 -79.19517 0.12 243.073
TN303 2013-10-30T03:23:59.00Z -12.00568 -79.195162 0.11 180.0
TN303 2013-10-30T03:24:59.00Z -12.005687 -79.195165 0.45 75.751
TN303 2013-10-30T03:26:00.00Z -12.005677 -79.195177 0.32 121.362
TN303 2013-10-30T03:27:00.00Z -12.00567 -79.195182 0.16 135.45
TN303 2013-10-30T03:28:00.00Z -12.005688 -79.195175 0.11 0.0
TN303 2013-10-30T03:28:59.00Z -12.005685 -79.195168 0.11 0.0
TN303 2013-10-30T03:30:00.00Z -12.005672 -79.195175 0.16 44.55
TN303 2013-10-30T03:31:00.00Z -12.005663 -79.195182 0.2 33.276
TN303 2013-10-30T03:32:00.00Z -12.005682 -79.19517 0.11 270.0
TN303 2013-10-30T03:33:00.00Z -12.00568 -79.19517 0.23 135.45
TN303 2013-10-30T03:33:59.00Z -12.005675 -79.195177 0.29 67.887
TN303 2013-10-30T03:34:59.00Z -12.005678 -79.19517 0.27 270.0
TN303 2013-10-30T03:36:00.00Z -12.005667 -79.195163 0.06 180.0
TN303 2013-10-30T03:36:59.00Z -12.005678 -79.195148 0.12 296.927
TN303 2013-10-30T03:37:59.00Z -12.005672 -79.195153 0.0 0.0
TN303 2013-10-30T03:39:00.00Z -12.00567 -79.195155 0.16 44.55
TN303 2013-10-30T03:39:59.00Z -12.005667 -79.195153 0.16 90.0
TN303 2013-10-30T03:41:00.00Z -12.005655 -79.195157 0.2 33.276
TN303 2013-10-30T03:41:59.00Z -12.005665 -79.195158 0.24 243.073
TN303 2013-10-30T03:43:00.00Z -12.005675 -79.195163 0.11 180.0
TN303 2013-10-30T03:44:00.00Z -12.005662 -79.195167 0.11 0.0
TN303 2013-10-30T03:45:00.00Z -12.005665 -79.195173 0.12 26.207
TN303 2013-10-30T03:46:00.00Z -12.005682 -79.195172 0.32 329.432
TN303 2013-10-30T03:47:00.00Z -12.005675 -79.195167 0.22 180.0
TN303 2013-10-30T03:48:00.00Z -12.005672 -79.19516 0.29 67.887
TN303 2013-10-30T03:49:00.00Z -12.005662 -79.195155 0.32 238.638
TN303 2013-10-30T03:50:00.00Z -12.005653 -79.195155 0.28 281.484
TN303 2013-10-30T03:51:00.00Z -12.005672 -79.195157 0.24 63.073
TN303 2013-10-30T03:52:00.00Z -12.00568 -79.195157 0.22 90.0
TN303 2013-10-30T03:53:00.00Z -12.00567 -79.195153 0.17 180.0
TN303 2013-10-30T03:54:00.00Z -12.005668 -79.195163 0.24 243.073
TN303 2013-10-30T03:55:00.00Z -12.005683 -79.195173 0.28 78.516
TN303 2013-10-30T03:56:00.00Z -12.005677 -79.195185 0.27 90.0
TN303 2013-10-30T03:56:59.00Z -12.005668 -79.195172 0.17 0.0
TN303 2013-10-30T03:58:00.00Z -12.005678 -79.195163 0.0 0.0
TN303 2013-10-30T03:59:00.00Z -12.005685 -79.195162 0.11 180.0
TN303 2013-10-30T03:59:59.00Z -12.005672 -79.195178 0.59 67.887
TN303 2013-10-30T04:01:00.00Z -12.005678 -79.195178 0.22 284.249
TN303 2013-10-30T04:02:00.00Z -12.005683 -79.195175 0.17 0.0
TN303 2013-10-30T04:03:00.00Z -12.005682 -79.195175 0.52 18.167
TN303 2013-10-30T04:03:59.00Z -12.005675 -79.195165 0.2 235.894
TN303 2013-10-30T04:05:00.00Z -12.00568 -79.195163 0.16 315.45
TN303 2013-10-30T04:05:59.00Z -12.005682 -79.195165 0.16 270.0
TN303 2013-10-30T04:06:59.00Z -12.005672 -79.195167 0.22 90.0
TN303 2013-10-30T04:08:00.00Z -12.005675 -79.195163 0.22 270.0
TN303 2013-10-30T04:09:00.00Z -12.005677 -79.195167 0.05 270.0
TN303 2013-10-30T04:10:00.00Z -12.005667 -79.19516 0.3 158.507
TN303 2013-10-30T04:11:00.00Z -12.005657 -79.195155 0.2 304.106
TN303 2013-10-30T04:11:59.00Z -12.005672 -79.195158 0.23 13.826
TN303 2013-10-30T04:12:59.00Z -12.005665 -79.195153 0.24 243.073
TN303 2013-10-30T04:14:00.00Z -12.005668 -79.195142 0.28 180.0
TN303 2013-10-30T04:15:00.00Z -12.00567 -79.195143 0.17 0.0
TN303 2013-10-30T04:15:59.00Z -12.00567 -79.195148 0.2 213.276
TN303 2013-10-30T04:16:59.00Z -12.005683 -79.195158 0.17 71.294
TN303 2013-10-30T04:18:00.00Z -12.005678 -79.195172 0.32 58.638
TN303 2013-10-30T04:18:59.00Z -12.005667 -79.195177 0.11 90.0
TN303 2013-10-30T04:20:00.00Z -12.005677 -79.195163 0.08 135.45
TN303 2013-10-30T04:21:00.00Z -12.005683 -79.195162 0.2 33.276
TN303 2013-10-30T04:21:59.00Z -12.005685 -79.195165 0.16 270.0
TN303 2013-10-30T04:22:59.00Z -12.00568 -79.195167 0.16 135.45
TN303 2013-10-30T04:23:59.00Z -12.00567 -79.195165 0.16 224.55
TN303 2013-10-30T04:24:59.00Z -12.005667 -79.195177 0.2 146.724
TN303 2013-10-30T04:26:00.00Z -12.005668 -79.195162 0.27 52.697
TN303 2013-10-30T04:27:00.00Z -12.005668 -79.19516 0.0 0.0
TN303 2013-10-30T04:27:59.00Z -12.005677 -79.195162 0.05 270.0
TN303 2013-10-30T04:29:00.00Z -12.005683 -79.195172 0.05 90.0
TN303 2013-10-30T04:29:59.00Z -12.005672 -79.195175 0.17 108.706
TN303 2013-10-30T04:31:00.00Z -12.005672 -79.195178 0.16 90.0
TN303 2013-10-30T04:32:00.00Z -12.005672 -79.195173 0.17 180.0
TN303 2013-10-30T04:33:00.00Z -12.005675 -79.195168 0.12 153.793
TN303 2013-10-30T04:33:59.00Z -12.005678 -79.195167 0.27 52.697
TN303 2013-10-30T04:35:00.00Z -12.005677 -79.195173 0.0 0.0
TN303 2013-10-30T04:36:00.00Z -12.005678 -79.195175 0.16 224.55
TN303 2013-10-30T04:36:59.00Z -12.005675 -79.195178 0.05 90.0
TN303 2013-10-30T04:38:00.00Z -12.00568 -79.195177 0.12 333.793
TN303 2013-10-30T04:38:59.00Z -12.005662 -79.195165 0.11 0.0
TN303 2013-10-30T04:40:00.00Z -12.005653 -79.195158 0.22 270.0
TN303 2013-10-30T04:41:00.00Z -12.005663 -79.195153 0.44 180.0
TN303 2013-10-30T04:42:00.00Z -12.00566 -79.195135 0.4 326.724
TN303 2013-10-30T04:42:59.00Z -12.005652 -79.195153 0.22 255.751
TN303 2013-10-30T04:43:59.00Z -12.005647 -79.195185 0.12 116.927
TN303 2013-10-30T04:45:00.00Z -12.005655 -79.195177 0.2 146.724
TN303 2013-10-30T04:46:00.00Z -12.005683 -79.195152 0.0 0.0
TN303 2013-10-30T04:47:00.00Z -12.00568 -79.195148 0.12 26.207
TN303 2013-10-30T04:47:59.00Z -12.005672 -79.195152 0.45 284.249
TN303 2013-10-30T04:49:00.00Z -12.005668 -79.195157 0.17 0.0
TN303 2013-10-30T04:50:00.00Z -12.005667 -79.195158 0.29 67.887
TN303 2013-10-30T04:50:59.00Z -12.005677 -79.195165 0.11 90.0
TN303 2013-10-30T04:51:59.00Z -12.005678 -79.195158 0.17 71.294
TN303 2013-10-30T04:52:59.00Z -12.005673 -79.195165 0.2 235.894
TN303 2013-10-30T04:53:59.00Z -12.005657 -79.195168 0.32 238.638
TN303 2013-10-30T04:54:59.00Z -12.005668 -79.195167 0.0 0.0
TN303 2013-10-30T04:55:59.00Z -12.005685 -79.195165 0.0 0.0
TN303 2013-10-30T04:56:59.00Z -12.005682 -79.195165 0.22 0.0
TN303 2013-10-30T04:57:59.00Z -12.00567 -79.195155 0.11 270.0
TN303 2013-10-30T04:58:59.00Z -12.005677 -79.195165 0.11 90.0
TN303 2013-10-30T05:00:00.00Z -12.005683 -79.195172 0.22 75.751
TN303 2013-10-30T05:01:00.00Z -12.005677 -79.195188 0.22 270.0
TN303 2013-10-30T05:01:59.00Z -12.005665 -79.195183 0.16 315.45
TN303 2013-10-30T05:03:00.00Z -12.005655 -79.195165 0.22 0.0
TN303 2013-10-30T05:03:59.00Z -12.005673 -79.195157 0.06 0.0
TN303 2013-10-30T05:04:59.00Z -12.005687 -79.195155 0.17 251.294
TN303 2013-10-30T05:05:59.00Z -12.005675 -79.19517 0.16 44.55
TN303 2013-10-30T05:07:00.00Z -12.005672 -79.195175 0.0 0.0
TN303 2013-10-30T05:07:59.00Z -12.005668 -79.19516 0.25 206.207
TN303 2013-10-30T05:08:59.00Z -12.005673 -79.19516 0.23 44.55
TN303 2013-10-30T05:10:00.00Z -12.005663 -79.195163 0.23 166.174
TN303 2013-10-30T05:10:59.00Z -12.005672 -79.195157 0.11 90.0
TN303 2013-10-30T05:12:00.00Z -12.005672 -79.195152 0.16 44.55
TN303 2013-10-30T05:13:00.00Z -12.005672 -79.195158 0.22 0.0
TN303 2013-10-30T05:13:59.00Z -12.005665 -79.195165 0.0 0.0
TN303 2013-10-30T05:15:00.00Z -12.005663 -79.195158 0.24 243.073
TN303 2013-10-30T05:16:00.00Z -12.005678 -79.195155 0.16 270.0
TN303 2013-10-30T05:17:00.00Z -12.005683 -79.195162 0.11 180.0
TN303 2013-10-30T05:18:00.00Z -12.005683 -79.19517 0.2 235.894
TN303 2013-10-30T05:18:59.00Z -12.005675 -79.195168 0.11 270.0
TN303 2013-10-30T05:20:00.00Z -12.005667 -79.195158 0.08 135.45
TN303 2013-10-30T05:21:00.00Z -12.005668 -79.195155 0.25 206.207
TN303 2013-10-30T05:22:00.00Z -12.005667 -79.19516 0.2 213.276
TN303 2013-10-30T05:22:59.00Z -12.00567 -79.195165 0.2 235.894
TN303 2013-10-30T05:23:59.00Z -12.005682 -79.195167 0.33 260.391
TN303 2013-10-30T05:24:59.00Z -12.005682 -79.19518 0.17 251.294
TN303 2013-10-30T05:26:00.00Z -12.005667 -79.195178 0.17 108.706
TN303 2013-10-30T05:26:59.00Z -12.005663 -79.195162 0.17 341.833
TN303 2013-10-30T05:28:00.00Z -12.00567 -79.195162 0.11 180.0
TN303 2013-10-30T05:29:00.00Z -12.005677 -79.195158 0.24 296.927
TN303 2013-10-30T05:30:00.00Z -12.005675 -79.195168 0.29 67.887
TN303 2013-10-30T05:31:00.00Z -12.00568 -79.195178 0.22 270.0
TN303 2013-10-30T05:32:00.00Z -12.005677 -79.195178 0.06 180.0
TN303 2013-10-30T05:32:59.00Z -12.005673 -79.195183 0.34 108.706
TN303 2013-10-30T05:34:00.00Z -12.00568 -79.195188 0.45 75.751
TN303 2013-10-30T05:35:00.00Z -12.005677 -79.195185 0.25 333.793
TN303 2013-10-30T05:36:00.00Z -12.00568 -79.195183 0.11 270.0
TN303 2013-10-30T05:37:00.00Z -12.005687 -79.19517 0.23 224.55
TN303 2013-10-30T05:38:00.00Z -12.00568 -79.195168 0.05 90.0
TN303 2013-10-30T05:38:59.00Z -12.005663 -79.195167 0.16 270.0
TN303 2013-10-30T05:40:00.00Z -12.005677 -79.195168 0.0 0.0
TN303 2013-10-30T05:41:00.00Z -12.00569 -79.19516 0.23 224.55
TN303 2013-10-30T05:42:00.00Z -12.005665 -79.195167 0.17 180.0
TN303 2013-10-30T05:43:00.00Z -12.005668 -79.195168 0.06 0.0
TN303 2013-10-30T05:43:59.00Z -12.005673 -79.195172 0.12 63.073
TN303 2013-10-30T05:45:00.00Z -12.005672 -79.195163 0.22 255.751
TN303 2013-10-30T05:46:00.00Z -12.005668 -79.195167 0.22 90.0
TN303 2013-10-30T05:47:00.00Z -12.005673 -79.195165 0.28 78.516
TN303 2013-10-30T05:47:59.00Z -12.005668 -79.195168 0.16 90.0
TN303 2013-10-30T05:49:00.00Z -12.005662 -79.195158 0.16 90.0
TN303 2013-10-30T05:49:59.00Z -12.005667 -79.195163 0.16 90.0
TN303 2013-10-30T05:51:00.00Z -12.00568 -79.195168 0.22 180.0
TN303 2013-10-30T05:51:59.00Z -12.005675 -79.19517 0.16 224.55
TN303 2013-10-30T05:53:00.00Z -12.00568 -79.19517 0.17 0.0
TN303 2013-10-30T05:54:00.00Z -12.00568 -79.195162 0.11 180.0
TN303 2013-10-30T05:54:59.00Z -12.00567 -79.195157 0.11 90.0
TN303 2013-10-30T05:55:59.00Z -12.005653 -79.195157 0.39 235.894
TN303 2013-10-30T05:57:00.00Z -12.005652 -79.195172 0.39 224.55
TN303 2013-10-30T05:58:00.00Z -12.00568 -79.195162 0.12 333.793
TN303 2013-10-30T05:58:59.00Z -12.005685 -79.195157 0.11 180.0
TN303 2013-10-30T06:00:00.00Z -12.005672 -79.195155 0.79 286.184
TN303 2013-10-30T06:00:59.00Z -12.005668 -79.195168 0.27 270.0
TN303 2013-10-30T06:01:59.00Z -12.005663 -79.195167 0.11 90.0
TN303 2013-10-30T06:02:59.00Z -12.00567 -79.195167 0.16 44.55
TN303 2013-10-30T06:03:59.00Z -12.005678 -79.195158 0.49 270.0
TN303 2013-10-30T06:05:00.00Z -12.005677 -79.195168 0.17 108.706
TN303 2013-10-30T06:05:59.00Z -12.005687 -79.195172 0.24 63.073
TN303 2013-10-30T06:07:00.00Z -12.005687 -79.19516 0.39 55.894
TN303 2013-10-30T06:08:00.00Z -12.005675 -79.195162 0.12 333.793
TN303 2013-10-30T06:08:59.00Z -12.005663 -79.195172 0.17 0.0
TN303 2013-10-30T06:10:00.00Z -12.00566 -79.195162 0.11 180.0
TN303 2013-10-30T06:10:59.00Z -12.005667 -79.195157 0.2 304.106
TN303 2013-10-30T06:11:59.00Z -12.005678 -79.195162 0.06 0.0
TN303 2013-10-30T06:13:00.00Z -12.005687 -79.195172 0.22 0.0
TN303 2013-10-30T06:14:00.00Z -12.00568 -79.195167 0.16 270.0
TN303 2013-10-30T06:15:00.00Z -12.005672 -79.19517 0.0 0.0
TN303 2013-10-30T06:15:59.00Z -12.005673 -79.195155 0.69 251.294
TN303 2013-10-30T06:16:59.00Z -12.005682 -79.195155 0.06 180.0
TN303 2013-10-30T06:17:59.00Z -12.005672 -79.195162 0.06 180.0
TN303 2013-10-30T06:18:59.00Z -12.005667 -79.195167 0.29 292.113
TN303 2013-10-30T06:20:00.00Z -12.005663 -79.195153 0.0 0.0
TN303 2013-10-30T06:20:59.00Z -12.005672 -79.19515 0.12 243.073
TN303 2013-10-30T06:22:00.00Z -12.005675 -79.19516 0.11 270.0
TN303 2013-10-30T06:22:59.00Z -12.005662 -79.195167 0.16 270.0
TN303 2013-10-30T06:24:00.00Z -12.005665 -79.195167 0.17 0.0
TN303 2013-10-30T06:25:00.00Z -12.005678 -79.195162 0.12 63.073
TN303 2013-10-30T06:25:59.00Z -12.005683 -79.195153 0.0 0.0
TN303 2013-10-30T06:27:00.00Z -12.005678 -79.195165 0.27 90.0
TN303 2013-10-30T06:28:00.00Z -12.005663 -79.195175 0.11 90.0
TN303 2013-10-30T06:29:00.00Z -12.005665 -79.195178 0.11 90.0
TN303 2013-10-30T06:29:59.00Z -12.005677 -79.19517 0.17 108.706
TN303 2013-10-30T06:31:00.00Z -12.005673 -79.19516 0.24 296.927
TN303 2013-10-30T06:32:00.00Z -12.005665 -79.195158 0.16 315.45
TN303 2013-10-30T06:33:00.00Z -12.00566 -79.195162 0.35 198.167
TN303 2013-10-30T06:34:00.00Z -12.005667 -79.195167 0.11 90.0
TN303 2013-10-30T06:35:00.00Z -12.005673 -79.195168 0.16 90.0
TN303 2013-10-30T06:35:59.00Z -12.00567 -79.195172 0.16 44.55
TN303 2013-10-30T06:37:00.00Z -12.005668 -79.195175 0.17 288.706
TN303 2013-10-30T06:38:00.00Z -12.00567 -79.195175 0.11 0.0
TN303 2013-10-30T06:38:59.00Z -12.005667 -79.19516 0.17 251.294
TN303 2013-10-30T06:39:59.00Z -12.005672 -79.195163 0.0 0.0
TN303 2013-10-30T06:41:00.00Z -12.005678 -79.195173 0.22 180.0
TN303 2013-10-30T06:42:00.00Z -12.005668 -79.195168 0.2 124.106
TN303 2013-10-30T06:42:59.00Z -12.00567 -79.195158 0.17 0.0
TN303 2013-10-30T06:43:59.00Z -12.005675 -79.19516 0.16 315.45
TN303 2013-10-30T06:44:59.00Z -12.005682 -79.195163 0.06 180.0
TN303 2013-10-30T06:45:59.00Z -12.005668 -79.195163 0.31 224.55
TN303 2013-10-30T06:47:00.00Z -12.005655 -79.19517 0.22 180.0
TN303 2013-10-30T06:47:59.00Z -12.005658 -79.195168 0.06 0.0
TN303 2013-10-30T06:49:00.00Z -12.005682 -79.195167 0.22 90.0
TN303 2013-10-30T06:50:00.00Z -12.005685 -79.195158 0.11 90.0
TN303 2013-10-30T06:51:00.00Z -12.005658 -79.195165 0.11 180.0
TN303 2013-10-30T06:51:59.00Z -12.005658 -79.195168 0.2 124.106
TN303 2013-10-30T06:52:59.00Z -12.00568 -79.19517 0.2 55.894
TN303 2013-10-30T06:54:00.00Z -12.005683 -79.195168 0.17 18.167
TN303 2013-10-30T06:55:00.00Z -12.005663 -79.195167 0.08 315.45
TN303 2013-10-30T06:55:59.00Z -12.00566 -79.195175 0.16 90.0
TN303 2013-10-30T06:56:59.00Z -12.005672 -79.195173 0.16 90.0
TN303 2013-10-30T06:57:59.00Z -12.00568 -79.19517 0.2 33.276
TN303 2013-10-30T06:58:59.00Z -12.005668 -79.195172 0.22 180.0
TN303 2013-10-30T07:00:00.00Z -12.005668 -79.195165 0.22 180.0
TN303 2013-10-30T07:01:00.00Z -12.005663 -79.195163 0.16 224.55
TN303 2013-10-30T07:02:00.00Z -12.00566 -79.195177 0.0 0.0
TN303 2013-10-30T07:02:59.00Z -12.005672 -79.195173 0.23 135.45
TN303 2013-10-30T07:03:58.00Z -12.005693 -79.195165 0.15 112.113
TN303 2013-10-30T07:04:59.00Z -12.00568 -79.195158 0.28 180.0
TN303 2013-10-30T07:06:00.00Z -12.005665 -79.19517 0.11 90.0
TN303 2013-10-30T07:07:00.00Z -12.005675 -79.195175 0.11 90.0
TN303 2013-10-30T07:08:00.00Z -12.005687 -79.195172 0.0 0.0
TN303 2013-10-30T07:08:59.00Z -12.00568 -79.195168 0.16 315.45
TN303 2013-10-30T07:10:00.00Z -12.005677 -79.195167 0.11 270.0
TN303 2013-10-30T07:10:59.00Z -12.005677 -79.19516 0.38 270.0
TN303 2013-10-30T07:11:59.00Z -12.00568 -79.195177 0.16 135.45
TN303 2013-10-30T07:12:59.00Z -12.00568 -79.195168 0.22 270.0
TN303 2013-10-30T07:13:59.00Z -12.00568 -79.195165 0.2 33.276
TN303 2013-10-30T07:14:59.00Z -12.005675 -79.195173 0.2 124.106
TN303 2013-10-30T07:16:00.00Z -12.005673 -79.195165 0.12 63.073
TN303 2013-10-30T07:17:00.00Z -12.005665 -79.19517 0.11 90.0
TN303 2013-10-30T07:17:59.00Z -12.005675 -79.195172 0.23 315.45
TN303 2013-10-30T07:18:59.00Z -12.005677 -79.195167 0.23 224.55
TN303 2013-10-30T07:20:00.00Z -12.005682 -79.195172 0.08 224.55
TN303 2013-10-30T07:21:00.00Z -12.005682 -79.195165 0.2 304.106
TN303 2013-10-30T07:21:59.00Z -12.00568 -79.195163 0.11 270.0
TN303 2013-10-30T07:22:59.00Z -12.005675 -79.195165 0.11 180.0
TN303 2013-10-30T07:24:00.00Z -12.005668 -79.195168 0.23 166.174
TN303 2013-10-30T07:24:59.00Z -12.005667 -79.195172 0.32 238.638
TN303 2013-10-30T07:25:59.00Z -12.005672 -79.195178 0.12 243.073
TN303 2013-10-30T07:27:00.00Z -12.005677 -79.19518 0.16 315.45
TN303 2013-10-30T07:28:00.00Z -12.005662 -79.195167 0.05 270.0
TN303 2013-10-30T07:28:59.00Z -12.005672 -79.195162 0.12 116.927
TN303 2013-10-30T07:30:00.00Z -12.005683 -79.195162 0.08 315.45
TN303 2013-10-30T07:31:00.00Z -12.005675 -79.195168 0.17 18.167
TN303 2013-10-30T07:31:59.00Z -12.005688 -79.195178 0.28 180.0
TN303 2013-10-30T07:33:00.00Z -12.005852 -79.195235 0.2 146.724
TN303 2013-10-30T07:33:59.00Z -12.005923 -79.195445 0.54 224.551
TN303 2013-10-30T07:34:59.00Z -12.005943 -79.195787 0.82 262.287
TN303 2013-10-30T07:36:00.00Z -12.005985 -79.196368 1.2 264.724
TN303 2013-10-30T07:36:59.00Z -12.005985 -79.197203 1.86 290.853
TN303 2013-10-30T07:38:00.00Z -12.005623 -79.198255 1.98 294.784
TN303 2013-10-30T07:38:59.00Z -12.004763 -79.199215 2.79 324.234
TN303 2013-10-30T07:39:59.00Z -12.003245 -79.200145 3.55 334.581
TN303 2013-10-30T07:40:59.00Z -12.001302 -79.201007 4.16 338.506
TN303 2013-10-30T07:41:59.00Z -11.999193 -79.201927 4.32 335.413
TN303 2013-10-30T07:42:59.00Z -11.997017 -79.202903 4.3 337.697
TN303 2013-10-30T07:43:59.00Z -11.994787 -79.203885 4.62 337.124
TN303 2013-10-30T07:45:00.00Z -11.992493 -79.204897 4.51 338.763
TN303 2013-10-30T07:46:00.00Z -11.990232 -79.205888 4.51 335.032
TN303 2013-10-30T07:47:00.00Z -11.987983 -79.206873 4.57 335.324
TN303 2013-10-30T07:47:59.00Z -11.985768 -79.207848 4.4 336.657
TN303 2013-10-30T07:48:59.00Z -11.983527 -79.208858 4.49 335.661
TN303 2013-10-30T07:49:59.00Z -11.98128 -79.209853 4.54 339.655
TN303 2013-10-30T07:51:00.00Z -11.978997 -79.210867 4.48 337.857
TN303 2013-10-30T07:51:59.00Z -11.976785 -79.211848 4.57 335.323
TN303 2013-10-30T07:52:59.00Z -11.974542 -79.212862 4.33 337.028
TN303 2013-10-30T07:54:00.00Z -11.972257 -79.2139 4.57 335.323
TN303 2013-10-30T07:55:00.00Z -11.970003 -79.214935 4.42 336.007
TN303 2013-10-30T07:55:59.00Z -11.967792 -79.215932 4.52 336.577
TN303 2013-10-30T07:56:59.00Z -11.96555 -79.216937 4.56 339.013
TN303 2013-10-30T07:57:59.00Z -11.963307 -79.217955 4.52 340.301
TN303 2013-10-30T07:59:00.00Z -11.961028 -79.218968 4.54 335.946
TN303 2013-10-30T08:00:00.00Z -11.958797 -79.219967 4.52 336.576
TN303 2013-10-30T08:00:59.00Z -11.956607 -79.220975 4.59 333.178
TN303 2013-10-30T08:01:59.00Z -11.954375 -79.221967 4.38 337.309
TN303 2013-10-30T08:03:00.00Z -11.952107 -79.222975 4.47 336.294
TN303 2013-10-30T08:04:00.00Z -11.949885 -79.223972 4.52 336.576
TN303 2013-10-30T08:05:00.00Z -11.947657 -79.224982 4.54 334.405
TN303 2013-10-30T08:05:59.00Z -11.945472 -79.225993 4.61 334.091
TN303 2013-10-30T08:06:59.00Z -11.943257 -79.227053 4.46 338.502
TN303 2013-10-30T08:08:00.00Z -11.940995 -79.228068 4.47 334.728
TN303 2013-10-30T08:09:00.00Z -11.93877 -79.229062 4.37 335.71
TN303 2013-10-30T08:10:00.00Z -11.936552 -79.230075 4.59 333.177
TN303 2013-10-30T08:11:00.00Z -11.934333 -79.231103 4.57 335.32
TN303 2013-10-30T08:12:00.00Z -11.932098 -79.232112 4.57 335.32
TN303 2013-10-30T08:12:59.00Z -11.929912 -79.233135 4.5 337.211
TN303 2013-10-30T08:13:59.00Z -11.927692 -79.234165 4.52 335.026
TN303 2013-10-30T08:15:00.00Z -11.92543 -79.235193 4.5 337.21
TN303 2013-10-30T08:16:00.00Z -11.923213 -79.236195 4.52 336.574
TN303 2013-10-30T08:16:59.00Z -11.921043 -79.237173 4.47 334.726
TN303 2013-10-30T08:18:00.00Z -11.918795 -79.238173 4.32 333.785
TN303 2013-10-30T08:18:59.00Z -11.91663 -79.239138 4.51 331.924
TN303 2013-10-30T08:20:00.00Z -11.914393 -79.240127 4.39 333.466
TN303 2013-10-30T08:21:00.00Z -11.912192 -79.241105 4.5 337.209
TN303 2013-10-30T08:22:00.00Z -11.909985 -79.242093 4.47 334.725
TN303 2013-10-30T08:22:59.00Z -11.907815 -79.243053 4.47 334.725
TN303 2013-10-30T08:24:00.00Z -11.905578 -79.244062 4.59 334.7
TN303 2013-10-30T08:24:59.00Z -11.903412 -79.245013 4.49 335.654
TN303 2013-10-30T08:26:00.00Z -11.901168 -79.246 4.49 330.977
TN303 2013-10-30T08:27:00.00Z -11.898958 -79.247002 4.42 336.002
TN303 2013-10-30T08:28:00.00Z -11.896737 -79.24798 4.49 335.654
TN303 2013-10-30T08:29:00.00Z -11.894518 -79.248985 4.4 336.65
TN303 2013-10-30T08:30:00.00Z -11.892297 -79.249968 4.45 336.932
TN303 2013-10-30T08:30:59.00Z -11.890108 -79.250907 4.48 337.85
TN303 2013-10-30T08:32:00.00Z -11.887852 -79.251877 4.42 339.812
TN303 2013-10-30T08:33:00.00Z -11.885643 -79.25287 4.44 332.206
TN303 2013-10-30T08:34:00.00Z -11.883438 -79.253837 4.44 341.38
TN303 2013-10-30T08:34:59.00Z -11.881263 -79.254758 4.34 338.632
TN303 2013-10-30T08:36:00.00Z -11.879022 -79.25571 4.5 337.207
TN303 2013-10-30T08:37:00.00Z -11.877028 -79.25701 4.31 315.952
TN303 2013-10-30T08:37:59.00Z -11.875727 -79.259085 4.67 294.494
TN303 2013-10-30T08:38:59.00Z -11.874773 -79.261512 4.7 274.052
TN303 2013-10-30T08:39:59.00Z -11.875182 -79.263942 4.41 239.878
TN303 2013-10-30T08:40:59.00Z -11.87682 -79.26559 4.37 204.295
TN303 2013-10-30T08:42:00.00Z -11.879065 -79.265833 4.13 167.819
TN303 2013-10-30T08:42:59.00Z -11.881138 -79.264977 4.61 152.568
TN303 2013-10-30T08:43:59.00Z -11.883318 -79.263953 4.59 153.172
TN303 2013-10-30T08:44:59.00Z -11.885538 -79.262855 4.41 158.234
TN303 2013-10-30T08:46:00.00Z -11.887817 -79.26176 4.64 153.481
TN303 2013-10-30T08:46:59.00Z -11.890037 -79.260683 4.61 151.051
TN303 2013-10-30T08:48:00.00Z -11.892353 -79.259578 4.54 151.315
TN303 2013-10-30T08:49:00.00Z -11.89462 -79.258455 4.51 153.473
TN303 2013-10-30T08:50:00.00Z -11.896877 -79.257342 4.51 153.473
TN303 2013-10-30T08:51:00.00Z -11.89914 -79.25624 4.74 154.079
TN303 2013-10-30T08:52:00.00Z -11.90139 -79.255128 4.64 153.482
TN303 2013-10-30T08:52:59.00Z -11.903595 -79.254032 5.07 148.256
TN303 2013-10-30T08:54:00.00Z -11.905798 -79.252732 4.55 148.242
TN303 2013-10-30T08:55:00.00Z -11.907982 -79.251493 4.72 148.74
TN303 2013-10-30T08:56:00.00Z -11.910142 -79.250233 4.76 150.55
TN303 2013-10-30T08:56:59.00Z -11.912247 -79.248998 4.82 149.423
TN303 2013-10-30T08:58:00.00Z -11.914452 -79.247732 4.82 149.423
TN303 2013-10-30T08:58:59.00Z -11.916608 -79.246523 4.57 150.718
TN303 2013-10-30T09:00:00.00Z -11.91882 -79.245262 4.68 148.389
TN303 2013-10-30T09:00:59.00Z -11.920955 -79.244058 4.62 149.54
TN303 2013-10-30T09:01:59.00Z -11.923113 -79.242832 4.5 149.424
TN303 2013-10-30T09:02:59.00Z -11.925268 -79.241593 4.82 149.424
TN303 2013-10-30T09:03:59.00Z -11.927437 -79.240358 4.49 150.98
TN303 2013-10-30T09:04:59.00Z -11.929605 -79.239118 4.3 149.549
TN303 2013-10-30T09:05:59.00Z -11.931758 -79.237877 4.69 150.8
TN303 2013-10-30T09:06:59.00Z -11.933943 -79.23665 4.83 147.977
TN303 2013-10-30T09:08:00.00Z -11.936152 -79.235353 4.64 153.485
TN303 2013-10-30T09:09:00.00Z -11.938342 -79.234102 4.94 150.95
TN303 2013-10-30T09:09:59.00Z -11.940497 -79.23291 4.78 147.627
TN303 2013-10-30T09:10:59.00Z -11.94267 -79.231677 4.36 152.505
TN303 2013-10-30T09:12:00.00Z -11.944868 -79.230405 4.37 155.71
TN303 2013-10-30T09:13:00.00Z -11.947033 -79.229178 4.59 153.177
TN303 2013-10-30T09:13:59.00Z -11.949177 -79.227982 4.93 147.247
TN303 2013-10-30T09:14:59.00Z -11.951357 -79.226755 4.5 149.426
TN303 2013-10-30T09:16:00.00Z -11.953542 -79.225537 4.42 151.252
TN303 2013-10-30T09:17:00.00Z -11.955687 -79.22432 4.32 153.789
TN303 2013-10-30T09:18:00.00Z -11.957832 -79.223118 4.54 152.863
TN303 2013-10-30T09:18:59.00Z -11.959938 -79.221913 4.49 152.541
TN303 2013-10-30T09:20:00.00Z -11.962137 -79.220685 4.69 146.905
TN303 2013-10-30T09:20:59.00Z -11.964257 -79.2195 4.64 150.47
TN303 2013-10-30T09:21:59.00Z -11.966423 -79.218307 4.73 147.271
TN303 2013-10-30T09:22:59.00Z -11.968598 -79.217082 4.64 151.978
TN303 2013-10-30T09:23:59.00Z -11.970798 -79.21586 4.62 149.544
TN303 2013-10-30T09:24:59.00Z -11.972988 -79.214638 4.74 154.086
TN303 2013-10-30T09:25:59.00Z -11.975193 -79.21344 4.54 151.323
TN303 2013-10-30T09:26:59.00Z -11.977378 -79.212227 4.2 148.79
TN303 2013-10-30T09:28:00.00Z -11.979573 -79.210973 4.54 154.407
TN303 2013-10-30T09:29:00.00Z -11.981753 -79.209783 4.57 150.724
TN303 2013-10-30T09:29:59.00Z -11.983902 -79.208602 4.78 147.631
TN303 2013-10-30T09:31:00.00Z -11.98611 -79.207378 4.49 152.544
TN303 2013-10-30T09:31:59.00Z -11.988223 -79.206202 4.64 151.98
TN303 2013-10-30T09:32:59.00Z -11.990385 -79.205025 4.35 149.924
TN303 2013-10-30T09:33:59.00Z -11.992175 -79.204062 3.21 155.973
TN303 2013-10-30T09:35:00.00Z -11.993607 -79.203277 2.8 148.277
TN303 2013-10-30T09:36:00.00Z -11.994712 -79.202482 2.41 160.192
TN303 2013-10-30T09:36:59.00Z -11.995758 -79.201832 2.22 150.64
TN303 2013-10-30T09:37:59.00Z -11.996747 -79.201165 2.21 145.544
TN303 2013-10-30T09:38:59.00Z -11.997735 -79.200548 2.02 145.428
TN303 2013-10-30T09:39:59.00Z -11.998645 -79.199857 1.94 135.449
TN303 2013-10-30T09:41:00.00Z -11.99957 -79.199173 1.85 143.899
TN303 2013-10-30T09:42:00.00Z -12.000462 -79.198497 1.96 142.278
TN303 2013-10-30T09:42:59.00Z -12.001332 -79.19784 2.12 143.856
TN303 2013-10-30T09:44:00.00Z -12.002233 -79.19716 2.17 149.925
TN303 2013-10-30T09:45:00.00Z -12.002992 -79.196652 1.38 143.56
TN303 2013-10-30T09:46:00.00Z -12.003623 -79.196375 1.01 157.934
TN303 2013-10-30T09:47:00.00Z -12.004097 -79.196247 0.81 152.073
TN303 2013-10-30T09:47:59.00Z -12.00439 -79.196098 0.4 195.709
TN303 2013-10-30T09:48:59.00Z -12.004682 -79.195967 0.44 180.0
TN303 2013-10-30T09:50:00.00Z -12.004912 -79.195865 0.47 159.738
TN303 2013-10-30T09:51:00.00Z -12.005078 -79.195753 0.32 149.432
TN303 2013-10-30T09:51:59.00Z -12.005275 -79.19561 0.58 139.259
TN303 2013-10-30T09:52:59.00Z -12.005388 -79.195527 0.28 78.516
TN303 2013-10-30T09:54:00.00Z -12.005378 -79.19551 0.08 63.073
TN303 2013-10-30T09:55:00.00Z -12.005358 -79.195525 0.28 0.0
TN303 2013-10-30T09:55:59.00Z -12.00536 -79.195537 0.2 146.724
TN303 2013-10-30T09:57:00.00Z -12.005382 -79.19554 0.49 63.074
TN303 2013-10-30T09:58:00.00Z -12.005388 -79.195512 0.11 180.0
TN303 2013-10-30T09:58:59.00Z -12.005365 -79.195498 0.16 224.55
TN303 2013-10-30T10:00:00.00Z -12.005352 -79.195517 0.23 224.55
TN303 2013-10-30T10:00:59.00Z -12.00536 -79.195532 0.12 206.207
TN303 2013-10-30T10:01:59.00Z -12.005382 -79.195528 0.16 90.0
TN303 2013-10-30T10:03:00.00Z -12.0054 -79.195507 0.25 206.207
TN303 2013-10-30T10:04:00.00Z -12.005398 -79.195502 0.35 18.167
TN303 2013-10-30T10:05:00.00Z -12.00538 -79.195518 0.24 243.073
TN303 2013-10-30T10:06:00.00Z -12.005378 -79.19553 0.22 180.0
TN303 2013-10-30T10:06:59.00Z -12.005383 -79.19552 0.11 180.0
TN303 2013-10-30T10:08:00.00Z -12.005392 -79.195503 0.3 201.493
TN303 2013-10-30T10:08:59.00Z -12.005395 -79.195502 0.16 44.55
TN303 2013-10-30T10:09:59.00Z -12.005383 -79.195505 0.11 270.0
TN303 2013-10-30T10:11:00.00Z -12.00537 -79.195523 0.37 63.074
TN303 2013-10-30T10:12:00.00Z -12.00537 -79.19552 0.16 224.55
TN303 2013-10-30T10:12:59.00Z -12.005375 -79.195505 0.29 247.887
TN303 2013-10-30T10:14:00.00Z -12.00538 -79.195495 0.17 180.0
TN303 2013-10-30T10:15:00.00Z -12.00539 -79.195507 0.24 63.073
TN303 2013-10-30T10:15:59.00Z -12.005387 -79.19552 0.42 246.474
TN303 2013-10-30T10:16:59.00Z -12.005383 -79.195522 0.16 270.0
TN303 2013-10-30T10:18:00.00Z -12.005387 -79.195515 0.0 0.0
TN303 2013-10-30T10:18:59.00Z -12.005383 -79.195518 0.16 224.55
TN303 2013-10-30T10:19:59.00Z -12.005398 -79.19553 0.32 58.638
TN303 2013-10-30T10:20:59.00Z -12.005403 -79.195512 0.27 52.697
TN303 2013-10-30T10:21:59.00Z -12.00539 -79.195502 0.16 44.55
TN303 2013-10-30T10:23:00.00Z -12.005373 -79.1955 0.17 288.706
TN303 2013-10-30T10:23:59.00Z -12.005378 -79.19552 0.44 90.0
TN303 2013-10-30T10:25:00.00Z -12.005385 -79.195507 0.11 270.0
TN303 2013-10-30T10:26:00.00Z -12.005385 -79.19551 0.3 201.493
TN303 2013-10-30T10:27:00.00Z -12.00539 -79.195515 0.11 180.0
TN303 2013-10-30T10:28:00.00Z -12.005382 -79.195513 0.23 135.45
TN303 2013-10-30T10:29:00.00Z -12.005375 -79.195522 0.16 63.073
TN303 2013-10-30T10:30:00.00Z -12.005375 -79.195517 0.16 135.45
TN303 2013-10-30T10:31:00.00Z -12.005373 -79.195515 0.28 216.439
TN303 2013-10-30T10:32:00.00Z -12.005388 -79.195515 0.32 210.568
TN303 2013-10-30T10:33:00.00Z -12.00539 -79.19551 0.11 270.0
TN303 2013-10-30T10:34:00.00Z -12.005382 -79.195515 0.11 0.0
TN303 2013-10-30T10:35:00.00Z -12.005383 -79.195512 0.39 44.55
TN303 2013-10-30T10:35:58.00Z -12.00539 -79.195505 1.82 70.469
TN303 2013-10-30T10:37:00.00Z -12.00538 -79.195508 0.22 270.0
TN303 2013-10-30T10:38:00.00Z -12.005373 -79.195507 0.28 216.439
TN303 2013-10-30T10:38:59.00Z -12.005383 -79.195505 0.29 247.887
TN303 2013-10-30T10:40:00.00Z -12.005388 -79.195505 0.06 0.0
TN303 2013-10-30T10:41:00.00Z -12.00538 -79.195498 0.27 232.697
TN303 2013-10-30T10:42:00.00Z -12.005378 -79.195503 0.25 206.207
TN303 2013-10-30T10:42:59.00Z -12.005383 -79.195505 0.12 63.073
TN303 2013-10-30T10:43:59.00Z -12.005388 -79.195518 0.32 30.568
TN303 2013-10-30T10:45:00.00Z -12.005385 -79.195518 0.22 0.0
TN303 2013-10-30T10:46:00.00Z -12.005388 -79.195517 0.28 216.439
TN303 2013-10-30T10:47:00.00Z -12.00538 -79.195513 0.24 243.073
TN303 2013-10-30T10:48:00.00Z -12.005378 -79.195512 0.11 90.0
TN303 2013-10-30T10:48:59.00Z -12.005382 -79.195502 0.22 0.0
TN303 2013-10-30T10:50:00.00Z -12.005378 -79.195497 0.22 90.0
TN303 2013-10-30T10:51:00.00Z -12.005383 -79.195497 0.16 270.0
TN303 2013-10-30T10:52:00.00Z -12.005377 -79.195502 0.34 288.706
TN303 2013-10-30T10:52:59.00Z -12.00537 -79.195512 0.11 0.0
TN303 2013-10-30T10:54:00.00Z -12.005372 -79.195507 0.0 0.0
TN303 2013-10-30T10:55:00.00Z -12.005383 -79.195508 0.17 18.167
TN303 2013-10-30T10:55:59.00Z -12.005383 -79.195503 0.08 44.55
TN303 2013-10-30T10:56:59.00Z -12.005378 -79.19551 0.16 270.0
TN303 2013-10-30T10:57:59.00Z -12.005373 -79.195527 0.22 90.0
TN303 2013-10-30T10:58:59.00Z -12.005375 -79.195515 0.16 315.45
TN303 2013-10-30T11:00:00.00Z -12.00537 -79.1955 0.11 90.0
TN303 2013-10-30T11:01:00.00Z -12.005382 -79.195507 0.24 63.073
TN303 2013-10-30T11:02:00.00Z -12.005383 -79.195513 0.32 58.638
TN303 2013-10-30T11:03:00.00Z -12.00538 -79.195513 0.05 90.0
TN303 2013-10-30T11:04:00.00Z -12.005387 -79.19551 0.22 270.0
TN303 2013-10-30T11:05:00.00Z -12.005387 -79.19551 0.17 180.0
TN303 2013-10-30T11:06:00.00Z -12.00539 -79.195512 0.11 180.0
TN303 2013-10-30T11:07:00.00Z -12.005385 -79.195508 0.24 243.073
TN303 2013-10-30T11:07:59.00Z -12.005378 -79.195508 0.06 0.0
TN303 2013-10-30T11:09:00.00Z -12.005373 -79.195515 0.0 0.0
TN303 2013-10-30T11:09:59.00Z -12.005373 -79.19552 0.06 0.0
TN303 2013-10-30T11:10:59.00Z -12.005387 -79.195515 0.16 44.55
TN303 2013-10-30T11:12:00.00Z -12.005388 -79.195508 0.06 0.0
TN303 2013-10-30T11:13:00.00Z -12.005382 -79.195513 0.27 90.0
TN303 2013-10-30T11:13:59.00Z -12.005385 -79.195522 0.2 33.276
TN303 2013-10-30T11:14:59.00Z -12.005387 -79.195513 0.2 213.276
TN303 2013-10-30T11:16:00.00Z -12.005393 -79.19551 0.29 247.887
TN303 2013-10-30T11:17:00.00Z -12.005383 -79.195513 0.28 143.561
TN303 2013-10-30T11:17:59.00Z -12.005362 -79.195515 0.27 90.0
TN303 2013-10-30T11:19:00.00Z -12.00537 -79.195517 0.32 58.638
TN303 2013-10-30T11:20:00.00Z -12.005392 -79.195508 0.05 90.0
TN303 2013-10-30T11:20:59.00Z -12.005397 -79.195502 0.27 270.0
TN303 2013-10-30T11:22:00.00Z -12.00538 -79.19551 0.22 270.0
TN303 2013-10-30T11:22:59.00Z -12.005367 -79.195512 0.22 90.0
TN303 2013-10-30T11:24:00.00Z -12.005372 -79.195503 0.12 243.073
TN303 2013-10-30T11:25:00.00Z -12.005392 -79.195498 0.22 0.0
TN303 2013-10-30T11:25:59.00Z -12.005397 -79.19551 0.16 315.45
TN303 2013-10-30T11:26:59.00Z -12.005388 -79.195515 0.28 180.0
TN303 2013-10-30T11:28:00.00Z -12.005382 -79.195515 0.16 270.0
TN303 2013-10-30T11:29:00.00Z -12.005373 -79.195505 0.25 153.793
TN303 2013-10-30T11:29:59.00Z -12.005385 -79.19551 0.32 58.638
TN303 2013-10-30T11:31:00.00Z -12.005388 -79.19551 0.32 301.362
TN303 2013-10-30T11:31:59.00Z -12.00538 -79.195515 0.11 90.0
TN303 2013-10-30T11:32:59.00Z -12.005378 -79.195507 0.12 206.207
TN303 2013-10-30T11:33:58.00Z -12.005375 -79.19551 0.05 44.55
TN303 2013-10-30T11:35:00.00Z -12.005363 -79.195513 0.11 90.0
TN303 2013-10-30T11:35:59.00Z -12.005375 -79.19551 0.16 224.55
TN303 2013-10-30T11:37:00.00Z -12.00539 -79.195507 0.0 0.0
TN303 2013-10-30T11:38:00.00Z -12.005393 -79.195505 0.17 0.0
TN303 2013-10-30T11:39:00.00Z -12.005383 -79.195512 0.22 75.751
TN303 2013-10-30T11:40:00.00Z -12.005377 -79.195508 0.45 255.751
TN303 2013-10-30T11:41:00.00Z -12.005375 -79.19551 0.22 180.0
TN303 2013-10-30T11:42:00.00Z -12.005383 -79.195512 0.35 230.901
TN303 2013-10-30T11:43:00.00Z -12.00539 -79.195505 0.11 270.0
TN303 2013-10-30T11:44:00.00Z -12.005388 -79.195502 0.27 270.0
TN303 2013-10-30T11:44:59.00Z -12.005382 -79.19551 0.47 54.036
TN303 2013-10-30T11:46:00.00Z -12.005373 -79.195505 0.2 33.276
TN303 2013-10-30T11:46:59.00Z -12.005373 -79.195508 0.17 18.167
TN303 2013-10-30T11:47:59.00Z -12.005377 -79.195508 0.11 270.0
TN303 2013-10-30T11:49:00.00Z -12.005383 -79.19551 0.0 0.0
TN303 2013-10-30T11:50:00.00Z -12.005392 -79.19551 0.17 251.294
TN303 2013-10-30T11:51:00.00Z -12.005383 -79.195507 0.22 90.0
TN303 2013-10-30T11:51:59.00Z -12.005377 -79.195502 0.05 270.0
TN303 2013-10-30T11:52:59.00Z -12.005378 -79.195502 0.12 63.073
TN303 2013-10-30T11:54:00.00Z -12.005377 -79.19551 0.32 329.432
TN303 2013-10-30T11:55:00.00Z -12.005375 -79.195515 0.22 180.0
TN303 2013-10-30T11:55:59.00Z -12.005388 -79.195507 0.12 63.073
TN303 2013-10-30T11:56:59.00Z -12.005397 -79.195502 0.11 0.0
TN303 2013-10-30T11:57:59.00Z -12.005393 -79.195505 0.2 33.276
TN303 2013-10-30T11:59:00.00Z -12.005387 -79.195512 0.12 333.793
TN303 2013-10-30T12:00:00.00Z -12.005377 -79.19551 0.06 180.0
TN303 2013-10-30T12:00:59.00Z -12.005378 -79.195503 0.06 0.0
TN303 2013-10-30T12:01:59.00Z -12.005387 -79.1955 0.32 238.638
TN303 2013-10-30T12:03:00.00Z -12.005393 -79.1955 0.23 44.55
TN303 2013-10-30T12:03:59.00Z -12.00538 -79.195498 0.17 0.0
TN303 2013-10-30T12:05:00.00Z -12.005368 -79.19551 0.12 63.073
TN303 2013-10-30T12:05:59.00Z -12.005372 -79.195513 0.05 90.0
TN303 2013-10-30T12:07:00.00Z -12.00538 -79.195513 0.11 90.0
TN303 2013-10-30T12:07:59.00Z -12.005382 -79.195505 0.16 270.0
TN303 2013-10-30T12:09:00.00Z -12.005382 -79.195513 0.2 55.894
TN303 2013-10-30T12:09:59.00Z -12.005382 -79.195508 0.23 13.826
TN303 2013-10-30T12:10:59.00Z -12.00538 -79.195503 0.32 58.638
TN303 2013-10-30T12:11:59.00Z -12.005377 -79.195503 0.25 333.793
TN303 2013-10-30T12:13:00.00Z -12.005368 -79.195513 0.33 80.391
TN303 2013-10-30T12:13:59.00Z -12.00537 -79.195515 0.29 112.113
TN303 2013-10-30T12:15:00.00Z -12.005378 -79.195502 0.06 0.0
TN303 2013-10-30T12:16:00.00Z -12.005378 -79.195503 0.05 90.0
TN303 2013-10-30T12:16:59.00Z -12.00538 -79.195508 0.05 90.0
TN303 2013-10-30T12:18:00.00Z -12.005372 -79.195512 0.0 0.0
TN303 2013-10-30T12:19:00.00Z -12.005375 -79.195515 0.31 135.45
TN303 2013-10-30T12:20:00.00Z -12.005385 -79.19551 0.17 180.0
TN303 2013-10-30T12:21:00.00Z -12.005387 -79.195515 0.16 44.55
TN303 2013-10-30T12:21:59.00Z -12.005378 -79.195513 0.2 326.724
TN303 2013-10-30T12:23:00.00Z -12.005372 -79.195513 0.25 26.207
TN303 2013-10-30T12:23:59.00Z -12.005373 -79.195513 0.12 296.927
TN303 2013-10-30T12:25:00.00Z -12.005378 -79.195508 0.11 270.0
TN303 2013-10-30T12:25:59.00Z -12.005395 -79.195503 0.17 0.0
TN303 2013-10-30T12:26:59.00Z -12.005387 -79.195505 0.17 108.706
TN303 2013-10-30T12:28:00.00Z -12.005373 -79.195505 0.24 296.927
TN303 2013-10-30T12:29:00.00Z -12.005372 -79.195512 0.11 270.0
TN303 2013-10-30T12:29:59.00Z -12.005387 -79.195503 0.42 246.474
TN303 2013-10-30T12:31:00.00Z -12.0054 -79.1955 0.16 44.55
TN303 2013-10-30T12:32:00.00Z -12.00539 -79.195505 0.0 0.0
TN303 2013-10-30T12:33:00.00Z -12.00537 -79.195505 0.0 0.0
TN303 2013-10-30T12:34:00.00Z -12.00538 -79.195508 0.22 270.0
TN303 2013-10-30T12:34:59.00Z -12.005387 -79.195505 0.17 108.706
TN303 2013-10-30T12:35:59.00Z -12.005385 -79.195505 0.11 0.0
TN303 2013-10-30T12:36:59.00Z -12.005378 -79.195508 0.27 90.0
TN303 2013-10-30T12:38:00.00Z -12.00538 -79.195512 0.16 135.45
TN303 2013-10-30T12:39:00.00Z -12.00538 -79.195513 0.12 26.207
TN303 2013-10-30T12:39:59.00Z -12.005382 -79.19551 0.16 44.55
TN303 2013-10-30T12:41:00.00Z -12.005387 -79.1955 0.11 0.0
TN303 2013-10-30T12:42:00.00Z -12.005382 -79.195505 0.17 251.294
TN303 2013-10-30T12:43:00.00Z -12.005375 -79.195512 0.2 235.894
TN303 2013-10-30T12:43:59.00Z -12.005383 -79.195515 0.06 0.0
TN303 2013-10-30T12:45:00.00Z -12.00538 -79.19551 0.13 33.276
TN303 2013-10-30T12:46:00.00Z -12.005375 -79.195503 0.24 243.073
TN303 2013-10-30T12:47:00.00Z -12.005373 -79.195507 0.22 180.0
TN303 2013-10-30T12:47:59.00Z -12.005377 -79.195505 0.12 243.073
TN303 2013-10-30T12:48:59.00Z -12.005383 -79.195503 0.12 153.793
TN303 2013-10-30T12:50:00.00Z -12.005378 -79.195493 0.22 270.0
TN303 2013-10-30T12:51:00.00Z -12.005377 -79.195498 0.28 36.439
TN303 2013-10-30T12:52:00.00Z -12.005377 -79.195503 0.0 0.0
TN303 2013-10-30T12:53:00.00Z -12.005382 -79.195503 0.0 0.0
TN303 2013-10-30T12:53:59.00Z -12.005385 -79.195502 0.17 198.167
TN303 2013-10-30T12:55:00.00Z -12.005378 -79.195507 0.11 90.0
TN303 2013-10-30T12:55:59.00Z -12.005373 -79.195502 0.23 193.826
TN303 2013-10-30T12:56:59.00Z -12.005382 -79.195502 0.05 270.0
TN303 2013-10-30T12:58:00.00Z -12.00538 -79.195503 0.0 0.0
TN303 2013-10-30T12:59:00.00Z -12.005377 -79.195498 0.16 315.45
TN303 2013-10-30T13:00:00.00Z -12.005368 -79.195493 0.11 90.0
TN303 2013-10-30T13:00:59.00Z -12.005378 -79.195498 0.27 90.0
TN303 2013-10-30T13:02:00.00Z -12.005385 -79.195493 0.11 0.0
TN303 2013-10-30T13:03:00.00Z -12.005383 -79.195495 0.44 239.866
TN303 2013-10-30T13:03:59.00Z -12.005382 -79.1955 0.35 50.901
TN303 2013-10-30T13:04:59.00Z -12.005377 -79.195503 0.05 90.0
TN303 2013-10-30T13:06:00.00Z -12.005377 -79.195495 0.16 315.45
TN303 2013-10-30T13:07:00.00Z -12.005377 -79.1955 0.2 55.894
TN303 2013-10-30T13:07:59.00Z -12.005378 -79.195495 0.29 247.887
TN303 2013-10-30T13:09:00.00Z -12.005375 -79.195503 0.0 0.0
TN303 2013-10-30T13:10:00.00Z -12.005378 -79.195513 0.08 44.55
TN303 2013-10-30T13:10:59.00Z -12.00538 -79.195513 0.12 153.793
TN303 2013-10-30T13:12:00.00Z -12.005375 -79.195505 0.16 270.0
TN303 2013-10-30T13:12:59.00Z -12.005375 -79.195505 0.16 90.0
TN303 2013-10-30T13:13:59.00Z -12.005378 -79.195493 0.22 270.0
TN303 2013-10-30T13:15:00.00Z -12.00538 -79.1955 0.0 0.0
TN303 2013-10-30T13:16:00.00Z -12.005372 -79.195507 0.23 224.55
TN303 2013-10-30T13:17:01.00Z -12.00537 -79.195507 0.16 135.45
TN303 2013-10-30T13:18:00.00Z -12.005377 -79.195505 0.11 90.0
TN303 2013-10-30T13:18:59.00Z -12.00538 -79.195502 0.11 0.0
TN303 2013-10-30T13:20:00.00Z -12.005378 -79.195502 0.12 206.207
TN303 2013-10-30T13:20:59.00Z -12.00537 -79.1955 0.11 180.0
TN303 2013-10-30T13:22:00.00Z -12.005363 -79.1955 0.16 90.0
TN303 2013-10-30T13:22:59.00Z -12.00536 -79.195507 0.0 0.0
TN303 2013-10-30T13:23:59.00Z -12.005365 -79.195507 0.24 116.927
TN303 2013-10-30T13:25:00.00Z -12.00538 -79.195498 0.05 90.0
TN303 2013-10-30T13:26:00.00Z -12.005385 -79.195497 0.22 90.0
TN303 2013-10-30T13:27:00.00Z -12.005377 -79.1955 0.4 73.816
TN303 2013-10-30T13:28:00.00Z -12.005373 -79.19549 0.06 0.0
TN303 2013-10-30T13:28:59.00Z -12.005378 -79.195498 0.27 90.0
TN303 2013-10-30T13:30:00.00Z -12.005375 -79.1955 0.23 135.45
TN303 2013-10-30T13:31:00.00Z -12.005367 -79.195498 0.16 90.0
TN303 2013-10-30T13:32:00.00Z -12.005367 -79.195495 0.29 67.887
TN303 2013-10-30T13:33:00.00Z -12.005375 -79.195492 0.0 0.0
TN303 2013-10-30T13:34:00.00Z -12.005378 -79.195498 0.11 90.0
TN303 2013-10-30T13:34:59.00Z -12.005375 -79.195498 0.11 180.0
TN303 2013-10-30T13:35:59.00Z -12.00537 -79.195505 0.16 224.55
TN303 2013-10-30T13:36:59.00Z -12.005378 -79.195508 0.11 270.0
TN303 2013-10-30T13:37:59.00Z -12.005382 -79.1955 0.3 201.493
TN303 2013-10-30T13:38:59.00Z -12.005385 -79.195498 0.05 90.0
TN303 2013-10-30T13:40:00.00Z -12.005383 -79.195497 0.34 288.706
TN303 2013-10-30T13:41:00.00Z -12.005373 -79.195505 0.16 135.45
TN303 2013-10-30T13:41:59.00Z -12.005367 -79.195507 0.0 0.0
TN303 2013-10-30T13:42:58.00Z -12.005368 -79.1955 0.11 216.439
TN303 2013-10-30T13:43:59.00Z -12.005382 -79.195498 0.06 180.0
TN303 2013-10-30T13:45:00.00Z -12.005388 -79.195498 0.05 90.0
TN303 2013-10-30T13:46:00.00Z -12.005382 -79.195502 0.08 224.55
TN303 2013-10-30T13:46:59.00Z -12.005368 -79.1955 0.22 180.0
TN303 2013-10-30T13:47:59.00Z -12.005363 -79.195498 0.35 230.901
TN303 2013-10-30T13:49:00.00Z -12.00538 -79.195502 0.11 90.0
TN303 2013-10-30T13:50:00.00Z -12.005387 -79.195497 0.31 44.55
TN303 2013-10-30T13:50:59.00Z -12.005375 -79.195495 0.11 180.0
TN303 2013-10-30T13:52:00.00Z -12.005373 -79.195497 0.12 206.207
TN303 2013-10-30T13:52:59.00Z -12.005383 -79.195498 0.44 82.764
TN303 2013-10-30T13:54:00.00Z -12.005387 -79.195498 0.4 344.291
TN303 2013-10-30T13:55:00.00Z -12.005368 -79.195502 0.08 315.45
TN303 2013-10-30T13:56:00.00Z -12.00537 -79.195502 0.23 224.55
TN303 2013-10-30T13:56:59.00Z -12.005382 -79.195497 0.23 224.55
TN303 2013-10-30T13:57:59.00Z -12.005385 -79.195497 0.0 0.0
TN303 2013-10-30T13:59:00.00Z -12.005375 -79.195495 0.22 180.0
TN303 2013-10-30T13:59:59.00Z -12.005367 -79.1955 0.0 0.0
TN303 2013-10-30T14:00:59.00Z -12.005367 -79.195505 0.12 116.927
TN303 2013-10-30T14:02:00.00Z -12.005377 -79.195505 0.2 146.724
TN303 2013-10-30T14:03:00.00Z -12.00538 -79.195502 0.23 224.55
TN303 2013-10-30T14:04:00.00Z -12.005382 -79.195495 0.27 270.0
TN303 2013-10-30T14:04:59.00Z -12.005378 -79.1955 0.16 270.0
TN303 2013-10-30T14:05:59.00Z -12.005365 -79.19551 0.0 0.0
TN303 2013-10-30T14:06:59.00Z -12.005363 -79.195517 0.25 153.793
TN303 2013-10-30T14:07:59.00Z -12.00538 -79.195507 0.11 90.0
TN303 2013-10-30T14:08:59.00Z -12.005383 -79.195497 0.05 270.0
TN303 2013-10-30T14:10:00.00Z -12.005382 -79.195498 0.0 0.0
TN303 2013-10-30T14:10:59.00Z -12.005373 -79.195497 0.0 0.0
TN303 2013-10-30T14:11:59.00Z -12.00537 -79.1955 0.16 270.0
TN303 2013-10-30T14:12:59.00Z -12.005378 -79.195505 0.12 296.927
TN303 2013-10-30T14:14:00.00Z -12.005375 -79.195502 0.16 135.45
TN303 2013-10-30T14:15:00.00Z -12.005382 -79.195505 0.16 90.0
TN303 2013-10-30T14:16:00.00Z -12.005378 -79.195505 0.25 153.793
TN303 2013-10-30T14:17:00.00Z -12.005377 -79.1955 0.11 180.0
TN303 2013-10-30T14:17:59.00Z -12.005375 -79.195495 0.16 270.0
TN303 2013-10-30T14:18:59.00Z -12.005368 -79.1955 0.3 158.507
TN303 2013-10-30T14:20:00.00Z -12.005365 -79.195503 0.0 0.0
TN303 2013-10-30T14:21:00.00Z -12.005375 -79.195497 0.05 270.0
TN303 2013-10-30T14:22:00.00Z -12.00538 -79.195492 0.11 0.0
TN303 2013-10-30T14:23:00.00Z -12.005382 -79.195498 0.05 90.0
TN303 2013-10-30T14:24:00.00Z -12.00538 -79.195503 0.2 124.106
TN303 2013-10-30T14:24:59.00Z -12.00537 -79.195505 0.16 44.55
TN303 2013-10-30T14:25:59.00Z -12.005365 -79.195498 0.05 90.0
TN303 2013-10-30T14:26:59.00Z -12.00537 -79.195498 0.12 153.793
TN303 2013-10-30T14:27:59.00Z -12.005372 -79.195495 0.16 90.0
TN303 2013-10-30T14:28:59.00Z -12.005377 -79.195495 0.16 270.0
TN303 2013-10-30T14:29:59.00Z -12.005375 -79.195493 0.52 251.294
TN303 2013-10-30T14:31:00.00Z -12.005372 -79.1955 0.32 149.432
TN303 2013-10-30T14:32:00.00Z -12.005368 -79.195495 0.11 270.0
TN303 2013-10-30T14:32:59.00Z -12.005373 -79.1955 0.17 288.706
TN303 2013-10-30T14:34:00.00Z -12.00537 -79.195497 0.12 206.207
TN303 2013-10-30T14:35:00.00Z -12.005378 -79.195493 0.11 180.0
TN303 2013-10-30T14:36:00.00Z -12.00537 -79.195498 0.16 90.0
TN303 2013-10-30T14:36:59.00Z -12.00537 -79.195492 0.11 0.0
TN303 2013-10-30T14:38:00.00Z -12.005368 -79.195492 0.23 193.826
TN303 2013-10-30T14:38:59.00Z -12.005367 -79.195492 0.16 270.0
TN303 2013-10-30T14:39:59.00Z -12.005372 -79.195493 0.2 55.894
TN303 2013-10-30T14:40:59.00Z -12.005378 -79.195493 0.11 270.0
TN303 2013-10-30T14:42:00.00Z -12.005378 -79.195505 0.12 63.073
TN303 2013-10-30T14:42:59.00Z -12.005375 -79.19551 0.0 0.0
TN303 2013-10-30T14:43:59.00Z -12.005367 -79.195507 0.23 224.55
TN303 2013-10-30T14:45:00.00Z -12.005375 -79.195502 0.12 333.793
TN303 2013-10-30T14:45:59.00Z -12.005378 -79.195498 0.08 44.55
TN303 2013-10-30T14:47:00.00Z -12.005375 -79.195502 0.0 0.0
TN303 2013-10-30T14:47:59.00Z -12.005373 -79.195503 0.17 71.294
TN303 2013-10-30T14:49:00.00Z -12.005377 -79.195505 0.22 90.0
TN303 2013-10-30T14:50:00.00Z -12.005378 -79.195505 0.0 0.0
TN303 2013-10-30T14:51:00.00Z -12.00538 -79.195505 0.16 44.55
TN303 2013-10-30T14:52:00.00Z -12.005375 -79.1955 0.29 292.113
TN303 2013-10-30T14:53:00.00Z -12.005377 -79.195505 0.11 270.0
TN303 2013-10-30T14:53:59.00Z -12.005377 -79.195503 0.27 270.0
TN303 2013-10-30T14:54:59.00Z -12.005377 -79.195507 0.08 224.55
TN303 2013-10-30T14:56:00.00Z -12.005378 -79.195503 0.31 224.55
TN303 2013-10-30T14:57:00.00Z -12.00538 -79.195497 0.0 0.0
TN303 2013-10-30T14:58:00.00Z -12.00538 -79.195492 0.12 206.207
TN303 2013-10-30T14:59:00.00Z -12.005372 -79.195498 0.0 0.0
TN303 2013-10-30T15:00:00.00Z -12.00537 -79.1955 0.31 44.55
TN303 2013-10-30T15:00:59.00Z -12.005373 -79.195498 0.05 90.0
TN303 2013-10-30T15:02:00.00Z -12.005373 -79.195493 0.38 270.0
TN303 2013-10-30T15:03:00.00Z -12.00538 -79.195495 0.16 315.45
TN303 2013-10-30T15:03:59.00Z -12.00538 -79.195495 0.16 315.45
TN303 2013-10-30T15:05:00.00Z -12.005385 -79.195505 0.16 270.0
TN303 2013-10-30T15:06:00.00Z -12.005383 -79.195507 0.32 329.432
TN303 2013-10-30T15:06:59.00Z -12.005375 -79.19551 0.2 304.106
TN303 2013-10-30T15:07:59.00Z -12.005375 -79.195505 0.2 55.894
TN303 2013-10-30T15:09:00.00Z -12.005382 -79.195508 0.24 243.073
TN303 2013-10-30T15:10:00.00Z -12.005382 -79.195508 0.22 0.0
TN303 2013-10-30T15:11:00.00Z -12.005367 -79.195505 0.12 243.073
TN303 2013-10-30T15:12:00.00Z -12.00537 -79.195502 0.27 90.0
TN303 2013-10-30T15:12:59.00Z -12.005382 -79.195498 0.05 90.0
TN303 2013-10-30T15:13:59.00Z -12.005387 -79.195492 0.44 270.0
TN303 2013-10-30T15:14:59.00Z -12.005378 -79.195495 0.06 0.0
TN303 2013-10-30T15:16:00.00Z -12.005367 -79.195497 0.22 90.0
TN303 2013-10-30T15:16:59.00Z -12.005367 -79.195502 0.05 270.0
TN303 2013-10-30T15:18:00.00Z -12.005372 -79.195503 0.08 135.45
TN303 2013-10-30T15:19:00.00Z -12.005378 -79.195507 0.22 90.0
TN303 2013-10-30T15:19:59.00Z -12.005373 -79.195502 0.24 116.927
TN303 2013-10-30T15:20:59.00Z -12.005375 -79.195505 0.23 44.55
TN303 2013-10-30T15:22:00.00Z -12.005373 -79.1955 0.4 253.816
TN303 2013-10-30T15:22:59.00Z -12.005368 -79.195505 0.4 106.184
TN303 2013-10-30T15:24:00.00Z -12.005368 -79.195498 0.3 201.493
TN303 2013-10-30T15:25:00.00Z -12.005367 -79.195497 0.32 238.638
TN303 2013-10-30T15:25:59.00Z -12.00537 -79.195498 0.16 224.55
TN303 2013-10-30T15:27:00.00Z -12.005377 -79.195495 0.11 0.0
TN303 2013-10-30T15:27:59.00Z -12.005375 -79.195497 0.27 90.0
TN303 2013-10-30T15:28:59.00Z -12.005372 -79.195502 0.06 180.0
TN303 2013-10-30T15:30:00.00Z -12.005368 -79.195503 0.06 0.0
TN303 2013-10-30T15:30:59.00Z -12.005368 -79.195495 0.12 63.073
TN303 2013-10-30T15:31:59.00Z -12.005385 -79.19549 0.38 270.0
TN303 2013-10-30T15:33:00.00Z -12.005385 -79.19549 0.2 235.894
TN303 2013-10-30T15:34:00.00Z -12.005373 -79.195497 0.16 135.45
TN303 2013-10-30T15:35:00.00Z -12.005368 -79.1955 0.2 326.724
TN303 2013-10-30T15:36:00.00Z -12.00537 -79.195507 0.22 90.0
TN303 2013-10-30T15:36:59.00Z -12.00538 -79.195507 0.16 135.45
TN303 2013-10-30T15:38:00.00Z -12.005387 -79.195503 0.34 71.294
TN303 2013-10-30T15:39:00.00Z -12.00538 -79.195508 0.29 67.887
TN303 2013-10-30T15:40:00.00Z -12.005373 -79.195505 0.11 270.0
TN303 2013-10-30T15:40:59.00Z -12.005372 -79.1955 0.17 108.706
TN303 2013-10-30T15:42:00.00Z -12.005375 -79.195497 0.11 180.0
TN303 2013-10-30T15:42:59.00Z -12.005377 -79.1955 0.11 0.0
TN303 2013-10-30T15:43:59.00Z -12.005372 -79.1955 0.12 243.073
TN303 2013-10-30T15:44:59.00Z -12.005368 -79.195507 0.0 0.0
TN303 2013-10-30T15:46:00.00Z -12.005373 -79.1955 0.11 270.0
TN303 2013-10-30T15:47:00.00Z -12.005377 -79.195503 0.52 57.589
TN303 2013-10-30T15:48:00.00Z -12.00537 -79.195502 0.11 90.0
TN303 2013-10-30T15:49:00.00Z -12.005367 -79.195498 0.12 26.207
TN303 2013-10-30T15:50:00.00Z -12.005375 -79.195502 0.24 116.927
TN303 2013-10-30T15:50:59.00Z -12.005378 -79.195505 0.17 71.294
TN303 2013-10-30T15:52:00.00Z -12.005375 -79.195498 0.05 90.0
TN303 2013-10-30T15:53:00.00Z -12.005378 -79.195493 0.15 270.0
TN303 2013-10-30T15:54:00.00Z -12.005383 -79.195502 0.2 33.276
TN303 2013-10-30T15:55:00.00Z -12.005373 -79.195498 0.17 71.294
TN303 2013-10-30T15:55:59.00Z -12.005372 -79.195495 0.2 304.106
TN303 2013-10-30T15:57:00.00Z -12.005375 -79.195498 0.05 90.0
TN303 2013-10-30T15:57:59.00Z -12.005385 -79.195497 0.17 341.833
TN303 2013-10-30T15:59:00.00Z -12.005378 -79.195488 0.2 326.724
TN303 2013-10-30T15:59:59.00Z -12.005365 -79.195497 0.11 180.0
TN303 2013-10-30T16:01:00.00Z -12.005368 -79.195498 0.22 270.0
TN303 2013-10-30T16:02:00.00Z -12.005377 -79.195493 0.32 238.638
TN303 2013-10-30T16:03:00.00Z -12.005382 -79.195498 0.22 255.751
TN303 2013-10-30T16:03:59.00Z -12.00538 -79.195502 0.16 44.55
TN303 2013-10-30T16:04:59.00Z -12.005372 -79.195498 0.0 0.0
TN303 2013-10-30T16:05:59.00Z -12.005373 -79.1955 0.0 0.0
TN303 2013-10-30T16:07:00.00Z -12.00537 -79.195502 0.42 202.875
TN303 2013-10-30T16:07:59.00Z -12.005368 -79.195507 0.06 0.0
TN303 2013-10-30T16:08:59.00Z -12.005373 -79.195502 0.06 0.0
TN303 2013-10-30T16:09:59.00Z -12.005382 -79.195505 0.27 90.0
TN303 2013-10-30T16:10:59.00Z -12.005373 -79.195498 0.31 224.55
TN303 2013-10-30T16:12:00.00Z -12.005367 -79.195497 0.16 270.0
TN303 2013-10-30T16:13:00.00Z -12.005368 -79.195502 0.11 270.0
TN303 2013-10-30T16:13:59.00Z -12.00538 -79.195505 0.2 55.894
TN303 2013-10-30T16:15:00.00Z -12.00538 -79.1955 0.0 0.0
TN303 2013-10-30T16:15:59.00Z -12.005377 -79.195508 0.12 26.207
TN303 2013-10-30T16:17:00.00Z -12.005368 -79.19551 0.11 270.0
TN303 2013-10-30T16:17:59.00Z -12.005368 -79.19551 0.16 135.45
TN303 2013-10-30T16:19:00.00Z -12.005382 -79.1955 0.11 0.0
TN303 2013-10-30T16:19:59.00Z -12.005387 -79.195502 0.16 270.0
TN303 2013-10-30T16:21:00.00Z -12.005378 -79.195495 0.2 235.894
TN303 2013-10-30T16:22:00.00Z -12.005367 -79.195497 0.17 198.167
TN303 2013-10-30T16:23:00.00Z -12.005368 -79.195492 0.28 216.439
TN303 2013-10-30T16:24:00.00Z -12.005377 -79.195497 0.06 180.0
TN303 2013-10-30T16:24:59.00Z -12.005373 -79.19549 0.23 44.55
TN303 2013-10-30T16:26:00.00Z -12.005363 -79.195485 0.11 0.0
TN303 2013-10-30T16:27:00.00Z -12.005368 -79.195487 0.22 180.0
TN303 2013-10-30T16:28:00.00Z -12.005378 -79.195492 0.23 193.826
TN303 2013-10-30T16:29:00.00Z -12.005377 -79.195492 0.29 292.113
TN303 2013-10-30T16:30:00.00Z -12.005367 -79.195492 0.11 270.0
TN303 2013-10-30T16:30:59.00Z -12.005368 -79.195495 0.16 135.45
TN303 2013-10-30T16:31:59.00Z -12.005367 -79.195493 0.12 243.073
TN303 2013-10-30T16:32:59.00Z -12.005373 -79.195498 0.08 44.55
TN303 2013-10-30T16:34:00.00Z -12.005368 -79.195492 0.24 116.927
TN303 2013-10-30T16:35:00.00Z -12.005362 -79.195492 0.27 270.0
TN303 2013-10-30T16:36:00.00Z -12.00537 -79.1955 0.0 0.0
TN303 2013-10-30T16:36:59.00Z -12.005388 -79.1955 0.11 270.0
TN303 2013-10-30T16:37:59.00Z -12.005387 -79.195495 0.12 243.073
TN303 2013-10-30T16:39:00.00Z -12.005372 -79.195495 0.38 270.0
TN303 2013-10-30T16:39:59.00Z -12.005365 -79.195505 0.16 224.55
TN303 2013-10-30T16:41:00.00Z -12.005375 -79.195505 0.11 180.0
TN303 2013-10-30T16:42:00.00Z -12.005383 -79.1955 0.17 0.0
TN303 2013-10-30T16:43:00.00Z -12.005383 -79.195497 0.22 90.0
TN303 2013-10-30T16:43:59.00Z -12.005378 -79.19549 0.12 63.073
TN303 2013-10-30T16:45:00.00Z -12.005372 -79.195492 0.0 0.0
TN303 2013-10-30T16:46:00.00Z -12.005372 -79.195488 0.22 270.0
TN303 2013-10-30T16:47:00.00Z -12.00538 -79.195495 0.11 180.0
TN303 2013-10-30T16:48:00.00Z -12.005383 -79.195488 0.29 247.887
TN303 2013-10-30T16:49:00.00Z -12.005383 -79.195485 0.11 270.0
TN303 2013-10-30T16:50:00.00Z -12.00538 -79.195488 0.12 26.207
TN303 2013-10-30T16:51:00.00Z -12.005368 -79.195485 0.16 224.55
TN303 2013-10-30T16:52:00.00Z -12.005367 -79.195483 0.16 315.45
TN303 2013-10-30T16:52:59.00Z -12.005373 -79.195488 0.11 270.0
TN303 2013-10-30T16:54:00.00Z -12.005385 -79.19549 0.11 180.0
TN303 2013-10-30T16:55:00.00Z -12.005385 -79.195497 0.11 90.0
TN303 2013-10-30T16:56:00.00Z -12.00538 -79.1955 0.11 90.0
TN303 2013-10-30T16:56:59.00Z -12.005373 -79.195497 0.12 63.073
TN303 2013-10-30T16:58:00.00Z -12.005372 -79.195495 0.0 0.0
TN303 2013-10-30T16:59:00.00Z -12.005378 -79.195497 0.28 281.484
TN303 2013-10-30T17:00:00.00Z -12.005378 -79.1955 0.2 235.894
TN303 2013-10-30T17:00:59.00Z -12.005377 -79.195498 0.28 0.0
TN303 2013-10-30T17:01:59.00Z -12.00537 -79.195503 0.12 153.793
TN303 2013-10-30T17:02:58.00Z -12.005423 -79.195495 0.74 352.985
TN303 2013-10-30T17:04:00.00Z -12.005383 -79.195497 0.12 206.207
TN303 2013-10-30T17:05:00.00Z -12.005377 -79.195498 0.28 101.484
TN303 2013-10-30T17:06:00.00Z -12.005372 -79.195492 0.16 44.55
TN303 2013-10-30T17:07:00.00Z -12.005377 -79.195485 0.28 258.516
TN303 2013-10-30T17:07:59.00Z -12.00538 -79.195485 0.29 247.887
TN303 2013-10-30T17:09:00.00Z -12.005382 -79.195493 0.23 13.826
TN303 2013-10-30T17:09:59.00Z -12.005373 -79.195495 0.17 71.294
TN303 2013-10-30T17:11:00.00Z -12.005372 -79.195492 0.39 304.106
TN303 2013-10-30T17:11:59.00Z -12.005378 -79.195492 0.05 270.0
TN303 2013-10-30T17:13:00.00Z -12.005382 -79.195497 0.22 104.249
TN303 2013-10-30T17:14:02.00Z -12.005375 -79.195495 0.2 55.894
TN303 2013-10-30T17:15:00.00Z -12.005368 -79.195495 0.16 90.0
TN303 2013-10-30T17:16:00.00Z -12.00537 -79.195497 0.24 116.927
TN303 2013-10-30T17:16:59.00Z -12.005372 -79.195498 0.05 90.0
TN303 2013-10-30T17:17:59.00Z -12.005378 -79.195497 0.12 63.073
TN303 2013-10-30T17:18:59.00Z -12.005377 -79.195492 0.12 116.927
TN303 2013-10-30T17:19:59.00Z -12.005375 -79.195497 0.22 90.0
TN303 2013-10-30T17:21:00.00Z -12.005373 -79.195495 0.06 0.0
TN303 2013-10-30T17:22:00.00Z -12.005367 -79.195493 0.17 180.0
TN303 2013-10-30T17:23:00.00Z -12.005368 -79.195488 0.27 270.0
TN303 2013-10-30T17:24:00.00Z -12.005367 -79.195487 0.22 0.0
TN303 2013-10-30T17:24:59.00Z -12.005367 -79.195483 0.06 180.0
TN303 2013-10-30T17:26:00.00Z -12.005372 -79.195483 0.22 0.0
TN303 2013-10-30T17:27:00.00Z -12.005372 -79.195498 0.11 270.0
TN303 2013-10-30T17:28:00.00Z -12.00538 -79.195503 0.05 90.0
TN303 2013-10-30T17:28:59.00Z -12.005375 -79.195495 0.2 235.894
TN303 2013-10-30T17:29:59.00Z -12.005368 -79.195493 0.16 224.55
TN303 2013-10-30T17:30:59.00Z -12.005375 -79.195493 0.12 26.207
TN303 2013-10-30T17:31:59.00Z -12.005382 -79.195488 0.0 0.0
TN303 2013-10-30T17:32:59.00Z -12.005375 -79.195488 0.17 0.0
TN303 2013-10-30T17:33:59.00Z -12.005362 -79.195495 0.11 270.0
TN303 2013-10-30T17:34:59.00Z -12.005375 -79.195495 0.16 44.55
TN303 2013-10-30T17:35:59.00Z -12.005382 -79.195492 0.22 90.0
TN303 2013-10-30T17:36:59.00Z -12.005378 -79.195485 0.12 296.927
TN303 2013-10-30T17:38:00.00Z -12.005372 -79.195483 0.0 0.0
TN303 2013-10-30T17:39:00.00Z -12.005372 -79.195495 0.11 90.0
TN303 2013-10-30T17:40:00.00Z -12.005368 -79.195492 0.11 90.0
TN303 2013-10-30T17:40:59.00Z -12.005367 -79.195488 0.22 270.0
TN303 2013-10-30T17:41:59.00Z -12.005372 -79.195487 0.27 270.0
TN303 2013-10-30T17:43:00.00Z -12.005375 -79.195485 0.0 0.0
TN303 2013-10-30T17:43:59.00Z -12.005375 -79.19548 0.11 270.0
TN303 2013-10-30T17:45:00.00Z -12.005372 -79.195478 0.31 315.45
TN303 2013-10-30T17:45:59.00Z -12.005377 -79.195485 0.2 55.894
TN303 2013-10-30T17:47:00.00Z -12.005375 -79.195488 0.2 124.106
TN303 2013-10-30T17:47:59.00Z -12.005373 -79.195497 0.11 90.0
TN303 2013-10-30T17:48:59.00Z -12.005365 -79.195493 0.24 243.073
TN303 2013-10-30T17:49:59.00Z -12.005373 -79.195478 0.06 0.0
TN303 2013-10-30T17:51:00.00Z -12.005377 -79.19548 0.11 0.0
TN303 2013-10-30T17:51:59.00Z -12.00537 -79.195485 0.17 0.0
TN303 2013-10-30T17:52:59.00Z -12.005368 -79.195492 0.06 0.0
TN303 2013-10-30T17:54:00.00Z -12.00538 -79.195485 0.16 315.45
TN303 2013-10-30T17:54:59.00Z -12.005383 -79.195493 0.0 0.0
TN303 2013-10-30T17:56:00.00Z -12.00538 -79.195495 0.22 180.0
TN303 2013-10-30T17:56:59.00Z -12.00538 -79.195495 0.11 0.0
TN303 2013-10-30T17:58:00.00Z -12.005377 -79.195493 0.11 270.0
TN303 2013-10-30T17:59:00.00Z -12.005382 -79.19549 0.11 0.0
TN303 2013-10-30T17:59:59.00Z -12.00538 -79.195482 0.12 333.793
TN303 2013-10-30T18:01:00.00Z -12.005372 -79.195492 0.0 0.0
TN303 2013-10-30T18:01:59.00Z -12.005372 -79.195498 0.0 0.0
TN303 2013-10-30T18:03:00.00Z -12.00538 -79.1955 0.16 135.45
TN303 2013-10-30T18:04:00.00Z -12.005382 -79.195495 0.16 90.0
TN303 2013-10-30T18:04:59.00Z -12.005378 -79.195487 0.17 0.0
TN303 2013-10-30T18:06:00.00Z -12.005372 -79.195482 0.17 251.294
TN303 2013-10-30T18:07:00.00Z -12.005375 -79.195478 0.22 270.0
TN303 2013-10-30T18:07:59.00Z -12.005373 -79.195473 0.35 230.901
TN303 2013-10-30T18:08:59.00Z -12.005375 -79.19548 0.16 270.0
TN303 2013-10-30T18:10:00.00Z -12.005382 -79.195485 0.16 315.45
TN303 2013-10-30T18:10:59.00Z -12.005382 -79.195492 0.16 44.55